<?xml version="1.0" encoding="UTF-8" standalone="no" ?>
<gpx xmlns="http://www.topografix.com/GPX/1/1" xmlns:xsi="http://www.w3.org/2001/XMLSchema-instance" xsi:schemaLocation="http://www.topografix.com/GPX/1/1 http://www.topografix.com/GPX/1/1/gpx.xsd" version="1.1" creator="VisuGPX - https://www.visugpx.com">
  <metadata>
    <name>Un morceau de Lyon-Free-VTT</name>
    <desc><![CDATA[Fait le 7/09/2014]]></desc>
  </metadata>
  <trk>
    <name><![CDATA[2014-09-07T07:21:08Z]]></name>
    <trkseg>
      <trkpt lat="45.80395" lon="4.83131">
        <ele>238</ele>
        <time>2014-09-07T07:21:08Z</time>
      </trkpt>
      <trkpt lat="45.80391" lon="4.83129">
        <ele>238</ele>
        <time>2014-09-07T07:21:11Z</time>
      </trkpt>
      <trkpt lat="45.80388" lon="4.83134">
        <ele>237</ele>
        <time>2014-09-07T07:21:15Z</time>
      </trkpt>
      <trkpt lat="45.80389" lon="4.83136">
        <ele>237</ele>
        <time>2014-09-07T07:21:16Z</time>
      </trkpt>
      <trkpt lat="45.80392" lon="4.83134">
        <ele>237</ele>
        <time>2014-09-07T07:21:18Z</time>
      </trkpt>
      <trkpt lat="45.80393" lon="4.83129">
        <ele>238</ele>
        <time>2014-09-07T07:21:20Z</time>
      </trkpt>
      <trkpt lat="45.80395" lon="4.83123">
        <ele>238</ele>
        <time>2014-09-07T07:21:23Z</time>
      </trkpt>
      <trkpt lat="45.80399" lon="4.83105">
        <ele>238</ele>
        <time>2014-09-07T07:21:29Z</time>
      </trkpt>
      <trkpt lat="45.80403" lon="4.83096">
        <ele>239</ele>
        <time>2014-09-07T07:21:32Z</time>
      </trkpt>
      <trkpt lat="45.80411" lon="4.83072">
        <ele>240</ele>
        <time>2014-09-07T07:21:38Z</time>
      </trkpt>
      <trkpt lat="45.80417" lon="4.83057">
        <ele>242</ele>
        <time>2014-09-07T07:21:42Z</time>
      </trkpt>
      <trkpt lat="45.80421" lon="4.83046">
        <ele>242</ele>
        <time>2014-09-07T07:21:45Z</time>
      </trkpt>
      <trkpt lat="45.80429" lon="4.83019">
        <ele>242</ele>
        <time>2014-09-07T07:21:52Z</time>
      </trkpt>
      <trkpt lat="45.80432" lon="4.83008">
        <ele>242</ele>
        <time>2014-09-07T07:21:55Z</time>
      </trkpt>
      <trkpt lat="45.80434" lon="4.82992">
        <ele>241</ele>
        <time>2014-09-07T07:21:59Z</time>
      </trkpt>
      <trkpt lat="45.80441" lon="4.82964">
        <ele>241</ele>
        <time>2014-09-07T07:22:06Z</time>
      </trkpt>
      <trkpt lat="45.80443" lon="4.82956">
        <ele>240</ele>
        <time>2014-09-07T07:22:08Z</time>
      </trkpt>
      <trkpt lat="45.80443" lon="4.82941">
        <ele>240</ele>
        <time>2014-09-07T07:22:11Z</time>
      </trkpt>
      <trkpt lat="45.80439" lon="4.82924">
        <ele>240</ele>
        <time>2014-09-07T07:22:14Z</time>
      </trkpt>
      <trkpt lat="45.80439" lon="4.82908">
        <ele>235</ele>
        <time>2014-09-07T07:22:17Z</time>
      </trkpt>
      <trkpt lat="45.80442" lon="4.82904">
        <ele>235</ele>
        <time>2014-09-07T07:22:18Z</time>
      </trkpt>
      <trkpt lat="45.80454" lon="4.82903">
        <ele>234</ele>
        <time>2014-09-07T07:22:20Z</time>
      </trkpt>
      <trkpt lat="45.80461" lon="4.82905">
        <ele>234</ele>
        <time>2014-09-07T07:22:21Z</time>
      </trkpt>
      <trkpt lat="45.80478" lon="4.82905">
        <ele>234</ele>
        <time>2014-09-07T07:22:23Z</time>
      </trkpt>
      <trkpt lat="45.80486" lon="4.82905">
        <ele>235</ele>
        <time>2014-09-07T07:22:24Z</time>
      </trkpt>
      <trkpt lat="45.8051" lon="4.82904">
        <ele>235</ele>
        <time>2014-09-07T07:22:27Z</time>
      </trkpt>
      <trkpt lat="45.80516" lon="4.82901">
        <ele>235</ele>
        <time>2014-09-07T07:22:28Z</time>
      </trkpt>
      <trkpt lat="45.80524" lon="4.82875">
        <ele>233</ele>
        <time>2014-09-07T07:22:31Z</time>
      </trkpt>
      <trkpt lat="45.80514" lon="4.82855">
        <ele>232</ele>
        <time>2014-09-07T07:22:33Z</time>
      </trkpt>
      <trkpt lat="45.80495" lon="4.82844">
        <ele>230</ele>
        <time>2014-09-07T07:22:35Z</time>
      </trkpt>
      <trkpt lat="45.80486" lon="4.82839">
        <ele>230</ele>
        <time>2014-09-07T07:22:36Z</time>
      </trkpt>
      <trkpt lat="45.80479" lon="4.82835">
        <ele>230</ele>
        <time>2014-09-07T07:22:37Z</time>
      </trkpt>
      <trkpt lat="45.80473" lon="4.82832">
        <ele>227</ele>
        <time>2014-09-07T07:22:38Z</time>
      </trkpt>
      <trkpt lat="45.80467" lon="4.82827">
        <ele>227</ele>
        <time>2014-09-07T07:22:39Z</time>
      </trkpt>
      <trkpt lat="45.80458" lon="4.82814">
        <ele>227</ele>
        <time>2014-09-07T07:22:41Z</time>
      </trkpt>
      <trkpt lat="45.80453" lon="4.82797">
        <ele>227</ele>
        <time>2014-09-07T07:22:43Z</time>
      </trkpt>
      <trkpt lat="45.80451" lon="4.8279">
        <ele>227</ele>
        <time>2014-09-07T07:22:44Z</time>
      </trkpt>
      <trkpt lat="45.80451" lon="4.82785">
        <ele>227</ele>
        <time>2014-09-07T07:22:45Z</time>
      </trkpt>
      <trkpt lat="45.80448" lon="4.82776">
        <ele>227</ele>
        <time>2014-09-07T07:22:47Z</time>
      </trkpt>
      <trkpt lat="45.80446" lon="4.82776">
        <ele>227</ele>
        <time>2014-09-07T07:22:48Z</time>
      </trkpt>
      <trkpt lat="45.80435" lon="4.82779">
        <ele>227</ele>
        <time>2014-09-07T07:22:51Z</time>
      </trkpt>
      <trkpt lat="45.80426" lon="4.8278">
        <ele>226</ele>
        <time>2014-09-07T07:22:53Z</time>
      </trkpt>
      <trkpt lat="45.80414" lon="4.82777">
        <ele>226</ele>
        <time>2014-09-07T07:22:57Z</time>
      </trkpt>
      <trkpt lat="45.80411" lon="4.82757">
        <ele>225</ele>
        <time>2014-09-07T07:23:01Z</time>
      </trkpt>
      <trkpt lat="45.8041" lon="4.82745">
        <ele>227</ele>
        <time>2014-09-07T07:23:03Z</time>
      </trkpt>
      <trkpt lat="45.80406" lon="4.82722">
        <ele>230</ele>
        <time>2014-09-07T07:23:08Z</time>
      </trkpt>
      <trkpt lat="45.80408" lon="4.82721">
        <ele>230</ele>
        <time>2014-09-07T07:23:12Z</time>
      </trkpt>
      <trkpt lat="45.80405" lon="4.82717">
        <ele>231</ele>
        <time>2014-09-07T07:23:20Z</time>
      </trkpt>
      <trkpt lat="45.80402" lon="4.82717">
        <ele>231</ele>
        <time>2014-09-07T07:23:21Z</time>
      </trkpt>
      <trkpt lat="45.80392" lon="4.82717">
        <ele>231</ele>
        <time>2014-09-07T07:23:24Z</time>
      </trkpt>
      <trkpt lat="45.80388" lon="4.82718">
        <ele>231</ele>
        <time>2014-09-07T07:23:25Z</time>
      </trkpt>
      <trkpt lat="45.80383" lon="4.82718">
        <ele>231</ele>
        <time>2014-09-07T07:23:26Z</time>
      </trkpt>
      <trkpt lat="45.80373" lon="4.82721">
        <ele>231</ele>
        <time>2014-09-07T07:23:28Z</time>
      </trkpt>
      <trkpt lat="45.80359" lon="4.82729">
        <ele>230</ele>
        <time>2014-09-07T07:23:31Z</time>
      </trkpt>
      <trkpt lat="45.80351" lon="4.82736">
        <ele>230</ele>
        <time>2014-09-07T07:23:33Z</time>
      </trkpt>
      <trkpt lat="45.8033" lon="4.8275">
        <ele>227</ele>
        <time>2014-09-07T07:23:37Z</time>
      </trkpt>
      <trkpt lat="45.80318" lon="4.82759">
        <ele>227</ele>
        <time>2014-09-07T07:23:39Z</time>
      </trkpt>
      <trkpt lat="45.80307" lon="4.82768">
        <ele>227</ele>
        <time>2014-09-07T07:23:41Z</time>
      </trkpt>
      <trkpt lat="45.80295" lon="4.82777">
        <ele>227</ele>
        <time>2014-09-07T07:23:43Z</time>
      </trkpt>
      <trkpt lat="45.80283" lon="4.82787">
        <ele>227</ele>
        <time>2014-09-07T07:23:45Z</time>
      </trkpt>
      <trkpt lat="45.80269" lon="4.82802">
        <ele>226</ele>
        <time>2014-09-07T07:23:48Z</time>
      </trkpt>
      <trkpt lat="45.8025" lon="4.82814">
        <ele>225</ele>
        <time>2014-09-07T07:23:51Z</time>
      </trkpt>
      <trkpt lat="45.80229" lon="4.82821">
        <ele>226</ele>
        <time>2014-09-07T07:23:54Z</time>
      </trkpt>
      <trkpt lat="45.8021" lon="4.82828">
        <ele>227</ele>
        <time>2014-09-07T07:23:57Z</time>
      </trkpt>
      <trkpt lat="45.80204" lon="4.82833">
        <ele>228</ele>
        <time>2014-09-07T07:23:58Z</time>
      </trkpt>
      <trkpt lat="45.80188" lon="4.82863">
        <ele>225</ele>
        <time>2014-09-07T07:24:02Z</time>
      </trkpt>
      <trkpt lat="45.80186" lon="4.82872">
        <ele>225</ele>
        <time>2014-09-07T07:24:03Z</time>
      </trkpt>
      <trkpt lat="45.80185" lon="4.82882">
        <ele>224</ele>
        <time>2014-09-07T07:24:04Z</time>
      </trkpt>
      <trkpt lat="45.8018" lon="4.82909">
        <ele>223</ele>
        <time>2014-09-07T07:24:07Z</time>
      </trkpt>
      <trkpt lat="45.80174" lon="4.82924">
        <ele>222</ele>
        <time>2014-09-07T07:24:09Z</time>
      </trkpt>
      <trkpt lat="45.80165" lon="4.82945">
        <ele>223</ele>
        <time>2014-09-07T07:24:12Z</time>
      </trkpt>
      <trkpt lat="45.80159" lon="4.82966">
        <ele>223</ele>
        <time>2014-09-07T07:24:16Z</time>
      </trkpt>
      <trkpt lat="45.80157" lon="4.82968">
        <ele>223</ele>
        <time>2014-09-07T07:24:17Z</time>
      </trkpt>
      <trkpt lat="45.80154" lon="4.82968">
        <ele>223</ele>
        <time>2014-09-07T07:24:18Z</time>
      </trkpt>
      <trkpt lat="45.80152" lon="4.82964">
        <ele>223</ele>
        <time>2014-09-07T07:24:19Z</time>
      </trkpt>
      <trkpt lat="45.80152" lon="4.82946">
        <ele>224</ele>
        <time>2014-09-07T07:24:22Z</time>
      </trkpt>
      <trkpt lat="45.80153" lon="4.82933">
        <ele>224</ele>
        <time>2014-09-07T07:24:24Z</time>
      </trkpt>
      <trkpt lat="45.80155" lon="4.82915">
        <ele>225</ele>
        <time>2014-09-07T07:24:27Z</time>
      </trkpt>
      <trkpt lat="45.80156" lon="4.82898">
        <ele>226</ele>
        <time>2014-09-07T07:24:30Z</time>
      </trkpt>
      <trkpt lat="45.80154" lon="4.82892">
        <ele>227</ele>
        <time>2014-09-07T07:24:31Z</time>
      </trkpt>
      <trkpt lat="45.80148" lon="4.82873">
        <ele>228</ele>
        <time>2014-09-07T07:24:34Z</time>
      </trkpt>
      <trkpt lat="45.80144" lon="4.8287">
        <ele>228</ele>
        <time>2014-09-07T07:24:35Z</time>
      </trkpt>
      <trkpt lat="45.80135" lon="4.82867">
        <ele>228</ele>
        <time>2014-09-07T07:24:37Z</time>
      </trkpt>
      <trkpt lat="45.80114" lon="4.82866">
        <ele>229</ele>
        <time>2014-09-07T07:24:43Z</time>
      </trkpt>
      <trkpt lat="45.80107" lon="4.82865">
        <ele>230</ele>
        <time>2014-09-07T07:24:45Z</time>
      </trkpt>
      <trkpt lat="45.80092" lon="4.82865">
        <ele>230</ele>
        <time>2014-09-07T07:24:50Z</time>
      </trkpt>
      <trkpt lat="45.80087" lon="4.82869">
        <ele>230</ele>
        <time>2014-09-07T07:24:52Z</time>
      </trkpt>
      <trkpt lat="45.80084" lon="4.82872">
        <ele>230</ele>
        <time>2014-09-07T07:24:54Z</time>
      </trkpt>
      <trkpt lat="45.80084" lon="4.82878">
        <ele>230</ele>
        <time>2014-09-07T07:24:56Z</time>
      </trkpt>
      <trkpt lat="45.80082" lon="4.82898">
        <ele>231</ele>
        <time>2014-09-07T07:24:58Z</time>
      </trkpt>
      <trkpt lat="45.80089" lon="4.82928">
        <ele>229</ele>
        <time>2014-09-07T07:25:02Z</time>
      </trkpt>
      <trkpt lat="45.80091" lon="4.8294">
        <ele>228</ele>
        <time>2014-09-07T07:25:04Z</time>
      </trkpt>
      <trkpt lat="45.80092" lon="4.82947">
        <ele>227</ele>
        <time>2014-09-07T07:25:05Z</time>
      </trkpt>
      <trkpt lat="45.80093" lon="4.82962">
        <ele>227</ele>
        <time>2014-09-07T07:25:07Z</time>
      </trkpt>
      <trkpt lat="45.80093" lon="4.82979">
        <ele>226</ele>
        <time>2014-09-07T07:25:09Z</time>
      </trkpt>
      <trkpt lat="45.80088" lon="4.82994">
        <ele>227</ele>
        <time>2014-09-07T07:25:11Z</time>
      </trkpt>
      <trkpt lat="45.80083" lon="4.83001">
        <ele>228</ele>
        <time>2014-09-07T07:25:12Z</time>
      </trkpt>
      <trkpt lat="45.80069" lon="4.83008">
        <ele>225</ele>
        <time>2014-09-07T07:25:14Z</time>
      </trkpt>
      <trkpt lat="45.80053" lon="4.83">
        <ele>224</ele>
        <time>2014-09-07T07:25:16Z</time>
      </trkpt>
      <trkpt lat="45.80047" lon="4.82992">
        <ele>227</ele>
        <time>2014-09-07T07:25:17Z</time>
      </trkpt>
      <trkpt lat="45.80037" lon="4.82977">
        <ele>227</ele>
        <time>2014-09-07T07:25:19Z</time>
      </trkpt>
      <trkpt lat="45.8003" lon="4.8296">
        <ele>227</ele>
        <time>2014-09-07T07:25:21Z</time>
      </trkpt>
      <trkpt lat="45.80023" lon="4.82946">
        <ele>227</ele>
        <time>2014-09-07T07:25:23Z</time>
      </trkpt>
      <trkpt lat="45.80021" lon="4.82939">
        <ele>227</ele>
        <time>2014-09-07T07:25:24Z</time>
      </trkpt>
      <trkpt lat="45.80016" lon="4.82926">
        <ele>227</ele>
        <time>2014-09-07T07:25:26Z</time>
      </trkpt>
      <trkpt lat="45.80005" lon="4.82905">
        <ele>227</ele>
        <time>2014-09-07T07:25:29Z</time>
      </trkpt>
      <trkpt lat="45.80001" lon="4.82899">
        <ele>228</ele>
        <time>2014-09-07T07:25:30Z</time>
      </trkpt>
      <trkpt lat="45.79992" lon="4.82878">
        <ele>219</ele>
        <time>2014-09-07T07:25:33Z</time>
      </trkpt>
      <trkpt lat="45.79988" lon="4.82864">
        <ele>219</ele>
        <time>2014-09-07T07:25:35Z</time>
      </trkpt>
      <trkpt lat="45.79986" lon="4.82848">
        <ele>221</ele>
        <time>2014-09-07T07:25:37Z</time>
      </trkpt>
      <trkpt lat="45.79984" lon="4.82817">
        <ele>223</ele>
        <time>2014-09-07T07:25:41Z</time>
      </trkpt>
      <trkpt lat="45.79984" lon="4.82793">
        <ele>222</ele>
        <time>2014-09-07T07:25:45Z</time>
      </trkpt>
      <trkpt lat="45.79984" lon="4.82789">
        <ele>222</ele>
        <time>2014-09-07T07:25:46Z</time>
      </trkpt>
      <trkpt lat="45.79982" lon="4.82783">
        <ele>223</ele>
        <time>2014-09-07T07:25:50Z</time>
      </trkpt>
      <trkpt lat="45.79979" lon="4.82781">
        <ele>223</ele>
        <time>2014-09-07T07:25:56Z</time>
      </trkpt>
      <trkpt lat="45.7999" lon="4.82783">
        <ele>223</ele>
        <time>2014-09-07T07:26:28Z</time>
      </trkpt>
      <trkpt lat="45.79994" lon="4.82783">
        <ele>224</ele>
        <time>2014-09-07T07:26:36Z</time>
      </trkpt>
      <trkpt lat="45.79992" lon="4.82781">
        <ele>224</ele>
        <time>2014-09-07T07:26:41Z</time>
      </trkpt>
      <trkpt lat="45.79989" lon="4.82783">
        <ele>223</ele>
        <time>2014-09-07T07:26:43Z</time>
      </trkpt>
      <trkpt lat="45.79982" lon="4.82799">
        <ele>222</ele>
        <time>2014-09-07T07:26:47Z</time>
      </trkpt>
      <trkpt lat="45.7997" lon="4.82826">
        <ele>221</ele>
        <time>2014-09-07T07:26:51Z</time>
      </trkpt>
      <trkpt lat="45.79965" lon="4.82835">
        <ele>217</ele>
        <time>2014-09-07T07:26:52Z</time>
      </trkpt>
      <trkpt lat="45.79959" lon="4.82845">
        <ele>216</ele>
        <time>2014-09-07T07:26:53Z</time>
      </trkpt>
      <trkpt lat="45.79953" lon="4.82854">
        <ele>215</ele>
        <time>2014-09-07T07:26:54Z</time>
      </trkpt>
      <trkpt lat="45.79925" lon="4.82881">
        <ele>212</ele>
        <time>2014-09-07T07:26:58Z</time>
      </trkpt>
      <trkpt lat="45.79908" lon="4.82897">
        <ele>197</ele>
        <time>2014-09-07T07:27:01Z</time>
      </trkpt>
      <trkpt lat="45.79904" lon="4.82903">
        <ele>197</ele>
        <time>2014-09-07T07:27:02Z</time>
      </trkpt>
      <trkpt lat="45.79908" lon="4.82924">
        <ele>197</ele>
        <time>2014-09-07T07:27:05Z</time>
      </trkpt>
      <trkpt lat="45.79915" lon="4.8295">
        <ele>193</ele>
        <time>2014-09-07T07:27:08Z</time>
      </trkpt>
      <trkpt lat="45.79921" lon="4.82968">
        <ele>207</ele>
        <time>2014-09-07T07:27:12Z</time>
      </trkpt>
      <trkpt lat="45.79924" lon="4.82974">
        <ele>206</ele>
        <time>2014-09-07T07:27:14Z</time>
      </trkpt>
      <trkpt lat="45.79923" lon="4.82977">
        <ele>205</ele>
        <time>2014-09-07T07:27:15Z</time>
      </trkpt>
      <trkpt lat="45.79922" lon="4.82977">
        <ele>205</ele>
        <time>2014-09-07T07:27:16Z</time>
      </trkpt>
      <trkpt lat="45.79916" lon="4.82972">
        <ele>192</ele>
        <time>2014-09-07T07:27:20Z</time>
      </trkpt>
      <trkpt lat="45.79912" lon="4.82989">
        <ele>193</ele>
        <time>2014-09-07T07:27:23Z</time>
      </trkpt>
      <trkpt lat="45.79913" lon="4.83006">
        <ele>192</ele>
        <time>2014-09-07T07:27:25Z</time>
      </trkpt>
      <trkpt lat="45.79912" lon="4.83018">
        <ele>189</ele>
        <time>2014-09-07T07:27:27Z</time>
      </trkpt>
      <trkpt lat="45.79902" lon="4.83007">
        <ele>189</ele>
        <time>2014-09-07T07:27:30Z</time>
      </trkpt>
      <trkpt lat="45.7989" lon="4.82985">
        <ele>190</ele>
        <time>2014-09-07T07:27:33Z</time>
      </trkpt>
      <trkpt lat="45.79887" lon="4.82979">
        <ele>189</ele>
        <time>2014-09-07T07:27:34Z</time>
      </trkpt>
      <trkpt lat="45.79884" lon="4.82974">
        <ele>189</ele>
        <time>2014-09-07T07:27:35Z</time>
      </trkpt>
      <trkpt lat="45.79877" lon="4.82965">
        <ele>188</ele>
        <time>2014-09-07T07:27:38Z</time>
      </trkpt>
      <trkpt lat="45.79876" lon="4.82963">
        <ele>188</ele>
        <time>2014-09-07T07:27:40Z</time>
      </trkpt>
      <trkpt lat="45.79874" lon="4.82963">
        <ele>188</ele>
        <time>2014-09-07T07:27:41Z</time>
      </trkpt>
      <trkpt lat="45.79877" lon="4.82975">
        <ele>188</ele>
        <time>2014-09-07T07:27:45Z</time>
      </trkpt>
      <trkpt lat="45.79879" lon="4.82989">
        <ele>188</ele>
        <time>2014-09-07T07:27:48Z</time>
      </trkpt>
      <trkpt lat="45.7988" lon="4.83005">
        <ele>184</ele>
        <time>2014-09-07T07:27:51Z</time>
      </trkpt>
      <trkpt lat="45.79884" lon="4.83017">
        <ele>185</ele>
        <time>2014-09-07T07:27:53Z</time>
      </trkpt>
      <trkpt lat="45.79889" lon="4.83031">
        <ele>184</ele>
        <time>2014-09-07T07:27:55Z</time>
      </trkpt>
      <trkpt lat="45.79892" lon="4.8304">
        <ele>184</ele>
        <time>2014-09-07T07:27:56Z</time>
      </trkpt>
      <trkpt lat="45.79893" lon="4.83056">
        <ele>183</ele>
        <time>2014-09-07T07:27:59Z</time>
      </trkpt>
      <trkpt lat="45.79884" lon="4.83052">
        <ele>183</ele>
        <time>2014-09-07T07:28:02Z</time>
      </trkpt>
      <trkpt lat="45.79878" lon="4.83033">
        <ele>183</ele>
        <time>2014-09-07T07:28:04Z</time>
      </trkpt>
      <trkpt lat="45.79874" lon="4.83024">
        <ele>183</ele>
        <time>2014-09-07T07:28:05Z</time>
      </trkpt>
      <trkpt lat="45.7987" lon="4.83017">
        <ele>182</ele>
        <time>2014-09-07T07:28:06Z</time>
      </trkpt>
      <trkpt lat="45.79862" lon="4.83016">
        <ele>181</ele>
        <time>2014-09-07T07:28:08Z</time>
      </trkpt>
      <trkpt lat="45.79846" lon="4.83022">
        <ele>179</ele>
        <time>2014-09-07T07:28:10Z</time>
      </trkpt>
      <trkpt lat="45.7984" lon="4.83023">
        <ele>179</ele>
        <time>2014-09-07T07:28:11Z</time>
      </trkpt>
      <trkpt lat="45.79834" lon="4.83022">
        <ele>179</ele>
        <time>2014-09-07T07:28:12Z</time>
      </trkpt>
      <trkpt lat="45.79825" lon="4.83013">
        <ele>173</ele>
        <time>2014-09-07T07:28:14Z</time>
      </trkpt>
      <trkpt lat="45.79809" lon="4.82997">
        <ele>173</ele>
        <time>2014-09-07T07:28:17Z</time>
      </trkpt>
      <trkpt lat="45.79797" lon="4.82991">
        <ele>172</ele>
        <time>2014-09-07T07:28:19Z</time>
      </trkpt>
      <trkpt lat="45.79782" lon="4.83">
        <ele>170</ele>
        <time>2014-09-07T07:28:22Z</time>
      </trkpt>
      <trkpt lat="45.7978" lon="4.83007">
        <ele>169</ele>
        <time>2014-09-07T07:28:24Z</time>
      </trkpt>
      <trkpt lat="45.79781" lon="4.83022">
        <ele>169</ele>
        <time>2014-09-07T07:28:25Z</time>
      </trkpt>
      <trkpt lat="45.79784" lon="4.83029">
        <ele>169</ele>
        <time>2014-09-07T07:28:26Z</time>
      </trkpt>
      <trkpt lat="45.7979" lon="4.83049">
        <ele>169</ele>
        <time>2014-09-07T07:28:29Z</time>
      </trkpt>
      <trkpt lat="45.79789" lon="4.83056">
        <ele>169</ele>
        <time>2014-09-07T07:28:30Z</time>
      </trkpt>
      <trkpt lat="45.79787" lon="4.83062">
        <ele>169</ele>
        <time>2014-09-07T07:28:31Z</time>
      </trkpt>
      <trkpt lat="45.79777" lon="4.83066">
        <ele>168</ele>
        <time>2014-09-07T07:28:33Z</time>
      </trkpt>
      <trkpt lat="45.79772" lon="4.83068">
        <ele>168</ele>
        <time>2014-09-07T07:28:34Z</time>
      </trkpt>
      <trkpt lat="45.79754" lon="4.8308">
        <ele>166</ele>
        <time>2014-09-07T07:28:38Z</time>
      </trkpt>
      <trkpt lat="45.79729" lon="4.83096">
        <ele>165</ele>
        <time>2014-09-07T07:28:44Z</time>
      </trkpt>
      <trkpt lat="45.7972" lon="4.83103">
        <ele>165</ele>
        <time>2014-09-07T07:28:45Z</time>
      </trkpt>
      <trkpt lat="45.79713" lon="4.83109">
        <ele>165</ele>
        <time>2014-09-07T07:28:48Z</time>
      </trkpt>
      <trkpt lat="45.79703" lon="4.83112">
        <ele>165</ele>
        <time>2014-09-07T07:28:54Z</time>
      </trkpt>
      <trkpt lat="45.79691" lon="4.83119">
        <ele>165</ele>
        <time>2014-09-07T07:28:59Z</time>
      </trkpt>
      <trkpt lat="45.79685" lon="4.83124">
        <ele>165</ele>
        <time>2014-09-07T07:29:01Z</time>
      </trkpt>
      <trkpt lat="45.79673" lon="4.83133">
        <ele>165</ele>
        <time>2014-09-07T07:29:05Z</time>
      </trkpt>
      <trkpt lat="45.7965" lon="4.83148">
        <ele>172</ele>
        <time>2014-09-07T07:29:11Z</time>
      </trkpt>
      <trkpt lat="45.79646" lon="4.83151">
        <ele>172</ele>
        <time>2014-09-07T07:29:12Z</time>
      </trkpt>
      <trkpt lat="45.79619" lon="4.8317">
        <ele>182</ele>
        <time>2014-09-07T07:29:19Z</time>
      </trkpt>
      <trkpt lat="45.79615" lon="4.83173">
        <ele>183</ele>
        <time>2014-09-07T07:29:20Z</time>
      </trkpt>
      <trkpt lat="45.79606" lon="4.83175">
        <ele>185</ele>
        <time>2014-09-07T07:29:24Z</time>
      </trkpt>
      <trkpt lat="45.79605" lon="4.8316">
        <ele>181</ele>
        <time>2014-09-07T07:29:27Z</time>
      </trkpt>
      <trkpt lat="45.79604" lon="4.83154">
        <ele>181</ele>
        <time>2014-09-07T07:29:28Z</time>
      </trkpt>
      <trkpt lat="45.79602" lon="4.83141">
        <ele>180</ele>
        <time>2014-09-07T07:29:30Z</time>
      </trkpt>
      <trkpt lat="45.796" lon="4.83135">
        <ele>179</ele>
        <time>2014-09-07T07:29:32Z</time>
      </trkpt>
      <trkpt lat="45.7959" lon="4.83092">
        <ele>179</ele>
        <time>2014-09-07T07:29:38Z</time>
      </trkpt>
      <trkpt lat="45.79585" lon="4.83071">
        <ele>176</ele>
        <time>2014-09-07T07:29:41Z</time>
      </trkpt>
      <trkpt lat="45.7958" lon="4.83057">
        <ele>179</ele>
        <time>2014-09-07T07:29:44Z</time>
      </trkpt>
      <trkpt lat="45.79575" lon="4.83043">
        <ele>177</ele>
        <time>2014-09-07T07:29:45Z</time>
      </trkpt>
      <trkpt lat="45.7956" lon="4.83009">
        <ele>174</ele>
        <time>2014-09-07T07:29:50Z</time>
      </trkpt>
      <trkpt lat="45.79554" lon="4.82995">
        <ele>169</ele>
        <time>2014-09-07T07:29:53Z</time>
      </trkpt>
      <trkpt lat="45.79533" lon="4.82943">
        <ele>170</ele>
        <time>2014-09-07T07:30:00Z</time>
      </trkpt>
      <trkpt lat="45.79518" lon="4.82909">
        <ele>168</ele>
        <time>2014-09-07T07:30:07Z</time>
      </trkpt>
      <trkpt lat="45.79515" lon="4.82903">
        <ele>168</ele>
        <time>2014-09-07T07:30:08Z</time>
      </trkpt>
      <trkpt lat="45.79499" lon="4.82868">
        <ele>171</ele>
        <time>2014-09-07T07:30:13Z</time>
      </trkpt>
      <trkpt lat="45.79494" lon="4.8286">
        <ele>170</ele>
        <time>2014-09-07T07:30:14Z</time>
      </trkpt>
      <trkpt lat="45.79479" lon="4.82837">
        <ele>170</ele>
        <time>2014-09-07T07:30:18Z</time>
      </trkpt>
      <trkpt lat="45.79472" lon="4.82828">
        <ele>167</ele>
        <time>2014-09-07T07:30:22Z</time>
      </trkpt>
      <trkpt lat="45.79466" lon="4.8282">
        <ele>167</ele>
        <time>2014-09-07T07:30:27Z</time>
      </trkpt>
      <trkpt lat="45.79464" lon="4.82817">
        <ele>167</ele>
        <time>2014-09-07T07:30:30Z</time>
      </trkpt>
      <trkpt lat="45.7946" lon="4.82813">
        <ele>167</ele>
        <time>2014-09-07T07:30:35Z</time>
      </trkpt>
      <trkpt lat="45.79457" lon="4.8281">
        <ele>167</ele>
        <time>2014-09-07T07:30:37Z</time>
      </trkpt>
      <trkpt lat="45.7945" lon="4.828">
        <ele>167</ele>
        <time>2014-09-07T07:30:41Z</time>
      </trkpt>
      <trkpt lat="45.79435" lon="4.82792">
        <ele>168</ele>
        <time>2014-09-07T07:30:44Z</time>
      </trkpt>
      <trkpt lat="45.79422" lon="4.82801">
        <ele>168</ele>
        <time>2014-09-07T07:30:47Z</time>
      </trkpt>
      <trkpt lat="45.79418" lon="4.8281">
        <ele>169</ele>
        <time>2014-09-07T07:30:49Z</time>
      </trkpt>
      <trkpt lat="45.79411" lon="4.82824">
        <ele>172</ele>
        <time>2014-09-07T07:30:53Z</time>
      </trkpt>
      <trkpt lat="45.79408" lon="4.8283">
        <ele>172</ele>
        <time>2014-09-07T07:30:55Z</time>
      </trkpt>
      <trkpt lat="45.79402" lon="4.82845">
        <ele>177</ele>
        <time>2014-09-07T07:30:59Z</time>
      </trkpt>
      <trkpt lat="45.79397" lon="4.82865">
        <ele>179</ele>
        <time>2014-09-07T07:31:03Z</time>
      </trkpt>
      <trkpt lat="45.79398" lon="4.8288">
        <ele>180</ele>
        <time>2014-09-07T07:31:08Z</time>
      </trkpt>
      <trkpt lat="45.79401" lon="4.8289">
        <ele>181</ele>
        <time>2014-09-07T07:31:11Z</time>
      </trkpt>
      <trkpt lat="45.79411" lon="4.82915">
        <ele>183</ele>
        <time>2014-09-07T07:31:19Z</time>
      </trkpt>
      <trkpt lat="45.79417" lon="4.82926">
        <ele>184</ele>
        <time>2014-09-07T07:31:23Z</time>
      </trkpt>
      <trkpt lat="45.79419" lon="4.82929">
        <ele>184</ele>
        <time>2014-09-07T07:31:24Z</time>
      </trkpt>
      <trkpt lat="45.79419" lon="4.82935">
        <ele>184</ele>
        <time>2014-09-07T07:31:26Z</time>
      </trkpt>
      <trkpt lat="45.79418" lon="4.82939">
        <ele>184</ele>
        <time>2014-09-07T07:31:28Z</time>
      </trkpt>
      <trkpt lat="45.79406" lon="4.82942">
        <ele>191</ele>
        <time>2014-09-07T07:31:32Z</time>
      </trkpt>
      <trkpt lat="45.79394" lon="4.8294">
        <ele>191</ele>
        <time>2014-09-07T07:31:37Z</time>
      </trkpt>
      <trkpt lat="45.79393" lon="4.8294">
        <ele>191</ele>
        <time>2014-09-07T07:31:39Z</time>
      </trkpt>
      <trkpt lat="45.79391" lon="4.82939">
        <ele>191</ele>
        <time>2014-09-07T07:31:40Z</time>
      </trkpt>
      <trkpt lat="45.79378" lon="4.82933">
        <ele>191</ele>
        <time>2014-09-07T07:31:46Z</time>
      </trkpt>
      <trkpt lat="45.79369" lon="4.82935">
        <ele>192</ele>
        <time>2014-09-07T07:31:53Z</time>
      </trkpt>
      <trkpt lat="45.79359" lon="4.82944">
        <ele>193</ele>
        <time>2014-09-07T07:32:00Z</time>
      </trkpt>
      <trkpt lat="45.79355" lon="4.82948">
        <ele>193</ele>
        <time>2014-09-07T07:32:03Z</time>
      </trkpt>
      <trkpt lat="45.79342" lon="4.82959">
        <ele>195</ele>
        <time>2014-09-07T07:32:14Z</time>
      </trkpt>
      <trkpt lat="45.79328" lon="4.82968">
        <ele>201</ele>
        <time>2014-09-07T07:32:24Z</time>
      </trkpt>
      <trkpt lat="45.79326" lon="4.82967">
        <ele>201</ele>
        <time>2014-09-07T07:32:25Z</time>
      </trkpt>
      <trkpt lat="45.79315" lon="4.82972">
        <ele>202</ele>
        <time>2014-09-07T07:32:30Z</time>
      </trkpt>
      <trkpt lat="45.79307" lon="4.82981">
        <ele>203</ele>
        <time>2014-09-07T07:32:37Z</time>
      </trkpt>
      <trkpt lat="45.79297" lon="4.8299">
        <ele>204</ele>
        <time>2014-09-07T07:32:44Z</time>
      </trkpt>
      <trkpt lat="45.79295" lon="4.82993">
        <ele>204</ele>
        <time>2014-09-07T07:32:46Z</time>
      </trkpt>
      <trkpt lat="45.79286" lon="4.82998">
        <ele>205</ele>
        <time>2014-09-07T07:32:51Z</time>
      </trkpt>
      <trkpt lat="45.79277" lon="4.83002">
        <ele>217</ele>
        <time>2014-09-07T07:32:56Z</time>
      </trkpt>
      <trkpt lat="45.79266" lon="4.83005">
        <ele>218</ele>
        <time>2014-09-07T07:33:03Z</time>
      </trkpt>
      <trkpt lat="45.7926" lon="4.8301">
        <ele>218</ele>
        <time>2014-09-07T07:33:08Z</time>
      </trkpt>
      <trkpt lat="45.79259" lon="4.83011">
        <ele>218</ele>
        <time>2014-09-07T07:33:09Z</time>
      </trkpt>
      <trkpt lat="45.79251" lon="4.83016">
        <ele>218</ele>
        <time>2014-09-07T07:33:14Z</time>
      </trkpt>
      <trkpt lat="45.79243" lon="4.83021">
        <ele>224</ele>
        <time>2014-09-07T07:33:21Z</time>
      </trkpt>
      <trkpt lat="45.7923" lon="4.83029">
        <ele>226</ele>
        <time>2014-09-07T07:33:27Z</time>
      </trkpt>
      <trkpt lat="45.79227" lon="4.83031">
        <ele>227</ele>
        <time>2014-09-07T07:33:30Z</time>
      </trkpt>
      <trkpt lat="45.79219" lon="4.83033">
        <ele>227</ele>
        <time>2014-09-07T07:33:33Z</time>
      </trkpt>
      <trkpt lat="45.79208" lon="4.83032">
        <ele>228</ele>
        <time>2014-09-07T07:33:42Z</time>
      </trkpt>
      <trkpt lat="45.79195" lon="4.83029">
        <ele>228</ele>
        <time>2014-09-07T07:33:50Z</time>
      </trkpt>
      <trkpt lat="45.79191" lon="4.83027">
        <ele>228</ele>
        <time>2014-09-07T07:33:53Z</time>
      </trkpt>
      <trkpt lat="45.79181" lon="4.83027">
        <ele>229</ele>
        <time>2014-09-07T07:33:59Z</time>
      </trkpt>
      <trkpt lat="45.79167" lon="4.83031">
        <ele>229</ele>
        <time>2014-09-07T07:34:07Z</time>
      </trkpt>
      <trkpt lat="45.79155" lon="4.83031">
        <ele>234</ele>
        <time>2014-09-07T07:34:13Z</time>
      </trkpt>
      <trkpt lat="45.79153" lon="4.83032">
        <ele>234</ele>
        <time>2014-09-07T07:34:15Z</time>
      </trkpt>
      <trkpt lat="45.79137" lon="4.83031">
        <ele>235</ele>
        <time>2014-09-07T07:34:24Z</time>
      </trkpt>
      <trkpt lat="45.79124" lon="4.83027">
        <ele>235</ele>
        <time>2014-09-07T07:34:31Z</time>
      </trkpt>
      <trkpt lat="45.79118" lon="4.83028">
        <ele>236</ele>
        <time>2014-09-07T07:34:36Z</time>
      </trkpt>
      <trkpt lat="45.79112" lon="4.83029">
        <ele>236</ele>
        <time>2014-09-07T07:34:39Z</time>
      </trkpt>
      <trkpt lat="45.79096" lon="4.8303">
        <ele>236</ele>
        <time>2014-09-07T07:34:50Z</time>
      </trkpt>
      <trkpt lat="45.79082" lon="4.83028">
        <ele>239</ele>
        <time>2014-09-07T07:34:59Z</time>
      </trkpt>
      <trkpt lat="45.79068" lon="4.8303">
        <ele>240</ele>
        <time>2014-09-07T07:35:08Z</time>
      </trkpt>
      <trkpt lat="45.79062" lon="4.83039">
        <ele>241</ele>
        <time>2014-09-07T07:35:14Z</time>
      </trkpt>
      <trkpt lat="45.79056" lon="4.83056">
        <ele>242</ele>
        <time>2014-09-07T07:35:21Z</time>
      </trkpt>
      <trkpt lat="45.79051" lon="4.83073">
        <ele>243</ele>
        <time>2014-09-07T07:35:30Z</time>
      </trkpt>
      <trkpt lat="45.7905" lon="4.83075">
        <ele>243</ele>
        <time>2014-09-07T07:35:31Z</time>
      </trkpt>
      <trkpt lat="45.79043" lon="4.83077">
        <ele>243</ele>
        <time>2014-09-07T07:35:35Z</time>
      </trkpt>
      <trkpt lat="45.79032" lon="4.83077">
        <ele>243</ele>
        <time>2014-09-07T07:35:39Z</time>
      </trkpt>
      <trkpt lat="45.79028" lon="4.83077">
        <ele>243</ele>
        <time>2014-09-07T07:35:40Z</time>
      </trkpt>
      <trkpt lat="45.79001" lon="4.83072">
        <ele>244</ele>
        <time>2014-09-07T07:35:49Z</time>
      </trkpt>
      <trkpt lat="45.78992" lon="4.83072">
        <ele>245</ele>
        <time>2014-09-07T07:35:52Z</time>
      </trkpt>
      <trkpt lat="45.78976" lon="4.83072">
        <ele>245</ele>
        <time>2014-09-07T07:35:57Z</time>
      </trkpt>
      <trkpt lat="45.78953" lon="4.83069">
        <ele>245</ele>
        <time>2014-09-07T07:36:03Z</time>
      </trkpt>
      <trkpt lat="45.78917" lon="4.83063">
        <ele>245</ele>
        <time>2014-09-07T07:36:11Z</time>
      </trkpt>
      <trkpt lat="45.78878" lon="4.83052">
        <ele>247</ele>
        <time>2014-09-07T07:36:19Z</time>
      </trkpt>
      <trkpt lat="45.78842" lon="4.83041">
        <ele>247</ele>
        <time>2014-09-07T07:36:26Z</time>
      </trkpt>
      <trkpt lat="45.78833" lon="4.83039">
        <ele>248</ele>
        <time>2014-09-07T07:36:27Z</time>
      </trkpt>
      <trkpt lat="45.78802" lon="4.83031">
        <ele>248</ele>
        <time>2014-09-07T07:36:35Z</time>
      </trkpt>
      <trkpt lat="45.78767" lon="4.83019">
        <ele>248</ele>
        <time>2014-09-07T07:36:43Z</time>
      </trkpt>
      <trkpt lat="45.78762" lon="4.83018">
        <ele>248</ele>
        <time>2014-09-07T07:36:44Z</time>
      </trkpt>
      <trkpt lat="45.78758" lon="4.83018">
        <ele>248</ele>
        <time>2014-09-07T07:36:45Z</time>
      </trkpt>
      <trkpt lat="45.7875" lon="4.83015">
        <ele>248</ele>
        <time>2014-09-07T07:36:46Z</time>
      </trkpt>
      <trkpt lat="45.78746" lon="4.83015">
        <ele>248</ele>
        <time>2014-09-07T07:36:48Z</time>
      </trkpt>
      <trkpt lat="45.78725" lon="4.83007">
        <ele>248</ele>
        <time>2014-09-07T07:36:53Z</time>
      </trkpt>
      <trkpt lat="45.78721" lon="4.83006">
        <ele>248</ele>
        <time>2014-09-07T07:36:54Z</time>
      </trkpt>
      <trkpt lat="45.78689" lon="4.82997">
        <ele>248</ele>
        <time>2014-09-07T07:37:01Z</time>
      </trkpt>
      <trkpt lat="45.78668" lon="4.8299">
        <ele>248</ele>
        <time>2014-09-07T07:37:07Z</time>
      </trkpt>
      <trkpt lat="45.78661" lon="4.82984">
        <ele>248</ele>
        <time>2014-09-07T07:37:10Z</time>
      </trkpt>
      <trkpt lat="45.78661" lon="4.82979">
        <ele>248</ele>
        <time>2014-09-07T07:37:11Z</time>
      </trkpt>
      <trkpt lat="45.78664" lon="4.82975">
        <ele>248</ele>
        <time>2014-09-07T07:37:12Z</time>
      </trkpt>
      <trkpt lat="45.7867" lon="4.82967">
        <ele>248</ele>
        <time>2014-09-07T07:37:14Z</time>
      </trkpt>
      <trkpt lat="45.78695" lon="4.82941">
        <ele>247</ele>
        <time>2014-09-07T07:37:20Z</time>
      </trkpt>
      <trkpt lat="45.78698" lon="4.82937">
        <ele>247</ele>
        <time>2014-09-07T07:37:21Z</time>
      </trkpt>
      <trkpt lat="45.78713" lon="4.8292">
        <ele>247</ele>
        <time>2014-09-07T07:37:26Z</time>
      </trkpt>
      <trkpt lat="45.78717" lon="4.82916">
        <ele>245</ele>
        <time>2014-09-07T07:37:27Z</time>
      </trkpt>
      <trkpt lat="45.78723" lon="4.82916">
        <ele>245</ele>
        <time>2014-09-07T07:37:30Z</time>
      </trkpt>
      <trkpt lat="45.78727" lon="4.82916">
        <ele>245</ele>
        <time>2014-09-07T07:37:31Z</time>
      </trkpt>
      <trkpt lat="45.7874" lon="4.82918">
        <ele>246</ele>
        <time>2014-09-07T07:37:35Z</time>
      </trkpt>
      <trkpt lat="45.78753" lon="4.82911">
        <ele>244</ele>
        <time>2014-09-07T07:37:39Z</time>
      </trkpt>
      <trkpt lat="45.78762" lon="4.82904">
        <ele>242</ele>
        <time>2014-09-07T07:37:43Z</time>
      </trkpt>
      <trkpt lat="45.78768" lon="4.82899">
        <ele>241</ele>
        <time>2014-09-07T07:37:45Z</time>
      </trkpt>
      <trkpt lat="45.78782" lon="4.82885">
        <ele>239</ele>
        <time>2014-09-07T07:37:51Z</time>
      </trkpt>
      <trkpt lat="45.78783" lon="4.82884">
        <ele>239</ele>
        <time>2014-09-07T07:37:52Z</time>
      </trkpt>
      <trkpt lat="45.7879" lon="4.82875">
        <ele>238</ele>
        <time>2014-09-07T07:37:57Z</time>
      </trkpt>
      <trkpt lat="45.78791" lon="4.82872">
        <ele>238</ele>
        <time>2014-09-07T07:37:58Z</time>
      </trkpt>
      <trkpt lat="45.78794" lon="4.82867">
        <ele>238</ele>
        <time>2014-09-07T07:38:02Z</time>
      </trkpt>
      <trkpt lat="45.78804" lon="4.82859">
        <ele>236</ele>
        <time>2014-09-07T07:38:06Z</time>
      </trkpt>
      <trkpt lat="45.78822" lon="4.82847">
        <ele>233</ele>
        <time>2014-09-07T07:38:10Z</time>
      </trkpt>
      <trkpt lat="45.78827" lon="4.82847">
        <ele>233</ele>
        <time>2014-09-07T07:38:11Z</time>
      </trkpt>
      <trkpt lat="45.78836" lon="4.82846">
        <ele>230</ele>
        <time>2014-09-07T07:38:13Z</time>
      </trkpt>
      <trkpt lat="45.78846" lon="4.82842">
        <ele>230</ele>
        <time>2014-09-07T07:38:15Z</time>
      </trkpt>
      <trkpt lat="45.78855" lon="4.82839">
        <ele>230</ele>
        <time>2014-09-07T07:38:17Z</time>
      </trkpt>
      <trkpt lat="45.78861" lon="4.82838">
        <ele>230</ele>
        <time>2014-09-07T07:38:18Z</time>
      </trkpt>
      <trkpt lat="45.78873" lon="4.82837">
        <ele>230</ele>
        <time>2014-09-07T07:38:20Z</time>
      </trkpt>
      <trkpt lat="45.78899" lon="4.82836">
        <ele>227</ele>
        <time>2014-09-07T07:38:24Z</time>
      </trkpt>
      <trkpt lat="45.78905" lon="4.82838">
        <ele>226</ele>
        <time>2014-09-07T07:38:25Z</time>
      </trkpt>
      <trkpt lat="45.78922" lon="4.82842">
        <ele>222</ele>
        <time>2014-09-07T07:38:29Z</time>
      </trkpt>
      <trkpt lat="45.78923" lon="4.82839">
        <ele>222</ele>
        <time>2014-09-07T07:38:30Z</time>
      </trkpt>
      <trkpt lat="45.78917" lon="4.82833">
        <ele>221</ele>
        <time>2014-09-07T07:38:32Z</time>
      </trkpt>
      <trkpt lat="45.78913" lon="4.8283">
        <ele>221</ele>
        <time>2014-09-07T07:38:33Z</time>
      </trkpt>
      <trkpt lat="45.78905" lon="4.82823">
        <ele>219</ele>
        <time>2014-09-07T07:38:35Z</time>
      </trkpt>
      <trkpt lat="45.789" lon="4.8282">
        <ele>218</ele>
        <time>2014-09-07T07:38:36Z</time>
      </trkpt>
      <trkpt lat="45.78883" lon="4.82802">
        <ele>217</ele>
        <time>2014-09-07T07:38:41Z</time>
      </trkpt>
      <trkpt lat="45.7888" lon="4.82799">
        <ele>216</ele>
        <time>2014-09-07T07:38:42Z</time>
      </trkpt>
      <trkpt lat="45.7887" lon="4.82788">
        <ele>216</ele>
        <time>2014-09-07T07:38:46Z</time>
      </trkpt>
      <trkpt lat="45.78871" lon="4.82786">
        <ele>216</ele>
        <time>2014-09-07T07:38:48Z</time>
      </trkpt>
      <trkpt lat="45.78876" lon="4.82784">
        <ele>215</ele>
        <time>2014-09-07T07:38:49Z</time>
      </trkpt>
      <trkpt lat="45.78891" lon="4.82782">
        <ele>214</ele>
        <time>2014-09-07T07:38:56Z</time>
      </trkpt>
      <trkpt lat="45.78894" lon="4.82782">
        <ele>213</ele>
        <time>2014-09-07T07:38:57Z</time>
      </trkpt>
      <trkpt lat="45.78906" lon="4.8278">
        <ele>212</ele>
        <time>2014-09-07T07:39:01Z</time>
      </trkpt>
      <trkpt lat="45.78924" lon="4.82785">
        <ele>203</ele>
        <time>2014-09-07T07:39:06Z</time>
      </trkpt>
      <trkpt lat="45.78929" lon="4.82786">
        <ele>203</ele>
        <time>2014-09-07T07:39:07Z</time>
      </trkpt>
      <trkpt lat="45.7894" lon="4.8279">
        <ele>203</ele>
        <time>2014-09-07T07:39:11Z</time>
      </trkpt>
      <trkpt lat="45.78952" lon="4.82802">
        <ele>203</ele>
        <time>2014-09-07T07:39:16Z</time>
      </trkpt>
      <trkpt lat="45.78958" lon="4.82815">
        <ele>204</ele>
        <time>2014-09-07T07:39:19Z</time>
      </trkpt>
      <trkpt lat="45.78964" lon="4.82826">
        <ele>204</ele>
        <time>2014-09-07T07:39:21Z</time>
      </trkpt>
      <trkpt lat="45.78982" lon="4.82835">
        <ele>212</ele>
        <time>2014-09-07T07:39:25Z</time>
      </trkpt>
      <trkpt lat="45.78991" lon="4.82838">
        <ele>208</ele>
        <time>2014-09-07T07:39:27Z</time>
      </trkpt>
      <trkpt lat="45.78999" lon="4.8284">
        <ele>206</ele>
        <time>2014-09-07T07:39:30Z</time>
      </trkpt>
      <trkpt lat="45.79015" lon="4.82841">
        <ele>203</ele>
        <time>2014-09-07T07:39:33Z</time>
      </trkpt>
      <trkpt lat="45.79029" lon="4.82842">
        <ele>202</ele>
        <time>2014-09-07T07:39:37Z</time>
      </trkpt>
      <trkpt lat="45.79035" lon="4.82841">
        <ele>202</ele>
        <time>2014-09-07T07:39:39Z</time>
      </trkpt>
      <trkpt lat="45.79041" lon="4.82845">
        <ele>202</ele>
        <time>2014-09-07T07:39:41Z</time>
      </trkpt>
      <trkpt lat="45.79052" lon="4.82849">
        <ele>200</ele>
        <time>2014-09-07T07:39:44Z</time>
      </trkpt>
      <trkpt lat="45.79056" lon="4.8285">
        <ele>200</ele>
        <time>2014-09-07T07:39:45Z</time>
      </trkpt>
      <trkpt lat="45.79065" lon="4.82855">
        <ele>199</ele>
        <time>2014-09-07T07:39:48Z</time>
      </trkpt>
      <trkpt lat="45.79074" lon="4.82857">
        <ele>198</ele>
        <time>2014-09-07T07:39:51Z</time>
      </trkpt>
      <trkpt lat="45.79078" lon="4.82857">
        <ele>198</ele>
        <time>2014-09-07T07:39:57Z</time>
      </trkpt>
      <trkpt lat="45.7908" lon="4.82858">
        <ele>198</ele>
        <time>2014-09-07T07:40:00Z</time>
      </trkpt>
      <trkpt lat="45.79088" lon="4.82853">
        <ele>190</ele>
        <time>2014-09-07T07:40:03Z</time>
      </trkpt>
      <trkpt lat="45.79096" lon="4.82835">
        <ele>187</ele>
        <time>2014-09-07T07:40:07Z</time>
      </trkpt>
      <trkpt lat="45.791" lon="4.82812">
        <ele>179</ele>
        <time>2014-09-07T07:40:11Z</time>
      </trkpt>
      <trkpt lat="45.79104" lon="4.8281">
        <ele>179</ele>
        <time>2014-09-07T07:40:12Z</time>
      </trkpt>
      <trkpt lat="45.79106" lon="4.82804">
        <ele>178</ele>
        <time>2014-09-07T07:40:14Z</time>
      </trkpt>
      <trkpt lat="45.79097" lon="4.82794">
        <ele>178</ele>
        <time>2014-09-07T07:40:17Z</time>
      </trkpt>
      <trkpt lat="45.79093" lon="4.82791">
        <ele>178</ele>
        <time>2014-09-07T07:40:18Z</time>
      </trkpt>
      <trkpt lat="45.79079" lon="4.82781">
        <ele>182</ele>
        <time>2014-09-07T07:40:22Z</time>
      </trkpt>
      <trkpt lat="45.79065" lon="4.82762">
        <ele>180</ele>
        <time>2014-09-07T07:40:26Z</time>
      </trkpt>
      <trkpt lat="45.79061" lon="4.82755">
        <ele>180</ele>
        <time>2014-09-07T07:40:27Z</time>
      </trkpt>
      <trkpt lat="45.79036" lon="4.82729">
        <ele>176</ele>
        <time>2014-09-07T07:40:32Z</time>
      </trkpt>
      <trkpt lat="45.79022" lon="4.82711">
        <ele>176</ele>
        <time>2014-09-07T07:40:35Z</time>
      </trkpt>
      <trkpt lat="45.79004" lon="4.82694">
        <ele>176</ele>
        <time>2014-09-07T07:40:39Z</time>
      </trkpt>
      <trkpt lat="45.79" lon="4.82696">
        <ele>176</ele>
        <time>2014-09-07T07:40:40Z</time>
      </trkpt>
      <trkpt lat="45.78992" lon="4.82712">
        <ele>183</ele>
        <time>2014-09-07T07:40:43Z</time>
      </trkpt>
      <trkpt lat="45.7899" lon="4.82716">
        <ele>183</ele>
        <time>2014-09-07T07:40:44Z</time>
      </trkpt>
      <trkpt lat="45.78984" lon="4.82722">
        <ele>184</ele>
        <time>2014-09-07T07:40:45Z</time>
      </trkpt>
      <trkpt lat="45.78981" lon="4.82722">
        <ele>184</ele>
        <time>2014-09-07T07:40:46Z</time>
      </trkpt>
      <trkpt lat="45.78976" lon="4.82717">
        <ele>184</ele>
        <time>2014-09-07T07:40:49Z</time>
      </trkpt>
      <trkpt lat="45.78975" lon="4.82714">
        <ele>184</ele>
        <time>2014-09-07T07:40:50Z</time>
      </trkpt>
      <trkpt lat="45.78973" lon="4.8271">
        <ele>184</ele>
        <time>2014-09-07T07:40:51Z</time>
      </trkpt>
      <trkpt lat="45.78962" lon="4.82698">
        <ele>184</ele>
        <time>2014-09-07T07:40:56Z</time>
      </trkpt>
      <trkpt lat="45.78947" lon="4.82683">
        <ele>185</ele>
        <time>2014-09-07T07:41:03Z</time>
      </trkpt>
      <trkpt lat="45.78945" lon="4.82681">
        <ele>185</ele>
        <time>2014-09-07T07:41:04Z</time>
      </trkpt>
      <trkpt lat="45.78932" lon="4.82667">
        <ele>185</ele>
        <time>2014-09-07T07:41:09Z</time>
      </trkpt>
      <trkpt lat="45.78919" lon="4.82647">
        <ele>182</ele>
        <time>2014-09-07T07:41:17Z</time>
      </trkpt>
      <trkpt lat="45.78918" lon="4.82641">
        <ele>181</ele>
        <time>2014-09-07T07:41:19Z</time>
      </trkpt>
      <trkpt lat="45.7892" lon="4.82637">
        <ele>181</ele>
        <time>2014-09-07T07:41:20Z</time>
      </trkpt>
      <trkpt lat="45.78931" lon="4.82621">
        <ele>179</ele>
        <time>2014-09-07T07:41:23Z</time>
      </trkpt>
      <trkpt lat="45.7894" lon="4.82608">
        <ele>179</ele>
        <time>2014-09-07T07:41:25Z</time>
      </trkpt>
      <trkpt lat="45.78951" lon="4.82591">
        <ele>178</ele>
        <time>2014-09-07T07:41:28Z</time>
      </trkpt>
      <trkpt lat="45.78954" lon="4.82581">
        <ele>175</ele>
        <time>2014-09-07T07:41:30Z</time>
      </trkpt>
      <trkpt lat="45.78954" lon="4.82576">
        <ele>175</ele>
        <time>2014-09-07T07:41:31Z</time>
      </trkpt>
      <trkpt lat="45.78948" lon="4.82561">
        <ele>175</ele>
        <time>2014-09-07T07:41:33Z</time>
      </trkpt>
      <trkpt lat="45.78945" lon="4.82554">
        <ele>175</ele>
        <time>2014-09-07T07:41:34Z</time>
      </trkpt>
      <trkpt lat="45.78923" lon="4.82516">
        <ele>175</ele>
        <time>2014-09-07T07:41:39Z</time>
      </trkpt>
      <trkpt lat="45.78905" lon="4.82483">
        <ele>177</ele>
        <time>2014-09-07T07:41:43Z</time>
      </trkpt>
      <trkpt lat="45.78901" lon="4.82476">
        <ele>178</ele>
        <time>2014-09-07T07:41:44Z</time>
      </trkpt>
      <trkpt lat="45.78875" lon="4.8243">
        <ele>178</ele>
        <time>2014-09-07T07:41:50Z</time>
      </trkpt>
      <trkpt lat="45.78864" lon="4.82405">
        <ele>176</ele>
        <time>2014-09-07T07:41:53Z</time>
      </trkpt>
      <trkpt lat="45.78855" lon="4.82392">
        <ele>176</ele>
        <time>2014-09-07T07:41:55Z</time>
      </trkpt>
      <trkpt lat="45.78851" lon="4.82385">
        <ele>176</ele>
        <time>2014-09-07T07:41:56Z</time>
      </trkpt>
      <trkpt lat="45.78829" lon="4.82344">
        <ele>180</ele>
        <time>2014-09-07T07:42:02Z</time>
      </trkpt>
      <trkpt lat="45.78806" lon="4.82302">
        <ele>181</ele>
        <time>2014-09-07T07:42:08Z</time>
      </trkpt>
      <trkpt lat="45.78802" lon="4.82296">
        <ele>181</ele>
        <time>2014-09-07T07:42:09Z</time>
      </trkpt>
      <trkpt lat="45.78784" lon="4.82265">
        <ele>182</ele>
        <time>2014-09-07T07:42:15Z</time>
      </trkpt>
      <trkpt lat="45.78781" lon="4.82261">
        <ele>182</ele>
        <time>2014-09-07T07:42:16Z</time>
      </trkpt>
      <trkpt lat="45.78772" lon="4.82242">
        <ele>180</ele>
        <time>2014-09-07T07:42:20Z</time>
      </trkpt>
      <trkpt lat="45.78774" lon="4.82231">
        <ele>179</ele>
        <time>2014-09-07T07:42:22Z</time>
      </trkpt>
      <trkpt lat="45.78777" lon="4.82225">
        <ele>178</ele>
        <time>2014-09-07T07:42:23Z</time>
      </trkpt>
      <trkpt lat="45.78781" lon="4.82219">
        <ele>177</ele>
        <time>2014-09-07T07:42:24Z</time>
      </trkpt>
      <trkpt lat="45.78797" lon="4.82198">
        <ele>175</ele>
        <time>2014-09-07T07:42:27Z</time>
      </trkpt>
      <trkpt lat="45.78802" lon="4.82191">
        <ele>174</ele>
        <time>2014-09-07T07:42:28Z</time>
      </trkpt>
      <trkpt lat="45.7881" lon="4.8218">
        <ele>173</ele>
        <time>2014-09-07T07:42:30Z</time>
      </trkpt>
      <trkpt lat="45.78814" lon="4.82173">
        <ele>172</ele>
        <time>2014-09-07T07:42:32Z</time>
      </trkpt>
      <trkpt lat="45.78815" lon="4.82166">
        <ele>171</ele>
        <time>2014-09-07T07:42:33Z</time>
      </trkpt>
      <trkpt lat="45.78814" lon="4.82162">
        <ele>171</ele>
        <time>2014-09-07T07:42:35Z</time>
      </trkpt>
      <trkpt lat="45.78806" lon="4.82153">
        <ele>172</ele>
        <time>2014-09-07T07:42:38Z</time>
      </trkpt>
      <trkpt lat="45.78799" lon="4.82146">
        <ele>173</ele>
        <time>2014-09-07T07:42:40Z</time>
      </trkpt>
      <trkpt lat="45.78796" lon="4.82142">
        <ele>173</ele>
        <time>2014-09-07T07:42:41Z</time>
      </trkpt>
      <trkpt lat="45.78777" lon="4.8212">
        <ele>175</ele>
        <time>2014-09-07T07:42:47Z</time>
      </trkpt>
      <trkpt lat="45.78766" lon="4.82107">
        <ele>176</ele>
        <time>2014-09-07T07:42:51Z</time>
      </trkpt>
      <trkpt lat="45.78762" lon="4.821">
        <ele>176</ele>
        <time>2014-09-07T07:42:53Z</time>
      </trkpt>
      <trkpt lat="45.7875" lon="4.82085">
        <ele>179</ele>
        <time>2014-09-07T07:43:00Z</time>
      </trkpt>
      <trkpt lat="45.7874" lon="4.82071">
        <ele>185</ele>
        <time>2014-09-07T07:43:07Z</time>
      </trkpt>
      <trkpt lat="45.78729" lon="4.82056">
        <ele>189</ele>
        <time>2014-09-07T07:43:14Z</time>
      </trkpt>
      <trkpt lat="45.78723" lon="4.82041">
        <ele>190</ele>
        <time>2014-09-07T07:43:21Z</time>
      </trkpt>
      <trkpt lat="45.78716" lon="4.82031">
        <ele>192</ele>
        <time>2014-09-07T07:43:27Z</time>
      </trkpt>
      <trkpt lat="45.78715" lon="4.82029">
        <ele>192</ele>
        <time>2014-09-07T07:43:28Z</time>
      </trkpt>
      <trkpt lat="45.78709" lon="4.82033">
        <ele>193</ele>
        <time>2014-09-07T07:43:34Z</time>
      </trkpt>
      <trkpt lat="45.78703" lon="4.82039">
        <ele>193</ele>
        <time>2014-09-07T07:43:40Z</time>
      </trkpt>
      <trkpt lat="45.78694" lon="4.82044">
        <ele>194</ele>
        <time>2014-09-07T07:43:47Z</time>
      </trkpt>
      <trkpt lat="45.78684" lon="4.82047">
        <ele>196</ele>
        <time>2014-09-07T07:43:55Z</time>
      </trkpt>
      <trkpt lat="45.78683" lon="4.82048">
        <ele>196</ele>
        <time>2014-09-07T07:43:56Z</time>
      </trkpt>
      <trkpt lat="45.78676" lon="4.82055">
        <ele>196</ele>
        <time>2014-09-07T07:44:01Z</time>
      </trkpt>
      <trkpt lat="45.7867" lon="4.82056">
        <ele>197</ele>
        <time>2014-09-07T07:44:05Z</time>
      </trkpt>
      <trkpt lat="45.78667" lon="4.82056">
        <ele>197</ele>
        <time>2014-09-07T07:44:07Z</time>
      </trkpt>
      <trkpt lat="45.78657" lon="4.82053">
        <ele>210</ele>
        <time>2014-09-07T07:44:14Z</time>
      </trkpt>
      <trkpt lat="45.7865" lon="4.82051">
        <ele>211</ele>
        <time>2014-09-07T07:44:21Z</time>
      </trkpt>
      <trkpt lat="45.78648" lon="4.82051">
        <ele>212</ele>
        <time>2014-09-07T07:44:24Z</time>
      </trkpt>
      <trkpt lat="45.78642" lon="4.82052">
        <ele>212</ele>
        <time>2014-09-07T07:44:28Z</time>
      </trkpt>
      <trkpt lat="45.78638" lon="4.82054">
        <ele>213</ele>
        <time>2014-09-07T07:44:33Z</time>
      </trkpt>
      <trkpt lat="45.78635" lon="4.8206">
        <ele>213</ele>
        <time>2014-09-07T07:44:42Z</time>
      </trkpt>
      <trkpt lat="45.78628" lon="4.82061">
        <ele>214</ele>
        <time>2014-09-07T07:44:57Z</time>
      </trkpt>
      <trkpt lat="45.78624" lon="4.82063">
        <ele>214</ele>
        <time>2014-09-07T07:45:02Z</time>
      </trkpt>
      <trkpt lat="45.7862" lon="4.82064">
        <ele>215</ele>
        <time>2014-09-07T07:45:09Z</time>
      </trkpt>
      <trkpt lat="45.78616" lon="4.82066">
        <ele>215</ele>
        <time>2014-09-07T07:45:11Z</time>
      </trkpt>
      <trkpt lat="45.78613" lon="4.82066">
        <ele>216</ele>
        <time>2014-09-07T07:45:14Z</time>
      </trkpt>
      <trkpt lat="45.78601" lon="4.82068">
        <ele>218</ele>
        <time>2014-09-07T07:45:21Z</time>
      </trkpt>
      <trkpt lat="45.78592" lon="4.8207">
        <ele>220</ele>
        <time>2014-09-07T07:45:27Z</time>
      </trkpt>
      <trkpt lat="45.78581" lon="4.82077">
        <ele>225</ele>
        <time>2014-09-07T07:45:33Z</time>
      </trkpt>
      <trkpt lat="45.78572" lon="4.82077">
        <ele>226</ele>
        <time>2014-09-07T07:45:41Z</time>
      </trkpt>
      <trkpt lat="45.78568" lon="4.82078">
        <ele>226</ele>
        <time>2014-09-07T07:45:45Z</time>
      </trkpt>
      <trkpt lat="45.78566" lon="4.8208">
        <ele>227</ele>
        <time>2014-09-07T07:45:48Z</time>
      </trkpt>
      <trkpt lat="45.78562" lon="4.82082">
        <ele>227</ele>
        <time>2014-09-07T07:45:52Z</time>
      </trkpt>
      <trkpt lat="45.78561" lon="4.82082">
        <ele>227</ele>
        <time>2014-09-07T07:45:53Z</time>
      </trkpt>
      <trkpt lat="45.78554" lon="4.8208">
        <ele>228</ele>
        <time>2014-09-07T07:46:01Z</time>
      </trkpt>
      <trkpt lat="45.78545" lon="4.82083">
        <ele>229</ele>
        <time>2014-09-07T07:46:07Z</time>
      </trkpt>
      <trkpt lat="45.78543" lon="4.82084">
        <ele>230</ele>
        <time>2014-09-07T07:46:09Z</time>
      </trkpt>
      <trkpt lat="45.78534" lon="4.82087">
        <ele>231</ele>
        <time>2014-09-07T07:46:16Z</time>
      </trkpt>
      <trkpt lat="45.78521" lon="4.82094">
        <ele>232</ele>
        <time>2014-09-07T07:46:26Z</time>
      </trkpt>
      <trkpt lat="45.78512" lon="4.82096">
        <ele>232</ele>
        <time>2014-09-07T07:46:32Z</time>
      </trkpt>
      <trkpt lat="45.7851" lon="4.82097">
        <ele>232</ele>
        <time>2014-09-07T07:46:35Z</time>
      </trkpt>
      <trkpt lat="45.78502" lon="4.82099">
        <ele>232</ele>
        <time>2014-09-07T07:46:39Z</time>
      </trkpt>
      <trkpt lat="45.78488" lon="4.82105">
        <ele>235</ele>
        <time>2014-09-07T07:46:47Z</time>
      </trkpt>
      <trkpt lat="45.78476" lon="4.82109">
        <ele>236</ele>
        <time>2014-09-07T07:46:54Z</time>
      </trkpt>
      <trkpt lat="45.78474" lon="4.82109">
        <ele>236</ele>
        <time>2014-09-07T07:46:55Z</time>
      </trkpt>
      <trkpt lat="45.78462" lon="4.82115">
        <ele>236</ele>
        <time>2014-09-07T07:47:02Z</time>
      </trkpt>
      <trkpt lat="45.78448" lon="4.82119">
        <ele>236</ele>
        <time>2014-09-07T07:47:09Z</time>
      </trkpt>
      <trkpt lat="45.78439" lon="4.82123">
        <ele>236</ele>
        <time>2014-09-07T07:47:13Z</time>
      </trkpt>
      <trkpt lat="45.78433" lon="4.82123">
        <ele>237</ele>
        <time>2014-09-07T07:47:15Z</time>
      </trkpt>
      <trkpt lat="45.78421" lon="4.82108">
        <ele>236</ele>
        <time>2014-09-07T07:47:19Z</time>
      </trkpt>
      <trkpt lat="45.78409" lon="4.82094">
        <ele>237</ele>
        <time>2014-09-07T07:47:23Z</time>
      </trkpt>
      <trkpt lat="45.78399" lon="4.82087">
        <ele>237</ele>
        <time>2014-09-07T07:47:26Z</time>
      </trkpt>
      <trkpt lat="45.78385" lon="4.82085">
        <ele>237</ele>
        <time>2014-09-07T07:47:31Z</time>
      </trkpt>
      <trkpt lat="45.78372" lon="4.82085">
        <ele>238</ele>
        <time>2014-09-07T07:47:36Z</time>
      </trkpt>
      <trkpt lat="45.78369" lon="4.82085">
        <ele>238</ele>
        <time>2014-09-07T07:47:37Z</time>
      </trkpt>
      <trkpt lat="45.78357" lon="4.8208">
        <ele>236</ele>
        <time>2014-09-07T07:47:42Z</time>
      </trkpt>
      <trkpt lat="45.78354" lon="4.82063">
        <ele>236</ele>
        <time>2014-09-07T07:47:46Z</time>
      </trkpt>
      <trkpt lat="45.78354" lon="4.82058">
        <ele>236</ele>
        <time>2014-09-07T07:47:47Z</time>
      </trkpt>
      <trkpt lat="45.78354" lon="4.82052">
        <ele>236</ele>
        <time>2014-09-07T07:47:48Z</time>
      </trkpt>
      <trkpt lat="45.78357" lon="4.82023">
        <ele>236</ele>
        <time>2014-09-07T07:47:53Z</time>
      </trkpt>
      <trkpt lat="45.78358" lon="4.81999">
        <ele>236</ele>
        <time>2014-09-07T07:47:57Z</time>
      </trkpt>
      <trkpt lat="45.78359" lon="4.81965">
        <ele>237</ele>
        <time>2014-09-07T07:48:02Z</time>
      </trkpt>
      <trkpt lat="45.7836" lon="4.81943">
        <ele>237</ele>
        <time>2014-09-07T07:48:05Z</time>
      </trkpt>
      <trkpt lat="45.78361" lon="4.81896">
        <ele>237</ele>
        <time>2014-09-07T07:48:11Z</time>
      </trkpt>
      <trkpt lat="45.78361" lon="4.81888">
        <ele>237</ele>
        <time>2014-09-07T07:48:12Z</time>
      </trkpt>
      <trkpt lat="45.78364" lon="4.81849">
        <ele>237</ele>
        <time>2014-09-07T07:48:17Z</time>
      </trkpt>
      <trkpt lat="45.78365" lon="4.81835">
        <ele>237</ele>
        <time>2014-09-07T07:48:19Z</time>
      </trkpt>
      <trkpt lat="45.78364" lon="4.81806">
        <ele>235</ele>
        <time>2014-09-07T07:48:23Z</time>
      </trkpt>
      <trkpt lat="45.78363" lon="4.81799">
        <ele>235</ele>
        <time>2014-09-07T07:48:24Z</time>
      </trkpt>
      <trkpt lat="45.78351" lon="4.81787">
        <ele>235</ele>
        <time>2014-09-07T07:48:27Z</time>
      </trkpt>
      <trkpt lat="45.78332" lon="4.81792">
        <ele>235</ele>
        <time>2014-09-07T07:48:31Z</time>
      </trkpt>
      <trkpt lat="45.78312" lon="4.81799">
        <ele>236</ele>
        <time>2014-09-07T07:48:35Z</time>
      </trkpt>
      <trkpt lat="45.78288" lon="4.81809">
        <ele>236</ele>
        <time>2014-09-07T07:48:40Z</time>
      </trkpt>
      <trkpt lat="45.78273" lon="4.81816">
        <ele>236</ele>
        <time>2014-09-07T07:48:43Z</time>
      </trkpt>
      <trkpt lat="45.78248" lon="4.81825">
        <ele>238</ele>
        <time>2014-09-07T07:48:48Z</time>
      </trkpt>
      <trkpt lat="45.78238" lon="4.8183">
        <ele>238</ele>
        <time>2014-09-07T07:48:50Z</time>
      </trkpt>
      <trkpt lat="45.78227" lon="4.81832">
        <ele>238</ele>
        <time>2014-09-07T07:48:52Z</time>
      </trkpt>
      <trkpt lat="45.78221" lon="4.8183">
        <ele>238</ele>
        <time>2014-09-07T07:48:53Z</time>
      </trkpt>
      <trkpt lat="45.78214" lon="4.81817">
        <ele>238</ele>
        <time>2014-09-07T07:48:55Z</time>
      </trkpt>
      <trkpt lat="45.78213" lon="4.81808">
        <ele>238</ele>
        <time>2014-09-07T07:48:56Z</time>
      </trkpt>
      <trkpt lat="45.78213" lon="4.81798">
        <ele>238</ele>
        <time>2014-09-07T07:48:57Z</time>
      </trkpt>
      <trkpt lat="45.78216" lon="4.81787">
        <ele>237</ele>
        <time>2014-09-07T07:48:58Z</time>
      </trkpt>
      <trkpt lat="45.78229" lon="4.81756">
        <ele>237</ele>
        <time>2014-09-07T07:49:01Z</time>
      </trkpt>
      <trkpt lat="45.78236" lon="4.81747">
        <ele>235</ele>
        <time>2014-09-07T07:49:02Z</time>
      </trkpt>
      <trkpt lat="45.78252" lon="4.81723">
        <ele>232</ele>
        <time>2014-09-07T07:49:05Z</time>
      </trkpt>
      <trkpt lat="45.78259" lon="4.81714">
        <ele>231</ele>
        <time>2014-09-07T07:49:06Z</time>
      </trkpt>
      <trkpt lat="45.78262" lon="4.81703">
        <ele>230</ele>
        <time>2014-09-07T07:49:07Z</time>
      </trkpt>
      <trkpt lat="45.78259" lon="4.81672">
        <ele>228</ele>
        <time>2014-09-07T07:49:09Z</time>
      </trkpt>
      <trkpt lat="45.78258" lon="4.81658">
        <ele>224</ele>
        <time>2014-09-07T07:49:10Z</time>
      </trkpt>
      <trkpt lat="45.78254" lon="4.81632">
        <ele>220</ele>
        <time>2014-09-07T07:49:12Z</time>
      </trkpt>
      <trkpt lat="45.78245" lon="4.8161">
        <ele>224</ele>
        <time>2014-09-07T07:49:14Z</time>
      </trkpt>
      <trkpt lat="45.78238" lon="4.81601">
        <ele>223</ele>
        <time>2014-09-07T07:49:15Z</time>
      </trkpt>
      <trkpt lat="45.78231" lon="4.81592">
        <ele>223</ele>
        <time>2014-09-07T07:49:16Z</time>
      </trkpt>
      <trkpt lat="45.78216" lon="4.81573">
        <ele>217</ele>
        <time>2014-09-07T07:49:18Z</time>
      </trkpt>
      <trkpt lat="45.78207" lon="4.81559">
        <ele>216</ele>
        <time>2014-09-07T07:49:20Z</time>
      </trkpt>
      <trkpt lat="45.78196" lon="4.81536">
        <ele>215</ele>
        <time>2014-09-07T07:49:23Z</time>
      </trkpt>
      <trkpt lat="45.78193" lon="4.8153">
        <ele>215</ele>
        <time>2014-09-07T07:49:24Z</time>
      </trkpt>
      <trkpt lat="45.78184" lon="4.81521">
        <ele>214</ele>
        <time>2014-09-07T07:49:27Z</time>
      </trkpt>
      <trkpt lat="45.78172" lon="4.81518">
        <ele>214</ele>
        <time>2014-09-07T07:49:31Z</time>
      </trkpt>
      <trkpt lat="45.78166" lon="4.81513">
        <ele>217</ele>
        <time>2014-09-07T07:49:35Z</time>
      </trkpt>
      <trkpt lat="45.78162" lon="4.81513">
        <ele>217</ele>
        <time>2014-09-07T07:49:38Z</time>
      </trkpt>
      <trkpt lat="45.78159" lon="4.81518">
        <ele>219</ele>
        <time>2014-09-07T07:49:40Z</time>
      </trkpt>
      <trkpt lat="45.78161" lon="4.81529">
        <ele>221</ele>
        <time>2014-09-07T07:49:45Z</time>
      </trkpt>
      <trkpt lat="45.78167" lon="4.81534">
        <ele>221</ele>
        <time>2014-09-07T07:49:49Z</time>
      </trkpt>
      <trkpt lat="45.7817" lon="4.81536">
        <ele>216</ele>
        <time>2014-09-07T07:49:51Z</time>
      </trkpt>
      <trkpt lat="45.7818" lon="4.81542">
        <ele>217</ele>
        <time>2014-09-07T07:49:57Z</time>
      </trkpt>
      <trkpt lat="45.78184" lon="4.81548">
        <ele>217</ele>
        <time>2014-09-07T07:50:00Z</time>
      </trkpt>
      <trkpt lat="45.78184" lon="4.8155">
        <ele>217</ele>
        <time>2014-09-07T07:50:01Z</time>
      </trkpt>
      <trkpt lat="45.7818" lon="4.81553">
        <ele>218</ele>
        <time>2014-09-07T07:50:05Z</time>
      </trkpt>
      <trkpt lat="45.78179" lon="4.81553">
        <ele>218</ele>
        <time>2014-09-07T07:50:06Z</time>
      </trkpt>
      <trkpt lat="45.78174" lon="4.81553">
        <ele>218</ele>
        <time>2014-09-07T07:50:10Z</time>
      </trkpt>
      <trkpt lat="45.78174" lon="4.81555">
        <ele>219</ele>
        <time>2014-09-07T07:50:11Z</time>
      </trkpt>
      <trkpt lat="45.78174" lon="4.81557">
        <ele>219</ele>
        <time>2014-09-07T07:50:12Z</time>
      </trkpt>
      <trkpt lat="45.78176" lon="4.81564">
        <ele>220</ele>
        <time>2014-09-07T07:50:16Z</time>
      </trkpt>
      <trkpt lat="45.78175" lon="4.81567">
        <ele>221</ele>
        <time>2014-09-07T07:50:18Z</time>
      </trkpt>
      <trkpt lat="45.78175" lon="4.81569">
        <ele>222</ele>
        <time>2014-09-07T07:50:19Z</time>
      </trkpt>
      <trkpt lat="45.78172" lon="4.8157">
        <ele>222</ele>
        <time>2014-09-07T07:50:20Z</time>
      </trkpt>
      <trkpt lat="45.78168" lon="4.81569">
        <ele>222</ele>
        <time>2014-09-07T07:50:24Z</time>
      </trkpt>
      <trkpt lat="45.78163" lon="4.81568">
        <ele>225</ele>
        <time>2014-09-07T07:50:28Z</time>
      </trkpt>
      <trkpt lat="45.78149" lon="4.81567">
        <ele>225</ele>
        <time>2014-09-07T07:50:38Z</time>
      </trkpt>
      <trkpt lat="45.78148" lon="4.81567">
        <ele>225</ele>
        <time>2014-09-07T07:50:39Z</time>
      </trkpt>
      <trkpt lat="45.78148" lon="4.81572">
        <ele>225</ele>
        <time>2014-09-07T07:50:42Z</time>
      </trkpt>
      <trkpt lat="45.78156" lon="4.8158">
        <ele>226</ele>
        <time>2014-09-07T07:50:49Z</time>
      </trkpt>
      <trkpt lat="45.78165" lon="4.81585">
        <ele>229</ele>
        <time>2014-09-07T07:50:53Z</time>
      </trkpt>
      <trkpt lat="45.78171" lon="4.8159">
        <ele>228</ele>
        <time>2014-09-07T07:50:57Z</time>
      </trkpt>
      <trkpt lat="45.7817" lon="4.81593">
        <ele>228</ele>
        <time>2014-09-07T07:51:00Z</time>
      </trkpt>
      <trkpt lat="45.78168" lon="4.81593">
        <ele>228</ele>
        <time>2014-09-07T07:51:01Z</time>
      </trkpt>
      <trkpt lat="45.78157" lon="4.81589">
        <ele>230</ele>
        <time>2014-09-07T07:51:08Z</time>
      </trkpt>
      <trkpt lat="45.78146" lon="4.81584">
        <ele>231</ele>
        <time>2014-09-07T07:51:15Z</time>
      </trkpt>
      <trkpt lat="45.78145" lon="4.81584">
        <ele>231</ele>
        <time>2014-09-07T07:51:16Z</time>
      </trkpt>
      <trkpt lat="45.78145" lon="4.81589">
        <ele>231</ele>
        <time>2014-09-07T07:51:18Z</time>
      </trkpt>
      <trkpt lat="45.7815" lon="4.81595">
        <ele>231</ele>
        <time>2014-09-07T07:51:23Z</time>
      </trkpt>
      <trkpt lat="45.78155" lon="4.81599">
        <ele>231</ele>
        <time>2014-09-07T07:51:26Z</time>
      </trkpt>
      <trkpt lat="45.78165" lon="4.81608">
        <ele>231</ele>
        <time>2014-09-07T07:51:34Z</time>
      </trkpt>
      <trkpt lat="45.78166" lon="4.81612">
        <ele>232</ele>
        <time>2014-09-07T07:51:36Z</time>
      </trkpt>
      <trkpt lat="45.78162" lon="4.81614">
        <ele>232</ele>
        <time>2014-09-07T07:51:38Z</time>
      </trkpt>
      <trkpt lat="45.78156" lon="4.81612">
        <ele>232</ele>
        <time>2014-09-07T07:51:41Z</time>
      </trkpt>
      <trkpt lat="45.7815" lon="4.8161">
        <ele>232</ele>
        <time>2014-09-07T07:51:44Z</time>
      </trkpt>
      <trkpt lat="45.78142" lon="4.81609">
        <ele>232</ele>
        <time>2014-09-07T07:51:49Z</time>
      </trkpt>
      <trkpt lat="45.78141" lon="4.8161">
        <ele>232</ele>
        <time>2014-09-07T07:51:51Z</time>
      </trkpt>
      <trkpt lat="45.78145" lon="4.81613">
        <ele>232</ele>
        <time>2014-09-07T07:51:54Z</time>
      </trkpt>
      <trkpt lat="45.78146" lon="4.81615">
        <ele>232</ele>
        <time>2014-09-07T07:51:56Z</time>
      </trkpt>
      <trkpt lat="45.78152" lon="4.81621">
        <ele>232</ele>
        <time>2014-09-07T07:52:00Z</time>
      </trkpt>
      <trkpt lat="45.78161" lon="4.81626">
        <ele>233</ele>
        <time>2014-09-07T07:52:06Z</time>
      </trkpt>
      <trkpt lat="45.78159" lon="4.81629">
        <ele>233</ele>
        <time>2014-09-07T07:52:15Z</time>
      </trkpt>
      <trkpt lat="45.78161" lon="4.81624">
        <ele>233</ele>
        <time>2014-09-07T07:52:23Z</time>
      </trkpt>
      <trkpt lat="45.78159" lon="4.8162">
        <ele>232</ele>
        <time>2014-09-07T07:52:30Z</time>
      </trkpt>
      <trkpt lat="45.78158" lon="4.8162">
        <ele>232</ele>
        <time>2014-09-07T07:52:31Z</time>
      </trkpt>
      <trkpt lat="45.78153" lon="4.81619">
        <ele>232</ele>
        <time>2014-09-07T07:52:34Z</time>
      </trkpt>
      <trkpt lat="45.78144" lon="4.81613">
        <ele>232</ele>
        <time>2014-09-07T07:52:39Z</time>
      </trkpt>
      <trkpt lat="45.78142" lon="4.81612">
        <ele>232</ele>
        <time>2014-09-07T07:52:40Z</time>
      </trkpt>
      <trkpt lat="45.78127" lon="4.81605">
        <ele>232</ele>
        <time>2014-09-07T07:52:46Z</time>
      </trkpt>
      <trkpt lat="45.78107" lon="4.81598">
        <ele>232</ele>
        <time>2014-09-07T07:52:52Z</time>
      </trkpt>
      <trkpt lat="45.78104" lon="4.81597">
        <ele>232</ele>
        <time>2014-09-07T07:52:53Z</time>
      </trkpt>
      <trkpt lat="45.78086" lon="4.81596">
        <ele>232</ele>
        <time>2014-09-07T07:52:58Z</time>
      </trkpt>
      <trkpt lat="45.7807" lon="4.81594">
        <ele>233</ele>
        <time>2014-09-07T07:53:02Z</time>
      </trkpt>
      <trkpt lat="45.78062" lon="4.81593">
        <ele>233</ele>
        <time>2014-09-07T07:53:04Z</time>
      </trkpt>
      <trkpt lat="45.78031" lon="4.81589">
        <ele>234</ele>
        <time>2014-09-07T07:53:11Z</time>
      </trkpt>
      <trkpt lat="45.77997" lon="4.81589">
        <ele>234</ele>
        <time>2014-09-07T07:53:18Z</time>
      </trkpt>
      <trkpt lat="45.77992" lon="4.81588">
        <ele>234</ele>
        <time>2014-09-07T07:53:19Z</time>
      </trkpt>
      <trkpt lat="45.77961" lon="4.81588">
        <ele>236</ele>
        <time>2014-09-07T07:53:25Z</time>
      </trkpt>
      <trkpt lat="45.77951" lon="4.81589">
        <ele>236</ele>
        <time>2014-09-07T07:53:27Z</time>
      </trkpt>
      <trkpt lat="45.77932" lon="4.81588">
        <ele>237</ele>
        <time>2014-09-07T07:53:31Z</time>
      </trkpt>
      <trkpt lat="45.77913" lon="4.81588">
        <ele>237</ele>
        <time>2014-09-07T07:53:35Z</time>
      </trkpt>
      <trkpt lat="45.77896" lon="4.81587">
        <ele>237</ele>
        <time>2014-09-07T07:53:38Z</time>
      </trkpt>
      <trkpt lat="45.77875" lon="4.8159">
        <ele>237</ele>
        <time>2014-09-07T07:53:42Z</time>
      </trkpt>
      <trkpt lat="45.77855" lon="4.81592">
        <ele>237</ele>
        <time>2014-09-07T07:53:46Z</time>
      </trkpt>
      <trkpt lat="45.77836" lon="4.81595">
        <ele>237</ele>
        <time>2014-09-07T07:53:50Z</time>
      </trkpt>
      <trkpt lat="45.77831" lon="4.81596">
        <ele>237</ele>
        <time>2014-09-07T07:53:51Z</time>
      </trkpt>
      <trkpt lat="45.77823" lon="4.81596">
        <ele>237</ele>
        <time>2014-09-07T07:53:53Z</time>
      </trkpt>
      <trkpt lat="45.77821" lon="4.81593">
        <ele>237</ele>
        <time>2014-09-07T07:53:54Z</time>
      </trkpt>
      <trkpt lat="45.77819" lon="4.81578">
        <ele>236</ele>
        <time>2014-09-07T07:53:57Z</time>
      </trkpt>
      <trkpt lat="45.77818" lon="4.81571">
        <ele>236</ele>
        <time>2014-09-07T07:53:58Z</time>
      </trkpt>
      <trkpt lat="45.77817" lon="4.81564">
        <ele>237</ele>
        <time>2014-09-07T07:53:59Z</time>
      </trkpt>
      <trkpt lat="45.77817" lon="4.81544">
        <ele>237</ele>
        <time>2014-09-07T07:54:02Z</time>
      </trkpt>
      <trkpt lat="45.77817" lon="4.8153">
        <ele>237</ele>
        <time>2014-09-07T07:54:04Z</time>
      </trkpt>
      <trkpt lat="45.77811" lon="4.81519">
        <ele>237</ele>
        <time>2014-09-07T07:54:06Z</time>
      </trkpt>
      <trkpt lat="45.77807" lon="4.81514">
        <ele>237</ele>
        <time>2014-09-07T07:54:07Z</time>
      </trkpt>
      <trkpt lat="45.77803" lon="4.81509">
        <ele>237</ele>
        <time>2014-09-07T07:54:08Z</time>
      </trkpt>
      <trkpt lat="45.77797" lon="4.81489">
        <ele>236</ele>
        <time>2014-09-07T07:54:11Z</time>
      </trkpt>
      <trkpt lat="45.77797" lon="4.81473">
        <ele>236</ele>
        <time>2014-09-07T07:54:13Z</time>
      </trkpt>
      <trkpt lat="45.77798" lon="4.81465">
        <ele>236</ele>
        <time>2014-09-07T07:54:14Z</time>
      </trkpt>
      <trkpt lat="45.77798" lon="4.81448">
        <ele>236</ele>
        <time>2014-09-07T07:54:16Z</time>
      </trkpt>
      <trkpt lat="45.77799" lon="4.81411">
        <ele>233</ele>
        <time>2014-09-07T07:54:21Z</time>
      </trkpt>
      <trkpt lat="45.77798" lon="4.81407">
        <ele>233</ele>
        <time>2014-09-07T07:54:22Z</time>
      </trkpt>
      <trkpt lat="45.77797" lon="4.81401">
        <ele>233</ele>
        <time>2014-09-07T07:54:24Z</time>
      </trkpt>
      <trkpt lat="45.77795" lon="4.81399">
        <ele>233</ele>
        <time>2014-09-07T07:54:26Z</time>
      </trkpt>
      <trkpt lat="45.77783" lon="4.81394">
        <ele>233</ele>
        <time>2014-09-07T07:54:32Z</time>
      </trkpt>
      <trkpt lat="45.77767" lon="4.81392">
        <ele>233</ele>
        <time>2014-09-07T07:54:37Z</time>
      </trkpt>
      <trkpt lat="45.77764" lon="4.81392">
        <ele>233</ele>
        <time>2014-09-07T07:54:38Z</time>
      </trkpt>
      <trkpt lat="45.77748" lon="4.81385">
        <ele>230</ele>
        <time>2014-09-07T07:54:42Z</time>
      </trkpt>
      <trkpt lat="45.77739" lon="4.81365">
        <ele>228</ele>
        <time>2014-09-07T07:54:46Z</time>
      </trkpt>
      <trkpt lat="45.77734" lon="4.81346">
        <ele>227</ele>
        <time>2014-09-07T07:54:50Z</time>
      </trkpt>
      <trkpt lat="45.77726" lon="4.8134">
        <ele>226</ele>
        <time>2014-09-07T07:54:53Z</time>
      </trkpt>
      <trkpt lat="45.77723" lon="4.81344">
        <ele>226</ele>
        <time>2014-09-07T07:54:55Z</time>
      </trkpt>
      <trkpt lat="45.77719" lon="4.8135">
        <ele>226</ele>
        <time>2014-09-07T07:54:57Z</time>
      </trkpt>
      <trkpt lat="45.77716" lon="4.81353">
        <ele>226</ele>
        <time>2014-09-07T07:54:58Z</time>
      </trkpt>
      <trkpt lat="45.77703" lon="4.81368">
        <ele>226</ele>
        <time>2014-09-07T07:55:02Z</time>
      </trkpt>
      <trkpt lat="45.7769" lon="4.81379">
        <ele>226</ele>
        <time>2014-09-07T07:55:05Z</time>
      </trkpt>
      <trkpt lat="45.77686" lon="4.81382">
        <ele>226</ele>
        <time>2014-09-07T07:55:06Z</time>
      </trkpt>
      <trkpt lat="45.77678" lon="4.81388">
        <ele>227</ele>
        <time>2014-09-07T07:55:08Z</time>
      </trkpt>
      <trkpt lat="45.77662" lon="4.81404">
        <ele>221</ele>
        <time>2014-09-07T07:55:12Z</time>
      </trkpt>
      <trkpt lat="45.77658" lon="4.8141">
        <ele>223</ele>
        <time>2014-09-07T07:55:13Z</time>
      </trkpt>
      <trkpt lat="45.77655" lon="4.81415">
        <ele>222</ele>
        <time>2014-09-07T07:55:14Z</time>
      </trkpt>
      <trkpt lat="45.77645" lon="4.81448">
        <ele>223</ele>
        <time>2014-09-07T07:55:19Z</time>
      </trkpt>
      <trkpt lat="45.77646" lon="4.81454">
        <ele>223</ele>
        <time>2014-09-07T07:55:20Z</time>
      </trkpt>
      <trkpt lat="45.77648" lon="4.81468">
        <ele>224</ele>
        <time>2014-09-07T07:55:22Z</time>
      </trkpt>
      <trkpt lat="45.7765" lon="4.81476">
        <ele>225</ele>
        <time>2014-09-07T07:55:23Z</time>
      </trkpt>
      <trkpt lat="45.77654" lon="4.81499">
        <ele>229</ele>
        <time>2014-09-07T07:55:26Z</time>
      </trkpt>
      <trkpt lat="45.77657" lon="4.81524">
        <ele>229</ele>
        <time>2014-09-07T07:55:29Z</time>
      </trkpt>
      <trkpt lat="45.77658" lon="4.81546">
        <ele>229</ele>
        <time>2014-09-07T07:55:32Z</time>
      </trkpt>
      <trkpt lat="45.77658" lon="4.81558">
        <ele>229</ele>
        <time>2014-09-07T07:55:34Z</time>
      </trkpt>
      <trkpt lat="45.77658" lon="4.81581">
        <ele>231</ele>
        <time>2014-09-07T07:55:38Z</time>
      </trkpt>
      <trkpt lat="45.77658" lon="4.81592">
        <ele>233</ele>
        <time>2014-09-07T07:55:40Z</time>
      </trkpt>
      <trkpt lat="45.77659" lon="4.81618">
        <ele>234</ele>
        <time>2014-09-07T07:55:45Z</time>
      </trkpt>
      <trkpt lat="45.77658" lon="4.81634">
        <ele>234</ele>
        <time>2014-09-07T07:55:50Z</time>
      </trkpt>
      <trkpt lat="45.77659" lon="4.81641">
        <ele>234</ele>
        <time>2014-09-07T07:55:52Z</time>
      </trkpt>
      <trkpt lat="45.77656" lon="4.81647">
        <ele>235</ele>
        <time>2014-09-07T07:55:54Z</time>
      </trkpt>
      <trkpt lat="45.77653" lon="4.81653">
        <ele>235</ele>
        <time>2014-09-07T07:55:56Z</time>
      </trkpt>
      <trkpt lat="45.77641" lon="4.81676">
        <ele>238</ele>
        <time>2014-09-07T07:56:02Z</time>
      </trkpt>
      <trkpt lat="45.77639" lon="4.8168">
        <ele>238</ele>
        <time>2014-09-07T07:56:03Z</time>
      </trkpt>
      <trkpt lat="45.77621" lon="4.81709">
        <ele>239</ele>
        <time>2014-09-07T07:56:10Z</time>
      </trkpt>
      <trkpt lat="45.77611" lon="4.8172">
        <ele>239</ele>
        <time>2014-09-07T07:56:13Z</time>
      </trkpt>
      <trkpt lat="45.77593" lon="4.81741">
        <ele>241</ele>
        <time>2014-09-07T07:56:18Z</time>
      </trkpt>
      <trkpt lat="45.77581" lon="4.81755">
        <ele>242</ele>
        <time>2014-09-07T07:56:21Z</time>
      </trkpt>
      <trkpt lat="45.77565" lon="4.81771">
        <ele>243</ele>
        <time>2014-09-07T07:56:25Z</time>
      </trkpt>
      <trkpt lat="45.77551" lon="4.81785">
        <ele>244</ele>
        <time>2014-09-07T07:56:28Z</time>
      </trkpt>
      <trkpt lat="45.77539" lon="4.818">
        <ele>244</ele>
        <time>2014-09-07T07:56:31Z</time>
      </trkpt>
      <trkpt lat="45.77526" lon="4.81803">
        <ele>244</ele>
        <time>2014-09-07T07:56:34Z</time>
      </trkpt>
      <trkpt lat="45.77521" lon="4.81797">
        <ele>244</ele>
        <time>2014-09-07T07:56:36Z</time>
      </trkpt>
      <trkpt lat="45.77518" lon="4.81792">
        <ele>244</ele>
        <time>2014-09-07T07:56:37Z</time>
      </trkpt>
      <trkpt lat="45.77515" lon="4.81787">
        <ele>244</ele>
        <time>2014-09-07T07:56:38Z</time>
      </trkpt>
      <trkpt lat="45.77494" lon="4.81749">
        <ele>242</ele>
        <time>2014-09-07T07:56:44Z</time>
      </trkpt>
      <trkpt lat="45.77491" lon="4.81741">
        <ele>241</ele>
        <time>2014-09-07T07:56:45Z</time>
      </trkpt>
      <trkpt lat="45.77486" lon="4.81718">
        <ele>239</ele>
        <time>2014-09-07T07:56:48Z</time>
      </trkpt>
      <trkpt lat="45.77492" lon="4.81699">
        <ele>239</ele>
        <time>2014-09-07T07:56:51Z</time>
      </trkpt>
      <trkpt lat="45.77508" lon="4.81696">
        <ele>240</ele>
        <time>2014-09-07T07:56:54Z</time>
      </trkpt>
      <trkpt lat="45.77517" lon="4.81693">
        <ele>240</ele>
        <time>2014-09-07T07:56:56Z</time>
      </trkpt>
      <trkpt lat="45.77523" lon="4.8169">
        <ele>240</ele>
        <time>2014-09-07T07:56:57Z</time>
      </trkpt>
      <trkpt lat="45.77528" lon="4.81686">
        <ele>240</ele>
        <time>2014-09-07T07:56:58Z</time>
      </trkpt>
      <trkpt lat="45.77533" lon="4.81682">
        <ele>240</ele>
        <time>2014-09-07T07:56:59Z</time>
      </trkpt>
      <trkpt lat="45.77557" lon="4.81676">
        <ele>240</ele>
        <time>2014-09-07T07:57:03Z</time>
      </trkpt>
      <trkpt lat="45.77566" lon="4.81676">
        <ele>240</ele>
        <time>2014-09-07T07:57:05Z</time>
      </trkpt>
      <trkpt lat="45.77571" lon="4.81672">
        <ele>240</ele>
        <time>2014-09-07T07:57:07Z</time>
      </trkpt>
      <trkpt lat="45.77584" lon="4.81661">
        <ele>238</ele>
        <time>2014-09-07T07:57:10Z</time>
      </trkpt>
      <trkpt lat="45.77594" lon="4.81655">
        <ele>236</ele>
        <time>2014-09-07T07:57:12Z</time>
      </trkpt>
      <trkpt lat="45.77599" lon="4.81652">
        <ele>236</ele>
        <time>2014-09-07T07:57:13Z</time>
      </trkpt>
      <trkpt lat="45.77605" lon="4.81649">
        <ele>235</ele>
        <time>2014-09-07T07:57:14Z</time>
      </trkpt>
      <trkpt lat="45.77618" lon="4.81642">
        <ele>234</ele>
        <time>2014-09-07T07:57:16Z</time>
      </trkpt>
      <trkpt lat="45.77623" lon="4.81637">
        <ele>234</ele>
        <time>2014-09-07T07:57:17Z</time>
      </trkpt>
      <trkpt lat="45.77631" lon="4.81624">
        <ele>234</ele>
        <time>2014-09-07T07:57:19Z</time>
      </trkpt>
      <trkpt lat="45.77633" lon="4.81616">
        <ele>233</ele>
        <time>2014-09-07T07:57:20Z</time>
      </trkpt>
      <trkpt lat="45.77636" lon="4.81608">
        <ele>233</ele>
        <time>2014-09-07T07:57:21Z</time>
      </trkpt>
      <trkpt lat="45.77638" lon="4.816">
        <ele>233</ele>
        <time>2014-09-07T07:57:22Z</time>
      </trkpt>
      <trkpt lat="45.77641" lon="4.81572">
        <ele>229</ele>
        <time>2014-09-07T07:57:25Z</time>
      </trkpt>
      <trkpt lat="45.77642" lon="4.8156">
        <ele>229</ele>
        <time>2014-09-07T07:57:26Z</time>
      </trkpt>
      <trkpt lat="45.7764" lon="4.81518">
        <ele>228</ele>
        <time>2014-09-07T07:57:30Z</time>
      </trkpt>
      <trkpt lat="45.77641" lon="4.81511">
        <ele>228</ele>
        <time>2014-09-07T07:57:31Z</time>
      </trkpt>
      <trkpt lat="45.7764" lon="4.81503">
        <ele>228</ele>
        <time>2014-09-07T07:57:33Z</time>
      </trkpt>
      <trkpt lat="45.77639" lon="4.81506">
        <ele>228</ele>
        <time>2014-09-07T07:57:34Z</time>
      </trkpt>
      <trkpt lat="45.7764" lon="4.81511">
        <ele>228</ele>
        <time>2014-09-07T07:57:35Z</time>
      </trkpt>
      <trkpt lat="45.7764" lon="4.81539">
        <ele>228</ele>
        <time>2014-09-07T07:57:38Z</time>
      </trkpt>
      <trkpt lat="45.77639" lon="4.81549">
        <ele>228</ele>
        <time>2014-09-07T07:57:39Z</time>
      </trkpt>
      <trkpt lat="45.77638" lon="4.81558">
        <ele>228</ele>
        <time>2014-09-07T07:57:40Z</time>
      </trkpt>
      <trkpt lat="45.7763" lon="4.81564">
        <ele>228</ele>
        <time>2014-09-07T07:57:42Z</time>
      </trkpt>
      <trkpt lat="45.77616" lon="4.8154">
        <ele>226</ele>
        <time>2014-09-07T07:57:46Z</time>
      </trkpt>
      <trkpt lat="45.77615" lon="4.81533">
        <ele>225</ele>
        <time>2014-09-07T07:57:47Z</time>
      </trkpt>
      <trkpt lat="45.77613" lon="4.81524">
        <ele>225</ele>
        <time>2014-09-07T07:57:48Z</time>
      </trkpt>
      <trkpt lat="45.7761" lon="4.81515">
        <ele>224</ele>
        <time>2014-09-07T07:57:49Z</time>
      </trkpt>
      <trkpt lat="45.77592" lon="4.81496">
        <ele>216</ele>
        <time>2014-09-07T07:57:53Z</time>
      </trkpt>
      <trkpt lat="45.77569" lon="4.81506">
        <ele>216</ele>
        <time>2014-09-07T07:57:56Z</time>
      </trkpt>
      <trkpt lat="45.77562" lon="4.8151">
        <ele>217</ele>
        <time>2014-09-07T07:57:57Z</time>
      </trkpt>
      <trkpt lat="45.77556" lon="4.81514">
        <ele>217</ele>
        <time>2014-09-07T07:57:58Z</time>
      </trkpt>
      <trkpt lat="45.7755" lon="4.81517">
        <ele>217</ele>
        <time>2014-09-07T07:57:59Z</time>
      </trkpt>
      <trkpt lat="45.77545" lon="4.81519">
        <ele>217</ele>
        <time>2014-09-07T07:58:00Z</time>
      </trkpt>
      <trkpt lat="45.77527" lon="4.81517">
        <ele>216</ele>
        <time>2014-09-07T07:58:03Z</time>
      </trkpt>
      <trkpt lat="45.77516" lon="4.81515">
        <ele>214</ele>
        <time>2014-09-07T07:58:05Z</time>
      </trkpt>
      <trkpt lat="45.77484" lon="4.81516">
        <ele>211</ele>
        <time>2014-09-07T07:58:10Z</time>
      </trkpt>
      <trkpt lat="45.77475" lon="4.81515">
        <ele>211</ele>
        <time>2014-09-07T07:58:11Z</time>
      </trkpt>
      <trkpt lat="45.77445" lon="4.81516">
        <ele>209</ele>
        <time>2014-09-07T07:58:14Z</time>
      </trkpt>
      <trkpt lat="45.77437" lon="4.81517">
        <ele>208</ele>
        <time>2014-09-07T07:58:15Z</time>
      </trkpt>
      <trkpt lat="45.77427" lon="4.81521">
        <ele>208</ele>
        <time>2014-09-07T07:58:17Z</time>
      </trkpt>
      <trkpt lat="45.77407" lon="4.81523">
        <ele>205</ele>
        <time>2014-09-07T07:58:21Z</time>
      </trkpt>
      <trkpt lat="45.774" lon="4.81525">
        <ele>206</ele>
        <time>2014-09-07T07:58:22Z</time>
      </trkpt>
      <trkpt lat="45.77386" lon="4.81533">
        <ele>208</ele>
        <time>2014-09-07T07:58:24Z</time>
      </trkpt>
      <trkpt lat="45.77364" lon="4.81548">
        <ele>210</ele>
        <time>2014-09-07T07:58:28Z</time>
      </trkpt>
      <trkpt lat="45.7736" lon="4.8155">
        <ele>210</ele>
        <time>2014-09-07T07:58:29Z</time>
      </trkpt>
      <trkpt lat="45.77357" lon="4.81549">
        <ele>210</ele>
        <time>2014-09-07T07:58:32Z</time>
      </trkpt>
      <trkpt lat="45.77352" lon="4.81555">
        <ele>211</ele>
        <time>2014-09-07T07:58:36Z</time>
      </trkpt>
      <trkpt lat="45.77343" lon="4.81562">
        <ele>213</ele>
        <time>2014-09-07T07:58:41Z</time>
      </trkpt>
      <trkpt lat="45.77337" lon="4.81562">
        <ele>213</ele>
        <time>2014-09-07T07:58:48Z</time>
      </trkpt>
      <trkpt lat="45.77328" lon="4.81562">
        <ele>211</ele>
        <time>2014-09-07T07:58:52Z</time>
      </trkpt>
      <trkpt lat="45.77309" lon="4.81564">
        <ele>210</ele>
        <time>2014-09-07T07:58:58Z</time>
      </trkpt>
      <trkpt lat="45.77295" lon="4.81569">
        <ele>210</ele>
        <time>2014-09-07T07:59:02Z</time>
      </trkpt>
      <trkpt lat="45.77291" lon="4.81569">
        <ele>209</ele>
        <time>2014-09-07T07:59:03Z</time>
      </trkpt>
      <trkpt lat="45.77273" lon="4.81572">
        <ele>210</ele>
        <time>2014-09-07T07:59:08Z</time>
      </trkpt>
      <trkpt lat="45.77257" lon="4.81565">
        <ele>211</ele>
        <time>2014-09-07T07:59:13Z</time>
      </trkpt>
      <trkpt lat="45.77239" lon="4.81558">
        <ele>210</ele>
        <time>2014-09-07T07:59:18Z</time>
      </trkpt>
      <trkpt lat="45.7722" lon="4.81555">
        <ele>209</ele>
        <time>2014-09-07T07:59:23Z</time>
      </trkpt>
      <trkpt lat="45.77213" lon="4.8155">
        <ele>208</ele>
        <time>2014-09-07T07:59:25Z</time>
      </trkpt>
      <trkpt lat="45.77203" lon="4.81547">
        <ele>208</ele>
        <time>2014-09-07T07:59:28Z</time>
      </trkpt>
      <trkpt lat="45.7719" lon="4.81546">
        <ele>209</ele>
        <time>2014-09-07T07:59:34Z</time>
      </trkpt>
      <trkpt lat="45.77184" lon="4.81548">
        <ele>209</ele>
        <time>2014-09-07T07:59:39Z</time>
      </trkpt>
      <trkpt lat="45.77178" lon="4.81548">
        <ele>210</ele>
        <time>2014-09-07T07:59:45Z</time>
      </trkpt>
      <trkpt lat="45.77175" lon="4.81546">
        <ele>209</ele>
        <time>2014-09-07T07:59:50Z</time>
      </trkpt>
      <trkpt lat="45.7717" lon="4.81546">
        <ele>210</ele>
        <time>2014-09-07T07:59:58Z</time>
      </trkpt>
      <trkpt lat="45.77166" lon="4.81548">
        <ele>212</ele>
        <time>2014-09-07T08:00:04Z</time>
      </trkpt>
      <trkpt lat="45.77163" lon="4.8155">
        <ele>212</ele>
        <time>2014-09-07T08:00:10Z</time>
      </trkpt>
      <trkpt lat="45.77154" lon="4.81557">
        <ele>213</ele>
        <time>2014-09-07T08:00:16Z</time>
      </trkpt>
      <trkpt lat="45.77151" lon="4.81563">
        <ele>214</ele>
        <time>2014-09-07T08:00:19Z</time>
      </trkpt>
      <trkpt lat="45.77148" lon="4.8157">
        <ele>214</ele>
        <time>2014-09-07T08:00:22Z</time>
      </trkpt>
      <trkpt lat="45.7714" lon="4.81585">
        <ele>221</ele>
        <time>2014-09-07T08:00:29Z</time>
      </trkpt>
      <trkpt lat="45.77138" lon="4.81599">
        <ele>222</ele>
        <time>2014-09-07T08:00:35Z</time>
      </trkpt>
      <trkpt lat="45.7713" lon="4.81602">
        <ele>222</ele>
        <time>2014-09-07T08:00:38Z</time>
      </trkpt>
      <trkpt lat="45.77123" lon="4.816">
        <ele>222</ele>
        <time>2014-09-07T08:00:40Z</time>
      </trkpt>
      <trkpt lat="45.77113" lon="4.816">
        <ele>221</ele>
        <time>2014-09-07T08:00:42Z</time>
      </trkpt>
      <trkpt lat="45.77093" lon="4.816">
        <ele>220</ele>
        <time>2014-09-07T08:00:45Z</time>
      </trkpt>
      <trkpt lat="45.77085" lon="4.81599">
        <ele>220</ele>
        <time>2014-09-07T08:00:46Z</time>
      </trkpt>
      <trkpt lat="45.77053" lon="4.81597">
        <ele>215</ele>
        <time>2014-09-07T08:00:50Z</time>
      </trkpt>
      <trkpt lat="45.77024" lon="4.81603">
        <ele>212</ele>
        <time>2014-09-07T08:00:54Z</time>
      </trkpt>
      <trkpt lat="45.77014" lon="4.81605">
        <ele>211</ele>
        <time>2014-09-07T08:00:56Z</time>
      </trkpt>
      <trkpt lat="45.77005" lon="4.81608">
        <ele>211</ele>
        <time>2014-09-07T08:00:58Z</time>
      </trkpt>
      <trkpt lat="45.76987" lon="4.81624">
        <ele>204</ele>
        <time>2014-09-07T08:01:03Z</time>
      </trkpt>
      <trkpt lat="45.7698" lon="4.81629">
        <ele>204</ele>
        <time>2014-09-07T08:01:05Z</time>
      </trkpt>
      <trkpt lat="45.76974" lon="4.81636">
        <ele>204</ele>
        <time>2014-09-07T08:01:07Z</time>
      </trkpt>
      <trkpt lat="45.76949" lon="4.81662">
        <ele>201</ele>
        <time>2014-09-07T08:01:14Z</time>
      </trkpt>
      <trkpt lat="45.76946" lon="4.81665">
        <ele>201</ele>
        <time>2014-09-07T08:01:15Z</time>
      </trkpt>
      <trkpt lat="45.76924" lon="4.81688">
        <ele>204</ele>
        <time>2014-09-07T08:01:23Z</time>
      </trkpt>
      <trkpt lat="45.76921" lon="4.81695">
        <ele>205</ele>
        <time>2014-09-07T08:01:25Z</time>
      </trkpt>
      <trkpt lat="45.76916" lon="4.81713">
        <ele>194</ele>
        <time>2014-09-07T08:01:29Z</time>
      </trkpt>
      <trkpt lat="45.76911" lon="4.81745">
        <ele>202</ele>
        <time>2014-09-07T08:01:35Z</time>
      </trkpt>
      <trkpt lat="45.76909" lon="4.81756">
        <ele>203</ele>
        <time>2014-09-07T08:01:37Z</time>
      </trkpt>
      <trkpt lat="45.76904" lon="4.81798">
        <ele>198</ele>
        <time>2014-09-07T08:01:44Z</time>
      </trkpt>
      <trkpt lat="45.76903" lon="4.8181">
        <ele>200</ele>
        <time>2014-09-07T08:01:46Z</time>
      </trkpt>
      <trkpt lat="45.76898" lon="4.81852">
        <ele>203</ele>
        <time>2014-09-07T08:01:53Z</time>
      </trkpt>
      <trkpt lat="45.76895" lon="4.81864">
        <ele>202</ele>
        <time>2014-09-07T08:01:55Z</time>
      </trkpt>
      <trkpt lat="45.7689" lon="4.81873">
        <ele>201</ele>
        <time>2014-09-07T08:01:57Z</time>
      </trkpt>
      <trkpt lat="45.76886" lon="4.8189">
        <ele>201</ele>
        <time>2014-09-07T08:02:00Z</time>
      </trkpt>
      <trkpt lat="45.76885" lon="4.81896">
        <ele>202</ele>
        <time>2014-09-07T08:02:01Z</time>
      </trkpt>
      <trkpt lat="45.76884" lon="4.81903">
        <ele>202</ele>
        <time>2014-09-07T08:02:02Z</time>
      </trkpt>
      <trkpt lat="45.76884" lon="4.81928">
        <ele>204</ele>
        <time>2014-09-07T08:02:07Z</time>
      </trkpt>
      <trkpt lat="45.76885" lon="4.81939">
        <ele>204</ele>
        <time>2014-09-07T08:02:11Z</time>
      </trkpt>
      <trkpt lat="45.76886" lon="4.81941">
        <ele>204</ele>
        <time>2014-09-07T08:02:12Z</time>
      </trkpt>
      <trkpt lat="45.76888" lon="4.81948">
        <ele>204</ele>
        <time>2014-09-07T08:02:16Z</time>
      </trkpt>
      <trkpt lat="45.76888" lon="4.81952">
        <ele>204</ele>
        <time>2014-09-07T08:02:19Z</time>
      </trkpt>
      <trkpt lat="45.76883" lon="4.81952">
        <ele>203</ele>
        <time>2014-09-07T08:02:25Z</time>
      </trkpt>
      <trkpt lat="45.7688" lon="4.81951">
        <ele>202</ele>
        <time>2014-09-07T08:02:32Z</time>
      </trkpt>
      <trkpt lat="45.76875" lon="4.81954">
        <ele>201</ele>
        <time>2014-09-07T08:02:39Z</time>
      </trkpt>
      <trkpt lat="45.76876" lon="4.81965">
        <ele>201</ele>
        <time>2014-09-07T08:02:43Z</time>
      </trkpt>
      <trkpt lat="45.76882" lon="4.81992">
        <ele>203</ele>
        <time>2014-09-07T08:02:48Z</time>
      </trkpt>
      <trkpt lat="45.76885" lon="4.82005">
        <ele>203</ele>
        <time>2014-09-07T08:02:50Z</time>
      </trkpt>
      <trkpt lat="45.76888" lon="4.82035">
        <ele>203</ele>
        <time>2014-09-07T08:02:55Z</time>
      </trkpt>
      <trkpt lat="45.76887" lon="4.82046">
        <ele>202</ele>
        <time>2014-09-07T08:02:57Z</time>
      </trkpt>
      <trkpt lat="45.76886" lon="4.82059">
        <ele>202</ele>
        <time>2014-09-07T08:02:59Z</time>
      </trkpt>
      <trkpt lat="45.76886" lon="4.82066">
        <ele>203</ele>
        <time>2014-09-07T08:03:00Z</time>
      </trkpt>
      <trkpt lat="45.7689" lon="4.82082">
        <ele>204</ele>
        <time>2014-09-07T08:03:03Z</time>
      </trkpt>
      <trkpt lat="45.76893" lon="4.82098">
        <ele>203</ele>
        <time>2014-09-07T08:03:06Z</time>
      </trkpt>
      <trkpt lat="45.76892" lon="4.82104">
        <ele>202</ele>
        <time>2014-09-07T08:03:07Z</time>
      </trkpt>
      <trkpt lat="45.76891" lon="4.8211">
        <ele>202</ele>
        <time>2014-09-07T08:03:08Z</time>
      </trkpt>
      <trkpt lat="45.76889" lon="4.82123">
        <ele>201</ele>
        <time>2014-09-07T08:03:10Z</time>
      </trkpt>
      <trkpt lat="45.76891" lon="4.82144">
        <ele>201</ele>
        <time>2014-09-07T08:03:13Z</time>
      </trkpt>
      <trkpt lat="45.76893" lon="4.8215">
        <ele>202</ele>
        <time>2014-09-07T08:03:14Z</time>
      </trkpt>
      <trkpt lat="45.76899" lon="4.82166">
        <ele>205</ele>
        <time>2014-09-07T08:03:17Z</time>
      </trkpt>
      <trkpt lat="45.76902" lon="4.82178">
        <ele>203</ele>
        <time>2014-09-07T08:03:19Z</time>
      </trkpt>
      <trkpt lat="45.76911" lon="4.82196">
        <ele>201</ele>
        <time>2014-09-07T08:03:22Z</time>
      </trkpt>
      <trkpt lat="45.76915" lon="4.82208">
        <ele>201</ele>
        <time>2014-09-07T08:03:24Z</time>
      </trkpt>
      <trkpt lat="45.76917" lon="4.82222">
        <ele>216</ele>
        <time>2014-09-07T08:03:26Z</time>
      </trkpt>
      <trkpt lat="45.76921" lon="4.82246">
        <ele>210</ele>
        <time>2014-09-07T08:03:30Z</time>
      </trkpt>
      <trkpt lat="45.76925" lon="4.8227">
        <ele>213</ele>
        <time>2014-09-07T08:03:34Z</time>
      </trkpt>
      <trkpt lat="45.76929" lon="4.82296">
        <ele>215</ele>
        <time>2014-09-07T08:03:38Z</time>
      </trkpt>
      <trkpt lat="45.76932" lon="4.82319">
        <ele>213</ele>
        <time>2014-09-07T08:03:41Z</time>
      </trkpt>
      <trkpt lat="45.76937" lon="4.82348">
        <ele>211</ele>
        <time>2014-09-07T08:03:45Z</time>
      </trkpt>
      <trkpt lat="45.76939" lon="4.82364">
        <ele>212</ele>
        <time>2014-09-07T08:03:47Z</time>
      </trkpt>
      <trkpt lat="45.76941" lon="4.82393">
        <ele>210</ele>
        <time>2014-09-07T08:03:52Z</time>
      </trkpt>
      <trkpt lat="45.76942" lon="4.82403">
        <ele>209</ele>
        <time>2014-09-07T08:03:56Z</time>
      </trkpt>
      <trkpt lat="45.76942" lon="4.82404">
        <ele>209</ele>
        <time>2014-09-07T08:03:57Z</time>
      </trkpt>
      <trkpt lat="45.76944" lon="4.82404">
        <ele>210</ele>
        <time>2014-09-07T08:03:58Z</time>
      </trkpt>
      <trkpt lat="45.76948" lon="4.82412">
        <ele>210</ele>
        <time>2014-09-07T08:04:01Z</time>
      </trkpt>
      <trkpt lat="45.7695" lon="4.82432">
        <ele>206</ele>
        <time>2014-09-07T08:04:04Z</time>
      </trkpt>
      <trkpt lat="45.7695" lon="4.82439">
        <ele>206</ele>
        <time>2014-09-07T08:04:05Z</time>
      </trkpt>
      <trkpt lat="45.7695" lon="4.82451">
        <ele>205</ele>
        <time>2014-09-07T08:04:07Z</time>
      </trkpt>
      <trkpt lat="45.76949" lon="4.82467">
        <ele>204</ele>
        <time>2014-09-07T08:04:10Z</time>
      </trkpt>
      <trkpt lat="45.76947" lon="4.82496">
        <ele>202</ele>
        <time>2014-09-07T08:04:15Z</time>
      </trkpt>
      <trkpt lat="45.76947" lon="4.82509">
        <ele>199</ele>
        <time>2014-09-07T08:04:17Z</time>
      </trkpt>
      <trkpt lat="45.76946" lon="4.82541">
        <ele>200</ele>
        <time>2014-09-07T08:04:21Z</time>
      </trkpt>
      <trkpt lat="45.76942" lon="4.82562">
        <ele>199</ele>
        <time>2014-09-07T08:04:23Z</time>
      </trkpt>
      <trkpt lat="45.76942" lon="4.82579">
        <ele>198</ele>
        <time>2014-09-07T08:04:25Z</time>
      </trkpt>
      <trkpt lat="45.76943" lon="4.82588">
        <ele>198</ele>
        <time>2014-09-07T08:04:26Z</time>
      </trkpt>
      <trkpt lat="45.7694" lon="4.82615">
        <ele>198</ele>
        <time>2014-09-07T08:04:29Z</time>
      </trkpt>
      <trkpt lat="45.76938" lon="4.8263">
        <ele>198</ele>
        <time>2014-09-07T08:04:31Z</time>
      </trkpt>
      <trkpt lat="45.76937" lon="4.82661">
        <ele>197</ele>
        <time>2014-09-07T08:04:36Z</time>
      </trkpt>
      <trkpt lat="45.76937" lon="4.8267">
        <ele>195</ele>
        <time>2014-09-07T08:04:37Z</time>
      </trkpt>
      <trkpt lat="45.7694" lon="4.82678">
        <ele>196</ele>
        <time>2014-09-07T08:04:38Z</time>
      </trkpt>
      <trkpt lat="45.76944" lon="4.82687">
        <ele>196</ele>
        <time>2014-09-07T08:04:39Z</time>
      </trkpt>
      <trkpt lat="45.76952" lon="4.82718">
        <ele>196</ele>
        <time>2014-09-07T08:04:42Z</time>
      </trkpt>
      <trkpt lat="45.76956" lon="4.82731">
        <ele>196</ele>
        <time>2014-09-07T08:04:43Z</time>
      </trkpt>
      <trkpt lat="45.76959" lon="4.82776">
        <ele>194</ele>
        <time>2014-09-07T08:04:47Z</time>
      </trkpt>
      <trkpt lat="45.76962" lon="4.82786">
        <ele>194</ele>
        <time>2014-09-07T08:04:48Z</time>
      </trkpt>
      <trkpt lat="45.76962" lon="4.82795">
        <ele>194</ele>
        <time>2014-09-07T08:04:49Z</time>
      </trkpt>
      <trkpt lat="45.76962" lon="4.82826">
        <ele>193</ele>
        <time>2014-09-07T08:04:52Z</time>
      </trkpt>
      <trkpt lat="45.76962" lon="4.82838">
        <ele>192</ele>
        <time>2014-09-07T08:04:53Z</time>
      </trkpt>
      <trkpt lat="45.76967" lon="4.82876">
        <ele>192</ele>
        <time>2014-09-07T08:04:56Z</time>
      </trkpt>
      <trkpt lat="45.7697" lon="4.82889">
        <ele>192</ele>
        <time>2014-09-07T08:04:57Z</time>
      </trkpt>
      <trkpt lat="45.76981" lon="4.82927">
        <ele>193</ele>
        <time>2014-09-07T08:05:01Z</time>
      </trkpt>
      <trkpt lat="45.76987" lon="4.82946">
        <ele>193</ele>
        <time>2014-09-07T08:05:03Z</time>
      </trkpt>
      <trkpt lat="45.76989" lon="4.82962">
        <ele>193</ele>
        <time>2014-09-07T08:05:05Z</time>
      </trkpt>
      <trkpt lat="45.76992" lon="4.82969">
        <ele>193</ele>
        <time>2014-09-07T08:05:06Z</time>
      </trkpt>
      <trkpt lat="45.76995" lon="4.82987">
        <ele>194</ele>
        <time>2014-09-07T08:05:09Z</time>
      </trkpt>
      <trkpt lat="45.76999" lon="4.82998">
        <ele>195</ele>
        <time>2014-09-07T08:05:12Z</time>
      </trkpt>
      <trkpt lat="45.76999" lon="4.83001">
        <ele>195</ele>
        <time>2014-09-07T08:05:13Z</time>
      </trkpt>
      <trkpt lat="45.76999" lon="4.83011">
        <ele>194</ele>
        <time>2014-09-07T08:05:19Z</time>
      </trkpt>
      <trkpt lat="45.77001" lon="4.83019">
        <ele>198</ele>
        <time>2014-09-07T08:05:25Z</time>
      </trkpt>
      <trkpt lat="45.77003" lon="4.83022">
        <ele>199</ele>
        <time>2014-09-07T08:05:28Z</time>
      </trkpt>
      <trkpt lat="45.77006" lon="4.83027">
        <ele>199</ele>
        <time>2014-09-07T08:05:32Z</time>
      </trkpt>
      <trkpt lat="45.77007" lon="4.83038">
        <ele>200</ele>
        <time>2014-09-07T08:05:39Z</time>
      </trkpt>
      <trkpt lat="45.77004" lon="4.83038">
        <ele>199</ele>
        <time>2014-09-07T08:05:45Z</time>
      </trkpt>
      <trkpt lat="45.77002" lon="4.83038">
        <ele>199</ele>
        <time>2014-09-07T08:05:51Z</time>
      </trkpt>
      <trkpt lat="45.76997" lon="4.8304">
        <ele>193</ele>
        <time>2014-09-07T08:05:55Z</time>
      </trkpt>
      <trkpt lat="45.76995" lon="4.83041">
        <ele>193</ele>
        <time>2014-09-07T08:05:56Z</time>
      </trkpt>
      <trkpt lat="45.76978" lon="4.83049">
        <ele>192</ele>
        <time>2014-09-07T08:06:02Z</time>
      </trkpt>
      <trkpt lat="45.7697" lon="4.83048">
        <ele>192</ele>
        <time>2014-09-07T08:06:05Z</time>
      </trkpt>
      <trkpt lat="45.7697" lon="4.83047">
        <ele>192</ele>
        <time>2014-09-07T08:06:07Z</time>
      </trkpt>
      <trkpt lat="45.7697" lon="4.83047">
        <ele>192</ele>
        <time>2014-09-07T08:06:08Z</time>
      </trkpt>
      <trkpt lat="45.76967" lon="4.83052">
        <ele>192</ele>
        <time>2014-09-07T08:06:12Z</time>
      </trkpt>
      <trkpt lat="45.76966" lon="4.83054">
        <ele>192</ele>
        <time>2014-09-07T08:06:13Z</time>
      </trkpt>
      <trkpt lat="45.76966" lon="4.8306">
        <ele>192</ele>
        <time>2014-09-07T08:06:16Z</time>
      </trkpt>
      <trkpt lat="45.76969" lon="4.83079">
        <ele>192</ele>
        <time>2014-09-07T08:06:21Z</time>
      </trkpt>
      <trkpt lat="45.76967" lon="4.83096">
        <ele>194</ele>
        <time>2014-09-07T08:06:26Z</time>
      </trkpt>
      <trkpt lat="45.76966" lon="4.83107">
        <ele>194</ele>
        <time>2014-09-07T08:06:32Z</time>
      </trkpt>
      <trkpt lat="45.76969" lon="4.83103">
        <ele>194</ele>
        <time>2014-09-07T08:06:35Z</time>
      </trkpt>
      <trkpt lat="45.76971" lon="4.83102">
        <ele>194</ele>
        <time>2014-09-07T08:06:36Z</time>
      </trkpt>
      <trkpt lat="45.77038" lon="4.83095">
        <ele>203</ele>
        <time>2014-09-07T08:06:57Z</time>
      </trkpt>
      <trkpt lat="45.77037" lon="4.83102">
        <ele>203</ele>
        <time>2014-09-07T08:06:58Z</time>
      </trkpt>
      <trkpt lat="45.77039" lon="4.83105">
        <ele>204</ele>
        <time>2014-09-07T08:07:01Z</time>
      </trkpt>
      <trkpt lat="45.77041" lon="4.83109">
        <ele>204</ele>
        <time>2014-09-07T08:07:03Z</time>
      </trkpt>
      <trkpt lat="45.77047" lon="4.83123">
        <ele>205</ele>
        <time>2014-09-07T08:07:08Z</time>
      </trkpt>
      <trkpt lat="45.77048" lon="4.83125">
        <ele>205</ele>
        <time>2014-09-07T08:07:09Z</time>
      </trkpt>
      <trkpt lat="45.77056" lon="4.83123">
        <ele>206</ele>
        <time>2014-09-07T08:07:13Z</time>
      </trkpt>
      <trkpt lat="45.77346" lon="4.83081">
        <ele>256</ele>
        <time>2014-09-07T08:10:18Z</time>
      </trkpt>
      <trkpt lat="45.77352" lon="4.83084">
        <ele>255</ele>
        <time>2014-09-07T08:10:23Z</time>
      </trkpt>
      <trkpt lat="45.77355" lon="4.83097">
        <ele>255</ele>
        <time>2014-09-07T08:10:28Z</time>
      </trkpt>
      <trkpt lat="45.77361" lon="4.83099">
        <ele>255</ele>
        <time>2014-09-07T08:10:32Z</time>
      </trkpt>
      <trkpt lat="45.77372" lon="4.83101">
        <ele>255</ele>
        <time>2014-09-07T08:10:38Z</time>
      </trkpt>
      <trkpt lat="45.7738" lon="4.83102">
        <ele>255</ele>
        <time>2014-09-07T08:10:42Z</time>
      </trkpt>
      <trkpt lat="45.77388" lon="4.83103">
        <ele>255</ele>
        <time>2014-09-07T08:10:47Z</time>
      </trkpt>
      <trkpt lat="45.77404" lon="4.83101">
        <ele>255</ele>
        <time>2014-09-07T08:10:53Z</time>
      </trkpt>
      <trkpt lat="45.77415" lon="4.83099">
        <ele>255</ele>
        <time>2014-09-07T08:10:56Z</time>
      </trkpt>
      <trkpt lat="45.77418" lon="4.83099">
        <ele>255</ele>
        <time>2014-09-07T08:10:57Z</time>
      </trkpt>
      <trkpt lat="45.7742" lon="4.83101">
        <ele>255</ele>
        <time>2014-09-07T08:10:58Z</time>
      </trkpt>
      <trkpt lat="45.77423" lon="4.83109">
        <ele>255</ele>
        <time>2014-09-07T08:11:01Z</time>
      </trkpt>
      <trkpt lat="45.77423" lon="4.83112">
        <ele>255</ele>
        <time>2014-09-07T08:11:02Z</time>
      </trkpt>
      <trkpt lat="45.77424" lon="4.8313">
        <ele>255</ele>
        <time>2014-09-07T08:11:07Z</time>
      </trkpt>
      <trkpt lat="45.77425" lon="4.83151">
        <ele>255</ele>
        <time>2014-09-07T08:11:13Z</time>
      </trkpt>
      <trkpt lat="45.77424" lon="4.83154">
        <ele>255</ele>
        <time>2014-09-07T08:11:14Z</time>
      </trkpt>
      <trkpt lat="45.77425" lon="4.83172">
        <ele>255</ele>
        <time>2014-09-07T08:11:19Z</time>
      </trkpt>
      <trkpt lat="45.77426" lon="4.83182">
        <ele>255</ele>
        <time>2014-09-07T08:11:22Z</time>
      </trkpt>
      <trkpt lat="45.77428" lon="4.83188">
        <ele>255</ele>
        <time>2014-09-07T08:11:24Z</time>
      </trkpt>
      <trkpt lat="45.7743" lon="4.832">
        <ele>255</ele>
        <time>2014-09-07T08:11:27Z</time>
      </trkpt>
      <trkpt lat="45.77431" lon="4.83205">
        <ele>255</ele>
        <time>2014-09-07T08:11:28Z</time>
      </trkpt>
      <trkpt lat="45.77433" lon="4.83243">
        <ele>255</ele>
        <time>2014-09-07T08:11:35Z</time>
      </trkpt>
      <trkpt lat="45.77433" lon="4.8326">
        <ele>255</ele>
        <time>2014-09-07T08:11:38Z</time>
      </trkpt>
      <trkpt lat="45.77434" lon="4.83279">
        <ele>255</ele>
        <time>2014-09-07T08:11:42Z</time>
      </trkpt>
      <trkpt lat="45.77437" lon="4.83308">
        <ele>255</ele>
        <time>2014-09-07T08:11:49Z</time>
      </trkpt>
      <trkpt lat="45.77438" lon="4.83313">
        <ele>255</ele>
        <time>2014-09-07T08:11:51Z</time>
      </trkpt>
      <trkpt lat="45.77438" lon="4.83326">
        <ele>255</ele>
        <time>2014-09-07T08:11:55Z</time>
      </trkpt>
      <trkpt lat="45.77471" lon="4.8341">
        <ele>253</ele>
        <time>2014-09-07T08:12:42Z</time>
      </trkpt>
      <trkpt lat="45.77474" lon="4.83393">
        <ele>253</ele>
        <time>2014-09-07T08:12:47Z</time>
      </trkpt>
      <trkpt lat="45.77466" lon="4.83402">
        <ele>253</ele>
        <time>2014-09-07T08:12:50Z</time>
      </trkpt>
      <trkpt lat="45.77467" lon="4.83417">
        <ele>252</ele>
        <time>2014-09-07T08:12:53Z</time>
      </trkpt>
      <trkpt lat="45.77466" lon="4.83422">
        <ele>252</ele>
        <time>2014-09-07T08:12:54Z</time>
      </trkpt>
      <trkpt lat="45.77467" lon="4.83426">
        <ele>252</ele>
        <time>2014-09-07T08:12:55Z</time>
      </trkpt>
      <trkpt lat="45.7747" lon="4.83448">
        <ele>251</ele>
        <time>2014-09-07T08:13:01Z</time>
      </trkpt>
      <trkpt lat="45.77475" lon="4.83465">
        <ele>251</ele>
        <time>2014-09-07T08:13:06Z</time>
      </trkpt>
      <trkpt lat="45.77479" lon="4.8347">
        <ele>251</ele>
        <time>2014-09-07T08:13:08Z</time>
      </trkpt>
      <trkpt lat="45.77488" lon="4.83475">
        <ele>251</ele>
        <time>2014-09-07T08:13:11Z</time>
      </trkpt>
      <trkpt lat="45.77501" lon="4.83478">
        <ele>251</ele>
        <time>2014-09-07T08:13:14Z</time>
      </trkpt>
      <trkpt lat="45.77512" lon="4.8348">
        <ele>251</ele>
        <time>2014-09-07T08:13:16Z</time>
      </trkpt>
      <trkpt lat="45.77545" lon="4.83488">
        <ele>252</ele>
        <time>2014-09-07T08:13:21Z</time>
      </trkpt>
      <trkpt lat="45.77551" lon="4.83491">
        <ele>253</ele>
        <time>2014-09-07T08:13:22Z</time>
      </trkpt>
      <trkpt lat="45.77557" lon="4.83491">
        <ele>253</ele>
        <time>2014-09-07T08:13:23Z</time>
      </trkpt>
      <trkpt lat="45.77578" lon="4.83492">
        <ele>254</ele>
        <time>2014-09-07T08:13:27Z</time>
      </trkpt>
      <trkpt lat="45.77603" lon="4.83489">
        <ele>255</ele>
        <time>2014-09-07T08:13:31Z</time>
      </trkpt>
      <trkpt lat="45.77615" lon="4.83486">
        <ele>255</ele>
        <time>2014-09-07T08:13:33Z</time>
      </trkpt>
      <trkpt lat="45.77619" lon="4.83487">
        <ele>255</ele>
        <time>2014-09-07T08:13:34Z</time>
      </trkpt>
      <trkpt lat="45.77629" lon="4.8349">
        <ele>256</ele>
        <time>2014-09-07T08:13:36Z</time>
      </trkpt>
      <trkpt lat="45.7764" lon="4.8349">
        <ele>256</ele>
        <time>2014-09-07T08:13:38Z</time>
      </trkpt>
      <trkpt lat="45.77651" lon="4.83487">
        <ele>256</ele>
        <time>2014-09-07T08:13:40Z</time>
      </trkpt>
      <trkpt lat="45.77663" lon="4.83495">
        <ele>257</ele>
        <time>2014-09-07T08:13:43Z</time>
      </trkpt>
      <trkpt lat="45.77666" lon="4.83501">
        <ele>257</ele>
        <time>2014-09-07T08:13:44Z</time>
      </trkpt>
      <trkpt lat="45.77669" lon="4.83507">
        <ele>256</ele>
        <time>2014-09-07T08:13:45Z</time>
      </trkpt>
      <trkpt lat="45.77672" lon="4.83513">
        <ele>256</ele>
        <time>2014-09-07T08:13:46Z</time>
      </trkpt>
      <trkpt lat="45.77673" lon="4.83519">
        <ele>255</ele>
        <time>2014-09-07T08:13:47Z</time>
      </trkpt>
      <trkpt lat="45.77672" lon="4.83551">
        <ele>254</ele>
        <time>2014-09-07T08:13:51Z</time>
      </trkpt>
      <trkpt lat="45.77672" lon="4.83598">
        <ele>251</ele>
        <time>2014-09-07T08:13:57Z</time>
      </trkpt>
      <trkpt lat="45.7767" lon="4.83607">
        <ele>251</ele>
        <time>2014-09-07T08:13:59Z</time>
      </trkpt>
      <trkpt lat="45.77667" lon="4.83612">
        <ele>251</ele>
        <time>2014-09-07T08:14:00Z</time>
      </trkpt>
      <trkpt lat="45.77651" lon="4.83611">
        <ele>248</ele>
        <time>2014-09-07T08:14:03Z</time>
      </trkpt>
      <trkpt lat="45.77645" lon="4.83612">
        <ele>247</ele>
        <time>2014-09-07T08:14:04Z</time>
      </trkpt>
      <trkpt lat="45.77639" lon="4.83622">
        <ele>247</ele>
        <time>2014-09-07T08:14:06Z</time>
      </trkpt>
      <trkpt lat="45.77639" lon="4.83638">
        <ele>246</ele>
        <time>2014-09-07T08:14:08Z</time>
      </trkpt>
      <trkpt lat="45.77641" lon="4.83661">
        <ele>246</ele>
        <time>2014-09-07T08:14:11Z</time>
      </trkpt>
      <trkpt lat="45.77644" lon="4.83676">
        <ele>242</ele>
        <time>2014-09-07T08:14:13Z</time>
      </trkpt>
      <trkpt lat="45.77646" lon="4.83693">
        <ele>241</ele>
        <time>2014-09-07T08:14:15Z</time>
      </trkpt>
      <trkpt lat="45.77646" lon="4.83708">
        <ele>241</ele>
        <time>2014-09-07T08:14:17Z</time>
      </trkpt>
      <trkpt lat="45.77648" lon="4.83715">
        <ele>241</ele>
        <time>2014-09-07T08:14:18Z</time>
      </trkpt>
      <trkpt lat="45.77653" lon="4.8373">
        <ele>242</ele>
        <time>2014-09-07T08:14:20Z</time>
      </trkpt>
      <trkpt lat="45.77674" lon="4.83771">
        <ele>244</ele>
        <time>2014-09-07T08:14:25Z</time>
      </trkpt>
      <trkpt lat="45.77678" lon="4.83779">
        <ele>243</ele>
        <time>2014-09-07T08:14:26Z</time>
      </trkpt>
      <trkpt lat="45.77697" lon="4.83823">
        <ele>240</ele>
        <time>2014-09-07T08:14:31Z</time>
      </trkpt>
      <trkpt lat="45.77701" lon="4.8383">
        <ele>240</ele>
        <time>2014-09-07T08:14:32Z</time>
      </trkpt>
      <trkpt lat="45.77704" lon="4.83837">
        <ele>231</ele>
        <time>2014-09-07T08:14:33Z</time>
      </trkpt>
      <trkpt lat="45.77717" lon="4.83856">
        <ele>230</ele>
        <time>2014-09-07T08:14:36Z</time>
      </trkpt>
      <trkpt lat="45.77726" lon="4.83866">
        <ele>229</ele>
        <time>2014-09-07T08:14:38Z</time>
      </trkpt>
      <trkpt lat="45.77732" lon="4.8387">
        <ele>229</ele>
        <time>2014-09-07T08:14:39Z</time>
      </trkpt>
      <trkpt lat="45.77738" lon="4.83872">
        <ele>229</ele>
        <time>2014-09-07T08:14:40Z</time>
      </trkpt>
      <trkpt lat="45.7775" lon="4.83878">
        <ele>233</ele>
        <time>2014-09-07T08:14:43Z</time>
      </trkpt>
      <trkpt lat="45.77754" lon="4.83887">
        <ele>231</ele>
        <time>2014-09-07T08:14:47Z</time>
      </trkpt>
      <trkpt lat="45.77755" lon="4.83888">
        <ele>231</ele>
        <time>2014-09-07T08:14:53Z</time>
      </trkpt>
      <trkpt lat="45.77755" lon="4.83889">
        <ele>231</ele>
        <time>2014-09-07T08:14:54Z</time>
      </trkpt>
      <trkpt lat="45.77756" lon="4.83891">
        <ele>231</ele>
        <time>2014-09-07T08:14:57Z</time>
      </trkpt>
      <trkpt lat="45.77757" lon="4.83896">
        <ele>230</ele>
        <time>2014-09-07T08:15:00Z</time>
      </trkpt>
      <trkpt lat="45.7776" lon="4.83903">
        <ele>229</ele>
        <time>2014-09-07T08:15:02Z</time>
      </trkpt>
      <trkpt lat="45.77772" lon="4.83934">
        <ele>216</ele>
        <time>2014-09-07T08:15:09Z</time>
      </trkpt>
      <trkpt lat="45.77778" lon="4.8394">
        <ele>215</ele>
        <time>2014-09-07T08:15:11Z</time>
      </trkpt>
      <trkpt lat="45.77786" lon="4.83945">
        <ele>214</ele>
        <time>2014-09-07T08:15:13Z</time>
      </trkpt>
      <trkpt lat="45.77789" lon="4.83949">
        <ele>214</ele>
        <time>2014-09-07T08:15:14Z</time>
      </trkpt>
      <trkpt lat="45.77799" lon="4.83966">
        <ele>212</ele>
        <time>2014-09-07T08:15:19Z</time>
      </trkpt>
      <trkpt lat="45.77806" lon="4.83978">
        <ele>210</ele>
        <time>2014-09-07T08:15:22Z</time>
      </trkpt>
      <trkpt lat="45.77813" lon="4.83984">
        <ele>209</ele>
        <time>2014-09-07T08:15:25Z</time>
      </trkpt>
      <trkpt lat="45.77821" lon="4.83983">
        <ele>209</ele>
        <time>2014-09-07T08:15:30Z</time>
      </trkpt>
      <trkpt lat="45.77833" lon="4.83985">
        <ele>209</ele>
        <time>2014-09-07T08:15:35Z</time>
      </trkpt>
      <trkpt lat="45.77842" lon="4.83991">
        <ele>207</ele>
        <time>2014-09-07T08:15:39Z</time>
      </trkpt>
      <trkpt lat="45.77847" lon="4.83994">
        <ele>207</ele>
        <time>2014-09-07T08:15:41Z</time>
      </trkpt>
      <trkpt lat="45.77854" lon="4.83997">
        <ele>207</ele>
        <time>2014-09-07T08:15:45Z</time>
      </trkpt>
      <trkpt lat="45.77856" lon="4.83998">
        <ele>207</ele>
        <time>2014-09-07T08:15:47Z</time>
      </trkpt>
      <trkpt lat="45.7786" lon="4.83999">
        <ele>207</ele>
        <time>2014-09-07T08:15:49Z</time>
      </trkpt>
      <trkpt lat="45.77863" lon="4.83998">
        <ele>207</ele>
        <time>2014-09-07T08:15:53Z</time>
      </trkpt>
      <trkpt lat="45.77865" lon="4.84005">
        <ele>194</ele>
        <time>2014-09-07T08:15:59Z</time>
      </trkpt>
      <trkpt lat="45.77867" lon="4.84006">
        <ele>193</ele>
        <time>2014-09-07T08:16:05Z</time>
      </trkpt>
      <trkpt lat="45.77871" lon="4.8401">
        <ele>193</ele>
        <time>2014-09-07T08:16:12Z</time>
      </trkpt>
      <trkpt lat="45.77876" lon="4.84013">
        <ele>192</ele>
        <time>2014-09-07T08:16:21Z</time>
      </trkpt>
      <trkpt lat="45.77881" lon="4.8402">
        <ele>191</ele>
        <time>2014-09-07T08:16:36Z</time>
      </trkpt>
      <trkpt lat="45.77883" lon="4.84018">
        <ele>191</ele>
        <time>2014-09-07T08:16:42Z</time>
      </trkpt>
      <trkpt lat="45.77894" lon="4.84003">
        <ele>191</ele>
        <time>2014-09-07T08:16:47Z</time>
      </trkpt>
      <trkpt lat="45.77899" lon="4.83997">
        <ele>201</ele>
        <time>2014-09-07T08:16:49Z</time>
      </trkpt>
      <trkpt lat="45.77906" lon="4.83989">
        <ele>200</ele>
        <time>2014-09-07T08:16:51Z</time>
      </trkpt>
      <trkpt lat="45.77927" lon="4.83968">
        <ele>201</ele>
        <time>2014-09-07T08:16:55Z</time>
      </trkpt>
      <trkpt lat="45.77944" lon="4.83952">
        <ele>203</ele>
        <time>2014-09-07T08:16:59Z</time>
      </trkpt>
      <trkpt lat="45.77954" lon="4.83939">
        <ele>204</ele>
        <time>2014-09-07T08:17:04Z</time>
      </trkpt>
      <trkpt lat="45.77959" lon="4.83937">
        <ele>204</ele>
        <time>2014-09-07T08:17:06Z</time>
      </trkpt>
      <trkpt lat="45.77963" lon="4.8394">
        <ele>204</ele>
        <time>2014-09-07T08:17:08Z</time>
      </trkpt>
      <trkpt lat="45.77967" lon="4.83944">
        <ele>203</ele>
        <time>2014-09-07T08:17:10Z</time>
      </trkpt>
      <trkpt lat="45.77972" lon="4.83951">
        <ele>202</ele>
        <time>2014-09-07T08:17:13Z</time>
      </trkpt>
      <trkpt lat="45.77981" lon="4.83971">
        <ele>200</ele>
        <time>2014-09-07T08:17:20Z</time>
      </trkpt>
      <trkpt lat="45.77983" lon="4.83974">
        <ele>199</ele>
        <time>2014-09-07T08:17:22Z</time>
      </trkpt>
      <trkpt lat="45.7799" lon="4.83974">
        <ele>199</ele>
        <time>2014-09-07T08:17:25Z</time>
      </trkpt>
      <trkpt lat="45.77997" lon="4.83968">
        <ele>200</ele>
        <time>2014-09-07T08:17:29Z</time>
      </trkpt>
      <trkpt lat="45.77998" lon="4.83966">
        <ele>200</ele>
        <time>2014-09-07T08:17:30Z</time>
      </trkpt>
      <trkpt lat="45.78009" lon="4.83952">
        <ele>202</ele>
        <time>2014-09-07T08:17:38Z</time>
      </trkpt>
      <trkpt lat="45.78014" lon="4.83946">
        <ele>202</ele>
        <time>2014-09-07T08:17:42Z</time>
      </trkpt>
      <trkpt lat="45.78018" lon="4.83942">
        <ele>203</ele>
        <time>2014-09-07T08:17:45Z</time>
      </trkpt>
      <trkpt lat="45.78029" lon="4.83928">
        <ele>203</ele>
        <time>2014-09-07T08:17:53Z</time>
      </trkpt>
      <trkpt lat="45.78038" lon="4.8392">
        <ele>204</ele>
        <time>2014-09-07T08:17:58Z</time>
      </trkpt>
      <trkpt lat="45.78043" lon="4.83915">
        <ele>212</ele>
        <time>2014-09-07T08:18:02Z</time>
      </trkpt>
      <trkpt lat="45.78046" lon="4.83913">
        <ele>212</ele>
        <time>2014-09-07T08:18:04Z</time>
      </trkpt>
      <trkpt lat="45.78053" lon="4.83904">
        <ele>212</ele>
        <time>2014-09-07T08:18:10Z</time>
      </trkpt>
      <trkpt lat="45.78056" lon="4.83903">
        <ele>212</ele>
        <time>2014-09-07T08:18:13Z</time>
      </trkpt>
      <trkpt lat="45.78059" lon="4.83908">
        <ele>211</ele>
        <time>2014-09-07T08:18:16Z</time>
      </trkpt>
      <trkpt lat="45.78069" lon="4.83921">
        <ele>204</ele>
        <time>2014-09-07T08:18:21Z</time>
      </trkpt>
      <trkpt lat="45.78084" lon="4.83913">
        <ele>207</ele>
        <time>2014-09-07T08:18:24Z</time>
      </trkpt>
      <trkpt lat="45.78094" lon="4.83909">
        <ele>208</ele>
        <time>2014-09-07T08:18:26Z</time>
      </trkpt>
      <trkpt lat="45.78105" lon="4.83904">
        <ele>210</ele>
        <time>2014-09-07T08:18:28Z</time>
      </trkpt>
      <trkpt lat="45.78112" lon="4.83903">
        <ele>210</ele>
        <time>2014-09-07T08:18:29Z</time>
      </trkpt>
      <trkpt lat="45.78128" lon="4.83901">
        <ele>211</ele>
        <time>2014-09-07T08:18:32Z</time>
      </trkpt>
      <trkpt lat="45.78133" lon="4.83902">
        <ele>211</ele>
        <time>2014-09-07T08:18:33Z</time>
      </trkpt>
      <trkpt lat="45.78138" lon="4.83902">
        <ele>211</ele>
        <time>2014-09-07T08:18:34Z</time>
      </trkpt>
      <trkpt lat="45.78145" lon="4.83906">
        <ele>211</ele>
        <time>2014-09-07T08:18:36Z</time>
      </trkpt>
      <trkpt lat="45.78148" lon="4.83908">
        <ele>211</ele>
        <time>2014-09-07T08:18:37Z</time>
      </trkpt>
      <trkpt lat="45.78157" lon="4.83925">
        <ele>210</ele>
        <time>2014-09-07T08:18:42Z</time>
      </trkpt>
      <trkpt lat="45.78167" lon="4.83947">
        <ele>216</ele>
        <time>2014-09-07T08:18:48Z</time>
      </trkpt>
      <trkpt lat="45.78168" lon="4.83952">
        <ele>216</ele>
        <time>2014-09-07T08:18:49Z</time>
      </trkpt>
      <trkpt lat="45.78169" lon="4.83956">
        <ele>216</ele>
        <time>2014-09-07T08:18:50Z</time>
      </trkpt>
      <trkpt lat="45.78166" lon="4.83963">
        <ele>211</ele>
        <time>2014-09-07T08:18:52Z</time>
      </trkpt>
      <trkpt lat="45.78163" lon="4.83967">
        <ele>211</ele>
        <time>2014-09-07T08:18:54Z</time>
      </trkpt>
      <trkpt lat="45.78161" lon="4.83972">
        <ele>211</ele>
        <time>2014-09-07T08:18:56Z</time>
      </trkpt>
      <trkpt lat="45.78161" lon="4.83977">
        <ele>212</ele>
        <time>2014-09-07T08:18:58Z</time>
      </trkpt>
      <trkpt lat="45.7816" lon="4.83987">
        <ele>213</ele>
        <time>2014-09-07T08:19:02Z</time>
      </trkpt>
      <trkpt lat="45.7816" lon="4.83994">
        <ele>214</ele>
        <time>2014-09-07T08:19:05Z</time>
      </trkpt>
      <trkpt lat="45.78159" lon="4.83996">
        <ele>214</ele>
        <time>2014-09-07T08:19:06Z</time>
      </trkpt>
      <trkpt lat="45.78157" lon="4.8401">
        <ele>215</ele>
        <time>2014-09-07T08:19:12Z</time>
      </trkpt>
      <trkpt lat="45.78156" lon="4.84014">
        <ele>215</ele>
        <time>2014-09-07T08:19:14Z</time>
      </trkpt>
      <trkpt lat="45.78157" lon="4.84024">
        <ele>215</ele>
        <time>2014-09-07T08:19:19Z</time>
      </trkpt>
      <trkpt lat="45.78158" lon="4.84026">
        <ele>215</ele>
        <time>2014-09-07T08:19:20Z</time>
      </trkpt>
      <trkpt lat="45.78159" lon="4.84033">
        <ele>215</ele>
        <time>2014-09-07T08:19:24Z</time>
      </trkpt>
      <trkpt lat="45.78159" lon="4.84035">
        <ele>215</ele>
        <time>2014-09-07T08:19:25Z</time>
      </trkpt>
      <trkpt lat="45.78153" lon="4.84041">
        <ele>215</ele>
        <time>2014-09-07T08:19:29Z</time>
      </trkpt>
      <trkpt lat="45.7815" lon="4.84043">
        <ele>215</ele>
        <time>2014-09-07T08:19:32Z</time>
      </trkpt>
      <trkpt lat="45.78152" lon="4.84048">
        <ele>215</ele>
        <time>2014-09-07T08:19:36Z</time>
      </trkpt>
      <trkpt lat="45.78154" lon="4.84051">
        <ele>216</ele>
        <time>2014-09-07T08:19:38Z</time>
      </trkpt>
      <trkpt lat="45.78152" lon="4.84058">
        <ele>216</ele>
        <time>2014-09-07T08:19:42Z</time>
      </trkpt>
      <trkpt lat="45.78156" lon="4.84067">
        <ele>218</ele>
        <time>2014-09-07T08:19:46Z</time>
      </trkpt>
      <trkpt lat="45.78153" lon="4.84071">
        <ele>218</ele>
        <time>2014-09-07T08:19:50Z</time>
      </trkpt>
      <trkpt lat="45.78152" lon="4.84073">
        <ele>218</ele>
        <time>2014-09-07T08:19:51Z</time>
      </trkpt>
      <trkpt lat="45.78153" lon="4.84081">
        <ele>219</ele>
        <time>2014-09-07T08:19:55Z</time>
      </trkpt>
      <trkpt lat="45.78149" lon="4.84085">
        <ele>217</ele>
        <time>2014-09-07T08:19:58Z</time>
      </trkpt>
      <trkpt lat="45.78147" lon="4.84088">
        <ele>217</ele>
        <time>2014-09-07T08:20:00Z</time>
      </trkpt>
      <trkpt lat="45.78146" lon="4.84089">
        <ele>216</ele>
        <time>2014-09-07T08:20:01Z</time>
      </trkpt>
      <trkpt lat="45.78141" lon="4.84093">
        <ele>215</ele>
        <time>2014-09-07T08:20:04Z</time>
      </trkpt>
      <trkpt lat="45.78141" lon="4.84094">
        <ele>215</ele>
        <time>2014-09-07T08:20:05Z</time>
      </trkpt>
      <trkpt lat="45.78143" lon="4.84096">
        <ele>215</ele>
        <time>2014-09-07T08:20:08Z</time>
      </trkpt>
      <trkpt lat="45.78147" lon="4.84094">
        <ele>216</ele>
        <time>2014-09-07T08:20:12Z</time>
      </trkpt>
      <trkpt lat="45.78156" lon="4.841">
        <ele>217</ele>
        <time>2014-09-07T08:20:20Z</time>
      </trkpt>
      <trkpt lat="45.78167" lon="4.84101">
        <ele>226</ele>
        <time>2014-09-07T08:20:28Z</time>
      </trkpt>
      <trkpt lat="45.78173" lon="4.84097">
        <ele>226</ele>
        <time>2014-09-07T08:20:35Z</time>
      </trkpt>
      <trkpt lat="45.78174" lon="4.84096">
        <ele>226</ele>
        <time>2014-09-07T08:20:36Z</time>
      </trkpt>
      <trkpt lat="45.78179" lon="4.84091">
        <ele>226</ele>
        <time>2014-09-07T08:20:39Z</time>
      </trkpt>
      <trkpt lat="45.78188" lon="4.84085">
        <ele>227</ele>
        <time>2014-09-07T08:20:44Z</time>
      </trkpt>
      <trkpt lat="45.78198" lon="4.84085">
        <ele>228</ele>
        <time>2014-09-07T08:20:52Z</time>
      </trkpt>
      <trkpt lat="45.782" lon="4.84085">
        <ele>228</ele>
        <time>2014-09-07T08:20:54Z</time>
      </trkpt>
      <trkpt lat="45.78206" lon="4.84083">
        <ele>227</ele>
        <time>2014-09-07T08:20:58Z</time>
      </trkpt>
      <trkpt lat="45.78209" lon="4.84082">
        <ele>228</ele>
        <time>2014-09-07T08:20:59Z</time>
      </trkpt>
      <trkpt lat="45.78216" lon="4.8408">
        <ele>229</ele>
        <time>2014-09-07T08:21:03Z</time>
      </trkpt>
      <trkpt lat="45.78219" lon="4.84079">
        <ele>229</ele>
        <time>2014-09-07T08:21:05Z</time>
      </trkpt>
      <trkpt lat="45.7823" lon="4.8408">
        <ele>231</ele>
        <time>2014-09-07T08:21:12Z</time>
      </trkpt>
      <trkpt lat="45.78243" lon="4.84078">
        <ele>233</ele>
        <time>2014-09-07T08:21:19Z</time>
      </trkpt>
      <trkpt lat="45.78245" lon="4.84078">
        <ele>234</ele>
        <time>2014-09-07T08:21:20Z</time>
      </trkpt>
      <trkpt lat="45.78254" lon="4.84079">
        <ele>236</ele>
        <time>2014-09-07T08:21:25Z</time>
      </trkpt>
      <trkpt lat="45.78273" lon="4.84074">
        <ele>235</ele>
        <time>2014-09-07T08:21:31Z</time>
      </trkpt>
      <trkpt lat="45.78282" lon="4.84072">
        <ele>236</ele>
        <time>2014-09-07T08:21:35Z</time>
      </trkpt>
      <trkpt lat="45.78292" lon="4.8407">
        <ele>236</ele>
        <time>2014-09-07T08:21:39Z</time>
      </trkpt>
      <trkpt lat="45.78301" lon="4.84072">
        <ele>236</ele>
        <time>2014-09-07T08:21:44Z</time>
      </trkpt>
      <trkpt lat="45.78314" lon="4.8407">
        <ele>237</ele>
        <time>2014-09-07T08:21:50Z</time>
      </trkpt>
      <trkpt lat="45.78319" lon="4.84068">
        <ele>237</ele>
        <time>2014-09-07T08:21:52Z</time>
      </trkpt>
      <trkpt lat="45.78327" lon="4.84067">
        <ele>237</ele>
        <time>2014-09-07T08:21:55Z</time>
      </trkpt>
      <trkpt lat="45.78348" lon="4.84068">
        <ele>238</ele>
        <time>2014-09-07T08:22:01Z</time>
      </trkpt>
      <trkpt lat="45.78354" lon="4.84074">
        <ele>238</ele>
        <time>2014-09-07T08:22:03Z</time>
      </trkpt>
      <trkpt lat="45.78366" lon="4.84086">
        <ele>238</ele>
        <time>2014-09-07T08:22:07Z</time>
      </trkpt>
      <trkpt lat="45.78385" lon="4.84098">
        <ele>238</ele>
        <time>2014-09-07T08:22:13Z</time>
      </trkpt>
      <trkpt lat="45.78389" lon="4.84097">
        <ele>238</ele>
        <time>2014-09-07T08:22:14Z</time>
      </trkpt>
      <trkpt lat="45.78397" lon="4.84092">
        <ele>237</ele>
        <time>2014-09-07T08:22:16Z</time>
      </trkpt>
      <trkpt lat="45.78405" lon="4.84077">
        <ele>237</ele>
        <time>2014-09-07T08:22:19Z</time>
      </trkpt>
      <trkpt lat="45.78406" lon="4.84072">
        <ele>237</ele>
        <time>2014-09-07T08:22:20Z</time>
      </trkpt>
      <trkpt lat="45.7841" lon="4.84058">
        <ele>237</ele>
        <time>2014-09-07T08:22:23Z</time>
      </trkpt>
      <trkpt lat="45.78413" lon="4.84038">
        <ele>238</ele>
        <time>2014-09-07T08:22:27Z</time>
      </trkpt>
      <trkpt lat="45.7842" lon="4.84009">
        <ele>239</ele>
        <time>2014-09-07T08:22:32Z</time>
      </trkpt>
      <trkpt lat="45.78424" lon="4.83997">
        <ele>239</ele>
        <time>2014-09-07T08:22:34Z</time>
      </trkpt>
      <trkpt lat="45.78436" lon="4.83956">
        <ele>239</ele>
        <time>2014-09-07T08:22:41Z</time>
      </trkpt>
      <trkpt lat="45.78438" lon="4.83951">
        <ele>239</ele>
        <time>2014-09-07T08:22:42Z</time>
      </trkpt>
      <trkpt lat="45.7845" lon="4.83906">
        <ele>241</ele>
        <time>2014-09-07T08:22:49Z</time>
      </trkpt>
      <trkpt lat="45.78455" lon="4.83896">
        <ele>241</ele>
        <time>2014-09-07T08:22:51Z</time>
      </trkpt>
      <trkpt lat="45.78466" lon="4.83855">
        <ele>241</ele>
        <time>2014-09-07T08:22:58Z</time>
      </trkpt>
      <trkpt lat="45.78478" lon="4.83806">
        <ele>243</ele>
        <time>2014-09-07T08:23:06Z</time>
      </trkpt>
      <trkpt lat="45.78489" lon="4.83766">
        <ele>245</ele>
        <time>2014-09-07T08:23:13Z</time>
      </trkpt>
      <trkpt lat="45.78493" lon="4.83756">
        <ele>246</ele>
        <time>2014-09-07T08:23:15Z</time>
      </trkpt>
      <trkpt lat="45.78503" lon="4.83739">
        <ele>248</ele>
        <time>2014-09-07T08:23:19Z</time>
      </trkpt>
      <trkpt lat="45.78511" lon="4.83726">
        <ele>249</ele>
        <time>2014-09-07T08:23:22Z</time>
      </trkpt>
      <trkpt lat="45.78516" lon="4.83717">
        <ele>249</ele>
        <time>2014-09-07T08:23:24Z</time>
      </trkpt>
      <trkpt lat="45.78517" lon="4.83711">
        <ele>249</ele>
        <time>2014-09-07T08:23:25Z</time>
      </trkpt>
      <trkpt lat="45.78526" lon="4.83678">
        <ele>250</ele>
        <time>2014-09-07T08:23:31Z</time>
      </trkpt>
      <trkpt lat="45.78528" lon="4.83672">
        <ele>250</ele>
        <time>2014-09-07T08:23:32Z</time>
      </trkpt>
      <trkpt lat="45.7853" lon="4.83666">
        <ele>251</ele>
        <time>2014-09-07T08:23:33Z</time>
      </trkpt>
      <trkpt lat="45.78545" lon="4.83628">
        <ele>251</ele>
        <time>2014-09-07T08:23:40Z</time>
      </trkpt>
      <trkpt lat="45.78548" lon="4.83615">
        <ele>251</ele>
        <time>2014-09-07T08:23:42Z</time>
      </trkpt>
      <trkpt lat="45.7856" lon="4.83581">
        <ele>252</ele>
        <time>2014-09-07T08:23:48Z</time>
      </trkpt>
      <trkpt lat="45.78564" lon="4.8357">
        <ele>252</ele>
        <time>2014-09-07T08:23:50Z</time>
      </trkpt>
      <trkpt lat="45.78573" lon="4.83537">
        <ele>253</ele>
        <time>2014-09-07T08:23:55Z</time>
      </trkpt>
      <trkpt lat="45.7858" lon="4.83515">
        <ele>253</ele>
        <time>2014-09-07T08:23:58Z</time>
      </trkpt>
      <trkpt lat="45.78589" lon="4.83497">
        <ele>254</ele>
        <time>2014-09-07T08:24:01Z</time>
      </trkpt>
      <trkpt lat="45.78605" lon="4.83472">
        <ele>252</ele>
        <time>2014-09-07T08:24:05Z</time>
      </trkpt>
      <trkpt lat="45.7861" lon="4.83456">
        <ele>251</ele>
        <time>2014-09-07T08:24:07Z</time>
      </trkpt>
      <trkpt lat="45.78622" lon="4.83425">
        <ele>250</ele>
        <time>2014-09-07T08:24:12Z</time>
      </trkpt>
      <trkpt lat="45.78625" lon="4.83421">
        <ele>250</ele>
        <time>2014-09-07T08:24:13Z</time>
      </trkpt>
      <trkpt lat="45.78634" lon="4.83428">
        <ele>250</ele>
        <time>2014-09-07T08:24:16Z</time>
      </trkpt>
      <trkpt lat="45.7864" lon="4.83437">
        <ele>251</ele>
        <time>2014-09-07T08:24:18Z</time>
      </trkpt>
      <trkpt lat="45.78648" lon="4.83453">
        <ele>251</ele>
        <time>2014-09-07T08:24:21Z</time>
      </trkpt>
      <trkpt lat="45.78653" lon="4.83463">
        <ele>252</ele>
        <time>2014-09-07T08:24:23Z</time>
      </trkpt>
      <trkpt lat="45.78669" lon="4.83495">
        <ele>253</ele>
        <time>2014-09-07T08:24:29Z</time>
      </trkpt>
      <trkpt lat="45.78696" lon="4.83535">
        <ele>249</ele>
        <time>2014-09-07T08:24:36Z</time>
      </trkpt>
      <trkpt lat="45.78726" lon="4.83574">
        <ele>247</ele>
        <time>2014-09-07T08:24:44Z</time>
      </trkpt>
      <trkpt lat="45.7873" lon="4.83579">
        <ele>247</ele>
        <time>2014-09-07T08:24:45Z</time>
      </trkpt>
      <trkpt lat="45.78738" lon="4.83589">
        <ele>247</ele>
        <time>2014-09-07T08:24:47Z</time>
      </trkpt>
      <trkpt lat="45.78749" lon="4.83605">
        <ele>247</ele>
        <time>2014-09-07T08:24:50Z</time>
      </trkpt>
      <trkpt lat="45.78753" lon="4.8361">
        <ele>246</ele>
        <time>2014-09-07T08:24:51Z</time>
      </trkpt>
      <trkpt lat="45.7878" lon="4.83646">
        <ele>246</ele>
        <time>2014-09-07T08:24:58Z</time>
      </trkpt>
      <trkpt lat="45.78784" lon="4.83651">
        <ele>246</ele>
        <time>2014-09-07T08:24:59Z</time>
      </trkpt>
      <trkpt lat="45.78809" lon="4.83682">
        <ele>247</ele>
        <time>2014-09-07T08:25:05Z</time>
      </trkpt>
      <trkpt lat="45.78821" lon="4.83698">
        <ele>247</ele>
        <time>2014-09-07T08:25:08Z</time>
      </trkpt>
      <trkpt lat="45.78837" lon="4.8372">
        <ele>246</ele>
        <time>2014-09-07T08:25:12Z</time>
      </trkpt>
      <trkpt lat="45.78849" lon="4.83737">
        <ele>246</ele>
        <time>2014-09-07T08:25:15Z</time>
      </trkpt>
      <trkpt lat="45.78865" lon="4.83759">
        <ele>247</ele>
        <time>2014-09-07T08:25:19Z</time>
      </trkpt>
      <trkpt lat="45.7888" lon="4.83773">
        <ele>247</ele>
        <time>2014-09-07T08:25:22Z</time>
      </trkpt>
      <trkpt lat="45.78895" lon="4.83787">
        <ele>246</ele>
        <time>2014-09-07T08:25:25Z</time>
      </trkpt>
      <trkpt lat="45.78899" lon="4.83792">
        <ele>246</ele>
        <time>2014-09-07T08:25:26Z</time>
      </trkpt>
      <trkpt lat="45.78909" lon="4.83803">
        <ele>246</ele>
        <time>2014-09-07T08:25:28Z</time>
      </trkpt>
      <trkpt lat="45.78926" lon="4.83831">
        <ele>245</ele>
        <time>2014-09-07T08:25:33Z</time>
      </trkpt>
      <trkpt lat="45.78933" lon="4.8384">
        <ele>246</ele>
        <time>2014-09-07T08:25:35Z</time>
      </trkpt>
      <trkpt lat="45.78937" lon="4.83845">
        <ele>246</ele>
        <time>2014-09-07T08:25:36Z</time>
      </trkpt>
      <trkpt lat="45.78952" lon="4.83865">
        <ele>246</ele>
        <time>2014-09-07T08:25:40Z</time>
      </trkpt>
      <trkpt lat="45.78956" lon="4.8387">
        <ele>246</ele>
        <time>2014-09-07T08:25:41Z</time>
      </trkpt>
      <trkpt lat="45.78976" lon="4.83894">
        <ele>247</ele>
        <time>2014-09-07T08:25:46Z</time>
      </trkpt>
      <trkpt lat="45.78987" lon="4.83908">
        <ele>247</ele>
        <time>2014-09-07T08:25:49Z</time>
      </trkpt>
      <trkpt lat="45.79004" lon="4.83929">
        <ele>247</ele>
        <time>2014-09-07T08:25:54Z</time>
      </trkpt>
      <trkpt lat="45.79017" lon="4.83946">
        <ele>247</ele>
        <time>2014-09-07T08:25:58Z</time>
      </trkpt>
      <trkpt lat="45.79029" lon="4.8396">
        <ele>247</ele>
        <time>2014-09-07T08:26:02Z</time>
      </trkpt>
      <trkpt lat="45.79041" lon="4.83981">
        <ele>247</ele>
        <time>2014-09-07T08:26:08Z</time>
      </trkpt>
      <trkpt lat="45.79042" lon="4.83984">
        <ele>247</ele>
        <time>2014-09-07T08:26:09Z</time>
      </trkpt>
      <trkpt lat="45.79048" lon="4.8399">
        <ele>247</ele>
        <time>2014-09-07T08:26:11Z</time>
      </trkpt>
      <trkpt lat="45.7906" lon="4.84004">
        <ele>248</ele>
        <time>2014-09-07T08:26:15Z</time>
      </trkpt>
      <trkpt lat="45.79063" lon="4.84008">
        <ele>248</ele>
        <time>2014-09-07T08:26:16Z</time>
      </trkpt>
      <trkpt lat="45.79069" lon="4.84018">
        <ele>248</ele>
        <time>2014-09-07T08:26:18Z</time>
      </trkpt>
      <trkpt lat="45.79089" lon="4.84045">
        <ele>247</ele>
        <time>2014-09-07T08:26:24Z</time>
      </trkpt>
      <trkpt lat="45.79098" lon="4.84058">
        <ele>247</ele>
        <time>2014-09-07T08:26:27Z</time>
      </trkpt>
      <trkpt lat="45.79112" lon="4.84078">
        <ele>247</ele>
        <time>2014-09-07T08:26:32Z</time>
      </trkpt>
      <trkpt lat="45.79118" lon="4.8409">
        <ele>249</ele>
        <time>2014-09-07T08:26:35Z</time>
      </trkpt>
      <trkpt lat="45.79119" lon="4.84095">
        <ele>249</ele>
        <time>2014-09-07T08:26:36Z</time>
      </trkpt>
      <trkpt lat="45.79118" lon="4.84101">
        <ele>249</ele>
        <time>2014-09-07T08:26:37Z</time>
      </trkpt>
      <trkpt lat="45.79115" lon="4.84111">
        <ele>249</ele>
        <time>2014-09-07T08:26:39Z</time>
      </trkpt>
      <trkpt lat="45.79113" lon="4.84121">
        <ele>250</ele>
        <time>2014-09-07T08:26:41Z</time>
      </trkpt>
      <trkpt lat="45.79107" lon="4.84152">
        <ele>250</ele>
        <time>2014-09-07T08:26:47Z</time>
      </trkpt>
      <trkpt lat="45.79101" lon="4.84187">
        <ele>253</ele>
        <time>2014-09-07T08:26:54Z</time>
      </trkpt>
      <trkpt lat="45.79097" lon="4.84202">
        <ele>253</ele>
        <time>2014-09-07T08:26:57Z</time>
      </trkpt>
      <trkpt lat="45.79093" lon="4.84219">
        <ele>254</ele>
        <time>2014-09-07T08:27:01Z</time>
      </trkpt>
      <trkpt lat="45.79087" lon="4.84247">
        <ele>255</ele>
        <time>2014-09-07T08:27:07Z</time>
      </trkpt>
      <trkpt lat="45.79085" lon="4.84255">
        <ele>255</ele>
        <time>2014-09-07T08:27:09Z</time>
      </trkpt>
      <trkpt lat="45.7908" lon="4.84276">
        <ele>255</ele>
        <time>2014-09-07T08:27:14Z</time>
      </trkpt>
      <trkpt lat="45.79073" lon="4.84304">
        <ele>256</ele>
        <time>2014-09-07T08:27:21Z</time>
      </trkpt>
      <trkpt lat="45.79073" lon="4.84308">
        <ele>256</ele>
        <time>2014-09-07T08:27:22Z</time>
      </trkpt>
      <trkpt lat="45.79066" lon="4.84345">
        <ele>256</ele>
        <time>2014-09-07T08:27:31Z</time>
      </trkpt>
      <trkpt lat="45.79064" lon="4.84354">
        <ele>256</ele>
        <time>2014-09-07T08:27:33Z</time>
      </trkpt>
      <trkpt lat="45.79065" lon="4.84377">
        <ele>256</ele>
        <time>2014-09-07T08:27:38Z</time>
      </trkpt>
      <trkpt lat="45.79073" lon="4.84406">
        <ele>256</ele>
        <time>2014-09-07T08:27:44Z</time>
      </trkpt>
      <trkpt lat="45.79092" lon="4.84434">
        <ele>257</ele>
        <time>2014-09-07T08:27:51Z</time>
      </trkpt>
      <trkpt lat="45.791" lon="4.84445">
        <ele>257</ele>
        <time>2014-09-07T08:27:54Z</time>
      </trkpt>
      <trkpt lat="45.79106" lon="4.84453">
        <ele>258</ele>
        <time>2014-09-07T08:27:57Z</time>
      </trkpt>
      <trkpt lat="45.79118" lon="4.84466">
        <ele>258</ele>
        <time>2014-09-07T08:28:01Z</time>
      </trkpt>
      <trkpt lat="45.79127" lon="4.8448">
        <ele>258</ele>
        <time>2014-09-07T08:28:04Z</time>
      </trkpt>
      <trkpt lat="45.79134" lon="4.84488">
        <ele>258</ele>
        <time>2014-09-07T08:28:06Z</time>
      </trkpt>
      <trkpt lat="45.79139" lon="4.84491">
        <ele>258</ele>
        <time>2014-09-07T08:28:07Z</time>
      </trkpt>
      <trkpt lat="45.79147" lon="4.84508">
        <ele>259</ele>
        <time>2014-09-07T08:28:10Z</time>
      </trkpt>
      <trkpt lat="45.79147" lon="4.84513">
        <ele>259</ele>
        <time>2014-09-07T08:28:11Z</time>
      </trkpt>
      <trkpt lat="45.79145" lon="4.84524">
        <ele>259</ele>
        <time>2014-09-07T08:28:13Z</time>
      </trkpt>
      <trkpt lat="45.79146" lon="4.84543">
        <ele>260</ele>
        <time>2014-09-07T08:28:17Z</time>
      </trkpt>
      <trkpt lat="45.79146" lon="4.84578">
        <ele>261</ele>
        <time>2014-09-07T08:28:24Z</time>
      </trkpt>
      <trkpt lat="45.79147" lon="4.84588">
        <ele>263</ele>
        <time>2014-09-07T08:28:26Z</time>
      </trkpt>
      <trkpt lat="45.79154" lon="4.84608">
        <ele>263</ele>
        <time>2014-09-07T08:28:31Z</time>
      </trkpt>
      <trkpt lat="45.79167" lon="4.84618">
        <ele>263</ele>
        <time>2014-09-07T08:28:36Z</time>
      </trkpt>
      <trkpt lat="45.79168" lon="4.84621">
        <ele>264</ele>
        <time>2014-09-07T08:28:37Z</time>
      </trkpt>
      <trkpt lat="45.79165" lon="4.84634">
        <ele>264</ele>
        <time>2014-09-07T08:28:41Z</time>
      </trkpt>
      <trkpt lat="45.79164" lon="4.84637">
        <ele>264</ele>
        <time>2014-09-07T08:28:42Z</time>
      </trkpt>
      <trkpt lat="45.79157" lon="4.84658">
        <ele>265</ele>
        <time>2014-09-07T08:28:48Z</time>
      </trkpt>
      <trkpt lat="45.79156" lon="4.84665">
        <ele>265</ele>
        <time>2014-09-07T08:28:50Z</time>
      </trkpt>
      <trkpt lat="45.79155" lon="4.84679">
        <ele>266</ele>
        <time>2014-09-07T08:28:54Z</time>
      </trkpt>
      <trkpt lat="45.79156" lon="4.84696">
        <ele>267</ele>
        <time>2014-09-07T08:28:59Z</time>
      </trkpt>
      <trkpt lat="45.79166" lon="4.84703">
        <ele>267</ele>
        <time>2014-09-07T08:29:03Z</time>
      </trkpt>
      <trkpt lat="45.79169" lon="4.84702">
        <ele>269</ele>
        <time>2014-09-07T08:29:04Z</time>
      </trkpt>
      <trkpt lat="45.79176" lon="4.84696">
        <ele>269</ele>
        <time>2014-09-07T08:29:07Z</time>
      </trkpt>
      <trkpt lat="45.79189" lon="4.84693">
        <ele>269</ele>
        <time>2014-09-07T08:29:12Z</time>
      </trkpt>
      <trkpt lat="45.79204" lon="4.84698">
        <ele>270</ele>
        <time>2014-09-07T08:29:19Z</time>
      </trkpt>
      <trkpt lat="45.79219" lon="4.84703">
        <ele>270</ele>
        <time>2014-09-07T08:29:25Z</time>
      </trkpt>
      <trkpt lat="45.7924" lon="4.8471">
        <ele>271</ele>
        <time>2014-09-07T08:29:31Z</time>
      </trkpt>
      <trkpt lat="45.7925" lon="4.84729">
        <ele>273</ele>
        <time>2014-09-07T08:29:36Z</time>
      </trkpt>
      <trkpt lat="45.79247" lon="4.84754">
        <ele>275</ele>
        <time>2014-09-07T08:29:40Z</time>
      </trkpt>
      <trkpt lat="45.79247" lon="4.8476">
        <ele>275</ele>
        <time>2014-09-07T08:29:41Z</time>
      </trkpt>
      <trkpt lat="45.79244" lon="4.84777">
        <ele>274</ele>
        <time>2014-09-07T08:29:44Z</time>
      </trkpt>
      <trkpt lat="45.79235" lon="4.84808">
        <ele>273</ele>
        <time>2014-09-07T08:29:49Z</time>
      </trkpt>
      <trkpt lat="45.79234" lon="4.84812">
        <ele>273</ele>
        <time>2014-09-07T08:29:50Z</time>
      </trkpt>
      <trkpt lat="45.79228" lon="4.8482">
        <ele>273</ele>
        <time>2014-09-07T08:29:55Z</time>
      </trkpt>
      <trkpt lat="45.7922" lon="4.84823">
        <ele>273</ele>
        <time>2014-09-07T08:30:01Z</time>
      </trkpt>
      <trkpt lat="45.79218" lon="4.84823">
        <ele>273</ele>
        <time>2014-09-07T08:30:10Z</time>
      </trkpt>
      <trkpt lat="45.79215" lon="4.84822">
        <ele>273</ele>
        <time>2014-09-07T08:30:15Z</time>
      </trkpt>
      <trkpt lat="45.79209" lon="4.84823">
        <ele>272</ele>
        <time>2014-09-07T08:30:23Z</time>
      </trkpt>
      <trkpt lat="45.79208" lon="4.84822">
        <ele>272</ele>
        <time>2014-09-07T08:30:24Z</time>
      </trkpt>
      <trkpt lat="45.79209" lon="4.84817">
        <ele>272</ele>
        <time>2014-09-07T08:30:28Z</time>
      </trkpt>
      <trkpt lat="45.79206" lon="4.84814">
        <ele>272</ele>
        <time>2014-09-07T08:30:35Z</time>
      </trkpt>
      <trkpt lat="45.79205" lon="4.84813">
        <ele>272</ele>
        <time>2014-09-07T08:30:36Z</time>
      </trkpt>
      <trkpt lat="45.79203" lon="4.8481">
        <ele>272</ele>
        <time>2014-09-07T08:30:42Z</time>
      </trkpt>
      <trkpt lat="45.79202" lon="4.84809">
        <ele>272</ele>
        <time>2014-09-07T08:30:43Z</time>
      </trkpt>
      <trkpt lat="45.79192" lon="4.84805">
        <ele>272</ele>
        <time>2014-09-07T08:30:50Z</time>
      </trkpt>
      <trkpt lat="45.79175" lon="4.84793">
        <ele>271</ele>
        <time>2014-09-07T08:30:58Z</time>
      </trkpt>
      <trkpt lat="45.79173" lon="4.84791">
        <ele>271</ele>
        <time>2014-09-07T08:30:59Z</time>
      </trkpt>
      <trkpt lat="45.79168" lon="4.84788">
        <ele>271</ele>
        <time>2014-09-07T08:31:01Z</time>
      </trkpt>
      <trkpt lat="45.79163" lon="4.84786">
        <ele>268</ele>
        <time>2014-09-07T08:31:03Z</time>
      </trkpt>
      <trkpt lat="45.79154" lon="4.84784">
        <ele>268</ele>
        <time>2014-09-07T08:31:06Z</time>
      </trkpt>
      <trkpt lat="45.79144" lon="4.84783">
        <ele>268</ele>
        <time>2014-09-07T08:31:09Z</time>
      </trkpt>
      <trkpt lat="45.79136" lon="4.84784">
        <ele>268</ele>
        <time>2014-09-07T08:31:11Z</time>
      </trkpt>
      <trkpt lat="45.79129" lon="4.84785">
        <ele>268</ele>
        <time>2014-09-07T08:31:13Z</time>
      </trkpt>
      <trkpt lat="45.79118" lon="4.84776">
        <ele>267</ele>
        <time>2014-09-07T08:31:17Z</time>
      </trkpt>
      <trkpt lat="45.79117" lon="4.84758">
        <ele>267</ele>
        <time>2014-09-07T08:31:22Z</time>
      </trkpt>
      <trkpt lat="45.79117" lon="4.84754">
        <ele>267</ele>
        <time>2014-09-07T08:31:23Z</time>
      </trkpt>
      <trkpt lat="45.79124" lon="4.84737">
        <ele>267</ele>
        <time>2014-09-07T08:31:27Z</time>
      </trkpt>
      <trkpt lat="45.79132" lon="4.84719">
        <ele>267</ele>
        <time>2014-09-07T08:31:33Z</time>
      </trkpt>
      <trkpt lat="45.79127" lon="4.84711">
        <ele>267</ele>
        <time>2014-09-07T08:31:37Z</time>
      </trkpt>
      <trkpt lat="45.79115" lon="4.84717">
        <ele>266</ele>
        <time>2014-09-07T08:31:40Z</time>
      </trkpt>
      <trkpt lat="45.79109" lon="4.84721">
        <ele>266</ele>
        <time>2014-09-07T08:31:41Z</time>
      </trkpt>
      <trkpt lat="45.79095" lon="4.84731">
        <ele>266</ele>
        <time>2014-09-07T08:31:44Z</time>
      </trkpt>
      <trkpt lat="45.79082" lon="4.84741">
        <ele>264</ele>
        <time>2014-09-07T08:31:47Z</time>
      </trkpt>
      <trkpt lat="45.79068" lon="4.84751">
        <ele>264</ele>
        <time>2014-09-07T08:31:52Z</time>
      </trkpt>
      <trkpt lat="45.79063" lon="4.84749">
        <ele>263</ele>
        <time>2014-09-07T08:31:54Z</time>
      </trkpt>
      <trkpt lat="45.79058" lon="4.84748">
        <ele>262</ele>
        <time>2014-09-07T08:31:55Z</time>
      </trkpt>
      <trkpt lat="45.79045" lon="4.84749">
        <ele>262</ele>
        <time>2014-09-07T08:31:58Z</time>
      </trkpt>
      <trkpt lat="45.7904" lon="4.84751">
        <ele>262</ele>
        <time>2014-09-07T08:31:59Z</time>
      </trkpt>
      <trkpt lat="45.79033" lon="4.84755">
        <ele>262</ele>
        <time>2014-09-07T08:32:00Z</time>
      </trkpt>
      <trkpt lat="45.79028" lon="4.8476">
        <ele>262</ele>
        <time>2014-09-07T08:32:01Z</time>
      </trkpt>
      <trkpt lat="45.79023" lon="4.84767">
        <ele>261</ele>
        <time>2014-09-07T08:32:02Z</time>
      </trkpt>
      <trkpt lat="45.79011" lon="4.84787">
        <ele>262</ele>
        <time>2014-09-07T08:32:05Z</time>
      </trkpt>
      <trkpt lat="45.79007" lon="4.84793">
        <ele>261</ele>
        <time>2014-09-07T08:32:06Z</time>
      </trkpt>
      <trkpt lat="45.79002" lon="4.84796">
        <ele>261</ele>
        <time>2014-09-07T08:32:07Z</time>
      </trkpt>
      <trkpt lat="45.78997" lon="4.84797">
        <ele>258</ele>
        <time>2014-09-07T08:32:08Z</time>
      </trkpt>
      <trkpt lat="45.78988" lon="4.84798">
        <ele>258</ele>
        <time>2014-09-07T08:32:10Z</time>
      </trkpt>
      <trkpt lat="45.78984" lon="4.84798">
        <ele>258</ele>
        <time>2014-09-07T08:32:11Z</time>
      </trkpt>
      <trkpt lat="45.78975" lon="4.848">
        <ele>258</ele>
        <time>2014-09-07T08:32:13Z</time>
      </trkpt>
      <trkpt lat="45.78959" lon="4.84803">
        <ele>257</ele>
        <time>2014-09-07T08:32:16Z</time>
      </trkpt>
      <trkpt lat="45.78953" lon="4.84805">
        <ele>257</ele>
        <time>2014-09-07T08:32:17Z</time>
      </trkpt>
      <trkpt lat="45.78943" lon="4.84813">
        <ele>257</ele>
        <time>2014-09-07T08:32:19Z</time>
      </trkpt>
      <trkpt lat="45.78934" lon="4.84824">
        <ele>256</ele>
        <time>2014-09-07T08:32:21Z</time>
      </trkpt>
      <trkpt lat="45.78932" lon="4.84837">
        <ele>254</ele>
        <time>2014-09-07T08:32:23Z</time>
      </trkpt>
      <trkpt lat="45.78927" lon="4.8487">
        <ele>253</ele>
        <time>2014-09-07T08:32:27Z</time>
      </trkpt>
      <trkpt lat="45.78925" lon="4.84893">
        <ele>251</ele>
        <time>2014-09-07T08:32:29Z</time>
      </trkpt>
      <trkpt lat="45.78923" lon="4.84926">
        <ele>245</ele>
        <time>2014-09-07T08:32:31Z</time>
      </trkpt>
      <trkpt lat="45.78921" lon="4.84954">
        <ele>242</ele>
        <time>2014-09-07T08:32:33Z</time>
      </trkpt>
      <trkpt lat="45.78919" lon="4.84976">
        <ele>239</ele>
        <time>2014-09-07T08:32:35Z</time>
      </trkpt>
      <trkpt lat="45.78919" lon="4.84992">
        <ele>235</ele>
        <time>2014-09-07T08:32:37Z</time>
      </trkpt>
      <trkpt lat="45.78921" lon="4.84998">
        <ele>234</ele>
        <time>2014-09-07T08:32:38Z</time>
      </trkpt>
      <trkpt lat="45.78929" lon="4.85005">
        <ele>230</ele>
        <time>2014-09-07T08:32:40Z</time>
      </trkpt>
      <trkpt lat="45.78935" lon="4.85005">
        <ele>230</ele>
        <time>2014-09-07T08:32:41Z</time>
      </trkpt>
      <trkpt lat="45.78947" lon="4.85005">
        <ele>229</ele>
        <time>2014-09-07T08:32:44Z</time>
      </trkpt>
      <trkpt lat="45.78947" lon="4.85001">
        <ele>230</ele>
        <time>2014-09-07T08:32:47Z</time>
      </trkpt>
      <trkpt lat="45.78932" lon="4.85002">
        <ele>230</ele>
        <time>2014-09-07T08:32:49Z</time>
      </trkpt>
      <trkpt lat="45.7892" lon="4.8501">
        <ele>230</ele>
        <time>2014-09-07T08:32:51Z</time>
      </trkpt>
      <trkpt lat="45.78916" lon="4.85018">
        <ele>226</ele>
        <time>2014-09-07T08:32:52Z</time>
      </trkpt>
      <trkpt lat="45.78914" lon="4.85044">
        <ele>221</ele>
        <time>2014-09-07T08:32:54Z</time>
      </trkpt>
      <trkpt lat="45.78913" lon="4.85059">
        <ele>219</ele>
        <time>2014-09-07T08:32:55Z</time>
      </trkpt>
      <trkpt lat="45.78914" lon="4.85091">
        <ele>213</ele>
        <time>2014-09-07T08:32:57Z</time>
      </trkpt>
      <trkpt lat="45.78914" lon="4.85107">
        <ele>210</ele>
        <time>2014-09-07T08:32:58Z</time>
      </trkpt>
      <trkpt lat="45.7892" lon="4.85154">
        <ele>209</ele>
        <time>2014-09-07T08:33:01Z</time>
      </trkpt>
      <trkpt lat="45.78923" lon="4.8517">
        <ele>206</ele>
        <time>2014-09-07T08:33:02Z</time>
      </trkpt>
      <trkpt lat="45.78939" lon="4.85232">
        <ele>204</ele>
        <time>2014-09-07T08:33:06Z</time>
      </trkpt>
      <trkpt lat="45.7895" lon="4.85264">
        <ele>203</ele>
        <time>2014-09-07T08:33:09Z</time>
      </trkpt>
      <trkpt lat="45.78953" lon="4.85276">
        <ele>204</ele>
        <time>2014-09-07T08:33:11Z</time>
      </trkpt>
      <trkpt lat="45.78951" lon="4.85281">
        <ele>203</ele>
        <time>2014-09-07T08:33:12Z</time>
      </trkpt>
      <trkpt lat="45.78945" lon="4.85285">
        <ele>203</ele>
        <time>2014-09-07T08:33:13Z</time>
      </trkpt>
      <trkpt lat="45.78936" lon="4.85282">
        <ele>203</ele>
        <time>2014-09-07T08:33:14Z</time>
      </trkpt>
      <trkpt lat="45.78909" lon="4.85282">
        <ele>192</ele>
        <time>2014-09-07T08:33:17Z</time>
      </trkpt>
      <trkpt lat="45.78885" lon="4.85293">
        <ele>190</ele>
        <time>2014-09-07T08:33:20Z</time>
      </trkpt>
      <trkpt lat="45.78877" lon="4.85299">
        <ele>189</ele>
        <time>2014-09-07T08:33:21Z</time>
      </trkpt>
      <trkpt lat="45.7887" lon="4.85304">
        <ele>188</ele>
        <time>2014-09-07T08:33:22Z</time>
      </trkpt>
      <trkpt lat="45.7886" lon="4.85315">
        <ele>186</ele>
        <time>2014-09-07T08:33:24Z</time>
      </trkpt>
      <trkpt lat="45.78849" lon="4.85343">
        <ele>182</ele>
        <time>2014-09-07T08:33:28Z</time>
      </trkpt>
      <trkpt lat="45.78847" lon="4.85349">
        <ele>182</ele>
        <time>2014-09-07T08:33:29Z</time>
      </trkpt>
      <trkpt lat="45.78845" lon="4.85355">
        <ele>182</ele>
        <time>2014-09-07T08:33:31Z</time>
      </trkpt>
      <trkpt lat="45.78843" lon="4.85369">
        <ele>183</ele>
        <time>2014-09-07T08:33:35Z</time>
      </trkpt>
      <trkpt lat="45.78842" lon="4.85385">
        <ele>183</ele>
        <time>2014-09-07T08:33:39Z</time>
      </trkpt>
      <trkpt lat="45.7884" lon="4.854">
        <ele>181</ele>
        <time>2014-09-07T08:33:43Z</time>
      </trkpt>
      <trkpt lat="45.78832" lon="4.85407">
        <ele>175</ele>
        <time>2014-09-07T08:33:46Z</time>
      </trkpt>
      <trkpt lat="45.7883" lon="4.85409">
        <ele>176</ele>
        <time>2014-09-07T08:33:49Z</time>
      </trkpt>
      <trkpt lat="45.78823" lon="4.85414">
        <ele>175</ele>
        <time>2014-09-07T08:33:55Z</time>
      </trkpt>
      <trkpt lat="45.78814" lon="4.85423">
        <ele>173</ele>
        <time>2014-09-07T08:33:59Z</time>
      </trkpt>
      <trkpt lat="45.78807" lon="4.85427">
        <ele>172</ele>
        <time>2014-09-07T08:34:01Z</time>
      </trkpt>
      <trkpt lat="45.78796" lon="4.85431">
        <ele>171</ele>
        <time>2014-09-07T08:34:04Z</time>
      </trkpt>
      <trkpt lat="45.78769" lon="4.85437">
        <ele>169</ele>
        <time>2014-09-07T08:34:11Z</time>
      </trkpt>
      <trkpt lat="45.78743" lon="4.85442">
        <ele>166</ele>
        <time>2014-09-07T08:34:19Z</time>
      </trkpt>
      <trkpt lat="45.78731" lon="4.85445">
        <ele>166</ele>
        <time>2014-09-07T08:34:23Z</time>
      </trkpt>
      <trkpt lat="45.78725" lon="4.85446">
        <ele>166</ele>
        <time>2014-09-07T08:34:27Z</time>
      </trkpt>
      <trkpt lat="45.78722" lon="4.85448">
        <ele>166</ele>
        <time>2014-09-07T08:34:48Z</time>
      </trkpt>
      <trkpt lat="45.78711" lon="4.8545">
        <ele>166</ele>
        <time>2014-09-07T08:34:52Z</time>
      </trkpt>
      <trkpt lat="45.787" lon="4.85452">
        <ele>166</ele>
        <time>2014-09-07T08:34:54Z</time>
      </trkpt>
      <trkpt lat="45.78688" lon="4.85456">
        <ele>166</ele>
        <time>2014-09-07T08:34:56Z</time>
      </trkpt>
      <trkpt lat="45.78666" lon="4.85461">
        <ele>167</ele>
        <time>2014-09-07T08:34:59Z</time>
      </trkpt>
      <trkpt lat="45.78658" lon="4.85463">
        <ele>167</ele>
        <time>2014-09-07T08:35:00Z</time>
      </trkpt>
      <trkpt lat="45.78625" lon="4.85471">
        <ele>167</ele>
        <time>2014-09-07T08:35:04Z</time>
      </trkpt>
      <trkpt lat="45.78611" lon="4.85475">
        <ele>167</ele>
        <time>2014-09-07T08:35:06Z</time>
      </trkpt>
      <trkpt lat="45.78602" lon="4.85475">
        <ele>168</ele>
        <time>2014-09-07T08:35:08Z</time>
      </trkpt>
      <trkpt lat="45.78599" lon="4.85472">
        <ele>167</ele>
        <time>2014-09-07T08:35:09Z</time>
      </trkpt>
      <trkpt lat="45.78598" lon="4.85457">
        <ele>167</ele>
        <time>2014-09-07T08:35:11Z</time>
      </trkpt>
      <trkpt lat="45.78596" lon="4.85448">
        <ele>167</ele>
        <time>2014-09-07T08:35:12Z</time>
      </trkpt>
      <trkpt lat="45.78591" lon="4.85418">
        <ele>167</ele>
        <time>2014-09-07T08:35:15Z</time>
      </trkpt>
      <trkpt lat="45.78589" lon="4.85408">
        <ele>167</ele>
        <time>2014-09-07T08:35:16Z</time>
      </trkpt>
      <trkpt lat="45.78577" lon="4.85351">
        <ele>170</ele>
        <time>2014-09-07T08:35:22Z</time>
      </trkpt>
      <trkpt lat="45.78563" lon="4.85299">
        <ele>171</ele>
        <time>2014-09-07T08:35:28Z</time>
      </trkpt>
      <trkpt lat="45.78549" lon="4.85254">
        <ele>171</ele>
        <time>2014-09-07T08:35:34Z</time>
      </trkpt>
      <trkpt lat="45.78547" lon="4.85248">
        <ele>170</ele>
        <time>2014-09-07T08:35:35Z</time>
      </trkpt>
      <trkpt lat="45.78545" lon="4.85241">
        <ele>170</ele>
        <time>2014-09-07T08:35:36Z</time>
      </trkpt>
      <trkpt lat="45.78537" lon="4.8522">
        <ele>170</ele>
        <time>2014-09-07T08:35:39Z</time>
      </trkpt>
      <trkpt lat="45.7853" lon="4.85197">
        <ele>170</ele>
        <time>2014-09-07T08:35:42Z</time>
      </trkpt>
      <trkpt lat="45.78523" lon="4.85175">
        <ele>170</ele>
        <time>2014-09-07T08:35:45Z</time>
      </trkpt>
      <trkpt lat="45.78512" lon="4.85147">
        <ele>168</ele>
        <time>2014-09-07T08:35:49Z</time>
      </trkpt>
      <trkpt lat="45.78496" lon="4.85114">
        <ele>169</ele>
        <time>2014-09-07T08:35:54Z</time>
      </trkpt>
      <trkpt lat="45.7849" lon="4.851">
        <ele>168</ele>
        <time>2014-09-07T08:35:56Z</time>
      </trkpt>
      <trkpt lat="45.78467" lon="4.85053">
        <ele>167</ele>
        <time>2014-09-07T08:36:03Z</time>
      </trkpt>
      <trkpt lat="45.78464" lon="4.85046">
        <ele>167</ele>
        <time>2014-09-07T08:36:04Z</time>
      </trkpt>
      <trkpt lat="45.78444" lon="4.85008">
        <ele>168</ele>
        <time>2014-09-07T08:36:10Z</time>
      </trkpt>
      <trkpt lat="45.78441" lon="4.85002">
        <ele>168</ele>
        <time>2014-09-07T08:36:11Z</time>
      </trkpt>
      <trkpt lat="45.78432" lon="4.84986">
        <ele>167</ele>
        <time>2014-09-07T08:36:15Z</time>
      </trkpt>
      <trkpt lat="45.7843" lon="4.84983">
        <ele>167</ele>
        <time>2014-09-07T08:36:17Z</time>
      </trkpt>
      <trkpt lat="45.78429" lon="4.84983">
        <ele>167</ele>
        <time>2014-09-07T08:36:19Z</time>
      </trkpt>
      <trkpt lat="45.78426" lon="4.84984">
        <ele>167</ele>
        <time>2014-09-07T08:36:34Z</time>
      </trkpt>
      <trkpt lat="45.78424" lon="4.84986">
        <ele>167</ele>
        <time>2014-09-07T08:36:35Z</time>
      </trkpt>
      <trkpt lat="45.78416" lon="4.84993">
        <ele>168</ele>
        <time>2014-09-07T08:36:38Z</time>
      </trkpt>
      <trkpt lat="45.78408" lon="4.85">
        <ele>169</ele>
        <time>2014-09-07T08:36:40Z</time>
      </trkpt>
      <trkpt lat="45.78385" lon="4.85024">
        <ele>170</ele>
        <time>2014-09-07T08:36:45Z</time>
      </trkpt>
      <trkpt lat="45.78363" lon="4.85044">
        <ele>170</ele>
        <time>2014-09-07T08:36:50Z</time>
      </trkpt>
      <trkpt lat="45.78347" lon="4.85052">
        <ele>171</ele>
        <time>2014-09-07T08:36:52Z</time>
      </trkpt>
      <trkpt lat="45.78336" lon="4.85067">
        <ele>172</ele>
        <time>2014-09-07T08:36:55Z</time>
      </trkpt>
      <trkpt lat="45.78326" lon="4.8508">
        <ele>173</ele>
        <time>2014-09-07T08:36:57Z</time>
      </trkpt>
      <trkpt lat="45.78321" lon="4.85091">
        <ele>173</ele>
        <time>2014-09-07T08:36:59Z</time>
      </trkpt>
      <trkpt lat="45.78326" lon="4.85108">
        <ele>173</ele>
        <time>2014-09-07T08:37:02Z</time>
      </trkpt>
      <trkpt lat="45.78332" lon="4.85119">
        <ele>173</ele>
        <time>2014-09-07T08:37:04Z</time>
      </trkpt>
      <trkpt lat="45.78341" lon="4.85138">
        <ele>173</ele>
        <time>2014-09-07T08:37:07Z</time>
      </trkpt>
      <trkpt lat="45.78357" lon="4.85169">
        <ele>174</ele>
        <time>2014-09-07T08:37:13Z</time>
      </trkpt>
      <trkpt lat="45.78364" lon="4.85185">
        <ele>174</ele>
        <time>2014-09-07T08:37:16Z</time>
      </trkpt>
      <trkpt lat="45.78376" lon="4.85208">
        <ele>174</ele>
        <time>2014-09-07T08:37:21Z</time>
      </trkpt>
      <trkpt lat="45.78383" lon="4.8522">
        <ele>175</ele>
        <time>2014-09-07T08:37:24Z</time>
      </trkpt>
      <trkpt lat="45.78385" lon="4.85225">
        <ele>175</ele>
        <time>2014-09-07T08:37:25Z</time>
      </trkpt>
      <trkpt lat="45.78388" lon="4.85231">
        <ele>175</ele>
        <time>2014-09-07T08:37:26Z</time>
      </trkpt>
      <trkpt lat="45.78392" lon="4.85246">
        <ele>175</ele>
        <time>2014-09-07T08:37:28Z</time>
      </trkpt>
      <trkpt lat="45.78402" lon="4.85268">
        <ele>176</ele>
        <time>2014-09-07T08:37:32Z</time>
      </trkpt>
      <trkpt lat="45.78404" lon="4.85273">
        <ele>176</ele>
        <time>2014-09-07T08:37:33Z</time>
      </trkpt>
      <trkpt lat="45.78418" lon="4.85302">
        <ele>179</ele>
        <time>2014-09-07T08:37:39Z</time>
      </trkpt>
      <trkpt lat="45.78422" lon="4.85322">
        <ele>180</ele>
        <time>2014-09-07T08:37:42Z</time>
      </trkpt>
      <trkpt lat="45.78425" lon="4.85336">
        <ele>180</ele>
        <time>2014-09-07T08:37:44Z</time>
      </trkpt>
      <trkpt lat="45.78432" lon="4.85358">
        <ele>179</ele>
        <time>2014-09-07T08:37:49Z</time>
      </trkpt>
      <trkpt lat="45.78437" lon="4.85374">
        <ele>178</ele>
        <time>2014-09-07T08:37:52Z</time>
      </trkpt>
      <trkpt lat="45.78442" lon="4.85387">
        <ele>178</ele>
        <time>2014-09-07T08:37:54Z</time>
      </trkpt>
      <trkpt lat="45.78453" lon="4.85424">
        <ele>175</ele>
        <time>2014-09-07T08:37:59Z</time>
      </trkpt>
      <trkpt lat="45.78458" lon="4.85447">
        <ele>175</ele>
        <time>2014-09-07T08:38:02Z</time>
      </trkpt>
      <trkpt lat="45.78465" lon="4.8547">
        <ele>175</ele>
        <time>2014-09-07T08:38:05Z</time>
      </trkpt>
      <trkpt lat="45.78467" lon="4.85478">
        <ele>175</ele>
        <time>2014-09-07T08:38:06Z</time>
      </trkpt>
      <trkpt lat="45.78471" lon="4.85501">
        <ele>173</ele>
        <time>2014-09-07T08:38:09Z</time>
      </trkpt>
      <trkpt lat="45.78475" lon="4.85535">
        <ele>173</ele>
        <time>2014-09-07T08:38:14Z</time>
      </trkpt>
      <trkpt lat="45.78482" lon="4.85569">
        <ele>173</ele>
        <time>2014-09-07T08:38:20Z</time>
      </trkpt>
      <trkpt lat="45.78485" lon="4.85587">
        <ele>173</ele>
        <time>2014-09-07T08:38:23Z</time>
      </trkpt>
      <trkpt lat="45.78489" lon="4.85613">
        <ele>173</ele>
        <time>2014-09-07T08:38:27Z</time>
      </trkpt>
      <trkpt lat="45.78492" lon="4.85638">
        <ele>173</ele>
        <time>2014-09-07T08:38:31Z</time>
      </trkpt>
      <trkpt lat="45.78492" lon="4.85645">
        <ele>173</ele>
        <time>2014-09-07T08:38:32Z</time>
      </trkpt>
      <trkpt lat="45.78493" lon="4.85658">
        <ele>173</ele>
        <time>2014-09-07T08:38:34Z</time>
      </trkpt>
      <trkpt lat="45.78488" lon="4.85682">
        <ele>173</ele>
        <time>2014-09-07T08:38:38Z</time>
      </trkpt>
      <trkpt lat="45.78487" lon="4.85693">
        <ele>173</ele>
        <time>2014-09-07T08:38:40Z</time>
      </trkpt>
      <trkpt lat="45.78486" lon="4.85714">
        <ele>173</ele>
        <time>2014-09-07T08:38:44Z</time>
      </trkpt>
      <trkpt lat="45.78485" lon="4.85732">
        <ele>173</ele>
        <time>2014-09-07T08:38:47Z</time>
      </trkpt>
      <trkpt lat="45.78485" lon="4.8574">
        <ele>173</ele>
        <time>2014-09-07T08:38:49Z</time>
      </trkpt>
      <trkpt lat="45.78482" lon="4.85746">
        <ele>173</ele>
        <time>2014-09-07T08:38:51Z</time>
      </trkpt>
      <trkpt lat="45.78477" lon="4.85748">
        <ele>173</ele>
        <time>2014-09-07T08:38:53Z</time>
      </trkpt>
      <trkpt lat="45.78477" lon="4.85752">
        <ele>173</ele>
        <time>2014-09-07T08:38:54Z</time>
      </trkpt>
      <trkpt lat="45.78478" lon="4.85762">
        <ele>173</ele>
        <time>2014-09-07T08:38:56Z</time>
      </trkpt>
      <trkpt lat="45.78484" lon="4.85774">
        <ele>173</ele>
        <time>2014-09-07T08:38:58Z</time>
      </trkpt>
      <trkpt lat="45.78491" lon="4.85786">
        <ele>172</ele>
        <time>2014-09-07T08:39:00Z</time>
      </trkpt>
      <trkpt lat="45.78492" lon="4.85796">
        <ele>172</ele>
        <time>2014-09-07T08:39:02Z</time>
      </trkpt>
      <trkpt lat="45.78492" lon="4.85811">
        <ele>172</ele>
        <time>2014-09-07T08:39:04Z</time>
      </trkpt>
      <trkpt lat="45.78497" lon="4.85844">
        <ele>171</ele>
        <time>2014-09-07T08:39:08Z</time>
      </trkpt>
      <trkpt lat="45.78494" lon="4.85877">
        <ele>172</ele>
        <time>2014-09-07T08:39:13Z</time>
      </trkpt>
      <trkpt lat="45.78483" lon="4.85894">
        <ele>172</ele>
        <time>2014-09-07T08:39:16Z</time>
      </trkpt>
      <trkpt lat="45.7846" lon="4.85899">
        <ele>172</ele>
        <time>2014-09-07T08:39:19Z</time>
      </trkpt>
      <trkpt lat="45.78454" lon="4.85898">
        <ele>172</ele>
        <time>2014-09-07T08:39:20Z</time>
      </trkpt>
      <trkpt lat="45.78448" lon="4.85896">
        <ele>172</ele>
        <time>2014-09-07T08:39:21Z</time>
      </trkpt>
      <trkpt lat="45.78443" lon="4.85893">
        <ele>172</ele>
        <time>2014-09-07T08:39:22Z</time>
      </trkpt>
      <trkpt lat="45.78422" lon="4.85885">
        <ele>172</ele>
        <time>2014-09-07T08:39:25Z</time>
      </trkpt>
      <trkpt lat="45.78407" lon="4.85882">
        <ele>173</ele>
        <time>2014-09-07T08:39:27Z</time>
      </trkpt>
      <trkpt lat="45.78381" lon="4.85876">
        <ele>173</ele>
        <time>2014-09-07T08:39:30Z</time>
      </trkpt>
      <trkpt lat="45.78364" lon="4.85868">
        <ele>173</ele>
        <time>2014-09-07T08:39:32Z</time>
      </trkpt>
      <trkpt lat="45.78347" lon="4.85859">
        <ele>173</ele>
        <time>2014-09-07T08:39:34Z</time>
      </trkpt>
      <trkpt lat="45.78325" lon="4.85842">
        <ele>173</ele>
        <time>2014-09-07T08:39:37Z</time>
      </trkpt>
      <trkpt lat="45.78311" lon="4.85831">
        <ele>173</ele>
        <time>2014-09-07T08:39:39Z</time>
      </trkpt>
      <trkpt lat="45.78302" lon="4.85821">
        <ele>173</ele>
        <time>2014-09-07T08:39:40Z</time>
      </trkpt>
      <trkpt lat="45.7829" lon="4.8581">
        <ele>173</ele>
        <time>2014-09-07T08:39:42Z</time>
      </trkpt>
      <trkpt lat="45.78284" lon="4.85806">
        <ele>173</ele>
        <time>2014-09-07T08:39:43Z</time>
      </trkpt>
      <trkpt lat="45.78279" lon="4.85803">
        <ele>173</ele>
        <time>2014-09-07T08:39:44Z</time>
      </trkpt>
      <trkpt lat="45.78262" lon="4.85793">
        <ele>173</ele>
        <time>2014-09-07T08:39:47Z</time>
      </trkpt>
      <trkpt lat="45.78256" lon="4.85789">
        <ele>173</ele>
        <time>2014-09-07T08:39:48Z</time>
      </trkpt>
      <trkpt lat="45.7825" lon="4.85785">
        <ele>171</ele>
        <time>2014-09-07T08:39:49Z</time>
      </trkpt>
      <trkpt lat="45.78235" lon="4.8578">
        <ele>171</ele>
        <time>2014-09-07T08:39:51Z</time>
      </trkpt>
      <trkpt lat="45.78215" lon="4.85781">
        <ele>171</ele>
        <time>2014-09-07T08:39:53Z</time>
      </trkpt>
      <trkpt lat="45.78195" lon="4.85766">
        <ele>170</ele>
        <time>2014-09-07T08:39:56Z</time>
      </trkpt>
      <trkpt lat="45.78179" lon="4.85753">
        <ele>169</ele>
        <time>2014-09-07T08:39:59Z</time>
      </trkpt>
      <trkpt lat="45.78155" lon="4.85737">
        <ele>169</ele>
        <time>2014-09-07T08:40:03Z</time>
      </trkpt>
      <trkpt lat="45.78144" lon="4.85727">
        <ele>170</ele>
        <time>2014-09-07T08:40:05Z</time>
      </trkpt>
      <trkpt lat="45.78139" lon="4.85721">
        <ele>170</ele>
        <time>2014-09-07T08:40:06Z</time>
      </trkpt>
      <trkpt lat="45.78131" lon="4.85706">
        <ele>170</ele>
        <time>2014-09-07T08:40:08Z</time>
      </trkpt>
      <trkpt lat="45.78122" lon="4.85681">
        <ele>170</ele>
        <time>2014-09-07T08:40:11Z</time>
      </trkpt>
      <trkpt lat="45.78113" lon="4.8565">
        <ele>170</ele>
        <time>2014-09-07T08:40:15Z</time>
      </trkpt>
      <trkpt lat="45.78107" lon="4.85631">
        <ele>170</ele>
        <time>2014-09-07T08:40:18Z</time>
      </trkpt>
      <trkpt lat="45.78103" lon="4.85621">
        <ele>170</ele>
        <time>2014-09-07T08:40:20Z</time>
      </trkpt>
      <trkpt lat="45.78102" lon="4.85616">
        <ele>170</ele>
        <time>2014-09-07T08:40:21Z</time>
      </trkpt>
      <trkpt lat="45.78107" lon="4.8561">
        <ele>170</ele>
        <time>2014-09-07T08:40:23Z</time>
      </trkpt>
      <trkpt lat="45.7812" lon="4.85607">
        <ele>170</ele>
        <time>2014-09-07T08:40:26Z</time>
      </trkpt>
      <trkpt lat="45.78124" lon="4.85605">
        <ele>170</ele>
        <time>2014-09-07T08:40:27Z</time>
      </trkpt>
      <trkpt lat="45.78127" lon="4.85603">
        <ele>170</ele>
        <time>2014-09-07T08:40:28Z</time>
      </trkpt>
      <trkpt lat="45.7814" lon="4.85599">
        <ele>170</ele>
        <time>2014-09-07T08:40:32Z</time>
      </trkpt>
      <trkpt lat="45.78149" lon="4.85612">
        <ele>170</ele>
        <time>2014-09-07T08:40:35Z</time>
      </trkpt>
      <trkpt lat="45.78152" lon="4.85618">
        <ele>171</ele>
        <time>2014-09-07T08:40:36Z</time>
      </trkpt>
      <trkpt lat="45.78155" lon="4.85624">
        <ele>171</ele>
        <time>2014-09-07T08:40:37Z</time>
      </trkpt>
      <trkpt lat="45.78162" lon="4.85632">
        <ele>171</ele>
        <time>2014-09-07T08:40:39Z</time>
      </trkpt>
      <trkpt lat="45.78171" lon="4.85636">
        <ele>172</ele>
        <time>2014-09-07T08:40:41Z</time>
      </trkpt>
      <trkpt lat="45.78189" lon="4.85636">
        <ele>172</ele>
        <time>2014-09-07T08:40:45Z</time>
      </trkpt>
      <trkpt lat="45.78194" lon="4.85635">
        <ele>172</ele>
        <time>2014-09-07T08:40:46Z</time>
      </trkpt>
      <trkpt lat="45.78222" lon="4.85637">
        <ele>172</ele>
        <time>2014-09-07T08:40:51Z</time>
      </trkpt>
      <trkpt lat="45.78228" lon="4.85639">
        <ele>172</ele>
        <time>2014-09-07T08:40:52Z</time>
      </trkpt>
      <trkpt lat="45.78241" lon="4.85642">
        <ele>173</ele>
        <time>2014-09-07T08:40:54Z</time>
      </trkpt>
      <trkpt lat="45.78253" lon="4.85642">
        <ele>174</ele>
        <time>2014-09-07T08:40:56Z</time>
      </trkpt>
      <trkpt lat="45.78265" lon="4.85635">
        <ele>173</ele>
        <time>2014-09-07T08:40:58Z</time>
      </trkpt>
      <trkpt lat="45.78269" lon="4.85629">
        <ele>173</ele>
        <time>2014-09-07T08:40:59Z</time>
      </trkpt>
      <trkpt lat="45.78274" lon="4.85603">
        <ele>173</ele>
        <time>2014-09-07T08:41:02Z</time>
      </trkpt>
      <trkpt lat="45.78269" lon="4.85587">
        <ele>173</ele>
        <time>2014-09-07T08:41:04Z</time>
      </trkpt>
      <trkpt lat="45.78265" lon="4.8558">
        <ele>172</ele>
        <time>2014-09-07T08:41:05Z</time>
      </trkpt>
      <trkpt lat="45.78254" lon="4.8557">
        <ele>172</ele>
        <time>2014-09-07T08:41:07Z</time>
      </trkpt>
      <trkpt lat="45.78248" lon="4.85567">
        <ele>172</ele>
        <time>2014-09-07T08:41:08Z</time>
      </trkpt>
      <trkpt lat="45.78243" lon="4.85564">
        <ele>172</ele>
        <time>2014-09-07T08:41:09Z</time>
      </trkpt>
      <trkpt lat="45.78237" lon="4.85561">
        <ele>172</ele>
        <time>2014-09-07T08:41:10Z</time>
      </trkpt>
      <trkpt lat="45.78221" lon="4.85555">
        <ele>172</ele>
        <time>2014-09-07T08:41:13Z</time>
      </trkpt>
      <trkpt lat="45.78198" lon="4.85547">
        <ele>172</ele>
        <time>2014-09-07T08:41:18Z</time>
      </trkpt>
      <trkpt lat="45.7819" lon="4.85545">
        <ele>172</ele>
        <time>2014-09-07T08:41:20Z</time>
      </trkpt>
      <trkpt lat="45.78167" lon="4.8555">
        <ele>171</ele>
        <time>2014-09-07T08:41:26Z</time>
      </trkpt>
      <trkpt lat="45.7816" lon="4.85557">
        <ele>170</ele>
        <time>2014-09-07T08:41:28Z</time>
      </trkpt>
      <trkpt lat="45.78157" lon="4.85561">
        <ele>170</ele>
        <time>2014-09-07T08:41:29Z</time>
      </trkpt>
      <trkpt lat="45.78155" lon="4.85566">
        <ele>170</ele>
        <time>2014-09-07T08:41:30Z</time>
      </trkpt>
      <trkpt lat="45.78152" lon="4.85582">
        <ele>170</ele>
        <time>2014-09-07T08:41:33Z</time>
      </trkpt>
      <trkpt lat="45.78153" lon="4.85588">
        <ele>170</ele>
        <time>2014-09-07T08:41:34Z</time>
      </trkpt>
      <trkpt lat="45.78159" lon="4.85604">
        <ele>170</ele>
        <time>2014-09-07T08:41:37Z</time>
      </trkpt>
      <trkpt lat="45.78162" lon="4.85608">
        <ele>170</ele>
        <time>2014-09-07T08:41:38Z</time>
      </trkpt>
      <trkpt lat="45.78175" lon="4.85618">
        <ele>172</ele>
        <time>2014-09-07T08:41:42Z</time>
      </trkpt>
      <trkpt lat="45.78179" lon="4.8562">
        <ele>172</ele>
        <time>2014-09-07T08:41:43Z</time>
      </trkpt>
      <trkpt lat="45.7819" lon="4.85622">
        <ele>172</ele>
        <time>2014-09-07T08:41:47Z</time>
      </trkpt>
      <trkpt lat="45.78192" lon="4.8562">
        <ele>172</ele>
        <time>2014-09-07T08:41:48Z</time>
      </trkpt>
      <trkpt lat="45.78197" lon="4.85612">
        <ele>172</ele>
        <time>2014-09-07T08:41:50Z</time>
      </trkpt>
      <trkpt lat="45.78202" lon="4.85611">
        <ele>172</ele>
        <time>2014-09-07T08:41:51Z</time>
      </trkpt>
      <trkpt lat="45.78212" lon="4.85612">
        <ele>172</ele>
        <time>2014-09-07T08:41:53Z</time>
      </trkpt>
      <trkpt lat="45.78224" lon="4.85619">
        <ele>172</ele>
        <time>2014-09-07T08:41:56Z</time>
      </trkpt>
      <trkpt lat="45.78228" lon="4.85621">
        <ele>172</ele>
        <time>2014-09-07T08:41:57Z</time>
      </trkpt>
      <trkpt lat="45.78235" lon="4.85624">
        <ele>172</ele>
        <time>2014-09-07T08:42:00Z</time>
      </trkpt>
      <trkpt lat="45.78239" lon="4.85623">
        <ele>172</ele>
        <time>2014-09-07T08:42:01Z</time>
      </trkpt>
      <trkpt lat="45.78249" lon="4.85613">
        <ele>172</ele>
        <time>2014-09-07T08:42:04Z</time>
      </trkpt>
      <trkpt lat="45.78253" lon="4.8561">
        <ele>173</ele>
        <time>2014-09-07T08:42:05Z</time>
      </trkpt>
      <trkpt lat="45.78257" lon="4.85609">
        <ele>173</ele>
        <time>2014-09-07T08:42:06Z</time>
      </trkpt>
      <trkpt lat="45.78265" lon="4.85612">
        <ele>173</ele>
        <time>2014-09-07T08:42:08Z</time>
      </trkpt>
      <trkpt lat="45.78282" lon="4.8562">
        <ele>173</ele>
        <time>2014-09-07T08:42:13Z</time>
      </trkpt>
      <trkpt lat="45.78283" lon="4.85625">
        <ele>173</ele>
        <time>2014-09-07T08:42:14Z</time>
      </trkpt>
      <trkpt lat="45.78289" lon="4.85633">
        <ele>174</ele>
        <time>2014-09-07T08:42:18Z</time>
      </trkpt>
      <trkpt lat="45.78291" lon="4.85635">
        <ele>174</ele>
        <time>2014-09-07T08:42:19Z</time>
      </trkpt>
      <trkpt lat="45.78297" lon="4.8563">
        <ele>174</ele>
        <time>2014-09-07T08:42:22Z</time>
      </trkpt>
      <trkpt lat="45.78299" lon="4.85614">
        <ele>173</ele>
        <time>2014-09-07T08:42:25Z</time>
      </trkpt>
      <trkpt lat="45.78299" lon="4.85608">
        <ele>173</ele>
        <time>2014-09-07T08:42:26Z</time>
      </trkpt>
      <trkpt lat="45.78303" lon="4.85594">
        <ele>173</ele>
        <time>2014-09-07T08:42:29Z</time>
      </trkpt>
      <trkpt lat="45.78306" lon="4.85592">
        <ele>174</ele>
        <time>2014-09-07T08:42:30Z</time>
      </trkpt>
      <trkpt lat="45.78321" lon="4.8558">
        <ele>173</ele>
        <time>2014-09-07T08:42:35Z</time>
      </trkpt>
      <trkpt lat="45.78335" lon="4.85561">
        <ele>173</ele>
        <time>2014-09-07T08:42:39Z</time>
      </trkpt>
      <trkpt lat="45.78338" lon="4.85555">
        <ele>173</ele>
        <time>2014-09-07T08:42:40Z</time>
      </trkpt>
      <trkpt lat="45.78341" lon="4.85549">
        <ele>173</ele>
        <time>2014-09-07T08:42:41Z</time>
      </trkpt>
      <trkpt lat="45.78353" lon="4.85522">
        <ele>173</ele>
        <time>2014-09-07T08:42:45Z</time>
      </trkpt>
      <trkpt lat="45.78354" lon="4.85514">
        <ele>173</ele>
        <time>2014-09-07T08:42:46Z</time>
      </trkpt>
      <trkpt lat="45.78357" lon="4.85489">
        <ele>172</ele>
        <time>2014-09-07T08:42:49Z</time>
      </trkpt>
      <trkpt lat="45.78359" lon="4.85473">
        <ele>172</ele>
        <time>2014-09-07T08:42:51Z</time>
      </trkpt>
      <trkpt lat="45.78353" lon="4.85457">
        <ele>172</ele>
        <time>2014-09-07T08:42:53Z</time>
      </trkpt>
      <trkpt lat="45.78341" lon="4.85439">
        <ele>172</ele>
        <time>2014-09-07T08:42:56Z</time>
      </trkpt>
      <trkpt lat="45.78331" lon="4.85428">
        <ele>170</ele>
        <time>2014-09-07T08:42:58Z</time>
      </trkpt>
      <trkpt lat="45.78326" lon="4.85423">
        <ele>170</ele>
        <time>2014-09-07T08:42:59Z</time>
      </trkpt>
      <trkpt lat="45.78309" lon="4.85405">
        <ele>169</ele>
        <time>2014-09-07T08:43:02Z</time>
      </trkpt>
      <trkpt lat="45.78298" lon="4.85389">
        <ele>168</ele>
        <time>2014-09-07T08:43:04Z</time>
      </trkpt>
      <trkpt lat="45.78283" lon="4.85361">
        <ele>168</ele>
        <time>2014-09-07T08:43:07Z</time>
      </trkpt>
      <trkpt lat="45.78274" lon="4.85342">
        <ele>168</ele>
        <time>2014-09-07T08:43:09Z</time>
      </trkpt>
      <trkpt lat="45.78253" lon="4.85293">
        <ele>168</ele>
        <time>2014-09-07T08:43:14Z</time>
      </trkpt>
      <trkpt lat="45.78235" lon="4.85246">
        <ele>167</ele>
        <time>2014-09-07T08:43:19Z</time>
      </trkpt>
      <trkpt lat="45.7822" lon="4.85211">
        <ele>168</ele>
        <time>2014-09-07T08:43:23Z</time>
      </trkpt>
      <trkpt lat="45.78216" lon="4.85202">
        <ele>168</ele>
        <time>2014-09-07T08:43:24Z</time>
      </trkpt>
      <trkpt lat="45.78196" lon="4.85158">
        <ele>169</ele>
        <time>2014-09-07T08:43:29Z</time>
      </trkpt>
      <trkpt lat="45.78188" lon="4.85142">
        <ele>169</ele>
        <time>2014-09-07T08:43:31Z</time>
      </trkpt>
      <trkpt lat="45.7817" lon="4.85111">
        <ele>169</ele>
        <time>2014-09-07T08:43:35Z</time>
      </trkpt>
      <trkpt lat="45.78155" lon="4.85088">
        <ele>168</ele>
        <time>2014-09-07T08:43:38Z</time>
      </trkpt>
      <trkpt lat="45.78139" lon="4.85068">
        <ele>169</ele>
        <time>2014-09-07T08:43:41Z</time>
      </trkpt>
      <trkpt lat="45.78127" lon="4.85056">
        <ele>170</ele>
        <time>2014-09-07T08:43:43Z</time>
      </trkpt>
      <trkpt lat="45.78105" lon="4.85033">
        <ele>171</ele>
        <time>2014-09-07T08:43:47Z</time>
      </trkpt>
      <trkpt lat="45.7809" lon="4.85014">
        <ele>173</ele>
        <time>2014-09-07T08:43:50Z</time>
      </trkpt>
      <trkpt lat="45.78076" lon="4.84994">
        <ele>174</ele>
        <time>2014-09-07T08:43:53Z</time>
      </trkpt>
      <trkpt lat="45.7806" lon="4.84965">
        <ele>174</ele>
        <time>2014-09-07T08:43:57Z</time>
      </trkpt>
      <trkpt lat="45.78053" lon="4.84948">
        <ele>174</ele>
        <time>2014-09-07T08:43:59Z</time>
      </trkpt>
      <trkpt lat="45.78047" lon="4.8493">
        <ele>174</ele>
        <time>2014-09-07T08:44:01Z</time>
      </trkpt>
      <trkpt lat="45.78043" lon="4.84921">
        <ele>174</ele>
        <time>2014-09-07T08:44:02Z</time>
      </trkpt>
      <trkpt lat="45.78034" lon="4.84903">
        <ele>175</ele>
        <time>2014-09-07T08:44:04Z</time>
      </trkpt>
      <trkpt lat="45.78015" lon="4.84872">
        <ele>174</ele>
        <time>2014-09-07T08:44:08Z</time>
      </trkpt>
      <trkpt lat="45.78006" lon="4.84858">
        <ele>173</ele>
        <time>2014-09-07T08:44:10Z</time>
      </trkpt>
      <trkpt lat="45.7798" lon="4.84821">
        <ele>172</ele>
        <time>2014-09-07T08:44:15Z</time>
      </trkpt>
      <trkpt lat="45.77948" lon="4.8478">
        <ele>172</ele>
        <time>2014-09-07T08:44:21Z</time>
      </trkpt>
      <trkpt lat="45.77942" lon="4.84774">
        <ele>172</ele>
        <time>2014-09-07T08:44:22Z</time>
      </trkpt>
      <trkpt lat="45.77917" lon="4.84746">
        <ele>173</ele>
        <time>2014-09-07T08:44:27Z</time>
      </trkpt>
      <trkpt lat="45.77912" lon="4.8474">
        <ele>173</ele>
        <time>2014-09-07T08:44:28Z</time>
      </trkpt>
      <trkpt lat="45.77887" lon="4.84705">
        <ele>172</ele>
        <time>2014-09-07T08:44:33Z</time>
      </trkpt>
      <trkpt lat="45.77882" lon="4.84698">
        <ele>173</ele>
        <time>2014-09-07T08:44:34Z</time>
      </trkpt>
      <trkpt lat="45.77856" lon="4.84667">
        <ele>176</ele>
        <time>2014-09-07T08:44:39Z</time>
      </trkpt>
      <trkpt lat="45.77825" lon="4.8463">
        <ele>176</ele>
        <time>2014-09-07T08:44:45Z</time>
      </trkpt>
      <trkpt lat="45.77795" lon="4.84595">
        <ele>177</ele>
        <time>2014-09-07T08:44:51Z</time>
      </trkpt>
      <trkpt lat="45.77768" lon="4.84568">
        <ele>177</ele>
        <time>2014-09-07T08:44:57Z</time>
      </trkpt>
      <trkpt lat="45.77764" lon="4.84564">
        <ele>177</ele>
        <time>2014-09-07T08:44:58Z</time>
      </trkpt>
      <trkpt lat="45.77755" lon="4.84553">
        <ele>177</ele>
        <time>2014-09-07T08:45:01Z</time>
      </trkpt>
      <trkpt lat="45.77751" lon="4.84549">
        <ele>177</ele>
        <time>2014-09-07T08:45:02Z</time>
      </trkpt>
      <trkpt lat="45.77743" lon="4.84542">
        <ele>177</ele>
        <time>2014-09-07T08:45:04Z</time>
      </trkpt>
      <trkpt lat="45.77737" lon="4.84528">
        <ele>177</ele>
        <time>2014-09-07T08:45:07Z</time>
      </trkpt>
      <trkpt lat="45.77735" lon="4.84511">
        <ele>176</ele>
        <time>2014-09-07T08:45:12Z</time>
      </trkpt>
      <trkpt lat="45.77732" lon="4.84506">
        <ele>176</ele>
        <time>2014-09-07T08:45:15Z</time>
      </trkpt>
      <trkpt lat="45.77732" lon="4.84503">
        <ele>176</ele>
        <time>2014-09-07T08:45:16Z</time>
      </trkpt>
      <trkpt lat="45.7774" lon="4.84496">
        <ele>174</ele>
        <time>2014-09-07T08:45:20Z</time>
      </trkpt>
      <trkpt lat="45.77748" lon="4.84491">
        <ele>174</ele>
        <time>2014-09-07T08:45:23Z</time>
      </trkpt>
      <trkpt lat="45.7776" lon="4.84485">
        <ele>173</ele>
        <time>2014-09-07T08:45:28Z</time>
      </trkpt>
      <trkpt lat="45.77772" lon="4.84476">
        <ele>173</ele>
        <time>2014-09-07T08:45:35Z</time>
      </trkpt>
      <trkpt lat="45.77783" lon="4.84473">
        <ele>172</ele>
        <time>2014-09-07T08:45:39Z</time>
      </trkpt>
      <trkpt lat="45.77785" lon="4.84472">
        <ele>172</ele>
        <time>2014-09-07T08:45:40Z</time>
      </trkpt>
      <trkpt lat="45.77802" lon="4.84468">
        <ele>172</ele>
        <time>2014-09-07T08:45:47Z</time>
      </trkpt>
      <trkpt lat="45.77815" lon="4.84469">
        <ele>172</ele>
        <time>2014-09-07T08:45:52Z</time>
      </trkpt>
      <trkpt lat="45.77817" lon="4.84471">
        <ele>172</ele>
        <time>2014-09-07T08:45:53Z</time>
      </trkpt>
      <trkpt lat="45.77819" lon="4.84473">
        <ele>173</ele>
        <time>2014-09-07T08:45:54Z</time>
      </trkpt>
      <trkpt lat="45.77826" lon="4.84479">
        <ele>173</ele>
        <time>2014-09-07T08:45:57Z</time>
      </trkpt>
      <trkpt lat="45.77835" lon="4.84489">
        <ele>174</ele>
        <time>2014-09-07T08:46:01Z</time>
      </trkpt>
      <trkpt lat="45.77845" lon="4.84498">
        <ele>174</ele>
        <time>2014-09-07T08:46:06Z</time>
      </trkpt>
      <trkpt lat="45.77849" lon="4.845">
        <ele>175</ele>
        <time>2014-09-07T08:46:11Z</time>
      </trkpt>
      <trkpt lat="45.77848" lon="4.845">
        <ele>175</ele>
        <time>2014-09-07T08:46:33Z</time>
      </trkpt>
      <trkpt lat="45.77848" lon="4.84503">
        <ele>175</ele>
        <time>2014-09-07T08:46:37Z</time>
      </trkpt>
      <trkpt lat="45.77848" lon="4.84505">
        <ele>175</ele>
        <time>2014-09-07T08:46:38Z</time>
      </trkpt>
      <trkpt lat="45.7785" lon="4.84509">
        <ele>175</ele>
        <time>2014-09-07T08:46:43Z</time>
      </trkpt>
      <trkpt lat="45.77853" lon="4.8451">
        <ele>175</ele>
        <time>2014-09-07T08:46:48Z</time>
      </trkpt>
      <trkpt lat="45.77856" lon="4.84513">
        <ele>175</ele>
        <time>2014-09-07T08:46:55Z</time>
      </trkpt>
      <trkpt lat="45.77859" lon="4.84514">
        <ele>175</ele>
        <time>2014-09-07T08:47:03Z</time>
      </trkpt>
      <trkpt lat="45.77864" lon="4.84518">
        <ele>175</ele>
        <time>2014-09-07T08:47:15Z</time>
      </trkpt>
      <trkpt lat="45.77866" lon="4.84521">
        <ele>175</ele>
        <time>2014-09-07T08:47:21Z</time>
      </trkpt>
      <trkpt lat="45.77869" lon="4.84525">
        <ele>175</ele>
        <time>2014-09-07T08:47:31Z</time>
      </trkpt>
      <trkpt lat="45.77873" lon="4.84529">
        <ele>175</ele>
        <time>2014-09-07T08:47:37Z</time>
      </trkpt>
      <trkpt lat="45.77876" lon="4.84532">
        <ele>175</ele>
        <time>2014-09-07T08:47:41Z</time>
      </trkpt>
      <trkpt lat="45.77881" lon="4.84536">
        <ele>175</ele>
        <time>2014-09-07T08:47:45Z</time>
      </trkpt>
      <trkpt lat="45.77883" lon="4.84534">
        <ele>175</ele>
        <time>2014-09-07T08:47:50Z</time>
      </trkpt>
      <trkpt lat="45.77879" lon="4.84533">
        <ele>175</ele>
        <time>2014-09-07T08:47:53Z</time>
      </trkpt>
      <trkpt lat="45.77878" lon="4.84532">
        <ele>175</ele>
        <time>2014-09-07T08:47:54Z</time>
      </trkpt>
      <trkpt lat="45.77877" lon="4.84522">
        <ele>175</ele>
        <time>2014-09-07T08:47:59Z</time>
      </trkpt>
      <trkpt lat="45.77886" lon="4.84533">
        <ele>174</ele>
        <time>2014-09-07T08:49:22Z</time>
      </trkpt>
      <trkpt lat="45.77891" lon="4.8454">
        <ele>175</ele>
        <time>2014-09-07T08:49:30Z</time>
      </trkpt>
      <trkpt lat="45.77903" lon="4.84547">
        <ele>175</ele>
        <time>2014-09-07T08:49:34Z</time>
      </trkpt>
      <trkpt lat="45.77917" lon="4.84549">
        <ele>171</ele>
        <time>2014-09-07T08:49:39Z</time>
      </trkpt>
      <trkpt lat="45.77934" lon="4.84564">
        <ele>172</ele>
        <time>2014-09-07T08:49:45Z</time>
      </trkpt>
      <trkpt lat="45.77947" lon="4.84576">
        <ele>171</ele>
        <time>2014-09-07T08:49:49Z</time>
      </trkpt>
      <trkpt lat="45.77957" lon="4.84586">
        <ele>172</ele>
        <time>2014-09-07T08:49:52Z</time>
      </trkpt>
      <trkpt lat="45.77974" lon="4.84604">
        <ele>171</ele>
        <time>2014-09-07T08:49:57Z</time>
      </trkpt>
      <trkpt lat="45.77979" lon="4.84608">
        <ele>171</ele>
        <time>2014-09-07T08:49:58Z</time>
      </trkpt>
      <trkpt lat="45.78005" lon="4.84631">
        <ele>170</ele>
        <time>2014-09-07T08:50:04Z</time>
      </trkpt>
      <trkpt lat="45.78009" lon="4.84636">
        <ele>170</ele>
        <time>2014-09-07T08:50:05Z</time>
      </trkpt>
      <trkpt lat="45.78029" lon="4.84658">
        <ele>170</ele>
        <time>2014-09-07T08:50:10Z</time>
      </trkpt>
      <trkpt lat="45.78041" lon="4.84672">
        <ele>173</ele>
        <time>2014-09-07T08:50:13Z</time>
      </trkpt>
      <trkpt lat="45.78058" lon="4.84691">
        <ele>173</ele>
        <time>2014-09-07T08:50:17Z</time>
      </trkpt>
      <trkpt lat="45.78067" lon="4.84701">
        <ele>173</ele>
        <time>2014-09-07T08:50:19Z</time>
      </trkpt>
      <trkpt lat="45.78071" lon="4.84706">
        <ele>173</ele>
        <time>2014-09-07T08:50:20Z</time>
      </trkpt>
      <trkpt lat="45.78076" lon="4.84712">
        <ele>173</ele>
        <time>2014-09-07T08:50:21Z</time>
      </trkpt>
      <trkpt lat="45.78089" lon="4.84728">
        <ele>173</ele>
        <time>2014-09-07T08:50:24Z</time>
      </trkpt>
      <trkpt lat="45.78102" lon="4.84741">
        <ele>173</ele>
        <time>2014-09-07T08:50:27Z</time>
      </trkpt>
      <trkpt lat="45.78114" lon="4.84738">
        <ele>173</ele>
        <time>2014-09-07T08:50:31Z</time>
      </trkpt>
      <trkpt lat="45.78125" lon="4.84713">
        <ele>172</ele>
        <time>2014-09-07T08:50:35Z</time>
      </trkpt>
      <trkpt lat="45.78129" lon="4.84706">
        <ele>172</ele>
        <time>2014-09-07T08:50:36Z</time>
      </trkpt>
      <trkpt lat="45.78141" lon="4.84685">
        <ele>171</ele>
        <time>2014-09-07T08:50:41Z</time>
      </trkpt>
      <trkpt lat="45.78142" lon="4.84677">
        <ele>171</ele>
        <time>2014-09-07T08:50:46Z</time>
      </trkpt>
      <trkpt lat="45.78144" lon="4.84667">
        <ele>171</ele>
        <time>2014-09-07T08:50:49Z</time>
      </trkpt>
      <trkpt lat="45.78147" lon="4.84656">
        <ele>169</ele>
        <time>2014-09-07T08:50:52Z</time>
      </trkpt>
      <trkpt lat="45.78149" lon="4.84644">
        <ele>168</ele>
        <time>2014-09-07T08:50:56Z</time>
      </trkpt>
      <trkpt lat="45.78147" lon="4.84641">
        <ele>168</ele>
        <time>2014-09-07T08:50:57Z</time>
      </trkpt>
      <trkpt lat="45.78136" lon="4.84631">
        <ele>168</ele>
        <time>2014-09-07T08:51:00Z</time>
      </trkpt>
      <trkpt lat="45.78131" lon="4.84626">
        <ele>168</ele>
        <time>2014-09-07T08:51:01Z</time>
      </trkpt>
      <trkpt lat="45.78107" lon="4.84601">
        <ele>167</ele>
        <time>2014-09-07T08:51:06Z</time>
      </trkpt>
      <trkpt lat="45.78097" lon="4.84592">
        <ele>167</ele>
        <time>2014-09-07T08:51:08Z</time>
      </trkpt>
      <trkpt lat="45.78072" lon="4.84568">
        <ele>166</ele>
        <time>2014-09-07T08:51:13Z</time>
      </trkpt>
      <trkpt lat="45.78057" lon="4.84554">
        <ele>166</ele>
        <time>2014-09-07T08:51:16Z</time>
      </trkpt>
      <trkpt lat="45.78039" lon="4.84537">
        <ele>166</ele>
        <time>2014-09-07T08:51:20Z</time>
      </trkpt>
      <trkpt lat="45.78029" lon="4.84529">
        <ele>166</ele>
        <time>2014-09-07T08:51:22Z</time>
      </trkpt>
      <trkpt lat="45.78018" lon="4.84521">
        <ele>166</ele>
        <time>2014-09-07T08:51:24Z</time>
      </trkpt>
      <trkpt lat="45.78007" lon="4.84512">
        <ele>165</ele>
        <time>2014-09-07T08:51:26Z</time>
      </trkpt>
      <trkpt lat="45.78002" lon="4.84507">
        <ele>165</ele>
        <time>2014-09-07T08:51:27Z</time>
      </trkpt>
      <trkpt lat="45.77973" lon="4.84484">
        <ele>166</ele>
        <time>2014-09-07T08:51:32Z</time>
      </trkpt>
      <trkpt lat="45.77966" lon="4.84479">
        <ele>166</ele>
        <time>2014-09-07T08:51:33Z</time>
      </trkpt>
      <trkpt lat="45.77937" lon="4.8446">
        <ele>167</ele>
        <time>2014-09-07T08:51:38Z</time>
      </trkpt>
      <trkpt lat="45.77932" lon="4.84456">
        <ele>167</ele>
        <time>2014-09-07T08:51:39Z</time>
      </trkpt>
      <trkpt lat="45.77914" lon="4.84445">
        <ele>169</ele>
        <time>2014-09-07T08:51:42Z</time>
      </trkpt>
      <trkpt lat="45.77904" lon="4.84438">
        <ele>169</ele>
        <time>2014-09-07T08:51:44Z</time>
      </trkpt>
      <trkpt lat="45.77885" lon="4.84426">
        <ele>169</ele>
        <time>2014-09-07T08:51:47Z</time>
      </trkpt>
      <trkpt lat="45.77879" lon="4.84421">
        <ele>169</ele>
        <time>2014-09-07T08:51:48Z</time>
      </trkpt>
      <trkpt lat="45.77867" lon="4.84412">
        <ele>167</ele>
        <time>2014-09-07T08:51:50Z</time>
      </trkpt>
      <trkpt lat="45.77851" lon="4.84399">
        <ele>167</ele>
        <time>2014-09-07T08:51:53Z</time>
      </trkpt>
      <trkpt lat="45.77836" lon="4.84387">
        <ele>167</ele>
        <time>2014-09-07T08:51:56Z</time>
      </trkpt>
      <trkpt lat="45.77832" lon="4.84394">
        <ele>167</ele>
        <time>2014-09-07T08:51:58Z</time>
      </trkpt>
      <trkpt lat="45.77805" lon="4.84383">
        <ele>167</ele>
        <time>2014-09-07T08:52:01Z</time>
      </trkpt>
      <trkpt lat="45.77802" lon="4.84376">
        <ele>167</ele>
        <time>2014-09-07T08:52:02Z</time>
      </trkpt>
      <trkpt lat="45.77793" lon="4.8437">
        <ele>167</ele>
        <time>2014-09-07T08:52:03Z</time>
      </trkpt>
      <trkpt lat="45.77775" lon="4.84365">
        <ele>167</ele>
        <time>2014-09-07T08:52:06Z</time>
      </trkpt>
      <trkpt lat="45.77767" lon="4.8437">
        <ele>167</ele>
        <time>2014-09-07T08:52:08Z</time>
      </trkpt>
      <trkpt lat="45.77766" lon="4.84375">
        <ele>167</ele>
        <time>2014-09-07T08:52:09Z</time>
      </trkpt>
      <trkpt lat="45.77767" lon="4.84387">
        <ele>168</ele>
        <time>2014-09-07T08:52:11Z</time>
      </trkpt>
      <trkpt lat="45.77766" lon="4.84393">
        <ele>168</ele>
        <time>2014-09-07T08:52:12Z</time>
      </trkpt>
      <trkpt lat="45.77763" lon="4.84397">
        <ele>168</ele>
        <time>2014-09-07T08:52:13Z</time>
      </trkpt>
      <trkpt lat="45.77754" lon="4.84397">
        <ele>168</ele>
        <time>2014-09-07T08:52:16Z</time>
      </trkpt>
      <trkpt lat="45.77752" lon="4.84396">
        <ele>168</ele>
        <time>2014-09-07T08:52:17Z</time>
      </trkpt>
      <trkpt lat="45.77734" lon="4.8439">
        <ele>169</ele>
        <time>2014-09-07T08:52:23Z</time>
      </trkpt>
      <trkpt lat="45.77712" lon="4.84379">
        <ele>169</ele>
        <time>2014-09-07T08:52:30Z</time>
      </trkpt>
      <trkpt lat="45.77696" lon="4.84374">
        <ele>169</ele>
        <time>2014-09-07T08:52:36Z</time>
      </trkpt>
      <trkpt lat="45.7769" lon="4.84373">
        <ele>169</ele>
        <time>2014-09-07T08:52:38Z</time>
      </trkpt>
      <trkpt lat="45.7767" lon="4.84362">
        <ele>169</ele>
        <time>2014-09-07T08:52:44Z</time>
      </trkpt>
      <trkpt lat="45.77663" lon="4.84357">
        <ele>172</ele>
        <time>2014-09-07T08:52:46Z</time>
      </trkpt>
      <trkpt lat="45.77655" lon="4.84351">
        <ele>172</ele>
        <time>2014-09-07T08:52:48Z</time>
      </trkpt>
      <trkpt lat="45.77647" lon="4.84348">
        <ele>172</ele>
        <time>2014-09-07T08:52:50Z</time>
      </trkpt>
      <trkpt lat="45.77637" lon="4.84345">
        <ele>173</ele>
        <time>2014-09-07T08:52:52Z</time>
      </trkpt>
      <trkpt lat="45.77628" lon="4.8434">
        <ele>174</ele>
        <time>2014-09-07T08:52:54Z</time>
      </trkpt>
      <trkpt lat="45.77624" lon="4.84337">
        <ele>174</ele>
        <time>2014-09-07T08:52:55Z</time>
      </trkpt>
      <trkpt lat="45.77604" lon="4.84324">
        <ele>172</ele>
        <time>2014-09-07T08:52:59Z</time>
      </trkpt>
      <trkpt lat="45.77593" lon="4.84316">
        <ele>172</ele>
        <time>2014-09-07T08:53:01Z</time>
      </trkpt>
      <trkpt lat="45.77567" lon="4.84296">
        <ele>173</ele>
        <time>2014-09-07T08:53:06Z</time>
      </trkpt>
      <trkpt lat="45.77557" lon="4.84286">
        <ele>172</ele>
        <time>2014-09-07T08:53:08Z</time>
      </trkpt>
      <trkpt lat="45.77541" lon="4.84273">
        <ele>172</ele>
        <time>2014-09-07T08:53:11Z</time>
      </trkpt>
      <trkpt lat="45.77521" lon="4.8426">
        <ele>171</ele>
        <time>2014-09-07T08:53:15Z</time>
      </trkpt>
      <trkpt lat="45.7751" lon="4.84256">
        <ele>170</ele>
        <time>2014-09-07T08:53:17Z</time>
      </trkpt>
      <trkpt lat="45.77486" lon="4.84237">
        <ele>171</ele>
        <time>2014-09-07T08:53:22Z</time>
      </trkpt>
      <trkpt lat="45.77452" lon="4.84217">
        <ele>173</ele>
        <time>2014-09-07T08:53:28Z</time>
      </trkpt>
      <trkpt lat="45.77446" lon="4.84214">
        <ele>173</ele>
        <time>2014-09-07T08:53:29Z</time>
      </trkpt>
      <trkpt lat="45.77419" lon="4.84193">
        <ele>173</ele>
        <time>2014-09-07T08:53:33Z</time>
      </trkpt>
      <trkpt lat="45.77412" lon="4.84188">
        <ele>175</ele>
        <time>2014-09-07T08:53:34Z</time>
      </trkpt>
      <trkpt lat="45.77396" lon="4.84176">
        <ele>175</ele>
        <time>2014-09-07T08:53:37Z</time>
      </trkpt>
      <trkpt lat="45.77385" lon="4.84168">
        <ele>175</ele>
        <time>2014-09-07T08:53:39Z</time>
      </trkpt>
      <trkpt lat="45.77355" lon="4.8414">
        <ele>170</ele>
        <time>2014-09-07T08:53:45Z</time>
      </trkpt>
      <trkpt lat="45.77351" lon="4.84137">
        <ele>170</ele>
        <time>2014-09-07T08:53:46Z</time>
      </trkpt>
      <trkpt lat="45.77344" lon="4.84131">
        <ele>170</ele>
        <time>2014-09-07T08:53:49Z</time>
      </trkpt>
      <trkpt lat="45.77333" lon="4.84121">
        <ele>171</ele>
        <time>2014-09-07T08:53:54Z</time>
      </trkpt>
      <trkpt lat="45.7732" lon="4.8411">
        <ele>170</ele>
        <time>2014-09-07T08:53:58Z</time>
      </trkpt>
      <trkpt lat="45.77317" lon="4.84107">
        <ele>170</ele>
        <time>2014-09-07T08:53:59Z</time>
      </trkpt>
      <trkpt lat="45.77291" lon="4.84091">
        <ele>171</ele>
        <time>2014-09-07T08:54:04Z</time>
      </trkpt>
      <trkpt lat="45.77285" lon="4.84088">
        <ele>171</ele>
        <time>2014-09-07T08:54:05Z</time>
      </trkpt>
      <trkpt lat="45.77258" lon="4.84079">
        <ele>171</ele>
        <time>2014-09-07T08:54:09Z</time>
      </trkpt>
      <trkpt lat="45.77246" lon="4.84077">
        <ele>171</ele>
        <time>2014-09-07T08:54:11Z</time>
      </trkpt>
      <trkpt lat="45.77211" lon="4.84077">
        <ele>168</ele>
        <time>2014-09-07T08:54:15Z</time>
      </trkpt>
      <trkpt lat="45.77193" lon="4.84074">
        <ele>167</ele>
        <time>2014-09-07T08:54:18Z</time>
      </trkpt>
      <trkpt lat="45.77183" lon="4.84075">
        <ele>167</ele>
        <time>2014-09-07T08:54:19Z</time>
      </trkpt>
      <trkpt lat="45.77166" lon="4.84079">
        <ele>166</ele>
        <time>2014-09-07T08:54:21Z</time>
      </trkpt>
      <trkpt lat="45.77154" lon="4.84083">
        <ele>167</ele>
        <time>2014-09-07T08:54:23Z</time>
      </trkpt>
      <trkpt lat="45.77148" lon="4.84083">
        <ele>167</ele>
        <time>2014-09-07T08:54:24Z</time>
      </trkpt>
      <trkpt lat="45.7713" lon="4.84083">
        <ele>168</ele>
        <time>2014-09-07T08:54:27Z</time>
      </trkpt>
      <trkpt lat="45.77104" lon="4.84081">
        <ele>169</ele>
        <time>2014-09-07T08:54:31Z</time>
      </trkpt>
      <trkpt lat="45.77093" lon="4.84081">
        <ele>170</ele>
        <time>2014-09-07T08:54:33Z</time>
      </trkpt>
      <trkpt lat="45.77069" lon="4.84079">
        <ele>171</ele>
        <time>2014-09-07T08:54:37Z</time>
      </trkpt>
      <trkpt lat="45.77057" lon="4.84078">
        <ele>170</ele>
        <time>2014-09-07T08:54:39Z</time>
      </trkpt>
      <trkpt lat="45.77032" lon="4.8408">
        <ele>170</ele>
        <time>2014-09-07T08:54:43Z</time>
      </trkpt>
      <trkpt lat="45.77025" lon="4.84079">
        <ele>170</ele>
        <time>2014-09-07T08:54:44Z</time>
      </trkpt>
      <trkpt lat="45.77018" lon="4.84078">
        <ele>171</ele>
        <time>2014-09-07T08:54:45Z</time>
      </trkpt>
      <trkpt lat="45.76984" lon="4.84078">
        <ele>171</ele>
        <time>2014-09-07T08:54:51Z</time>
      </trkpt>
      <trkpt lat="45.76977" lon="4.84078">
        <ele>170</ele>
        <time>2014-09-07T08:54:52Z</time>
      </trkpt>
      <trkpt lat="45.76949" lon="4.84076">
        <ele>169</ele>
        <time>2014-09-07T08:54:57Z</time>
      </trkpt>
      <trkpt lat="45.76937" lon="4.84078">
        <ele>170</ele>
        <time>2014-09-07T08:54:59Z</time>
      </trkpt>
      <trkpt lat="45.76926" lon="4.84086">
        <ele>172</ele>
        <time>2014-09-07T08:55:02Z</time>
      </trkpt>
      <trkpt lat="45.76919" lon="4.84094">
        <ele>172</ele>
        <time>2014-09-07T08:55:04Z</time>
      </trkpt>
      <trkpt lat="45.76915" lon="4.84096">
        <ele>171</ele>
        <time>2014-09-07T08:55:05Z</time>
      </trkpt>
      <trkpt lat="45.76901" lon="4.84098">
        <ele>171</ele>
        <time>2014-09-07T08:55:08Z</time>
      </trkpt>
      <trkpt lat="45.76896" lon="4.84099">
        <ele>171</ele>
        <time>2014-09-07T08:55:09Z</time>
      </trkpt>
      <trkpt lat="45.76887" lon="4.841">
        <ele>171</ele>
        <time>2014-09-07T08:55:12Z</time>
      </trkpt>
      <trkpt lat="45.76884" lon="4.84101">
        <ele>170</ele>
        <time>2014-09-07T08:55:13Z</time>
      </trkpt>
      <trkpt lat="45.76873" lon="4.84098">
        <ele>170</ele>
        <time>2014-09-07T08:55:18Z</time>
      </trkpt>
      <trkpt lat="45.76872" lon="4.84097">
        <ele>170</ele>
        <time>2014-09-07T08:55:20Z</time>
      </trkpt>
      <trkpt lat="45.76869" lon="4.84096">
        <ele>170</ele>
        <time>2014-09-07T08:55:23Z</time>
      </trkpt>
      <trkpt lat="45.76866" lon="4.84097">
        <ele>170</ele>
        <time>2014-09-07T08:56:16Z</time>
      </trkpt>
      <trkpt lat="45.76864" lon="4.84096">
        <ele>170</ele>
        <time>2014-09-07T08:56:17Z</time>
      </trkpt>
      <trkpt lat="45.76862" lon="4.84084">
        <ele>169</ele>
        <time>2014-09-07T08:56:20Z</time>
      </trkpt>
      <trkpt lat="45.76862" lon="4.84048">
        <ele>167</ele>
        <time>2014-09-07T08:56:26Z</time>
      </trkpt>
      <trkpt lat="45.76862" lon="4.84041">
        <ele>167</ele>
        <time>2014-09-07T08:56:27Z</time>
      </trkpt>
      <trkpt lat="45.76862" lon="4.8399">
        <ele>166</ele>
        <time>2014-09-07T08:56:34Z</time>
      </trkpt>
      <trkpt lat="45.76861" lon="4.83935">
        <ele>166</ele>
        <time>2014-09-07T08:56:41Z</time>
      </trkpt>
      <trkpt lat="45.76861" lon="4.83927">
        <ele>166</ele>
        <time>2014-09-07T08:56:42Z</time>
      </trkpt>
      <trkpt lat="45.7686" lon="4.83882">
        <ele>168</ele>
        <time>2014-09-07T08:56:47Z</time>
      </trkpt>
      <trkpt lat="45.7686" lon="4.83854">
        <ele>168</ele>
        <time>2014-09-07T08:56:50Z</time>
      </trkpt>
      <trkpt lat="45.76859" lon="4.83822">
        <ele>172</ele>
        <time>2014-09-07T08:56:54Z</time>
      </trkpt>
      <trkpt lat="45.76859" lon="4.83813">
        <ele>173</ele>
        <time>2014-09-07T08:56:55Z</time>
      </trkpt>
      <trkpt lat="45.76864" lon="4.83793">
        <ele>174</ele>
        <time>2014-09-07T08:56:58Z</time>
      </trkpt>
      <trkpt lat="45.76868" lon="4.83789">
        <ele>174</ele>
        <time>2014-09-07T08:57:01Z</time>
      </trkpt>
      <trkpt lat="45.76868" lon="4.83787">
        <ele>174</ele>
        <time>2014-09-07T08:57:02Z</time>
      </trkpt>
      <trkpt lat="45.76867" lon="4.83776">
        <ele>175</ele>
        <time>2014-09-07T08:57:05Z</time>
      </trkpt>
      <trkpt lat="45.76865" lon="4.83768">
        <ele>175</ele>
        <time>2014-09-07T08:57:08Z</time>
      </trkpt>
      <trkpt lat="45.7686" lon="4.83769">
        <ele>175</ele>
        <time>2014-09-07T08:57:10Z</time>
      </trkpt>
      <trkpt lat="45.7684" lon="4.83778">
        <ele>175</ele>
        <time>2014-09-07T08:57:15Z</time>
      </trkpt>
      <trkpt lat="45.7683" lon="4.83779">
        <ele>175</ele>
        <time>2014-09-07T08:57:17Z</time>
      </trkpt>
      <trkpt lat="45.76821" lon="4.83781">
        <ele>175</ele>
        <time>2014-09-07T08:57:19Z</time>
      </trkpt>
      <trkpt lat="45.76813" lon="4.83775">
        <ele>175</ele>
        <time>2014-09-07T08:57:21Z</time>
      </trkpt>
      <trkpt lat="45.76812" lon="4.83759">
        <ele>176</ele>
        <time>2014-09-07T08:57:23Z</time>
      </trkpt>
      <trkpt lat="45.76811" lon="4.83751">
        <ele>176</ele>
        <time>2014-09-07T08:57:24Z</time>
      </trkpt>
      <trkpt lat="45.76808" lon="4.83707">
        <ele>182</ele>
        <time>2014-09-07T08:57:29Z</time>
      </trkpt>
      <trkpt lat="45.76807" lon="4.83698">
        <ele>183</ele>
        <time>2014-09-07T08:57:30Z</time>
      </trkpt>
      <trkpt lat="45.76804" lon="4.8364">
        <ele>184</ele>
        <time>2014-09-07T08:57:36Z</time>
      </trkpt>
      <trkpt lat="45.76805" lon="4.83611">
        <ele>183</ele>
        <time>2014-09-07T08:57:39Z</time>
      </trkpt>
      <trkpt lat="45.76809" lon="4.83601">
        <ele>183</ele>
        <time>2014-09-07T08:57:41Z</time>
      </trkpt>
      <trkpt lat="45.76805" lon="4.83598">
        <ele>183</ele>
        <time>2014-09-07T08:57:44Z</time>
      </trkpt>
      <trkpt lat="45.76799" lon="4.836">
        <ele>183</ele>
        <time>2014-09-07T08:57:46Z</time>
      </trkpt>
      <trkpt lat="45.7679" lon="4.836">
        <ele>183</ele>
        <time>2014-09-07T08:57:48Z</time>
      </trkpt>
      <trkpt lat="45.76776" lon="4.83598">
        <ele>183</ele>
        <time>2014-09-07T08:57:52Z</time>
      </trkpt>
      <trkpt lat="45.76769" lon="4.83595">
        <ele>183</ele>
        <time>2014-09-07T08:57:54Z</time>
      </trkpt>
      <trkpt lat="45.76764" lon="4.83594">
        <ele>183</ele>
        <time>2014-09-07T08:57:55Z</time>
      </trkpt>
      <trkpt lat="45.76757" lon="4.83594">
        <ele>183</ele>
        <time>2014-09-07T08:57:56Z</time>
      </trkpt>
      <trkpt lat="45.7675" lon="4.83596">
        <ele>183</ele>
        <time>2014-09-07T08:57:57Z</time>
      </trkpt>
      <trkpt lat="45.76729" lon="4.83602">
        <ele>184</ele>
        <time>2014-09-07T08:58:00Z</time>
      </trkpt>
      <trkpt lat="45.76688" lon="4.83607">
        <ele>184</ele>
        <time>2014-09-07T08:58:06Z</time>
      </trkpt>
      <trkpt lat="45.76674" lon="4.83611">
        <ele>184</ele>
        <time>2014-09-07T08:58:08Z</time>
      </trkpt>
      <trkpt lat="45.76664" lon="4.83608">
        <ele>183</ele>
        <time>2014-09-07T08:58:10Z</time>
      </trkpt>
      <trkpt lat="45.76646" lon="4.83607">
        <ele>183</ele>
        <time>2014-09-07T08:58:13Z</time>
      </trkpt>
      <trkpt lat="45.76625" lon="4.8361">
        <ele>182</ele>
        <time>2014-09-07T08:58:16Z</time>
      </trkpt>
      <trkpt lat="45.76619" lon="4.83608">
        <ele>182</ele>
        <time>2014-09-07T08:58:17Z</time>
      </trkpt>
      <trkpt lat="45.76608" lon="4.83603">
        <ele>182</ele>
        <time>2014-09-07T08:58:19Z</time>
      </trkpt>
      <trkpt lat="45.76595" lon="4.83602">
        <ele>182</ele>
        <time>2014-09-07T08:58:21Z</time>
      </trkpt>
      <trkpt lat="45.76584" lon="4.836">
        <ele>182</ele>
        <time>2014-09-07T08:58:23Z</time>
      </trkpt>
      <trkpt lat="45.76571" lon="4.83596">
        <ele>181</ele>
        <time>2014-09-07T08:58:25Z</time>
      </trkpt>
      <trkpt lat="45.76564" lon="4.83594">
        <ele>180</ele>
        <time>2014-09-07T08:58:26Z</time>
      </trkpt>
      <trkpt lat="45.76529" lon="4.83594">
        <ele>179</ele>
        <time>2014-09-07T08:58:31Z</time>
      </trkpt>
      <trkpt lat="45.76493" lon="4.83594">
        <ele>177</ele>
        <time>2014-09-07T08:58:36Z</time>
      </trkpt>
      <trkpt lat="45.76454" lon="4.83599">
        <ele>178</ele>
        <time>2014-09-07T08:58:41Z</time>
      </trkpt>
      <trkpt lat="45.76424" lon="4.83591">
        <ele>179</ele>
        <time>2014-09-07T08:58:47Z</time>
      </trkpt>
      <trkpt lat="45.76417" lon="4.83592">
        <ele>179</ele>
        <time>2014-09-07T08:58:48Z</time>
      </trkpt>
      <trkpt lat="45.76397" lon="4.83587">
        <ele>179</ele>
        <time>2014-09-07T08:58:51Z</time>
      </trkpt>
      <trkpt lat="45.76377" lon="4.83587">
        <ele>179</ele>
        <time>2014-09-07T08:58:55Z</time>
      </trkpt>
      <trkpt lat="45.76362" lon="4.83593">
        <ele>179</ele>
        <time>2014-09-07T08:59:00Z</time>
      </trkpt>
      <trkpt lat="45.7635" lon="4.83592">
        <ele>179</ele>
        <time>2014-09-07T08:59:05Z</time>
      </trkpt>
      <trkpt lat="45.76341" lon="4.83591">
        <ele>179</ele>
        <time>2014-09-07T08:59:07Z</time>
      </trkpt>
      <trkpt lat="45.76337" lon="4.83589">
        <ele>179</ele>
        <time>2014-09-07T08:59:08Z</time>
      </trkpt>
      <trkpt lat="45.76328" lon="4.83588">
        <ele>179</ele>
        <time>2014-09-07T08:59:10Z</time>
      </trkpt>
      <trkpt lat="45.76307" lon="4.83587">
        <ele>179</ele>
        <time>2014-09-07T08:59:14Z</time>
      </trkpt>
      <trkpt lat="45.76301" lon="4.83587">
        <ele>180</ele>
        <time>2014-09-07T08:59:15Z</time>
      </trkpt>
      <trkpt lat="45.76273" lon="4.83587">
        <ele>180</ele>
        <time>2014-09-07T08:59:19Z</time>
      </trkpt>
      <trkpt lat="45.76266" lon="4.83589">
        <ele>180</ele>
        <time>2014-09-07T08:59:20Z</time>
      </trkpt>
      <trkpt lat="45.76259" lon="4.83589">
        <ele>180</ele>
        <time>2014-09-07T08:59:21Z</time>
      </trkpt>
      <trkpt lat="45.7622" lon="4.83592">
        <ele>181</ele>
        <time>2014-09-07T08:59:26Z</time>
      </trkpt>
      <trkpt lat="45.76178" lon="4.83588">
        <ele>180</ele>
        <time>2014-09-07T08:59:32Z</time>
      </trkpt>
      <trkpt lat="45.76136" lon="4.8358">
        <ele>180</ele>
        <time>2014-09-07T08:59:38Z</time>
      </trkpt>
      <trkpt lat="45.76128" lon="4.8358">
        <ele>180</ele>
        <time>2014-09-07T08:59:39Z</time>
      </trkpt>
      <trkpt lat="45.76098" lon="4.83576">
        <ele>179</ele>
        <time>2014-09-07T08:59:45Z</time>
      </trkpt>
      <trkpt lat="45.76096" lon="4.83579">
        <ele>179</ele>
        <time>2014-09-07T08:59:46Z</time>
      </trkpt>
      <trkpt lat="45.76085" lon="4.83583">
        <ele>178</ele>
        <time>2014-09-07T08:59:49Z</time>
      </trkpt>
      <trkpt lat="45.76069" lon="4.83583">
        <ele>179</ele>
        <time>2014-09-07T08:59:52Z</time>
      </trkpt>
      <trkpt lat="45.76064" lon="4.83582">
        <ele>179</ele>
        <time>2014-09-07T08:59:53Z</time>
      </trkpt>
      <trkpt lat="45.76058" lon="4.83582">
        <ele>179</ele>
        <time>2014-09-07T08:59:54Z</time>
      </trkpt>
      <trkpt lat="45.7604" lon="4.83578">
        <ele>179</ele>
        <time>2014-09-07T08:59:58Z</time>
      </trkpt>
      <trkpt lat="45.76036" lon="4.83573">
        <ele>179</ele>
        <time>2014-09-07T08:59:59Z</time>
      </trkpt>
      <trkpt lat="45.76028" lon="4.83564">
        <ele>179</ele>
        <time>2014-09-07T09:00:01Z</time>
      </trkpt>
      <trkpt lat="45.76023" lon="4.83559">
        <ele>179</ele>
        <time>2014-09-07T09:00:02Z</time>
      </trkpt>
      <trkpt lat="45.76017" lon="4.83552">
        <ele>180</ele>
        <time>2014-09-07T09:00:03Z</time>
      </trkpt>
      <trkpt lat="45.76008" lon="4.83547">
        <ele>180</ele>
        <time>2014-09-07T09:00:04Z</time>
      </trkpt>
      <trkpt lat="45.76002" lon="4.83542">
        <ele>180</ele>
        <time>2014-09-07T09:00:05Z</time>
      </trkpt>
      <trkpt lat="45.75991" lon="4.83537">
        <ele>180</ele>
        <time>2014-09-07T09:00:07Z</time>
      </trkpt>
      <trkpt lat="45.75984" lon="4.83536">
        <ele>180</ele>
        <time>2014-09-07T09:00:08Z</time>
      </trkpt>
      <trkpt lat="45.75971" lon="4.83535">
        <ele>180</ele>
        <time>2014-09-07T09:00:10Z</time>
      </trkpt>
      <trkpt lat="45.75942" lon="4.83519">
        <ele>180</ele>
        <time>2014-09-07T09:00:15Z</time>
      </trkpt>
      <trkpt lat="45.75935" lon="4.83513">
        <ele>180</ele>
        <time>2014-09-07T09:00:16Z</time>
      </trkpt>
      <trkpt lat="45.75916" lon="4.83498">
        <ele>179</ele>
        <time>2014-09-07T09:00:19Z</time>
      </trkpt>
      <trkpt lat="45.75909" lon="4.83495">
        <ele>179</ele>
        <time>2014-09-07T09:00:20Z</time>
      </trkpt>
      <trkpt lat="45.75871" lon="4.83479">
        <ele>180</ele>
        <time>2014-09-07T09:00:25Z</time>
      </trkpt>
      <trkpt lat="45.75861" lon="4.83461">
        <ele>180</ele>
        <time>2014-09-07T09:00:27Z</time>
      </trkpt>
      <trkpt lat="45.7584" lon="4.83449">
        <ele>180</ele>
        <time>2014-09-07T09:00:30Z</time>
      </trkpt>
      <trkpt lat="45.75832" lon="4.83444">
        <ele>179</ele>
        <time>2014-09-07T09:00:31Z</time>
      </trkpt>
      <trkpt lat="45.75827" lon="4.83438">
        <ele>179</ele>
        <time>2014-09-07T09:00:32Z</time>
      </trkpt>
      <trkpt lat="45.75804" lon="4.83429">
        <ele>179</ele>
        <time>2014-09-07T09:00:35Z</time>
      </trkpt>
      <trkpt lat="45.758" lon="4.83424">
        <ele>179</ele>
        <time>2014-09-07T09:00:36Z</time>
      </trkpt>
      <trkpt lat="45.75792" lon="4.83402">
        <ele>177</ele>
        <time>2014-09-07T09:00:39Z</time>
      </trkpt>
      <trkpt lat="45.75799" lon="4.83388">
        <ele>177</ele>
        <time>2014-09-07T09:00:41Z</time>
      </trkpt>
      <trkpt lat="45.75806" lon="4.83386">
        <ele>177</ele>
        <time>2014-09-07T09:00:42Z</time>
      </trkpt>
      <trkpt lat="45.75807" lon="4.83392">
        <ele>177</ele>
        <time>2014-09-07T09:00:44Z</time>
      </trkpt>
      <trkpt lat="45.75818" lon="4.83391">
        <ele>177</ele>
        <time>2014-09-07T09:00:46Z</time>
      </trkpt>
      <trkpt lat="45.75829" lon="4.8339">
        <ele>177</ele>
        <time>2014-09-07T09:00:48Z</time>
      </trkpt>
      <trkpt lat="45.75842" lon="4.83388">
        <ele>180</ele>
        <time>2014-09-07T09:00:50Z</time>
      </trkpt>
      <trkpt lat="45.75861" lon="4.83387">
        <ele>180</ele>
        <time>2014-09-07T09:00:53Z</time>
      </trkpt>
      <trkpt lat="45.75881" lon="4.83391">
        <ele>181</ele>
        <time>2014-09-07T09:00:56Z</time>
      </trkpt>
      <trkpt lat="45.75899" lon="4.8339">
        <ele>181</ele>
        <time>2014-09-07T09:00:59Z</time>
      </trkpt>
      <trkpt lat="45.75918" lon="4.83388">
        <ele>182</ele>
        <time>2014-09-07T09:01:02Z</time>
      </trkpt>
      <trkpt lat="45.75924" lon="4.83387">
        <ele>182</ele>
        <time>2014-09-07T09:01:03Z</time>
      </trkpt>
      <trkpt lat="45.75929" lon="4.83385">
        <ele>182</ele>
        <time>2014-09-07T09:01:04Z</time>
      </trkpt>
      <trkpt lat="45.75938" lon="4.83371">
        <ele>183</ele>
        <time>2014-09-07T09:01:07Z</time>
      </trkpt>
      <trkpt lat="45.75941" lon="4.83358">
        <ele>183</ele>
        <time>2014-09-07T09:01:09Z</time>
      </trkpt>
      <trkpt lat="45.75942" lon="4.8335">
        <ele>183</ele>
        <time>2014-09-07T09:01:10Z</time>
      </trkpt>
      <trkpt lat="45.75943" lon="4.83334">
        <ele>183</ele>
        <time>2014-09-07T09:01:12Z</time>
      </trkpt>
      <trkpt lat="45.75944" lon="4.83328">
        <ele>185</ele>
        <time>2014-09-07T09:01:13Z</time>
      </trkpt>
      <trkpt lat="45.75948" lon="4.833">
        <ele>185</ele>
        <time>2014-09-07T09:01:17Z</time>
      </trkpt>
      <trkpt lat="45.75948" lon="4.83293">
        <ele>185</ele>
        <time>2014-09-07T09:01:18Z</time>
      </trkpt>
      <trkpt lat="45.7595" lon="4.8324">
        <ele>184</ele>
        <time>2014-09-07T09:01:25Z</time>
      </trkpt>
      <trkpt lat="45.75953" lon="4.83218">
        <ele>184</ele>
        <time>2014-09-07T09:01:28Z</time>
      </trkpt>
      <trkpt lat="45.75958" lon="4.8321">
        <ele>184</ele>
        <time>2014-09-07T09:01:30Z</time>
      </trkpt>
      <trkpt lat="45.75969" lon="4.83209">
        <ele>184</ele>
        <time>2014-09-07T09:01:33Z</time>
      </trkpt>
      <trkpt lat="45.7598" lon="4.83207">
        <ele>184</ele>
        <time>2014-09-07T09:01:35Z</time>
      </trkpt>
      <trkpt lat="45.75986" lon="4.83204">
        <ele>184</ele>
        <time>2014-09-07T09:01:36Z</time>
      </trkpt>
      <trkpt lat="45.75996" lon="4.8319">
        <ele>183</ele>
        <time>2014-09-07T09:01:39Z</time>
      </trkpt>
      <trkpt lat="45.75999" lon="4.83183">
        <ele>183</ele>
        <time>2014-09-07T09:01:40Z</time>
      </trkpt>
      <trkpt lat="45.76009" lon="4.8317">
        <ele>182</ele>
        <time>2014-09-07T09:01:42Z</time>
      </trkpt>
      <trkpt lat="45.76012" lon="4.83164">
        <ele>180</ele>
        <time>2014-09-07T09:01:43Z</time>
      </trkpt>
      <trkpt lat="45.76018" lon="4.83151">
        <ele>179</ele>
        <time>2014-09-07T09:01:45Z</time>
      </trkpt>
      <trkpt lat="45.76023" lon="4.83142">
        <ele>178</ele>
        <time>2014-09-07T09:01:48Z</time>
      </trkpt>
      <trkpt lat="45.76026" lon="4.83142">
        <ele>178</ele>
        <time>2014-09-07T09:01:49Z</time>
      </trkpt>
      <trkpt lat="45.76028" lon="4.83135">
        <ele>178</ele>
        <time>2014-09-07T09:01:52Z</time>
      </trkpt>
      <trkpt lat="45.76027" lon="4.83136">
        <ele>178</ele>
        <time>2014-09-07T09:01:54Z</time>
      </trkpt>
      <trkpt lat="45.76026" lon="4.83142">
        <ele>178</ele>
        <time>2014-09-07T09:01:56Z</time>
      </trkpt>
      <trkpt lat="45.7602" lon="4.83151">
        <ele>179</ele>
        <time>2014-09-07T09:01:58Z</time>
      </trkpt>
      <trkpt lat="45.76019" lon="4.83155">
        <ele>179</ele>
        <time>2014-09-07T09:01:59Z</time>
      </trkpt>
      <trkpt lat="45.76047" lon="4.83132">
        <ele>177</ele>
        <time>2014-09-07T09:05:26Z</time>
      </trkpt>
      <trkpt lat="45.76001" lon="4.83103">
        <ele>177</ele>
        <time>2014-09-07T09:05:30Z</time>
      </trkpt>
      <trkpt lat="45.75984" lon="4.83109">
        <ele>178</ele>
        <time>2014-09-07T09:05:33Z</time>
      </trkpt>
      <trkpt lat="45.75972" lon="4.83122">
        <ele>179</ele>
        <time>2014-09-07T09:05:36Z</time>
      </trkpt>
      <trkpt lat="45.75968" lon="4.83135">
        <ele>179</ele>
        <time>2014-09-07T09:05:39Z</time>
      </trkpt>
      <trkpt lat="45.75959" lon="4.83166">
        <ele>180</ele>
        <time>2014-09-07T09:05:44Z</time>
      </trkpt>
      <trkpt lat="45.75958" lon="4.83171">
        <ele>183</ele>
        <time>2014-09-07T09:05:45Z</time>
      </trkpt>
      <trkpt lat="45.75949" lon="4.8318">
        <ele>183</ele>
        <time>2014-09-07T09:05:48Z</time>
      </trkpt>
      <trkpt lat="45.75944" lon="4.83176">
        <ele>182</ele>
        <time>2014-09-07T09:05:51Z</time>
      </trkpt>
      <trkpt lat="45.75947" lon="4.83169">
        <ele>182</ele>
        <time>2014-09-07T09:05:52Z</time>
      </trkpt>
      <trkpt lat="45.75953" lon="4.83148">
        <ele>179</ele>
        <time>2014-09-07T09:05:55Z</time>
      </trkpt>
      <trkpt lat="45.75956" lon="4.83139">
        <ele>179</ele>
        <time>2014-09-07T09:05:56Z</time>
      </trkpt>
      <trkpt lat="45.75967" lon="4.83104">
        <ele>178</ele>
        <time>2014-09-07T09:06:02Z</time>
      </trkpt>
      <trkpt lat="45.75963" lon="4.83101">
        <ele>178</ele>
        <time>2014-09-07T09:06:03Z</time>
      </trkpt>
      <trkpt lat="45.75958" lon="4.83099">
        <ele>178</ele>
        <time>2014-09-07T09:06:04Z</time>
      </trkpt>
      <trkpt lat="45.75955" lon="4.83096">
        <ele>178</ele>
        <time>2014-09-07T09:06:05Z</time>
      </trkpt>
      <trkpt lat="45.75949" lon="4.83091">
        <ele>178</ele>
        <time>2014-09-07T09:06:07Z</time>
      </trkpt>
      <trkpt lat="45.75948" lon="4.83045">
        <ele>174</ele>
        <time>2014-09-07T09:06:20Z</time>
      </trkpt>
      <trkpt lat="45.75894" lon="4.82988">
        <ele>175</ele>
        <time>2014-09-07T09:06:37Z</time>
      </trkpt>
      <trkpt lat="45.7589" lon="4.82986">
        <ele>175</ele>
        <time>2014-09-07T09:06:43Z</time>
      </trkpt>
      <trkpt lat="45.75895" lon="4.82985">
        <ele>175</ele>
        <time>2014-09-07T09:06:46Z</time>
      </trkpt>
      <trkpt lat="45.75907" lon="4.82981">
        <ele>175</ele>
        <time>2014-09-07T09:06:49Z</time>
      </trkpt>
      <trkpt lat="45.75906" lon="4.82978">
        <ele>175</ele>
        <time>2014-09-07T09:06:50Z</time>
      </trkpt>
      <trkpt lat="45.75914" lon="4.82968">
        <ele>174</ele>
        <time>2014-09-07T09:06:53Z</time>
      </trkpt>
      <trkpt lat="45.75917" lon="4.82964">
        <ele>170</ele>
        <time>2014-09-07T09:06:56Z</time>
      </trkpt>
      <trkpt lat="45.75917" lon="4.82963">
        <ele>170</ele>
        <time>2014-09-07T09:06:57Z</time>
      </trkpt>
      <trkpt lat="45.75918" lon="4.82955">
        <ele>169</ele>
        <time>2014-09-07T09:07:02Z</time>
      </trkpt>
      <trkpt lat="45.75919" lon="4.82951">
        <ele>169</ele>
        <time>2014-09-07T09:07:04Z</time>
      </trkpt>
      <trkpt lat="45.75908" lon="4.82939">
        <ele>173</ele>
        <time>2014-09-07T09:07:07Z</time>
      </trkpt>
      <trkpt lat="45.75905" lon="4.82935">
        <ele>173</ele>
        <time>2014-09-07T09:07:08Z</time>
      </trkpt>
      <trkpt lat="45.75902" lon="4.82931">
        <ele>173</ele>
        <time>2014-09-07T09:07:09Z</time>
      </trkpt>
      <trkpt lat="45.75807" lon="4.82824">
        <ele>173</ele>
        <time>2014-09-07T09:07:28Z</time>
      </trkpt>
      <trkpt lat="45.75782" lon="4.82792">
        <ele>173</ele>
        <time>2014-09-07T09:07:32Z</time>
      </trkpt>
      <trkpt lat="45.75762" lon="4.82769">
        <ele>174</ele>
        <time>2014-09-07T09:07:35Z</time>
      </trkpt>
      <trkpt lat="45.75749" lon="4.82753">
        <ele>176</ele>
        <time>2014-09-07T09:07:37Z</time>
      </trkpt>
      <trkpt lat="45.75715" lon="4.82714">
        <ele>174</ele>
        <time>2014-09-07T09:07:42Z</time>
      </trkpt>
      <trkpt lat="45.75702" lon="4.827">
        <ele>173</ele>
        <time>2014-09-07T09:07:44Z</time>
      </trkpt>
      <trkpt lat="45.75682" lon="4.82679">
        <ele>173</ele>
        <time>2014-09-07T09:07:47Z</time>
      </trkpt>
      <trkpt lat="45.7565" lon="4.82645">
        <ele>172</ele>
        <time>2014-09-07T09:07:52Z</time>
      </trkpt>
      <trkpt lat="45.75638" lon="4.82632">
        <ele>173</ele>
        <time>2014-09-07T09:07:54Z</time>
      </trkpt>
      <trkpt lat="45.75624" lon="4.82624">
        <ele>173</ele>
        <time>2014-09-07T09:07:56Z</time>
      </trkpt>
      <trkpt lat="45.75618" lon="4.8262">
        <ele>173</ele>
        <time>2014-09-07T09:07:57Z</time>
      </trkpt>
      <trkpt lat="45.75581" lon="4.82605">
        <ele>178</ele>
        <time>2014-09-07T09:08:02Z</time>
      </trkpt>
      <trkpt lat="45.75566" lon="4.82601">
        <ele>178</ele>
        <time>2014-09-07T09:08:04Z</time>
      </trkpt>
      <trkpt lat="45.75551" lon="4.82596">
        <ele>178</ele>
        <time>2014-09-07T09:08:06Z</time>
      </trkpt>
      <trkpt lat="45.75543" lon="4.82594">
        <ele>179</ele>
        <time>2014-09-07T09:08:07Z</time>
      </trkpt>
      <trkpt lat="45.75506" lon="4.82575">
        <ele>177</ele>
        <time>2014-09-07T09:08:12Z</time>
      </trkpt>
      <trkpt lat="45.75498" lon="4.82572">
        <ele>177</ele>
        <time>2014-09-07T09:08:13Z</time>
      </trkpt>
      <trkpt lat="45.75469" lon="4.82563">
        <ele>174</ele>
        <time>2014-09-07T09:08:17Z</time>
      </trkpt>
      <trkpt lat="45.7545" lon="4.82555">
        <ele>173</ele>
        <time>2014-09-07T09:08:20Z</time>
      </trkpt>
      <trkpt lat="45.75433" lon="4.82548">
        <ele>173</ele>
        <time>2014-09-07T09:08:23Z</time>
      </trkpt>
      <trkpt lat="45.75425" lon="4.82544">
        <ele>172</ele>
        <time>2014-09-07T09:08:24Z</time>
      </trkpt>
      <trkpt lat="45.75418" lon="4.8254">
        <ele>172</ele>
        <time>2014-09-07T09:08:25Z</time>
      </trkpt>
      <trkpt lat="45.75394" lon="4.82523">
        <ele>172</ele>
        <time>2014-09-07T09:08:29Z</time>
      </trkpt>
      <trkpt lat="45.75374" lon="4.82511">
        <ele>172</ele>
        <time>2014-09-07T09:08:32Z</time>
      </trkpt>
      <trkpt lat="45.7536" lon="4.82503">
        <ele>173</ele>
        <time>2014-09-07T09:08:34Z</time>
      </trkpt>
      <trkpt lat="45.75327" lon="4.82484">
        <ele>171</ele>
        <time>2014-09-07T09:08:39Z</time>
      </trkpt>
      <trkpt lat="45.7532" lon="4.82479">
        <ele>171</ele>
        <time>2014-09-07T09:08:40Z</time>
      </trkpt>
      <trkpt lat="45.75292" lon="4.82463">
        <ele>171</ele>
        <time>2014-09-07T09:08:44Z</time>
      </trkpt>
      <trkpt lat="45.75285" lon="4.82459">
        <ele>171</ele>
        <time>2014-09-07T09:08:45Z</time>
      </trkpt>
      <trkpt lat="45.75251" lon="4.8244">
        <ele>171</ele>
        <time>2014-09-07T09:08:50Z</time>
      </trkpt>
      <trkpt lat="45.75225" lon="4.82426">
        <ele>173</ele>
        <time>2014-09-07T09:08:54Z</time>
      </trkpt>
      <trkpt lat="45.75213" lon="4.8242">
        <ele>173</ele>
        <time>2014-09-07T09:08:56Z</time>
      </trkpt>
      <trkpt lat="45.75192" lon="4.82408">
        <ele>170</ele>
        <time>2014-09-07T09:09:00Z</time>
      </trkpt>
      <trkpt lat="45.75183" lon="4.82401">
        <ele>171</ele>
        <time>2014-09-07T09:09:03Z</time>
      </trkpt>
      <trkpt lat="45.7518" lon="4.82395">
        <ele>170</ele>
        <time>2014-09-07T09:09:04Z</time>
      </trkpt>
      <trkpt lat="45.75171" lon="4.82376">
        <ele>170</ele>
        <time>2014-09-07T09:09:08Z</time>
      </trkpt>
      <trkpt lat="45.75168" lon="4.82373">
        <ele>170</ele>
        <time>2014-09-07T09:09:09Z</time>
      </trkpt>
      <trkpt lat="45.75156" lon="4.82359">
        <ele>171</ele>
        <time>2014-09-07T09:09:12Z</time>
      </trkpt>
      <trkpt lat="45.75148" lon="4.82348">
        <ele>171</ele>
        <time>2014-09-07T09:09:14Z</time>
      </trkpt>
      <trkpt lat="45.75142" lon="4.82334">
        <ele>171</ele>
        <time>2014-09-07T09:09:16Z</time>
      </trkpt>
      <trkpt lat="45.75136" lon="4.82319">
        <ele>168</ele>
        <time>2014-09-07T09:09:18Z</time>
      </trkpt>
      <trkpt lat="45.75132" lon="4.82311">
        <ele>168</ele>
        <time>2014-09-07T09:09:19Z</time>
      </trkpt>
      <trkpt lat="45.75128" lon="4.82305">
        <ele>168</ele>
        <time>2014-09-07T09:09:20Z</time>
      </trkpt>
      <trkpt lat="45.75112" lon="4.82287">
        <ele>168</ele>
        <time>2014-09-07T09:09:23Z</time>
      </trkpt>
      <trkpt lat="45.75107" lon="4.82282">
        <ele>168</ele>
        <time>2014-09-07T09:09:24Z</time>
      </trkpt>
      <trkpt lat="45.75103" lon="4.82278">
        <ele>167</ele>
        <time>2014-09-07T09:09:25Z</time>
      </trkpt>
      <trkpt lat="45.75098" lon="4.82273">
        <ele>167</ele>
        <time>2014-09-07T09:09:26Z</time>
      </trkpt>
      <trkpt lat="45.75087" lon="4.82259">
        <ele>167</ele>
        <time>2014-09-07T09:09:29Z</time>
      </trkpt>
      <trkpt lat="45.75081" lon="4.82246">
        <ele>166</ele>
        <time>2014-09-07T09:09:31Z</time>
      </trkpt>
      <trkpt lat="45.75078" lon="4.8224">
        <ele>167</ele>
        <time>2014-09-07T09:09:32Z</time>
      </trkpt>
      <trkpt lat="45.7507" lon="4.8223">
        <ele>167</ele>
        <time>2014-09-07T09:09:34Z</time>
      </trkpt>
      <trkpt lat="45.75049" lon="4.82203">
        <ele>168</ele>
        <time>2014-09-07T09:09:40Z</time>
      </trkpt>
      <trkpt lat="45.75031" lon="4.82179">
        <ele>168</ele>
        <time>2014-09-07T09:09:46Z</time>
      </trkpt>
      <trkpt lat="45.75024" lon="4.82166">
        <ele>167</ele>
        <time>2014-09-07T09:09:49Z</time>
      </trkpt>
      <trkpt lat="45.75014" lon="4.82153">
        <ele>167</ele>
        <time>2014-09-07T09:09:51Z</time>
      </trkpt>
      <trkpt lat="45.75008" lon="4.82144">
        <ele>167</ele>
        <time>2014-09-07T09:09:52Z</time>
      </trkpt>
      <trkpt lat="45.74995" lon="4.82126">
        <ele>167</ele>
        <time>2014-09-07T09:09:54Z</time>
      </trkpt>
      <trkpt lat="45.74989" lon="4.82117">
        <ele>167</ele>
        <time>2014-09-07T09:09:55Z</time>
      </trkpt>
      <trkpt lat="45.74968" lon="4.82081">
        <ele>166</ele>
        <time>2014-09-07T09:09:59Z</time>
      </trkpt>
      <trkpt lat="45.74953" lon="4.82056">
        <ele>166</ele>
        <time>2014-09-07T09:10:02Z</time>
      </trkpt>
      <trkpt lat="45.74944" lon="4.82041">
        <ele>166</ele>
        <time>2014-09-07T09:10:04Z</time>
      </trkpt>
      <trkpt lat="45.74939" lon="4.82034">
        <ele>165</ele>
        <time>2014-09-07T09:10:05Z</time>
      </trkpt>
      <trkpt lat="45.74927" lon="4.82027">
        <ele>165</ele>
        <time>2014-09-07T09:10:07Z</time>
      </trkpt>
      <trkpt lat="45.74909" lon="4.82023">
        <ele>166</ele>
        <time>2014-09-07T09:10:10Z</time>
      </trkpt>
      <trkpt lat="45.74904" lon="4.82018">
        <ele>166</ele>
        <time>2014-09-07T09:10:11Z</time>
      </trkpt>
      <trkpt lat="45.74895" lon="4.82007">
        <ele>166</ele>
        <time>2014-09-07T09:10:13Z</time>
      </trkpt>
      <trkpt lat="45.74878" lon="4.81984">
        <ele>166</ele>
        <time>2014-09-07T09:10:17Z</time>
      </trkpt>
      <trkpt lat="45.74865" lon="4.81972">
        <ele>166</ele>
        <time>2014-09-07T09:10:21Z</time>
      </trkpt>
      <trkpt lat="45.74855" lon="4.81962">
        <ele>166</ele>
        <time>2014-09-07T09:10:24Z</time>
      </trkpt>
      <trkpt lat="45.74847" lon="4.81956">
        <ele>166</ele>
        <time>2014-09-07T09:10:26Z</time>
      </trkpt>
      <trkpt lat="45.74839" lon="4.81947">
        <ele>166</ele>
        <time>2014-09-07T09:10:28Z</time>
      </trkpt>
      <trkpt lat="45.74836" lon="4.81942">
        <ele>166</ele>
        <time>2014-09-07T09:10:29Z</time>
      </trkpt>
      <trkpt lat="45.74826" lon="4.81926">
        <ele>167</ele>
        <time>2014-09-07T09:10:32Z</time>
      </trkpt>
      <trkpt lat="45.74818" lon="4.81916">
        <ele>166</ele>
        <time>2014-09-07T09:10:34Z</time>
      </trkpt>
      <trkpt lat="45.74807" lon="4.81898">
        <ele>166</ele>
        <time>2014-09-07T09:10:37Z</time>
      </trkpt>
      <trkpt lat="45.74793" lon="4.81876">
        <ele>165</ele>
        <time>2014-09-07T09:10:41Z</time>
      </trkpt>
      <trkpt lat="45.74774" lon="4.81851">
        <ele>165</ele>
        <time>2014-09-07T09:10:46Z</time>
      </trkpt>
      <trkpt lat="45.74767" lon="4.81839">
        <ele>165</ele>
        <time>2014-09-07T09:10:48Z</time>
      </trkpt>
      <trkpt lat="45.7476" lon="4.81828">
        <ele>164</ele>
        <time>2014-09-07T09:10:50Z</time>
      </trkpt>
      <trkpt lat="45.74752" lon="4.81818">
        <ele>164</ele>
        <time>2014-09-07T09:10:52Z</time>
      </trkpt>
      <trkpt lat="45.74743" lon="4.81809">
        <ele>164</ele>
        <time>2014-09-07T09:10:54Z</time>
      </trkpt>
      <trkpt lat="45.74739" lon="4.81806">
        <ele>164</ele>
        <time>2014-09-07T09:10:55Z</time>
      </trkpt>
      <trkpt lat="45.74731" lon="4.818">
        <ele>164</ele>
        <time>2014-09-07T09:10:57Z</time>
      </trkpt>
      <trkpt lat="45.74722" lon="4.81789">
        <ele>163</ele>
        <time>2014-09-07T09:11:00Z</time>
      </trkpt>
      <trkpt lat="45.74719" lon="4.81786">
        <ele>163</ele>
        <time>2014-09-07T09:11:01Z</time>
      </trkpt>
      <trkpt lat="45.74705" lon="4.81783">
        <ele>164</ele>
        <time>2014-09-07T09:11:04Z</time>
      </trkpt>
      <trkpt lat="45.747" lon="4.81782">
        <ele>164</ele>
        <time>2014-09-07T09:11:05Z</time>
      </trkpt>
      <trkpt lat="45.7468" lon="4.81776">
        <ele>163</ele>
        <time>2014-09-07T09:11:09Z</time>
      </trkpt>
      <trkpt lat="45.74672" lon="4.8177">
        <ele>163</ele>
        <time>2014-09-07T09:11:11Z</time>
      </trkpt>
      <trkpt lat="45.74668" lon="4.81766">
        <ele>163</ele>
        <time>2014-09-07T09:11:12Z</time>
      </trkpt>
      <trkpt lat="45.74661" lon="4.81756">
        <ele>163</ele>
        <time>2014-09-07T09:11:14Z</time>
      </trkpt>
      <trkpt lat="45.7465" lon="4.81727">
        <ele>164</ele>
        <time>2014-09-07T09:11:19Z</time>
      </trkpt>
      <trkpt lat="45.74649" lon="4.81721">
        <ele>164</ele>
        <time>2014-09-07T09:11:20Z</time>
      </trkpt>
      <trkpt lat="45.74648" lon="4.81715">
        <ele>164</ele>
        <time>2014-09-07T09:11:21Z</time>
      </trkpt>
      <trkpt lat="45.74642" lon="4.81703">
        <ele>164</ele>
        <time>2014-09-07T09:11:24Z</time>
      </trkpt>
      <trkpt lat="45.74632" lon="4.81692">
        <ele>165</ele>
        <time>2014-09-07T09:11:28Z</time>
      </trkpt>
      <trkpt lat="45.74629" lon="4.81687">
        <ele>165</ele>
        <time>2014-09-07T09:11:29Z</time>
      </trkpt>
      <trkpt lat="45.74626" lon="4.81683">
        <ele>165</ele>
        <time>2014-09-07T09:11:30Z</time>
      </trkpt>
      <trkpt lat="45.74618" lon="4.81673">
        <ele>165</ele>
        <time>2014-09-07T09:11:32Z</time>
      </trkpt>
      <trkpt lat="45.74596" lon="4.81652">
        <ele>166</ele>
        <time>2014-09-07T09:11:37Z</time>
      </trkpt>
      <trkpt lat="45.74591" lon="4.81649">
        <ele>166</ele>
        <time>2014-09-07T09:11:38Z</time>
      </trkpt>
      <trkpt lat="45.74563" lon="4.81627">
        <ele>164</ele>
        <time>2014-09-07T09:11:44Z</time>
      </trkpt>
      <trkpt lat="45.74558" lon="4.81622">
        <ele>164</ele>
        <time>2014-09-07T09:11:45Z</time>
      </trkpt>
      <trkpt lat="45.74531" lon="4.81602">
        <ele>163</ele>
        <time>2014-09-07T09:11:51Z</time>
      </trkpt>
      <trkpt lat="45.74527" lon="4.81598">
        <ele>163</ele>
        <time>2014-09-07T09:11:52Z</time>
      </trkpt>
      <trkpt lat="45.74511" lon="4.81585">
        <ele>162</ele>
        <time>2014-09-07T09:11:55Z</time>
      </trkpt>
      <trkpt lat="45.74495" lon="4.8157">
        <ele>161</ele>
        <time>2014-09-07T09:11:58Z</time>
      </trkpt>
      <trkpt lat="45.74473" lon="4.81554">
        <ele>162</ele>
        <time>2014-09-07T09:12:02Z</time>
      </trkpt>
      <trkpt lat="45.74462" lon="4.81545">
        <ele>162</ele>
        <time>2014-09-07T09:12:04Z</time>
      </trkpt>
      <trkpt lat="45.74434" lon="4.81521">
        <ele>162</ele>
        <time>2014-09-07T09:12:09Z</time>
      </trkpt>
      <trkpt lat="45.74428" lon="4.81516">
        <ele>162</ele>
        <time>2014-09-07T09:12:10Z</time>
      </trkpt>
      <trkpt lat="45.74401" lon="4.81494">
        <ele>163</ele>
        <time>2014-09-07T09:12:15Z</time>
      </trkpt>
      <trkpt lat="45.74396" lon="4.8149">
        <ele>163</ele>
        <time>2014-09-07T09:12:16Z</time>
      </trkpt>
      <trkpt lat="45.74372" lon="4.81478">
        <ele>163</ele>
        <time>2014-09-07T09:12:20Z</time>
      </trkpt>
      <trkpt lat="45.74366" lon="4.81476">
        <ele>163</ele>
        <time>2014-09-07T09:12:21Z</time>
      </trkpt>
      <trkpt lat="45.74356" lon="4.81479">
        <ele>164</ele>
        <time>2014-09-07T09:12:23Z</time>
      </trkpt>
      <trkpt lat="45.74345" lon="4.81494">
        <ele>165</ele>
        <time>2014-09-07T09:12:26Z</time>
      </trkpt>
      <trkpt lat="45.74342" lon="4.81502">
        <ele>166</ele>
        <time>2014-09-07T09:12:27Z</time>
      </trkpt>
      <trkpt lat="45.74333" lon="4.81524">
        <ele>167</ele>
        <time>2014-09-07T09:12:30Z</time>
      </trkpt>
      <trkpt lat="45.74321" lon="4.81553">
        <ele>168</ele>
        <time>2014-09-07T09:12:34Z</time>
      </trkpt>
      <trkpt lat="45.74312" lon="4.81573">
        <ele>168</ele>
        <time>2014-09-07T09:12:37Z</time>
      </trkpt>
      <trkpt lat="45.74297" lon="4.81603">
        <ele>169</ele>
        <time>2014-09-07T09:12:42Z</time>
      </trkpt>
      <trkpt lat="45.74291" lon="4.81616">
        <ele>169</ele>
        <time>2014-09-07T09:12:44Z</time>
      </trkpt>
      <trkpt lat="45.74276" lon="4.81651">
        <ele>168</ele>
        <time>2014-09-07T09:12:49Z</time>
      </trkpt>
      <trkpt lat="45.74269" lon="4.81665">
        <ele>168</ele>
        <time>2014-09-07T09:12:51Z</time>
      </trkpt>
      <trkpt lat="45.74246" lon="4.81713">
        <ele>167</ele>
        <time>2014-09-07T09:12:58Z</time>
      </trkpt>
      <trkpt lat="45.74225" lon="4.81746">
        <ele>167</ele>
        <time>2014-09-07T09:13:04Z</time>
      </trkpt>
      <trkpt lat="45.74222" lon="4.81754">
        <ele>168</ele>
        <time>2014-09-07T09:13:05Z</time>
      </trkpt>
      <trkpt lat="45.74206" lon="4.81791">
        <ele>168</ele>
        <time>2014-09-07T09:13:10Z</time>
      </trkpt>
      <trkpt lat="45.74203" lon="4.81799">
        <ele>168</ele>
        <time>2014-09-07T09:13:11Z</time>
      </trkpt>
      <trkpt lat="45.74182" lon="4.81845">
        <ele>167</ele>
        <time>2014-09-07T09:13:17Z</time>
      </trkpt>
      <trkpt lat="45.7417" lon="4.81871">
        <ele>167</ele>
        <time>2014-09-07T09:13:21Z</time>
      </trkpt>
      <trkpt lat="45.74163" lon="4.81893">
        <ele>166</ele>
        <time>2014-09-07T09:13:24Z</time>
      </trkpt>
      <trkpt lat="45.74153" lon="4.81915">
        <ele>166</ele>
        <time>2014-09-07T09:13:28Z</time>
      </trkpt>
      <trkpt lat="45.74147" lon="4.81939">
        <ele>166</ele>
        <time>2014-09-07T09:13:32Z</time>
      </trkpt>
      <trkpt lat="45.74146" lon="4.81946">
        <ele>166</ele>
        <time>2014-09-07T09:13:33Z</time>
      </trkpt>
      <trkpt lat="45.74145" lon="4.81951">
        <ele>166</ele>
        <time>2014-09-07T09:13:34Z</time>
      </trkpt>
      <trkpt lat="45.74142" lon="4.81958">
        <ele>166</ele>
        <time>2014-09-07T09:13:36Z</time>
      </trkpt>
      <trkpt lat="45.74141" lon="4.81957">
        <ele>166</ele>
        <time>2014-09-07T09:13:38Z</time>
      </trkpt>
      <trkpt lat="45.74137" lon="4.81952">
        <ele>166</ele>
        <time>2014-09-07T09:13:40Z</time>
      </trkpt>
      <trkpt lat="45.74128" lon="4.81943">
        <ele>166</ele>
        <time>2014-09-07T09:13:43Z</time>
      </trkpt>
      <trkpt lat="45.74123" lon="4.81936">
        <ele>166</ele>
        <time>2014-09-07T09:13:45Z</time>
      </trkpt>
      <trkpt lat="45.74108" lon="4.81916">
        <ele>165</ele>
        <time>2014-09-07T09:13:51Z</time>
      </trkpt>
      <trkpt lat="45.74107" lon="4.81912">
        <ele>165</ele>
        <time>2014-09-07T09:13:52Z</time>
      </trkpt>
      <trkpt lat="45.74108" lon="4.81898">
        <ele>165</ele>
        <time>2014-09-07T09:13:54Z</time>
      </trkpt>
      <trkpt lat="45.74108" lon="4.81892">
        <ele>165</ele>
        <time>2014-09-07T09:13:55Z</time>
      </trkpt>
      <trkpt lat="45.74112" lon="4.81878">
        <ele>165</ele>
        <time>2014-09-07T09:13:57Z</time>
      </trkpt>
      <trkpt lat="45.74119" lon="4.81857">
        <ele>166</ele>
        <time>2014-09-07T09:14:00Z</time>
      </trkpt>
      <trkpt lat="45.74124" lon="4.81841">
        <ele>166</ele>
        <time>2014-09-07T09:14:02Z</time>
      </trkpt>
      <trkpt lat="45.7414" lon="4.81797">
        <ele>167</ele>
        <time>2014-09-07T09:14:08Z</time>
      </trkpt>
      <trkpt lat="45.74143" lon="4.8179">
        <ele>167</ele>
        <time>2014-09-07T09:14:09Z</time>
      </trkpt>
      <trkpt lat="45.74151" lon="4.81771">
        <ele>167</ele>
        <time>2014-09-07T09:14:12Z</time>
      </trkpt>
      <trkpt lat="45.74161" lon="4.8174">
        <ele>168</ele>
        <time>2014-09-07T09:14:16Z</time>
      </trkpt>
      <trkpt lat="45.74167" lon="4.81714">
        <ele>168</ele>
        <time>2014-09-07T09:14:19Z</time>
      </trkpt>
      <trkpt lat="45.74174" lon="4.81689">
        <ele>168</ele>
        <time>2014-09-07T09:14:22Z</time>
      </trkpt>
      <trkpt lat="45.74183" lon="4.8166">
        <ele>169</ele>
        <time>2014-09-07T09:14:25Z</time>
      </trkpt>
      <trkpt lat="45.7419" lon="4.8164">
        <ele>169</ele>
        <time>2014-09-07T09:14:27Z</time>
      </trkpt>
      <trkpt lat="45.74204" lon="4.81603">
        <ele>170</ele>
        <time>2014-09-07T09:14:31Z</time>
      </trkpt>
      <trkpt lat="45.74211" lon="4.81587">
        <ele>170</ele>
        <time>2014-09-07T09:14:33Z</time>
      </trkpt>
      <trkpt lat="45.74213" lon="4.8158">
        <ele>170</ele>
        <time>2014-09-07T09:14:34Z</time>
      </trkpt>
      <trkpt lat="45.74215" lon="4.81574">
        <ele>170</ele>
        <time>2014-09-07T09:14:35Z</time>
      </trkpt>
      <trkpt lat="45.7421" lon="4.81554">
        <ele>169</ele>
        <time>2014-09-07T09:14:39Z</time>
      </trkpt>
      <trkpt lat="45.74201" lon="4.81548">
        <ele>169</ele>
        <time>2014-09-07T09:14:40Z</time>
      </trkpt>
      <trkpt lat="45.74188" lon="4.81537">
        <ele>168</ele>
        <time>2014-09-07T09:14:42Z</time>
      </trkpt>
      <trkpt lat="45.74168" lon="4.8152">
        <ele>167</ele>
        <time>2014-09-07T09:14:45Z</time>
      </trkpt>
      <trkpt lat="45.74142" lon="4.81501">
        <ele>166</ele>
        <time>2014-09-07T09:14:49Z</time>
      </trkpt>
      <trkpt lat="45.74133" lon="4.81499">
        <ele>164</ele>
        <time>2014-09-07T09:14:51Z</time>
      </trkpt>
      <trkpt lat="45.7413" lon="4.815">
        <ele>165</ele>
        <time>2014-09-07T09:14:52Z</time>
      </trkpt>
      <trkpt lat="45.74122" lon="4.81519">
        <ele>166</ele>
        <time>2014-09-07T09:14:55Z</time>
      </trkpt>
      <trkpt lat="45.74118" lon="4.81533">
        <ele>166</ele>
        <time>2014-09-07T09:14:57Z</time>
      </trkpt>
      <trkpt lat="45.74113" lon="4.81547">
        <ele>166</ele>
        <time>2014-09-07T09:14:59Z</time>
      </trkpt>
      <trkpt lat="45.74105" lon="4.81562">
        <ele>166</ele>
        <time>2014-09-07T09:15:01Z</time>
      </trkpt>
      <trkpt lat="45.74084" lon="4.81589">
        <ele>166</ele>
        <time>2014-09-07T09:15:04Z</time>
      </trkpt>
      <trkpt lat="45.74072" lon="4.8164">
        <ele>168</ele>
        <time>2014-09-07T09:15:10Z</time>
      </trkpt>
      <trkpt lat="45.7407" lon="4.81649">
        <ele>168</ele>
        <time>2014-09-07T09:15:11Z</time>
      </trkpt>
      <trkpt lat="45.74058" lon="4.81694">
        <ele>169</ele>
        <time>2014-09-07T09:15:15Z</time>
      </trkpt>
      <trkpt lat="45.74041" lon="4.81703">
        <ele>169</ele>
        <time>2014-09-07T09:15:17Z</time>
      </trkpt>
      <trkpt lat="45.74022" lon="4.81714">
        <ele>169</ele>
        <time>2014-09-07T09:15:19Z</time>
      </trkpt>
      <trkpt lat="45.74014" lon="4.81723">
        <ele>169</ele>
        <time>2014-09-07T09:15:20Z</time>
      </trkpt>
      <trkpt lat="45.74009" lon="4.81728">
        <ele>169</ele>
        <time>2014-09-07T09:15:21Z</time>
      </trkpt>
      <trkpt lat="45.74004" lon="4.81743">
        <ele>169</ele>
        <time>2014-09-07T09:15:23Z</time>
      </trkpt>
      <trkpt lat="45.74002" lon="4.81749">
        <ele>169</ele>
        <time>2014-09-07T09:15:24Z</time>
      </trkpt>
      <trkpt lat="45.74002" lon="4.81755">
        <ele>169</ele>
        <time>2014-09-07T09:15:25Z</time>
      </trkpt>
      <trkpt lat="45.74002" lon="4.81776">
        <ele>168</ele>
        <time>2014-09-07T09:15:29Z</time>
      </trkpt>
      <trkpt lat="45.73991" lon="4.81797">
        <ele>169</ele>
        <time>2014-09-07T09:15:33Z</time>
      </trkpt>
      <trkpt lat="45.73985" lon="4.81812">
        <ele>169</ele>
        <time>2014-09-07T09:15:37Z</time>
      </trkpt>
      <trkpt lat="45.73983" lon="4.81812">
        <ele>169</ele>
        <time>2014-09-07T09:15:38Z</time>
      </trkpt>
      <trkpt lat="45.73976" lon="4.81806">
        <ele>169</ele>
        <time>2014-09-07T09:15:41Z</time>
      </trkpt>
      <trkpt lat="45.73974" lon="4.81805">
        <ele>169</ele>
        <time>2014-09-07T09:15:42Z</time>
      </trkpt>
      <trkpt lat="45.73959" lon="4.81794">
        <ele>170</ele>
        <time>2014-09-07T09:15:48Z</time>
      </trkpt>
      <trkpt lat="45.73956" lon="4.81791">
        <ele>170</ele>
        <time>2014-09-07T09:15:49Z</time>
      </trkpt>
      <trkpt lat="45.73943" lon="4.81779">
        <ele>170</ele>
        <time>2014-09-07T09:15:52Z</time>
      </trkpt>
      <trkpt lat="45.73938" lon="4.81775">
        <ele>170</ele>
        <time>2014-09-07T09:15:53Z</time>
      </trkpt>
      <trkpt lat="45.7392" lon="4.81758">
        <ele>171</ele>
        <time>2014-09-07T09:15:57Z</time>
      </trkpt>
      <trkpt lat="45.7391" lon="4.8175">
        <ele>171</ele>
        <time>2014-09-07T09:15:59Z</time>
      </trkpt>
      <trkpt lat="45.73894" lon="4.81736">
        <ele>170</ele>
        <time>2014-09-07T09:16:02Z</time>
      </trkpt>
      <trkpt lat="45.73879" lon="4.81722">
        <ele>170</ele>
        <time>2014-09-07T09:16:05Z</time>
      </trkpt>
      <trkpt lat="45.73863" lon="4.81711">
        <ele>169</ele>
        <time>2014-09-07T09:16:08Z</time>
      </trkpt>
      <trkpt lat="45.73846" lon="4.81697">
        <ele>169</ele>
        <time>2014-09-07T09:16:12Z</time>
      </trkpt>
      <trkpt lat="45.7383" lon="4.81688">
        <ele>168</ele>
        <time>2014-09-07T09:16:15Z</time>
      </trkpt>
      <trkpt lat="45.73807" lon="4.81677">
        <ele>168</ele>
        <time>2014-09-07T09:16:19Z</time>
      </trkpt>
      <trkpt lat="45.73795" lon="4.81674">
        <ele>168</ele>
        <time>2014-09-07T09:16:21Z</time>
      </trkpt>
      <trkpt lat="45.73789" lon="4.81673">
        <ele>168</ele>
        <time>2014-09-07T09:16:22Z</time>
      </trkpt>
      <trkpt lat="45.73771" lon="4.81668">
        <ele>168</ele>
        <time>2014-09-07T09:16:25Z</time>
      </trkpt>
      <trkpt lat="45.73746" lon="4.81661">
        <ele>168</ele>
        <time>2014-09-07T09:16:29Z</time>
      </trkpt>
      <trkpt lat="45.73734" lon="4.81658">
        <ele>168</ele>
        <time>2014-09-07T09:16:31Z</time>
      </trkpt>
      <trkpt lat="45.73722" lon="4.81657">
        <ele>168</ele>
        <time>2014-09-07T09:16:33Z</time>
      </trkpt>
      <trkpt lat="45.73711" lon="4.81656">
        <ele>167</ele>
        <time>2014-09-07T09:16:35Z</time>
      </trkpt>
      <trkpt lat="45.73698" lon="4.81657">
        <ele>168</ele>
        <time>2014-09-07T09:16:37Z</time>
      </trkpt>
      <trkpt lat="45.7368" lon="4.81659">
        <ele>168</ele>
        <time>2014-09-07T09:16:40Z</time>
      </trkpt>
      <trkpt lat="45.73673" lon="4.8166">
        <ele>168</ele>
        <time>2014-09-07T09:16:41Z</time>
      </trkpt>
      <trkpt lat="45.73661" lon="4.81663">
        <ele>168</ele>
        <time>2014-09-07T09:16:43Z</time>
      </trkpt>
      <trkpt lat="45.73655" lon="4.81665">
        <ele>168</ele>
        <time>2014-09-07T09:16:44Z</time>
      </trkpt>
      <trkpt lat="45.73649" lon="4.81668">
        <ele>168</ele>
        <time>2014-09-07T09:16:45Z</time>
      </trkpt>
      <trkpt lat="45.7362" lon="4.81678">
        <ele>168</ele>
        <time>2014-09-07T09:16:50Z</time>
      </trkpt>
      <trkpt lat="45.73602" lon="4.81687">
        <ele>167</ele>
        <time>2014-09-07T09:16:53Z</time>
      </trkpt>
      <trkpt lat="45.73585" lon="4.81696">
        <ele>167</ele>
        <time>2014-09-07T09:16:56Z</time>
      </trkpt>
      <trkpt lat="45.73574" lon="4.817">
        <ele>167</ele>
        <time>2014-09-07T09:16:58Z</time>
      </trkpt>
      <trkpt lat="45.73547" lon="4.81713">
        <ele>167</ele>
        <time>2014-09-07T09:17:03Z</time>
      </trkpt>
      <trkpt lat="45.73543" lon="4.81715">
        <ele>167</ele>
        <time>2014-09-07T09:17:04Z</time>
      </trkpt>
      <trkpt lat="45.73513" lon="4.81732">
        <ele>168</ele>
        <time>2014-09-07T09:17:11Z</time>
      </trkpt>
      <trkpt lat="45.73495" lon="4.81741">
        <ele>168</ele>
        <time>2014-09-07T09:17:14Z</time>
      </trkpt>
      <trkpt lat="45.73489" lon="4.81743">
        <ele>168</ele>
        <time>2014-09-07T09:17:15Z</time>
      </trkpt>
      <trkpt lat="45.73475" lon="4.81749">
        <ele>168</ele>
        <time>2014-09-07T09:17:17Z</time>
      </trkpt>
      <trkpt lat="45.73462" lon="4.81753">
        <ele>168</ele>
        <time>2014-09-07T09:17:19Z</time>
      </trkpt>
      <trkpt lat="45.73455" lon="4.81754">
        <ele>169</ele>
        <time>2014-09-07T09:17:20Z</time>
      </trkpt>
      <trkpt lat="45.73434" lon="4.81757">
        <ele>169</ele>
        <time>2014-09-07T09:17:23Z</time>
      </trkpt>
      <trkpt lat="45.73409" lon="4.81763">
        <ele>169</ele>
        <time>2014-09-07T09:17:27Z</time>
      </trkpt>
      <trkpt lat="45.73399" lon="4.81765">
        <ele>169</ele>
        <time>2014-09-07T09:17:30Z</time>
      </trkpt>
      <trkpt lat="45.73399" lon="4.81773">
        <ele>169</ele>
        <time>2014-09-07T09:17:33Z</time>
      </trkpt>
      <trkpt lat="45.73398" lon="4.81775">
        <ele>169</ele>
        <time>2014-09-07T09:17:34Z</time>
      </trkpt>
      <trkpt lat="45.73397" lon="4.81777">
        <ele>169</ele>
        <time>2014-09-07T09:17:38Z</time>
      </trkpt>
      <trkpt lat="45.73397" lon="4.81777">
        <ele>169</ele>
        <time>2014-09-07T09:17:48Z</time>
      </trkpt>
      <trkpt lat="45.73394" lon="4.81784">
        <ele>169</ele>
        <time>2014-09-07T09:17:50Z</time>
      </trkpt>
      <trkpt lat="45.73386" lon="4.81808">
        <ele>169</ele>
        <time>2014-09-07T09:17:55Z</time>
      </trkpt>
      <trkpt lat="45.73379" lon="4.81817">
        <ele>169</ele>
        <time>2014-09-07T09:17:57Z</time>
      </trkpt>
      <trkpt lat="45.73376" lon="4.81824">
        <ele>169</ele>
        <time>2014-09-07T09:17:59Z</time>
      </trkpt>
      <trkpt lat="45.73371" lon="4.81847">
        <ele>167</ele>
        <time>2014-09-07T09:18:03Z</time>
      </trkpt>
      <trkpt lat="45.73369" lon="4.81853">
        <ele>167</ele>
        <time>2014-09-07T09:18:04Z</time>
      </trkpt>
      <trkpt lat="45.73366" lon="4.81868">
        <ele>167</ele>
        <time>2014-09-07T09:18:07Z</time>
      </trkpt>
      <trkpt lat="45.73364" lon="4.81874">
        <ele>167</ele>
        <time>2014-09-07T09:18:08Z</time>
      </trkpt>
      <trkpt lat="45.73351" lon="4.81912">
        <ele>165</ele>
        <time>2014-09-07T09:18:14Z</time>
      </trkpt>
      <trkpt lat="45.73349" lon="4.81919">
        <ele>164</ele>
        <time>2014-09-07T09:18:15Z</time>
      </trkpt>
      <trkpt lat="45.7334" lon="4.81946">
        <ele>164</ele>
        <time>2014-09-07T09:18:19Z</time>
      </trkpt>
      <trkpt lat="45.73333" lon="4.81957">
        <ele>164</ele>
        <time>2014-09-07T09:18:21Z</time>
      </trkpt>
      <trkpt lat="45.73329" lon="4.81962">
        <ele>164</ele>
        <time>2014-09-07T09:18:22Z</time>
      </trkpt>
      <trkpt lat="45.73305" lon="4.81994">
        <ele>164</ele>
        <time>2014-09-07T09:18:28Z</time>
      </trkpt>
      <trkpt lat="45.73301" lon="4.81999">
        <ele>164</ele>
        <time>2014-09-07T09:18:29Z</time>
      </trkpt>
      <trkpt lat="45.73289" lon="4.82013">
        <ele>164</ele>
        <time>2014-09-07T09:18:32Z</time>
      </trkpt>
      <trkpt lat="45.73277" lon="4.82027">
        <ele>164</ele>
        <time>2014-09-07T09:18:35Z</time>
      </trkpt>
      <trkpt lat="45.7327" lon="4.82036">
        <ele>164</ele>
        <time>2014-09-07T09:18:37Z</time>
      </trkpt>
      <trkpt lat="45.73251" lon="4.82061">
        <ele>164</ele>
        <time>2014-09-07T09:18:42Z</time>
      </trkpt>
      <trkpt lat="45.73242" lon="4.82072">
        <ele>164</ele>
        <time>2014-09-07T09:18:44Z</time>
      </trkpt>
      <trkpt lat="45.73219" lon="4.82099">
        <ele>165</ele>
        <time>2014-09-07T09:18:49Z</time>
      </trkpt>
      <trkpt lat="45.73215" lon="4.82105">
        <ele>165</ele>
        <time>2014-09-07T09:18:50Z</time>
      </trkpt>
      <trkpt lat="45.73201" lon="4.82126">
        <ele>165</ele>
        <time>2014-09-07T09:18:53Z</time>
      </trkpt>
      <trkpt lat="45.73196" lon="4.82134">
        <ele>165</ele>
        <time>2014-09-07T09:18:54Z</time>
      </trkpt>
      <trkpt lat="45.73192" lon="4.82143">
        <ele>165</ele>
        <time>2014-09-07T09:18:55Z</time>
      </trkpt>
      <trkpt lat="45.73187" lon="4.82164">
        <ele>165</ele>
        <time>2014-09-07T09:18:57Z</time>
      </trkpt>
      <trkpt lat="45.73183" lon="4.82186">
        <ele>166</ele>
        <time>2014-09-07T09:18:59Z</time>
      </trkpt>
      <trkpt lat="45.73182" lon="4.82198">
        <ele>167</ele>
        <time>2014-09-07T09:19:00Z</time>
      </trkpt>
      <trkpt lat="45.73176" lon="4.82232">
        <ele>167</ele>
        <time>2014-09-07T09:19:03Z</time>
      </trkpt>
      <trkpt lat="45.73172" lon="4.82254">
        <ele>167</ele>
        <time>2014-09-07T09:19:05Z</time>
      </trkpt>
      <trkpt lat="45.73163" lon="4.82311">
        <ele>167</ele>
        <time>2014-09-07T09:19:10Z</time>
      </trkpt>
      <trkpt lat="45.73161" lon="4.8232">
        <ele>166</ele>
        <time>2014-09-07T09:19:11Z</time>
      </trkpt>
      <trkpt lat="45.73156" lon="4.82331">
        <ele>166</ele>
        <time>2014-09-07T09:19:13Z</time>
      </trkpt>
      <trkpt lat="45.73141" lon="4.82333">
        <ele>167</ele>
        <time>2014-09-07T09:19:16Z</time>
      </trkpt>
      <trkpt lat="45.73134" lon="4.8233">
        <ele>167</ele>
        <time>2014-09-07T09:19:17Z</time>
      </trkpt>
      <trkpt lat="45.73128" lon="4.82327">
        <ele>167</ele>
        <time>2014-09-07T09:19:18Z</time>
      </trkpt>
      <trkpt lat="45.73106" lon="4.82319">
        <ele>167</ele>
        <time>2014-09-07T09:19:21Z</time>
      </trkpt>
      <trkpt lat="45.73093" lon="4.82315">
        <ele>167</ele>
        <time>2014-09-07T09:19:23Z</time>
      </trkpt>
      <trkpt lat="45.73066" lon="4.82304">
        <ele>167</ele>
        <time>2014-09-07T09:19:27Z</time>
      </trkpt>
      <trkpt lat="45.73052" lon="4.82302">
        <ele>167</ele>
        <time>2014-09-07T09:19:29Z</time>
      </trkpt>
      <trkpt lat="45.73023" lon="4.82295">
        <ele>166</ele>
        <time>2014-09-07T09:19:33Z</time>
      </trkpt>
      <trkpt lat="45.73016" lon="4.82293">
        <ele>166</ele>
        <time>2014-09-07T09:19:34Z</time>
      </trkpt>
      <trkpt lat="45.72978" lon="4.82288">
        <ele>166</ele>
        <time>2014-09-07T09:19:39Z</time>
      </trkpt>
      <trkpt lat="45.72939" lon="4.82283">
        <ele>166</ele>
        <time>2014-09-07T09:19:45Z</time>
      </trkpt>
      <trkpt lat="45.7292" lon="4.82282">
        <ele>166</ele>
        <time>2014-09-07T09:19:48Z</time>
      </trkpt>
      <trkpt lat="45.72898" lon="4.82281">
        <ele>167</ele>
        <time>2014-09-07T09:19:51Z</time>
      </trkpt>
      <trkpt lat="45.72867" lon="4.82283">
        <ele>167</ele>
        <time>2014-09-07T09:19:55Z</time>
      </trkpt>
      <trkpt lat="45.72861" lon="4.82284">
        <ele>167</ele>
        <time>2014-09-07T09:19:56Z</time>
      </trkpt>
      <trkpt lat="45.72832" lon="4.82283">
        <ele>168</ele>
        <time>2014-09-07T09:20:01Z</time>
      </trkpt>
      <trkpt lat="45.72828" lon="4.82282">
        <ele>168</ele>
        <time>2014-09-07T09:20:02Z</time>
      </trkpt>
      <trkpt lat="45.72825" lon="4.82277">
        <ele>168</ele>
        <time>2014-09-07T09:20:04Z</time>
      </trkpt>
      <trkpt lat="45.72825" lon="4.82273">
        <ele>168</ele>
        <time>2014-09-07T09:20:05Z</time>
      </trkpt>
      <trkpt lat="45.72825" lon="4.82262">
        <ele>169</ele>
        <time>2014-09-07T09:20:08Z</time>
      </trkpt>
      <trkpt lat="45.72826" lon="4.82257">
        <ele>169</ele>
        <time>2014-09-07T09:20:09Z</time>
      </trkpt>
      <trkpt lat="45.72834" lon="4.82229">
        <ele>169</ele>
        <time>2014-09-07T09:20:13Z</time>
      </trkpt>
      <trkpt lat="45.72836" lon="4.82221">
        <ele>169</ele>
        <time>2014-09-07T09:20:14Z</time>
      </trkpt>
      <trkpt lat="45.72838" lon="4.82197">
        <ele>169</ele>
        <time>2014-09-07T09:20:17Z</time>
      </trkpt>
      <trkpt lat="45.72839" lon="4.82189">
        <ele>170</ele>
        <time>2014-09-07T09:20:18Z</time>
      </trkpt>
      <trkpt lat="45.72847" lon="4.82167">
        <ele>170</ele>
        <time>2014-09-07T09:20:21Z</time>
      </trkpt>
      <trkpt lat="45.7285" lon="4.82155">
        <ele>169</ele>
        <time>2014-09-07T09:20:22Z</time>
      </trkpt>
      <trkpt lat="45.72852" lon="4.82147">
        <ele>169</ele>
        <time>2014-09-07T09:20:23Z</time>
      </trkpt>
      <trkpt lat="45.72848" lon="4.82139">
        <ele>169</ele>
        <time>2014-09-07T09:20:24Z</time>
      </trkpt>
      <trkpt lat="45.7284" lon="4.82124">
        <ele>168</ele>
        <time>2014-09-07T09:20:26Z</time>
      </trkpt>
      <trkpt lat="45.72832" lon="4.82119">
        <ele>170</ele>
        <time>2014-09-07T09:20:27Z</time>
      </trkpt>
      <trkpt lat="45.72823" lon="4.82108">
        <ele>169</ele>
        <time>2014-09-07T09:20:29Z</time>
      </trkpt>
      <trkpt lat="45.728" lon="4.82098">
        <ele>169</ele>
        <time>2014-09-07T09:20:32Z</time>
      </trkpt>
      <trkpt lat="45.72791" lon="4.82096">
        <ele>169</ele>
        <time>2014-09-07T09:20:33Z</time>
      </trkpt>
      <trkpt lat="45.72764" lon="4.82092">
        <ele>169</ele>
        <time>2014-09-07T09:20:37Z</time>
      </trkpt>
      <trkpt lat="45.72757" lon="4.82092">
        <ele>169</ele>
        <time>2014-09-07T09:20:38Z</time>
      </trkpt>
      <trkpt lat="45.7275" lon="4.82092">
        <ele>169</ele>
        <time>2014-09-07T09:20:39Z</time>
      </trkpt>
      <trkpt lat="45.72733" lon="4.82094">
        <ele>168</ele>
        <time>2014-09-07T09:20:42Z</time>
      </trkpt>
      <trkpt lat="45.72728" lon="4.82093">
        <ele>167</ele>
        <time>2014-09-07T09:20:43Z</time>
      </trkpt>
      <trkpt lat="45.72715" lon="4.82084">
        <ele>167</ele>
        <time>2014-09-07T09:20:46Z</time>
      </trkpt>
      <trkpt lat="45.72711" lon="4.82082">
        <ele>165</ele>
        <time>2014-09-07T09:20:47Z</time>
      </trkpt>
      <trkpt lat="45.72707" lon="4.8208">
        <ele>165</ele>
        <time>2014-09-07T09:20:48Z</time>
      </trkpt>
      <trkpt lat="45.72703" lon="4.82079">
        <ele>165</ele>
        <time>2014-09-07T09:20:49Z</time>
      </trkpt>
      <trkpt lat="45.72691" lon="4.82079">
        <ele>164</ele>
        <time>2014-09-07T09:20:52Z</time>
      </trkpt>
      <trkpt lat="45.72677" lon="4.8208">
        <ele>163</ele>
        <time>2014-09-07T09:20:55Z</time>
      </trkpt>
      <trkpt lat="45.7266" lon="4.82084">
        <ele>163</ele>
        <time>2014-09-07T09:20:58Z</time>
      </trkpt>
      <trkpt lat="45.72642" lon="4.82084">
        <ele>164</ele>
        <time>2014-09-07T09:21:01Z</time>
      </trkpt>
      <trkpt lat="45.72612" lon="4.82087">
        <ele>164</ele>
        <time>2014-09-07T09:21:06Z</time>
      </trkpt>
      <trkpt lat="45.72605" lon="4.82088">
        <ele>164</ele>
        <time>2014-09-07T09:21:07Z</time>
      </trkpt>
      <trkpt lat="45.72574" lon="4.82096">
        <ele>165</ele>
        <time>2014-09-07T09:21:12Z</time>
      </trkpt>
      <trkpt lat="45.72568" lon="4.82099">
        <ele>165</ele>
        <time>2014-09-07T09:21:13Z</time>
      </trkpt>
      <trkpt lat="45.72539" lon="4.82116">
        <ele>166</ele>
        <time>2014-09-07T09:21:18Z</time>
      </trkpt>
      <trkpt lat="45.72534" lon="4.8212">
        <ele>166</ele>
        <time>2014-09-07T09:21:19Z</time>
      </trkpt>
      <trkpt lat="45.72515" lon="4.82135">
        <ele>166</ele>
        <time>2014-09-07T09:21:23Z</time>
      </trkpt>
      <trkpt lat="45.72501" lon="4.8215">
        <ele>165</ele>
        <time>2014-09-07T09:21:26Z</time>
      </trkpt>
      <trkpt lat="45.72482" lon="4.82164">
        <ele>165</ele>
        <time>2014-09-07T09:21:30Z</time>
      </trkpt>
      <trkpt lat="45.72463" lon="4.82174">
        <ele>164</ele>
        <time>2014-09-07T09:21:34Z</time>
      </trkpt>
      <trkpt lat="45.72459" lon="4.82175">
        <ele>164</ele>
        <time>2014-09-07T09:21:35Z</time>
      </trkpt>
      <trkpt lat="45.72448" lon="4.82178">
        <ele>165</ele>
        <time>2014-09-07T09:21:37Z</time>
      </trkpt>
      <trkpt lat="45.72426" lon="4.82183">
        <ele>165</ele>
        <time>2014-09-07T09:21:41Z</time>
      </trkpt>
      <trkpt lat="45.72407" lon="4.82186">
        <ele>164</ele>
        <time>2014-09-07T09:21:44Z</time>
      </trkpt>
      <trkpt lat="45.72387" lon="4.82185">
        <ele>164</ele>
        <time>2014-09-07T09:21:47Z</time>
      </trkpt>
      <trkpt lat="45.72373" lon="4.82181">
        <ele>164</ele>
        <time>2014-09-07T09:21:49Z</time>
      </trkpt>
      <trkpt lat="45.72352" lon="4.82171">
        <ele>164</ele>
        <time>2014-09-07T09:21:52Z</time>
      </trkpt>
      <trkpt lat="45.72329" lon="4.82166">
        <ele>164</ele>
        <time>2014-09-07T09:21:55Z</time>
      </trkpt>
      <trkpt lat="45.72315" lon="4.82165">
        <ele>165</ele>
        <time>2014-09-07T09:21:57Z</time>
      </trkpt>
      <trkpt lat="45.72293" lon="4.82169">
        <ele>165</ele>
        <time>2014-09-07T09:22:00Z</time>
      </trkpt>
      <trkpt lat="45.72287" lon="4.82172">
        <ele>165</ele>
        <time>2014-09-07T09:22:01Z</time>
      </trkpt>
      <trkpt lat="45.72279" lon="4.82182">
        <ele>165</ele>
        <time>2014-09-07T09:22:03Z</time>
      </trkpt>
      <trkpt lat="45.72281" lon="4.82195">
        <ele>165</ele>
        <time>2014-09-07T09:22:05Z</time>
      </trkpt>
      <trkpt lat="45.72283" lon="4.82207">
        <ele>165</ele>
        <time>2014-09-07T09:22:07Z</time>
      </trkpt>
      <trkpt lat="45.72291" lon="4.82227">
        <ele>165</ele>
        <time>2014-09-07T09:22:10Z</time>
      </trkpt>
      <trkpt lat="45.72293" lon="4.82234">
        <ele>165</ele>
        <time>2014-09-07T09:22:11Z</time>
      </trkpt>
      <trkpt lat="45.72296" lon="4.82242">
        <ele>165</ele>
        <time>2014-09-07T09:22:13Z</time>
      </trkpt>
      <trkpt lat="45.72298" lon="4.82253">
        <ele>164</ele>
        <time>2014-09-07T09:22:18Z</time>
      </trkpt>
      <trkpt lat="45.72292" lon="4.82252">
        <ele>164</ele>
        <time>2014-09-07T09:22:21Z</time>
      </trkpt>
      <trkpt lat="45.72288" lon="4.8225">
        <ele>165</ele>
        <time>2014-09-07T09:22:23Z</time>
      </trkpt>
      <trkpt lat="45.72287" lon="4.82248">
        <ele>165</ele>
        <time>2014-09-07T09:22:24Z</time>
      </trkpt>
      <trkpt lat="45.72285" lon="4.82246">
        <ele>165</ele>
        <time>2014-09-07T09:22:25Z</time>
      </trkpt>
      <trkpt lat="45.72283" lon="4.82234">
        <ele>165</ele>
        <time>2014-09-07T09:22:28Z</time>
      </trkpt>
      <trkpt lat="45.72281" lon="4.82229">
        <ele>165</ele>
        <time>2014-09-07T09:22:29Z</time>
      </trkpt>
      <trkpt lat="45.72275" lon="4.82209">
        <ele>165</ele>
        <time>2014-09-07T09:22:34Z</time>
      </trkpt>
      <trkpt lat="45.7227" lon="4.82183">
        <ele>165</ele>
        <time>2014-09-07T09:22:41Z</time>
      </trkpt>
      <trkpt lat="45.72278" lon="4.82163">
        <ele>165</ele>
        <time>2014-09-07T09:22:46Z</time>
      </trkpt>
      <trkpt lat="45.7228" lon="4.82156">
        <ele>165</ele>
        <time>2014-09-07T09:22:48Z</time>
      </trkpt>
      <trkpt lat="45.72285" lon="4.82152">
        <ele>165</ele>
        <time>2014-09-07T09:22:50Z</time>
      </trkpt>
      <trkpt lat="45.72295" lon="4.82148">
        <ele>165</ele>
        <time>2014-09-07T09:22:53Z</time>
      </trkpt>
      <trkpt lat="45.7231" lon="4.82143">
        <ele>165</ele>
        <time>2014-09-07T09:22:57Z</time>
      </trkpt>
      <trkpt lat="45.72331" lon="4.82142">
        <ele>165</ele>
        <time>2014-09-07T09:23:02Z</time>
      </trkpt>
      <trkpt lat="45.72346" lon="4.82141">
        <ele>166</ele>
        <time>2014-09-07T09:23:05Z</time>
      </trkpt>
      <trkpt lat="45.72356" lon="4.82139">
        <ele>166</ele>
        <time>2014-09-07T09:23:07Z</time>
      </trkpt>
      <trkpt lat="45.72366" lon="4.82138">
        <ele>167</ele>
        <time>2014-09-07T09:23:09Z</time>
      </trkpt>
      <trkpt lat="45.72398" lon="4.82132">
        <ele>167</ele>
        <time>2014-09-07T09:23:15Z</time>
      </trkpt>
      <trkpt lat="45.72403" lon="4.8213">
        <ele>167</ele>
        <time>2014-09-07T09:23:16Z</time>
      </trkpt>
      <trkpt lat="45.72419" lon="4.82126">
        <ele>167</ele>
        <time>2014-09-07T09:23:19Z</time>
      </trkpt>
      <trkpt lat="45.72429" lon="4.82124">
        <ele>167</ele>
        <time>2014-09-07T09:23:21Z</time>
      </trkpt>
      <trkpt lat="45.72443" lon="4.8212">
        <ele>167</ele>
        <time>2014-09-07T09:23:24Z</time>
      </trkpt>
      <trkpt lat="45.72464" lon="4.82117">
        <ele>167</ele>
        <time>2014-09-07T09:23:28Z</time>
      </trkpt>
      <trkpt lat="45.7248" lon="4.82112">
        <ele>167</ele>
        <time>2014-09-07T09:23:31Z</time>
      </trkpt>
      <trkpt lat="45.72485" lon="4.82111">
        <ele>167</ele>
        <time>2014-09-07T09:23:32Z</time>
      </trkpt>
      <trkpt lat="45.7249" lon="4.8211">
        <ele>167</ele>
        <time>2014-09-07T09:23:33Z</time>
      </trkpt>
      <trkpt lat="45.725" lon="4.82107">
        <ele>167</ele>
        <time>2014-09-07T09:23:35Z</time>
      </trkpt>
      <trkpt lat="45.72514" lon="4.82099">
        <ele>167</ele>
        <time>2014-09-07T09:23:38Z</time>
      </trkpt>
      <trkpt lat="45.72519" lon="4.82097">
        <ele>166</ele>
        <time>2014-09-07T09:23:39Z</time>
      </trkpt>
      <trkpt lat="45.72532" lon="4.82093">
        <ele>166</ele>
        <time>2014-09-07T09:23:42Z</time>
      </trkpt>
      <trkpt lat="45.72536" lon="4.82092">
        <ele>166</ele>
        <time>2014-09-07T09:23:43Z</time>
      </trkpt>
      <trkpt lat="45.72553" lon="4.82086">
        <ele>165</ele>
        <time>2014-09-07T09:23:47Z</time>
      </trkpt>
      <trkpt lat="45.72558" lon="4.82084">
        <ele>165</ele>
        <time>2014-09-07T09:23:48Z</time>
      </trkpt>
      <trkpt lat="45.72575" lon="4.82079">
        <ele>164</ele>
        <time>2014-09-07T09:23:51Z</time>
      </trkpt>
      <trkpt lat="45.7258" lon="4.82077">
        <ele>164</ele>
        <time>2014-09-07T09:23:52Z</time>
      </trkpt>
      <trkpt lat="45.72585" lon="4.82076">
        <ele>164</ele>
        <time>2014-09-07T09:23:53Z</time>
      </trkpt>
      <trkpt lat="45.72594" lon="4.82076">
        <ele>164</ele>
        <time>2014-09-07T09:23:55Z</time>
      </trkpt>
      <trkpt lat="45.72599" lon="4.82075">
        <ele>163</ele>
        <time>2014-09-07T09:23:56Z</time>
      </trkpt>
      <trkpt lat="45.72615" lon="4.82073">
        <ele>163</ele>
        <time>2014-09-07T09:24:00Z</time>
      </trkpt>
      <trkpt lat="45.72619" lon="4.82074">
        <ele>163</ele>
        <time>2014-09-07T09:24:01Z</time>
      </trkpt>
      <trkpt lat="45.72628" lon="4.82075">
        <ele>163</ele>
        <time>2014-09-07T09:24:03Z</time>
      </trkpt>
      <trkpt lat="45.72633" lon="4.82074">
        <ele>163</ele>
        <time>2014-09-07T09:24:04Z</time>
      </trkpt>
      <trkpt lat="45.72638" lon="4.82073">
        <ele>163</ele>
        <time>2014-09-07T09:24:05Z</time>
      </trkpt>
      <trkpt lat="45.72653" lon="4.82068">
        <ele>163</ele>
        <time>2014-09-07T09:24:08Z</time>
      </trkpt>
      <trkpt lat="45.7267" lon="4.82069">
        <ele>163</ele>
        <time>2014-09-07T09:24:11Z</time>
      </trkpt>
      <trkpt lat="45.7269" lon="4.82075">
        <ele>164</ele>
        <time>2014-09-07T09:24:15Z</time>
      </trkpt>
      <trkpt lat="45.72706" lon="4.82077">
        <ele>165</ele>
        <time>2014-09-07T09:24:18Z</time>
      </trkpt>
      <trkpt lat="45.72716" lon="4.82077">
        <ele>165</ele>
        <time>2014-09-07T09:24:20Z</time>
      </trkpt>
      <trkpt lat="45.72723" lon="4.82076">
        <ele>166</ele>
        <time>2014-09-07T09:24:22Z</time>
      </trkpt>
      <trkpt lat="45.72738" lon="4.82084">
        <ele>168</ele>
        <time>2014-09-07T09:24:24Z</time>
      </trkpt>
      <trkpt lat="45.72743" lon="4.82085">
        <ele>168</ele>
        <time>2014-09-07T09:24:26Z</time>
      </trkpt>
      <trkpt lat="45.72756" lon="4.82082">
        <ele>168</ele>
        <time>2014-09-07T09:24:29Z</time>
      </trkpt>
      <trkpt lat="45.72776" lon="4.82079">
        <ele>167</ele>
        <time>2014-09-07T09:24:34Z</time>
      </trkpt>
      <trkpt lat="45.72781" lon="4.82077">
        <ele>167</ele>
        <time>2014-09-07T09:24:35Z</time>
      </trkpt>
      <trkpt lat="45.7279" lon="4.82076">
        <ele>167</ele>
        <time>2014-09-07T09:24:36Z</time>
      </trkpt>
      <trkpt lat="45.72803" lon="4.8208">
        <ele>167</ele>
        <time>2014-09-07T09:24:38Z</time>
      </trkpt>
      <trkpt lat="45.72817" lon="4.82088">
        <ele>169</ele>
        <time>2014-09-07T09:24:41Z</time>
      </trkpt>
      <trkpt lat="45.72822" lon="4.82091">
        <ele>169</ele>
        <time>2014-09-07T09:24:42Z</time>
      </trkpt>
      <trkpt lat="45.72833" lon="4.82094">
        <ele>168</ele>
        <time>2014-09-07T09:24:44Z</time>
      </trkpt>
      <trkpt lat="45.72838" lon="4.82096">
        <ele>168</ele>
        <time>2014-09-07T09:24:45Z</time>
      </trkpt>
      <trkpt lat="45.72842" lon="4.82098">
        <ele>168</ele>
        <time>2014-09-07T09:24:46Z</time>
      </trkpt>
      <trkpt lat="45.72854" lon="4.82095">
        <ele>168</ele>
        <time>2014-09-07T09:24:49Z</time>
      </trkpt>
      <trkpt lat="45.7286" lon="4.82094">
        <ele>168</ele>
        <time>2014-09-07T09:24:50Z</time>
      </trkpt>
      <trkpt lat="45.72879" lon="4.82091">
        <ele>167</ele>
        <time>2014-09-07T09:24:53Z</time>
      </trkpt>
      <trkpt lat="45.7289" lon="4.82092">
        <ele>167</ele>
        <time>2014-09-07T09:24:55Z</time>
      </trkpt>
      <trkpt lat="45.72905" lon="4.82094">
        <ele>166</ele>
        <time>2014-09-07T09:24:58Z</time>
      </trkpt>
      <trkpt lat="45.72916" lon="4.82093">
        <ele>166</ele>
        <time>2014-09-07T09:25:00Z</time>
      </trkpt>
      <trkpt lat="45.72921" lon="4.82094">
        <ele>165</ele>
        <time>2014-09-07T09:25:01Z</time>
      </trkpt>
      <trkpt lat="45.72926" lon="4.82099">
        <ele>165</ele>
        <time>2014-09-07T09:25:02Z</time>
      </trkpt>
      <trkpt lat="45.7293" lon="4.82105">
        <ele>166</ele>
        <time>2014-09-07T09:25:03Z</time>
      </trkpt>
      <trkpt lat="45.72937" lon="4.82119">
        <ele>166</ele>
        <time>2014-09-07T09:25:05Z</time>
      </trkpt>
      <trkpt lat="45.72948" lon="4.82139">
        <ele>166</ele>
        <time>2014-09-07T09:25:08Z</time>
      </trkpt>
      <trkpt lat="45.72953" lon="4.82144">
        <ele>166</ele>
        <time>2014-09-07T09:25:09Z</time>
      </trkpt>
      <trkpt lat="45.7297" lon="4.82157">
        <ele>166</ele>
        <time>2014-09-07T09:25:12Z</time>
      </trkpt>
      <trkpt lat="45.72981" lon="4.82163">
        <ele>166</ele>
        <time>2014-09-07T09:25:14Z</time>
      </trkpt>
      <trkpt lat="45.72987" lon="4.82165">
        <ele>167</ele>
        <time>2014-09-07T09:25:15Z</time>
      </trkpt>
      <trkpt lat="45.7301" lon="4.82167">
        <ele>167</ele>
        <time>2014-09-07T09:25:19Z</time>
      </trkpt>
      <trkpt lat="45.73016" lon="4.82166">
        <ele>166</ele>
        <time>2014-09-07T09:25:20Z</time>
      </trkpt>
      <trkpt lat="45.73022" lon="4.82165">
        <ele>166</ele>
        <time>2014-09-07T09:25:21Z</time>
      </trkpt>
      <trkpt lat="45.73042" lon="4.82158">
        <ele>166</ele>
        <time>2014-09-07T09:25:25Z</time>
      </trkpt>
      <trkpt lat="45.73059" lon="4.82149">
        <ele>166</ele>
        <time>2014-09-07T09:25:28Z</time>
      </trkpt>
      <trkpt lat="45.73076" lon="4.82138">
        <ele>165</ele>
        <time>2014-09-07T09:25:31Z</time>
      </trkpt>
      <trkpt lat="45.73093" lon="4.82128">
        <ele>164</ele>
        <time>2014-09-07T09:25:34Z</time>
      </trkpt>
      <trkpt lat="45.73112" lon="4.8212">
        <ele>164</ele>
        <time>2014-09-07T09:25:37Z</time>
      </trkpt>
      <trkpt lat="45.73132" lon="4.82115">
        <ele>164</ele>
        <time>2014-09-07T09:25:40Z</time>
      </trkpt>
      <trkpt lat="45.73138" lon="4.82115">
        <ele>164</ele>
        <time>2014-09-07T09:25:41Z</time>
      </trkpt>
      <trkpt lat="45.7315" lon="4.82116">
        <ele>164</ele>
        <time>2014-09-07T09:25:43Z</time>
      </trkpt>
      <trkpt lat="45.73169" lon="4.8212">
        <ele>165</ele>
        <time>2014-09-07T09:25:46Z</time>
      </trkpt>
      <trkpt lat="45.73193" lon="4.82124">
        <ele>165</ele>
        <time>2014-09-07T09:25:50Z</time>
      </trkpt>
      <trkpt lat="45.73202" lon="4.82128">
        <ele>165</ele>
        <time>2014-09-07T09:25:52Z</time>
      </trkpt>
      <trkpt lat="45.73208" lon="4.82131">
        <ele>165</ele>
        <time>2014-09-07T09:25:53Z</time>
      </trkpt>
      <trkpt lat="45.73214" lon="4.82133">
        <ele>165</ele>
        <time>2014-09-07T09:25:54Z</time>
      </trkpt>
      <trkpt lat="45.7322" lon="4.82135">
        <ele>165</ele>
        <time>2014-09-07T09:25:55Z</time>
      </trkpt>
      <trkpt lat="45.73243" lon="4.82148">
        <ele>165</ele>
        <time>2014-09-07T09:25:59Z</time>
      </trkpt>
      <trkpt lat="45.73264" lon="4.82159">
        <ele>165</ele>
        <time>2014-09-07T09:26:03Z</time>
      </trkpt>
      <trkpt lat="45.73272" lon="4.82165">
        <ele>165</ele>
        <time>2014-09-07T09:26:05Z</time>
      </trkpt>
      <trkpt lat="45.73278" lon="4.82167">
        <ele>166</ele>
        <time>2014-09-07T09:26:06Z</time>
      </trkpt>
      <trkpt lat="45.73283" lon="4.8217">
        <ele>166</ele>
        <time>2014-09-07T09:26:07Z</time>
      </trkpt>
      <trkpt lat="45.73293" lon="4.82176">
        <ele>166</ele>
        <time>2014-09-07T09:26:09Z</time>
      </trkpt>
      <trkpt lat="45.73333" lon="4.82188">
        <ele>165</ele>
        <time>2014-09-07T09:26:16Z</time>
      </trkpt>
      <trkpt lat="45.73338" lon="4.82189">
        <ele>165</ele>
        <time>2014-09-07T09:26:17Z</time>
      </trkpt>
      <trkpt lat="45.73354" lon="4.82184">
        <ele>165</ele>
        <time>2014-09-07T09:26:21Z</time>
      </trkpt>
      <trkpt lat="45.73381" lon="4.82181">
        <ele>165</ele>
        <time>2014-09-07T09:26:27Z</time>
      </trkpt>
      <trkpt lat="45.7339" lon="4.82183">
        <ele>165</ele>
        <time>2014-09-07T09:26:29Z</time>
      </trkpt>
      <trkpt lat="45.73404" lon="4.82189">
        <ele>165</ele>
        <time>2014-09-07T09:26:32Z</time>
      </trkpt>
      <trkpt lat="45.73409" lon="4.82191">
        <ele>165</ele>
        <time>2014-09-07T09:26:33Z</time>
      </trkpt>
      <trkpt lat="45.73424" lon="4.82198">
        <ele>164</ele>
        <time>2014-09-07T09:26:36Z</time>
      </trkpt>
      <trkpt lat="45.7343" lon="4.82198">
        <ele>164</ele>
        <time>2014-09-07T09:26:37Z</time>
      </trkpt>
      <trkpt lat="45.73461" lon="4.82199">
        <ele>164</ele>
        <time>2014-09-07T09:26:43Z</time>
      </trkpt>
      <trkpt lat="45.73471" lon="4.82202">
        <ele>164</ele>
        <time>2014-09-07T09:26:44Z</time>
      </trkpt>
      <trkpt lat="45.73485" lon="4.82212">
        <ele>164</ele>
        <time>2014-09-07T09:26:48Z</time>
      </trkpt>
      <trkpt lat="45.73493" lon="4.8222">
        <ele>164</ele>
        <time>2014-09-07T09:26:50Z</time>
      </trkpt>
      <trkpt lat="45.73498" lon="4.82224">
        <ele>164</ele>
        <time>2014-09-07T09:26:51Z</time>
      </trkpt>
      <trkpt lat="45.73511" lon="4.82232">
        <ele>164</ele>
        <time>2014-09-07T09:26:54Z</time>
      </trkpt>
      <trkpt lat="45.7352" lon="4.82237">
        <ele>164</ele>
        <time>2014-09-07T09:26:56Z</time>
      </trkpt>
      <trkpt lat="45.73534" lon="4.82247">
        <ele>164</ele>
        <time>2014-09-07T09:26:59Z</time>
      </trkpt>
      <trkpt lat="45.73537" lon="4.82249">
        <ele>164</ele>
        <time>2014-09-07T09:27:00Z</time>
      </trkpt>
      <trkpt lat="45.73556" lon="4.82265">
        <ele>164</ele>
        <time>2014-09-07T09:27:05Z</time>
      </trkpt>
      <trkpt lat="45.73567" lon="4.82274">
        <ele>165</ele>
        <time>2014-09-07T09:27:08Z</time>
      </trkpt>
      <trkpt lat="45.73579" lon="4.82286">
        <ele>165</ele>
        <time>2014-09-07T09:27:11Z</time>
      </trkpt>
      <trkpt lat="45.73601" lon="4.82302">
        <ele>164</ele>
        <time>2014-09-07T09:27:16Z</time>
      </trkpt>
      <trkpt lat="45.73606" lon="4.82305">
        <ele>164</ele>
        <time>2014-09-07T09:27:17Z</time>
      </trkpt>
      <trkpt lat="45.73641" lon="4.82331">
        <ele>164</ele>
        <time>2014-09-07T09:27:24Z</time>
      </trkpt>
      <trkpt lat="45.73652" lon="4.82343">
        <ele>166</ele>
        <time>2014-09-07T09:27:29Z</time>
      </trkpt>
      <trkpt lat="45.73665" lon="4.82348">
        <ele>166</ele>
        <time>2014-09-07T09:27:32Z</time>
      </trkpt>
      <trkpt lat="45.7367" lon="4.8235">
        <ele>166</ele>
        <time>2014-09-07T09:27:33Z</time>
      </trkpt>
      <trkpt lat="45.73696" lon="4.82363">
        <ele>167</ele>
        <time>2014-09-07T09:27:39Z</time>
      </trkpt>
      <trkpt lat="45.73702" lon="4.82366">
        <ele>167</ele>
        <time>2014-09-07T09:27:40Z</time>
      </trkpt>
      <trkpt lat="45.73708" lon="4.8237">
        <ele>167</ele>
        <time>2014-09-07T09:27:41Z</time>
      </trkpt>
      <trkpt lat="45.73713" lon="4.82374">
        <ele>167</ele>
        <time>2014-09-07T09:27:42Z</time>
      </trkpt>
      <trkpt lat="45.7374" lon="4.82395">
        <ele>166</ele>
        <time>2014-09-07T09:27:47Z</time>
      </trkpt>
      <trkpt lat="45.73748" lon="4.82403">
        <ele>166</ele>
        <time>2014-09-07T09:27:49Z</time>
      </trkpt>
      <trkpt lat="45.73769" lon="4.82423">
        <ele>166</ele>
        <time>2014-09-07T09:27:54Z</time>
      </trkpt>
      <trkpt lat="45.73773" lon="4.82426">
        <ele>166</ele>
        <time>2014-09-07T09:27:55Z</time>
      </trkpt>
      <trkpt lat="45.73789" lon="4.82444">
        <ele>166</ele>
        <time>2014-09-07T09:27:59Z</time>
      </trkpt>
      <trkpt lat="45.73804" lon="4.82458">
        <ele>166</ele>
        <time>2014-09-07T09:28:03Z</time>
      </trkpt>
      <trkpt lat="45.7381" lon="4.82464">
        <ele>166</ele>
        <time>2014-09-07T09:28:05Z</time>
      </trkpt>
      <trkpt lat="45.73818" lon="4.82469">
        <ele>167</ele>
        <time>2014-09-07T09:28:07Z</time>
      </trkpt>
      <trkpt lat="45.73831" lon="4.82482">
        <ele>167</ele>
        <time>2014-09-07T09:28:10Z</time>
      </trkpt>
      <trkpt lat="45.73836" lon="4.82488">
        <ele>166</ele>
        <time>2014-09-07T09:28:11Z</time>
      </trkpt>
      <trkpt lat="45.73857" lon="4.82511">
        <ele>167</ele>
        <time>2014-09-07T09:28:15Z</time>
      </trkpt>
      <trkpt lat="45.73864" lon="4.82517">
        <ele>167</ele>
        <time>2014-09-07T09:28:16Z</time>
      </trkpt>
      <trkpt lat="45.73897" lon="4.82548">
        <ele>166</ele>
        <time>2014-09-07T09:28:21Z</time>
      </trkpt>
      <trkpt lat="45.73911" lon="4.82559">
        <ele>166</ele>
        <time>2014-09-07T09:28:23Z</time>
      </trkpt>
      <trkpt lat="45.73931" lon="4.82575">
        <ele>165</ele>
        <time>2014-09-07T09:28:26Z</time>
      </trkpt>
      <trkpt lat="45.73951" lon="4.82592">
        <ele>166</ele>
        <time>2014-09-07T09:28:29Z</time>
      </trkpt>
      <trkpt lat="45.73964" lon="4.82603">
        <ele>166</ele>
        <time>2014-09-07T09:28:31Z</time>
      </trkpt>
      <trkpt lat="45.73999" lon="4.82633">
        <ele>165</ele>
        <time>2014-09-07T09:28:37Z</time>
      </trkpt>
      <trkpt lat="45.74005" lon="4.82638">
        <ele>165</ele>
        <time>2014-09-07T09:28:38Z</time>
      </trkpt>
      <trkpt lat="45.74031" lon="4.82659">
        <ele>165</ele>
        <time>2014-09-07T09:28:42Z</time>
      </trkpt>
      <trkpt lat="45.74048" lon="4.82674">
        <ele>167</ele>
        <time>2014-09-07T09:28:44Z</time>
      </trkpt>
      <trkpt lat="45.74066" lon="4.82687">
        <ele>167</ele>
        <time>2014-09-07T09:28:48Z</time>
      </trkpt>
      <trkpt lat="45.74072" lon="4.82692">
        <ele>167</ele>
        <time>2014-09-07T09:28:49Z</time>
      </trkpt>
      <trkpt lat="45.74078" lon="4.82696">
        <ele>167</ele>
        <time>2014-09-07T09:28:50Z</time>
      </trkpt>
      <trkpt lat="45.74101" lon="4.82715">
        <ele>168</ele>
        <time>2014-09-07T09:28:54Z</time>
      </trkpt>
      <trkpt lat="45.74119" lon="4.82728">
        <ele>167</ele>
        <time>2014-09-07T09:28:57Z</time>
      </trkpt>
      <trkpt lat="45.74131" lon="4.82736">
        <ele>167</ele>
        <time>2014-09-07T09:28:59Z</time>
      </trkpt>
      <trkpt lat="45.74136" lon="4.8274">
        <ele>167</ele>
        <time>2014-09-07T09:29:00Z</time>
      </trkpt>
      <trkpt lat="45.74153" lon="4.82754">
        <ele>167</ele>
        <time>2014-09-07T09:29:03Z</time>
      </trkpt>
      <trkpt lat="45.74171" lon="4.82768">
        <ele>165</ele>
        <time>2014-09-07T09:29:06Z</time>
      </trkpt>
      <trkpt lat="45.74189" lon="4.82781">
        <ele>165</ele>
        <time>2014-09-07T09:29:09Z</time>
      </trkpt>
      <trkpt lat="45.74206" lon="4.82795">
        <ele>166</ele>
        <time>2014-09-07T09:29:12Z</time>
      </trkpt>
      <trkpt lat="45.7424" lon="4.82823">
        <ele>165</ele>
        <time>2014-09-07T09:29:17Z</time>
      </trkpt>
      <trkpt lat="45.7424" lon="4.82823">
        <ele>165</ele>
        <time>2014-09-07T09:29:18Z</time>
      </trkpt>
      <trkpt lat="45.74277" lon="4.82859">
        <ele>166</ele>
        <time>2014-09-07T09:29:24Z</time>
      </trkpt>
      <trkpt lat="45.74303" lon="4.82884">
        <ele>166</ele>
        <time>2014-09-07T09:29:29Z</time>
      </trkpt>
      <trkpt lat="45.74303" lon="4.82884">
        <ele>166</ele>
        <time>2014-09-07T09:29:30Z</time>
      </trkpt>
      <trkpt lat="45.74341" lon="4.82924">
        <ele>165</ele>
        <time>2014-09-07T09:29:37Z</time>
      </trkpt>
      <trkpt lat="45.74346" lon="4.82928">
        <ele>165</ele>
        <time>2014-09-07T09:29:39Z</time>
      </trkpt>
      <trkpt lat="45.74378" lon="4.8295">
        <ele>165</ele>
        <time>2014-09-07T09:29:44Z</time>
      </trkpt>
      <trkpt lat="45.74378" lon="4.8295">
        <ele>165</ele>
        <time>2014-09-07T09:29:45Z</time>
      </trkpt>
      <trkpt lat="45.74406" lon="4.8297">
        <ele>165</ele>
        <time>2014-09-07T09:29:49Z</time>
      </trkpt>
      <trkpt lat="45.74406" lon="4.8297">
        <ele>165</ele>
        <time>2014-09-07T09:29:50Z</time>
      </trkpt>
      <trkpt lat="45.74411" lon="4.82975">
        <ele>165</ele>
        <time>2014-09-07T09:29:51Z</time>
      </trkpt>
      <trkpt lat="45.74436" lon="4.82996">
        <ele>165</ele>
        <time>2014-09-07T09:29:55Z</time>
      </trkpt>
      <trkpt lat="45.74436" lon="4.82996">
        <ele>165</ele>
        <time>2014-09-07T09:29:56Z</time>
      </trkpt>
      <trkpt lat="45.74441" lon="4.83001">
        <ele>165</ele>
        <time>2014-09-07T09:29:57Z</time>
      </trkpt>
      <trkpt lat="45.74463" lon="4.83029">
        <ele>165</ele>
        <time>2014-09-07T09:30:01Z</time>
      </trkpt>
      <trkpt lat="45.74481" lon="4.83046">
        <ele>165</ele>
        <time>2014-09-07T09:30:04Z</time>
      </trkpt>
      <trkpt lat="45.74499" lon="4.83063">
        <ele>165</ele>
        <time>2014-09-07T09:30:07Z</time>
      </trkpt>
      <trkpt lat="45.74511" lon="4.83076">
        <ele>165</ele>
        <time>2014-09-07T09:30:09Z</time>
      </trkpt>
      <trkpt lat="45.74522" lon="4.8309">
        <ele>166</ele>
        <time>2014-09-07T09:30:11Z</time>
      </trkpt>
      <trkpt lat="45.74534" lon="4.83104">
        <ele>166</ele>
        <time>2014-09-07T09:30:13Z</time>
      </trkpt>
      <trkpt lat="45.74539" lon="4.8311">
        <ele>167</ele>
        <time>2014-09-07T09:30:14Z</time>
      </trkpt>
      <trkpt lat="45.74568" lon="4.8314">
        <ele>167</ele>
        <time>2014-09-07T09:30:19Z</time>
      </trkpt>
      <trkpt lat="45.74568" lon="4.8314">
        <ele>167</ele>
        <time>2014-09-07T09:30:20Z</time>
      </trkpt>
      <trkpt lat="45.74592" lon="4.83167">
        <ele>169</ele>
        <time>2014-09-07T09:30:24Z</time>
      </trkpt>
      <trkpt lat="45.746" lon="4.83176">
        <ele>168</ele>
        <time>2014-09-07T09:30:26Z</time>
      </trkpt>
      <trkpt lat="45.74604" lon="4.83181">
        <ele>168</ele>
        <time>2014-09-07T09:30:27Z</time>
      </trkpt>
      <trkpt lat="45.74621" lon="4.83192">
        <ele>168</ele>
        <time>2014-09-07T09:30:30Z</time>
      </trkpt>
      <trkpt lat="45.74641" lon="4.83205">
        <ele>168</ele>
        <time>2014-09-07T09:30:33Z</time>
      </trkpt>
      <trkpt lat="45.74669" lon="4.83222">
        <ele>166</ele>
        <time>2014-09-07T09:30:37Z</time>
      </trkpt>
      <trkpt lat="45.74675" lon="4.83227">
        <ele>166</ele>
        <time>2014-09-07T09:30:38Z</time>
      </trkpt>
      <trkpt lat="45.74699" lon="4.83251">
        <ele>168</ele>
        <time>2014-09-07T09:30:42Z</time>
      </trkpt>
      <trkpt lat="45.74706" lon="4.83256">
        <ele>168</ele>
        <time>2014-09-07T09:30:43Z</time>
      </trkpt>
      <trkpt lat="45.74736" lon="4.8328">
        <ele>168</ele>
        <time>2014-09-07T09:30:48Z</time>
      </trkpt>
      <trkpt lat="45.74742" lon="4.83285">
        <ele>169</ele>
        <time>2014-09-07T09:30:49Z</time>
      </trkpt>
      <trkpt lat="45.74776" lon="4.8331">
        <ele>168</ele>
        <time>2014-09-07T09:30:55Z</time>
      </trkpt>
      <trkpt lat="45.74796" lon="4.83331">
        <ele>167</ele>
        <time>2014-09-07T09:30:59Z</time>
      </trkpt>
      <trkpt lat="45.74802" lon="4.83338">
        <ele>170</ele>
        <time>2014-09-07T09:31:00Z</time>
      </trkpt>
      <trkpt lat="45.74807" lon="4.83345">
        <ele>170</ele>
        <time>2014-09-07T09:31:01Z</time>
      </trkpt>
      <trkpt lat="45.74813" lon="4.83348">
        <ele>169</ele>
        <time>2014-09-07T09:31:02Z</time>
      </trkpt>
      <trkpt lat="45.74819" lon="4.83352">
        <ele>169</ele>
        <time>2014-09-07T09:31:03Z</time>
      </trkpt>
      <trkpt lat="45.74844" lon="4.83368">
        <ele>166</ele>
        <time>2014-09-07T09:31:07Z</time>
      </trkpt>
      <trkpt lat="45.74874" lon="4.83388">
        <ele>166</ele>
        <time>2014-09-07T09:31:12Z</time>
      </trkpt>
      <trkpt lat="45.7488" lon="4.83392">
        <ele>166</ele>
        <time>2014-09-07T09:31:13Z</time>
      </trkpt>
      <trkpt lat="45.74914" lon="4.83418">
        <ele>165</ele>
        <time>2014-09-07T09:31:19Z</time>
      </trkpt>
      <trkpt lat="45.74948" lon="4.83444">
        <ele>165</ele>
        <time>2014-09-07T09:31:25Z</time>
      </trkpt>
      <trkpt lat="45.74983" lon="4.83469">
        <ele>165</ele>
        <time>2014-09-07T09:31:31Z</time>
      </trkpt>
      <trkpt lat="45.75015" lon="4.83494">
        <ele>164</ele>
        <time>2014-09-07T09:31:37Z</time>
      </trkpt>
      <trkpt lat="45.75035" lon="4.83511">
        <ele>164</ele>
        <time>2014-09-07T09:31:41Z</time>
      </trkpt>
      <trkpt lat="45.75043" lon="4.8352">
        <ele>164</ele>
        <time>2014-09-07T09:31:43Z</time>
      </trkpt>
      <trkpt lat="45.75046" lon="4.83526">
        <ele>164</ele>
        <time>2014-09-07T09:31:44Z</time>
      </trkpt>
      <trkpt lat="45.75062" lon="4.83547">
        <ele>165</ele>
        <time>2014-09-07T09:31:48Z</time>
      </trkpt>
      <trkpt lat="45.75099" lon="4.8357">
        <ele>165</ele>
        <time>2014-09-07T09:31:55Z</time>
      </trkpt>
      <trkpt lat="45.75111" lon="4.8358">
        <ele>165</ele>
        <time>2014-09-07T09:31:57Z</time>
      </trkpt>
      <trkpt lat="45.75133" lon="4.83599">
        <ele>166</ele>
        <time>2014-09-07T09:32:01Z</time>
      </trkpt>
      <trkpt lat="45.75145" lon="4.83611">
        <ele>167</ele>
        <time>2014-09-07T09:32:04Z</time>
      </trkpt>
      <trkpt lat="45.75156" lon="4.83619">
        <ele>167</ele>
        <time>2014-09-07T09:32:06Z</time>
      </trkpt>
      <trkpt lat="45.75169" lon="4.83632">
        <ele>166</ele>
        <time>2014-09-07T09:32:09Z</time>
      </trkpt>
      <trkpt lat="45.75174" lon="4.83638">
        <ele>166</ele>
        <time>2014-09-07T09:32:11Z</time>
      </trkpt>
      <trkpt lat="45.75176" lon="4.83642">
        <ele>166</ele>
        <time>2014-09-07T09:32:12Z</time>
      </trkpt>
      <trkpt lat="45.75171" lon="4.83649">
        <ele>167</ele>
        <time>2014-09-07T09:32:15Z</time>
      </trkpt>
      <trkpt lat="45.75162" lon="4.83641">
        <ele>167</ele>
        <time>2014-09-07T09:32:18Z</time>
      </trkpt>
      <trkpt lat="45.75149" lon="4.83632">
        <ele>167</ele>
        <time>2014-09-07T09:32:22Z</time>
      </trkpt>
      <trkpt lat="45.75145" lon="4.83628">
        <ele>167</ele>
        <time>2014-09-07T09:32:23Z</time>
      </trkpt>
      <trkpt lat="45.75133" lon="4.8362">
        <ele>167</ele>
        <time>2014-09-07T09:32:27Z</time>
      </trkpt>
      <trkpt lat="45.75131" lon="4.83621">
        <ele>167</ele>
        <time>2014-09-07T09:32:28Z</time>
      </trkpt>
      <trkpt lat="45.75129" lon="4.83629">
        <ele>167</ele>
        <time>2014-09-07T09:32:31Z</time>
      </trkpt>
      <trkpt lat="45.7514" lon="4.83641">
        <ele>167</ele>
        <time>2014-09-07T09:32:35Z</time>
      </trkpt>
      <trkpt lat="45.75155" lon="4.83652">
        <ele>167</ele>
        <time>2014-09-07T09:32:39Z</time>
      </trkpt>
      <trkpt lat="45.75159" lon="4.83655">
        <ele>168</ele>
        <time>2014-09-07T09:32:40Z</time>
      </trkpt>
      <trkpt lat="45.75172" lon="4.83666">
        <ele>168</ele>
        <time>2014-09-07T09:32:43Z</time>
      </trkpt>
      <trkpt lat="45.75185" lon="4.83676">
        <ele>168</ele>
        <time>2014-09-07T09:32:47Z</time>
      </trkpt>
      <trkpt lat="45.7519" lon="4.83678">
        <ele>168</ele>
        <time>2014-09-07T09:32:49Z</time>
      </trkpt>
      <trkpt lat="45.75196" lon="4.83677">
        <ele>168</ele>
        <time>2014-09-07T09:32:51Z</time>
      </trkpt>
      <trkpt lat="45.75198" lon="4.83675">
        <ele>168</ele>
        <time>2014-09-07T09:32:52Z</time>
      </trkpt>
      <trkpt lat="45.75203" lon="4.83668">
        <ele>168</ele>
        <time>2014-09-07T09:32:54Z</time>
      </trkpt>
      <trkpt lat="45.75205" lon="4.83663">
        <ele>166</ele>
        <time>2014-09-07T09:32:55Z</time>
      </trkpt>
      <trkpt lat="45.75214" lon="4.83634">
        <ele>166</ele>
        <time>2014-09-07T09:33:00Z</time>
      </trkpt>
      <trkpt lat="45.75222" lon="4.83611">
        <ele>166</ele>
        <time>2014-09-07T09:33:04Z</time>
      </trkpt>
      <trkpt lat="45.75232" lon="4.83584">
        <ele>165</ele>
        <time>2014-09-07T09:33:09Z</time>
      </trkpt>
      <trkpt lat="45.75242" lon="4.83561">
        <ele>165</ele>
        <time>2014-09-07T09:33:13Z</time>
      </trkpt>
      <trkpt lat="45.75251" lon="4.83536">
        <ele>165</ele>
        <time>2014-09-07T09:33:17Z</time>
      </trkpt>
      <trkpt lat="45.7526" lon="4.83511">
        <ele>165</ele>
        <time>2014-09-07T09:33:21Z</time>
      </trkpt>
      <trkpt lat="45.75265" lon="4.835">
        <ele>166</ele>
        <time>2014-09-07T09:33:23Z</time>
      </trkpt>
      <trkpt lat="45.75281" lon="4.83463">
        <ele>166</ele>
        <time>2014-09-07T09:33:29Z</time>
      </trkpt>
      <trkpt lat="45.75285" lon="4.83452">
        <ele>166</ele>
        <time>2014-09-07T09:33:32Z</time>
      </trkpt>
      <trkpt lat="45.75293" lon="4.83429">
        <ele>167</ele>
        <time>2014-09-07T09:33:34Z</time>
      </trkpt>
      <trkpt lat="45.75298" lon="4.83417">
        <ele>167</ele>
        <time>2014-09-07T09:33:36Z</time>
      </trkpt>
      <trkpt lat="45.75301" lon="4.8341">
        <ele>170</ele>
        <time>2014-09-07T09:33:38Z</time>
      </trkpt>
      <trkpt lat="45.75306" lon="4.83399">
        <ele>171</ele>
        <time>2014-09-07T09:33:43Z</time>
      </trkpt>
      <trkpt lat="45.753" lon="4.83391">
        <ele>171</ele>
        <time>2014-09-07T09:33:47Z</time>
      </trkpt>
      <trkpt lat="45.75297" lon="4.8339">
        <ele>170</ele>
        <time>2014-09-07T09:33:48Z</time>
      </trkpt>
      <trkpt lat="45.75289" lon="4.83384">
        <ele>170</ele>
        <time>2014-09-07T09:33:51Z</time>
      </trkpt>
      <trkpt lat="45.75275" lon="4.83376">
        <ele>170</ele>
        <time>2014-09-07T09:33:53Z</time>
      </trkpt>
      <trkpt lat="45.75251" lon="4.83361">
        <ele>171</ele>
        <time>2014-09-07T09:33:58Z</time>
      </trkpt>
      <trkpt lat="45.75246" lon="4.83357">
        <ele>169</ele>
        <time>2014-09-07T09:33:59Z</time>
      </trkpt>
      <trkpt lat="45.75218" lon="4.83339">
        <ele>169</ele>
        <time>2014-09-07T09:34:04Z</time>
      </trkpt>
      <trkpt lat="45.752" lon="4.83327">
        <ele>172</ele>
        <time>2014-09-07T09:34:07Z</time>
      </trkpt>
      <trkpt lat="45.75183" lon="4.83316">
        <ele>172</ele>
        <time>2014-09-07T09:34:10Z</time>
      </trkpt>
      <trkpt lat="45.75177" lon="4.83311">
        <ele>172</ele>
        <time>2014-09-07T09:34:11Z</time>
      </trkpt>
      <trkpt lat="45.75166" lon="4.83303">
        <ele>170</ele>
        <time>2014-09-07T09:34:13Z</time>
      </trkpt>
      <trkpt lat="45.75146" lon="4.83287">
        <ele>170</ele>
        <time>2014-09-07T09:34:17Z</time>
      </trkpt>
      <trkpt lat="45.75131" lon="4.83277">
        <ele>170</ele>
        <time>2014-09-07T09:34:20Z</time>
      </trkpt>
      <trkpt lat="45.75111" lon="4.83264">
        <ele>169</ele>
        <time>2014-09-07T09:34:24Z</time>
      </trkpt>
      <trkpt lat="45.75108" lon="4.83261">
        <ele>169</ele>
        <time>2014-09-07T09:34:25Z</time>
      </trkpt>
      <trkpt lat="45.751" lon="4.83256">
        <ele>169</ele>
        <time>2014-09-07T09:34:27Z</time>
      </trkpt>
      <trkpt lat="45.75085" lon="4.83247">
        <ele>169</ele>
        <time>2014-09-07T09:34:32Z</time>
      </trkpt>
      <trkpt lat="45.75077" lon="4.83242">
        <ele>169</ele>
        <time>2014-09-07T09:34:33Z</time>
      </trkpt>
      <trkpt lat="45.75069" lon="4.83238">
        <ele>169</ele>
        <time>2014-09-07T09:34:36Z</time>
      </trkpt>
      <trkpt lat="45.75071" lon="4.83244">
        <ele>169</ele>
        <time>2014-09-07T09:34:39Z</time>
      </trkpt>
      <trkpt lat="45.75081" lon="4.83252">
        <ele>168</ele>
        <time>2014-09-07T09:34:42Z</time>
      </trkpt>
      <trkpt lat="45.75086" lon="4.83255">
        <ele>168</ele>
        <time>2014-09-07T09:34:43Z</time>
      </trkpt>
      <trkpt lat="45.7509" lon="4.83258">
        <ele>168</ele>
        <time>2014-09-07T09:34:44Z</time>
      </trkpt>
      <trkpt lat="45.75109" lon="4.8327">
        <ele>169</ele>
        <time>2014-09-07T09:34:47Z</time>
      </trkpt>
      <trkpt lat="45.7512" lon="4.83278">
        <ele>169</ele>
        <time>2014-09-07T09:34:50Z</time>
      </trkpt>
      <trkpt lat="45.75152" lon="4.83303">
        <ele>170</ele>
        <time>2014-09-07T09:34:56Z</time>
      </trkpt>
      <trkpt lat="45.75162" lon="4.83311">
        <ele>170</ele>
        <time>2014-09-07T09:34:57Z</time>
      </trkpt>
      <trkpt lat="45.75191" lon="4.83335">
        <ele>169</ele>
        <time>2014-09-07T09:35:03Z</time>
      </trkpt>
      <trkpt lat="45.75196" lon="4.83338">
        <ele>169</ele>
        <time>2014-09-07T09:35:04Z</time>
      </trkpt>
      <trkpt lat="45.75232" lon="4.83364">
        <ele>169</ele>
        <time>2014-09-07T09:35:11Z</time>
      </trkpt>
      <trkpt lat="45.75264" lon="4.83389">
        <ele>169</ele>
        <time>2014-09-07T09:35:18Z</time>
      </trkpt>
      <trkpt lat="45.75268" lon="4.83392">
        <ele>169</ele>
        <time>2014-09-07T09:35:19Z</time>
      </trkpt>
      <trkpt lat="45.75283" lon="4.83405">
        <ele>169</ele>
        <time>2014-09-07T09:35:24Z</time>
      </trkpt>
      <trkpt lat="45.75286" lon="4.83406">
        <ele>170</ele>
        <time>2014-09-07T09:35:26Z</time>
      </trkpt>
      <trkpt lat="45.75289" lon="4.83403">
        <ele>170</ele>
        <time>2014-09-07T09:35:28Z</time>
      </trkpt>
      <trkpt lat="45.75325" lon="4.8344">
        <ele>168</ele>
        <time>2014-09-07T09:35:39Z</time>
      </trkpt>
      <trkpt lat="45.75345" lon="4.83443">
        <ele>170</ele>
        <time>2014-09-07T09:35:43Z</time>
      </trkpt>
      <trkpt lat="45.7535" lon="4.83446">
        <ele>170</ele>
        <time>2014-09-07T09:35:44Z</time>
      </trkpt>
      <trkpt lat="45.75379" lon="4.83464">
        <ele>169</ele>
        <time>2014-09-07T09:35:51Z</time>
      </trkpt>
      <trkpt lat="45.75383" lon="4.83467">
        <ele>169</ele>
        <time>2014-09-07T09:35:52Z</time>
      </trkpt>
      <trkpt lat="45.75418" lon="4.83491">
        <ele>168</ele>
        <time>2014-09-07T09:36:00Z</time>
      </trkpt>
      <trkpt lat="45.75422" lon="4.83494">
        <ele>168</ele>
        <time>2014-09-07T09:36:01Z</time>
      </trkpt>
      <trkpt lat="45.75449" lon="4.83511">
        <ele>167</ele>
        <time>2014-09-07T09:36:08Z</time>
      </trkpt>
      <trkpt lat="45.75452" lon="4.83512">
        <ele>167</ele>
        <time>2014-09-07T09:36:09Z</time>
      </trkpt>
      <trkpt lat="45.75466" lon="4.83521">
        <ele>167</ele>
        <time>2014-09-07T09:36:14Z</time>
      </trkpt>
      <trkpt lat="45.75485" lon="4.83537">
        <ele>167</ele>
        <time>2014-09-07T09:36:20Z</time>
      </trkpt>
      <trkpt lat="45.75517" lon="4.83561">
        <ele>168</ele>
        <time>2014-09-07T09:36:28Z</time>
      </trkpt>
      <trkpt lat="45.75548" lon="4.83583">
        <ele>169</ele>
        <time>2014-09-07T09:36:36Z</time>
      </trkpt>
      <trkpt lat="45.75552" lon="4.83585">
        <ele>168</ele>
        <time>2014-09-07T09:36:37Z</time>
      </trkpt>
      <trkpt lat="45.75571" lon="4.83601">
        <ele>168</ele>
        <time>2014-09-07T09:36:42Z</time>
      </trkpt>
      <trkpt lat="45.75581" lon="4.83605">
        <ele>168</ele>
        <time>2014-09-07T09:36:45Z</time>
      </trkpt>
      <trkpt lat="45.75583" lon="4.83602">
        <ele>169</ele>
        <time>2014-09-07T09:36:46Z</time>
      </trkpt>
      <trkpt lat="45.75584" lon="4.83598">
        <ele>170</ele>
        <time>2014-09-07T09:36:47Z</time>
      </trkpt>
      <trkpt lat="45.75586" lon="4.83583">
        <ele>171</ele>
        <time>2014-09-07T09:36:50Z</time>
      </trkpt>
      <trkpt lat="45.75592" lon="4.83562">
        <ele>172</ele>
        <time>2014-09-07T09:36:55Z</time>
      </trkpt>
      <trkpt lat="45.75594" lon="4.83551">
        <ele>172</ele>
        <time>2014-09-07T09:36:57Z</time>
      </trkpt>
      <trkpt lat="45.75595" lon="4.83544">
        <ele>172</ele>
        <time>2014-09-07T09:36:58Z</time>
      </trkpt>
      <trkpt lat="45.75598" lon="4.83531">
        <ele>172</ele>
        <time>2014-09-07T09:37:00Z</time>
      </trkpt>
      <trkpt lat="45.756" lon="4.83523">
        <ele>172</ele>
        <time>2014-09-07T09:37:01Z</time>
      </trkpt>
      <trkpt lat="45.75603" lon="4.83508">
        <ele>172</ele>
        <time>2014-09-07T09:37:03Z</time>
      </trkpt>
      <trkpt lat="45.75607" lon="4.83494">
        <ele>172</ele>
        <time>2014-09-07T09:37:05Z</time>
      </trkpt>
      <trkpt lat="45.7561" lon="4.83486">
        <ele>172</ele>
        <time>2014-09-07T09:37:06Z</time>
      </trkpt>
      <trkpt lat="45.75624" lon="4.83442">
        <ele>172</ele>
        <time>2014-09-07T09:37:12Z</time>
      </trkpt>
      <trkpt lat="45.75635" lon="4.8341">
        <ele>173</ele>
        <time>2014-09-07T09:37:18Z</time>
      </trkpt>
      <trkpt lat="45.7564" lon="4.83391">
        <ele>173</ele>
        <time>2014-09-07T09:37:21Z</time>
      </trkpt>
      <trkpt lat="45.75641" lon="4.83384">
        <ele>173</ele>
        <time>2014-09-07T09:37:22Z</time>
      </trkpt>
      <trkpt lat="45.75644" lon="4.83377">
        <ele>173</ele>
        <time>2014-09-07T09:37:23Z</time>
      </trkpt>
      <trkpt lat="45.7565" lon="4.83357">
        <ele>173</ele>
        <time>2014-09-07T09:37:26Z</time>
      </trkpt>
      <trkpt lat="45.75654" lon="4.83349">
        <ele>173</ele>
        <time>2014-09-07T09:37:28Z</time>
      </trkpt>
      <trkpt lat="45.75657" lon="4.83342">
        <ele>173</ele>
        <time>2014-09-07T09:37:30Z</time>
      </trkpt>
      <trkpt lat="45.7566" lon="4.83336">
        <ele>172</ele>
        <time>2014-09-07T09:37:33Z</time>
      </trkpt>
      <trkpt lat="45.75661" lon="4.83331">
        <ele>173</ele>
        <time>2014-09-07T09:37:36Z</time>
      </trkpt>
      <trkpt lat="45.75665" lon="4.83331">
        <ele>172</ele>
        <time>2014-09-07T09:37:38Z</time>
      </trkpt>
      <trkpt lat="45.75671" lon="4.83337">
        <ele>172</ele>
        <time>2014-09-07T09:37:40Z</time>
      </trkpt>
      <trkpt lat="45.7568" lon="4.83344">
        <ele>172</ele>
        <time>2014-09-07T09:37:42Z</time>
      </trkpt>
      <trkpt lat="45.75689" lon="4.8335">
        <ele>173</ele>
        <time>2014-09-07T09:37:44Z</time>
      </trkpt>
      <trkpt lat="45.75701" lon="4.83355">
        <ele>173</ele>
        <time>2014-09-07T09:37:47Z</time>
      </trkpt>
      <trkpt lat="45.75725" lon="4.83366">
        <ele>173</ele>
        <time>2014-09-07T09:37:52Z</time>
      </trkpt>
      <trkpt lat="45.75755" lon="4.83391">
        <ele>176</ele>
        <time>2014-09-07T09:37:57Z</time>
      </trkpt>
      <trkpt lat="45.75759" lon="4.83392">
        <ele>176</ele>
        <time>2014-09-07T09:37:58Z</time>
      </trkpt>
      <trkpt lat="45.7577" lon="4.83395">
        <ele>176</ele>
        <time>2014-09-07T09:38:00Z</time>
      </trkpt>
      <trkpt lat="45.75798" lon="4.83403">
        <ele>177</ele>
        <time>2014-09-07T09:38:04Z</time>
      </trkpt>
      <trkpt lat="45.75803" lon="4.83405">
        <ele>177</ele>
        <time>2014-09-07T09:38:05Z</time>
      </trkpt>
      <trkpt lat="45.75818" lon="4.834">
        <ele>177</ele>
        <time>2014-09-07T09:38:09Z</time>
      </trkpt>
      <trkpt lat="45.75815" lon="4.834">
        <ele>177</ele>
        <time>2014-09-07T09:38:13Z</time>
      </trkpt>
      <trkpt lat="45.75807" lon="4.83402">
        <ele>177</ele>
        <time>2014-09-07T09:38:21Z</time>
      </trkpt>
      <trkpt lat="45.75809" lon="4.83399">
        <ele>177</ele>
        <time>2014-09-07T09:38:22Z</time>
      </trkpt>
      <trkpt lat="45.75807" lon="4.83387">
        <ele>177</ele>
        <time>2014-09-07T09:38:27Z</time>
      </trkpt>
      <trkpt lat="45.75807" lon="4.83382">
        <ele>177</ele>
        <time>2014-09-07T09:38:29Z</time>
      </trkpt>
      <trkpt lat="45.75808" lon="4.83379">
        <ele>177</ele>
        <time>2014-09-07T09:38:30Z</time>
      </trkpt>
      <trkpt lat="45.75812" lon="4.83368">
        <ele>177</ele>
        <time>2014-09-07T09:38:32Z</time>
      </trkpt>
      <trkpt lat="45.75822" lon="4.8333">
        <ele>178</ele>
        <time>2014-09-07T09:38:38Z</time>
      </trkpt>
      <trkpt lat="45.75837" lon="4.83277">
        <ele>180</ele>
        <time>2014-09-07T09:38:45Z</time>
      </trkpt>
      <trkpt lat="45.7584" lon="4.83269">
        <ele>180</ele>
        <time>2014-09-07T09:38:46Z</time>
      </trkpt>
      <trkpt lat="45.75851" lon="4.83229">
        <ele>179</ele>
        <time>2014-09-07T09:38:52Z</time>
      </trkpt>
      <trkpt lat="45.75867" lon="4.83181">
        <ele>178</ele>
        <time>2014-09-07T09:38:59Z</time>
      </trkpt>
      <trkpt lat="45.75882" lon="4.83134">
        <ele>177</ele>
        <time>2014-09-07T09:39:05Z</time>
      </trkpt>
      <trkpt lat="45.75883" lon="4.83127">
        <ele>177</ele>
        <time>2014-09-07T09:39:06Z</time>
      </trkpt>
      <trkpt lat="45.75891" lon="4.8309">
        <ele>177</ele>
        <time>2014-09-07T09:39:12Z</time>
      </trkpt>
      <trkpt lat="45.75892" lon="4.83083">
        <ele>177</ele>
        <time>2014-09-07T09:39:14Z</time>
      </trkpt>
      <trkpt lat="45.75895" lon="4.83075">
        <ele>177</ele>
        <time>2014-09-07T09:39:16Z</time>
      </trkpt>
      <trkpt lat="45.75897" lon="4.8307">
        <ele>177</ele>
        <time>2014-09-07T09:39:17Z</time>
      </trkpt>
      <trkpt lat="45.75902" lon="4.83052">
        <ele>177</ele>
        <time>2014-09-07T09:39:20Z</time>
      </trkpt>
      <trkpt lat="45.75909" lon="4.83039">
        <ele>176</ele>
        <time>2014-09-07T09:39:22Z</time>
      </trkpt>
      <trkpt lat="45.75911" lon="4.83034">
        <ele>176</ele>
        <time>2014-09-07T09:39:23Z</time>
      </trkpt>
      <trkpt lat="45.75915" lon="4.83025">
        <ele>176</ele>
        <time>2014-09-07T09:39:25Z</time>
      </trkpt>
      <trkpt lat="45.75917" lon="4.83003">
        <ele>174</ele>
        <time>2014-09-07T09:39:31Z</time>
      </trkpt>
      <trkpt lat="45.75919" lon="4.82982">
        <ele>171</ele>
        <time>2014-09-07T09:39:35Z</time>
      </trkpt>
      <trkpt lat="45.75919" lon="4.82975">
        <ele>170</ele>
        <time>2014-09-07T09:39:36Z</time>
      </trkpt>
      <trkpt lat="45.7592" lon="4.82968">
        <ele>170</ele>
        <time>2014-09-07T09:39:37Z</time>
      </trkpt>
      <trkpt lat="45.75929" lon="4.82943">
        <ele>169</ele>
        <time>2014-09-07T09:39:40Z</time>
      </trkpt>
      <trkpt lat="45.75932" lon="4.82934">
        <ele>169</ele>
        <time>2014-09-07T09:39:41Z</time>
      </trkpt>
      <trkpt lat="45.75946" lon="4.82889">
        <ele>166</ele>
        <time>2014-09-07T09:39:46Z</time>
      </trkpt>
      <trkpt lat="45.75949" lon="4.82881">
        <ele>166</ele>
        <time>2014-09-07T09:39:47Z</time>
      </trkpt>
      <trkpt lat="45.7596" lon="4.82845">
        <ele>166</ele>
        <time>2014-09-07T09:39:52Z</time>
      </trkpt>
      <trkpt lat="45.75964" lon="4.82831">
        <ele>168</ele>
        <time>2014-09-07T09:39:54Z</time>
      </trkpt>
      <trkpt lat="45.75973" lon="4.82807">
        <ele>169</ele>
        <time>2014-09-07T09:39:58Z</time>
      </trkpt>
      <trkpt lat="45.75979" lon="4.82795">
        <ele>169</ele>
        <time>2014-09-07T09:40:01Z</time>
      </trkpt>
      <trkpt lat="45.75981" lon="4.82794">
        <ele>170</ele>
        <time>2014-09-07T09:40:02Z</time>
      </trkpt>
      <trkpt lat="45.75983" lon="4.82793">
        <ele>170</ele>
        <time>2014-09-07T09:40:06Z</time>
      </trkpt>
      <trkpt lat="45.75986" lon="4.82795">
        <ele>169</ele>
        <time>2014-09-07T09:40:08Z</time>
      </trkpt>
      <trkpt lat="45.75989" lon="4.82797">
        <ele>169</ele>
        <time>2014-09-07T09:40:09Z</time>
      </trkpt>
      <trkpt lat="45.76006" lon="4.82806">
        <ele>171</ele>
        <time>2014-09-07T09:40:13Z</time>
      </trkpt>
      <trkpt lat="45.76023" lon="4.82817">
        <ele>171</ele>
        <time>2014-09-07T09:40:16Z</time>
      </trkpt>
      <trkpt lat="45.76041" lon="4.82827">
        <ele>171</ele>
        <time>2014-09-07T09:40:19Z</time>
      </trkpt>
      <trkpt lat="45.76059" lon="4.82837">
        <ele>169</ele>
        <time>2014-09-07T09:40:22Z</time>
      </trkpt>
      <trkpt lat="45.76084" lon="4.82847">
        <ele>171</ele>
        <time>2014-09-07T09:40:26Z</time>
      </trkpt>
      <trkpt lat="45.76097" lon="4.82851">
        <ele>170</ele>
        <time>2014-09-07T09:40:28Z</time>
      </trkpt>
      <trkpt lat="45.76125" lon="4.82861">
        <ele>170</ele>
        <time>2014-09-07T09:40:33Z</time>
      </trkpt>
      <trkpt lat="45.76133" lon="4.82864">
        <ele>170</ele>
        <time>2014-09-07T09:40:35Z</time>
      </trkpt>
      <trkpt lat="45.76144" lon="4.82869">
        <ele>170</ele>
        <time>2014-09-07T09:40:38Z</time>
      </trkpt>
      <trkpt lat="45.76168" lon="4.82877">
        <ele>171</ele>
        <time>2014-09-07T09:40:44Z</time>
      </trkpt>
      <trkpt lat="45.76173" lon="4.82879">
        <ele>171</ele>
        <time>2014-09-07T09:40:45Z</time>
      </trkpt>
      <trkpt lat="45.76203" lon="4.82894">
        <ele>171</ele>
        <time>2014-09-07T09:40:51Z</time>
      </trkpt>
      <trkpt lat="45.76239" lon="4.82916">
        <ele>171</ele>
        <time>2014-09-07T09:40:58Z</time>
      </trkpt>
      <trkpt lat="45.76245" lon="4.82918">
        <ele>169</ele>
        <time>2014-09-07T09:40:59Z</time>
      </trkpt>
      <trkpt lat="45.76276" lon="4.82929">
        <ele>169</ele>
        <time>2014-09-07T09:41:05Z</time>
      </trkpt>
      <trkpt lat="45.76286" lon="4.82933">
        <ele>169</ele>
        <time>2014-09-07T09:41:07Z</time>
      </trkpt>
      <trkpt lat="45.76315" lon="4.8294">
        <ele>169</ele>
        <time>2014-09-07T09:41:13Z</time>
      </trkpt>
      <trkpt lat="45.76325" lon="4.82941">
        <ele>169</ele>
        <time>2014-09-07T09:41:15Z</time>
      </trkpt>
      <trkpt lat="45.76341" lon="4.82942">
        <ele>170</ele>
        <time>2014-09-07T09:41:18Z</time>
      </trkpt>
      <trkpt lat="45.76353" lon="4.82942">
        <ele>169</ele>
        <time>2014-09-07T09:41:20Z</time>
      </trkpt>
      <trkpt lat="45.76359" lon="4.82942">
        <ele>169</ele>
        <time>2014-09-07T09:41:21Z</time>
      </trkpt>
      <trkpt lat="45.76393" lon="4.8294">
        <ele>170</ele>
        <time>2014-09-07T09:41:27Z</time>
      </trkpt>
      <trkpt lat="45.76399" lon="4.82941">
        <ele>170</ele>
        <time>2014-09-07T09:41:28Z</time>
      </trkpt>
      <trkpt lat="45.76434" lon="4.8294">
        <ele>170</ele>
        <time>2014-09-07T09:41:34Z</time>
      </trkpt>
      <trkpt lat="45.76445" lon="4.82939">
        <ele>169</ele>
        <time>2014-09-07T09:41:36Z</time>
      </trkpt>
      <trkpt lat="45.76455" lon="4.82937">
        <ele>169</ele>
        <time>2014-09-07T09:41:38Z</time>
      </trkpt>
      <trkpt lat="45.76466" lon="4.82929">
        <ele>169</ele>
        <time>2014-09-07T09:41:41Z</time>
      </trkpt>
      <trkpt lat="45.76469" lon="4.82927">
        <ele>169</ele>
        <time>2014-09-07T09:41:43Z</time>
      </trkpt>
      <trkpt lat="45.7647" lon="4.82926">
        <ele>169</ele>
        <time>2014-09-07T09:41:44Z</time>
      </trkpt>
      <trkpt lat="45.7647" lon="4.82923">
        <ele>170</ele>
        <time>2014-09-07T09:41:46Z</time>
      </trkpt>
      <trkpt lat="45.76473" lon="4.82919">
        <ele>170</ele>
        <time>2014-09-07T09:41:48Z</time>
      </trkpt>
      <trkpt lat="45.76483" lon="4.82908">
        <ele>173</ele>
        <time>2014-09-07T09:41:52Z</time>
      </trkpt>
      <trkpt lat="45.76495" lon="4.82905">
        <ele>173</ele>
        <time>2014-09-07T09:41:55Z</time>
      </trkpt>
      <trkpt lat="45.76499" lon="4.82904">
        <ele>173</ele>
        <time>2014-09-07T09:41:56Z</time>
      </trkpt>
      <trkpt lat="45.76504" lon="4.82904">
        <ele>173</ele>
        <time>2014-09-07T09:41:57Z</time>
      </trkpt>
      <trkpt lat="45.7653" lon="4.82901">
        <ele>175</ele>
        <time>2014-09-07T09:42:02Z</time>
      </trkpt>
      <trkpt lat="45.7654" lon="4.829">
        <ele>175</ele>
        <time>2014-09-07T09:42:04Z</time>
      </trkpt>
      <trkpt lat="45.76546" lon="4.82899">
        <ele>176</ele>
        <time>2014-09-07T09:42:05Z</time>
      </trkpt>
      <trkpt lat="45.76559" lon="4.82891">
        <ele>176</ele>
        <time>2014-09-07T09:42:07Z</time>
      </trkpt>
      <trkpt lat="45.76568" lon="4.82887">
        <ele>176</ele>
        <time>2014-09-07T09:42:09Z</time>
      </trkpt>
      <trkpt lat="45.76579" lon="4.82881">
        <ele>177</ele>
        <time>2014-09-07T09:42:11Z</time>
      </trkpt>
      <trkpt lat="45.766" lon="4.8288">
        <ele>175</ele>
        <time>2014-09-07T09:42:15Z</time>
      </trkpt>
      <trkpt lat="45.76615" lon="4.82879">
        <ele>175</ele>
        <time>2014-09-07T09:42:20Z</time>
      </trkpt>
      <trkpt lat="45.76617" lon="4.82879">
        <ele>174</ele>
        <time>2014-09-07T09:42:21Z</time>
      </trkpt>
      <trkpt lat="45.76621" lon="4.82878">
        <ele>174</ele>
        <time>2014-09-07T09:42:25Z</time>
      </trkpt>
      <trkpt lat="45.76625" lon="4.82872">
        <ele>174</ele>
        <time>2014-09-07T09:43:02Z</time>
      </trkpt>
      <trkpt lat="45.76632" lon="4.82867">
        <ele>174</ele>
        <time>2014-09-07T09:43:04Z</time>
      </trkpt>
      <trkpt lat="45.76635" lon="4.82863">
        <ele>174</ele>
        <time>2014-09-07T09:43:05Z</time>
      </trkpt>
      <trkpt lat="45.76644" lon="4.82854">
        <ele>174</ele>
        <time>2014-09-07T09:43:08Z</time>
      </trkpt>
      <trkpt lat="45.76648" lon="4.82852">
        <ele>174</ele>
        <time>2014-09-07T09:43:09Z</time>
      </trkpt>
      <trkpt lat="45.76652" lon="4.82848">
        <ele>175</ele>
        <time>2014-09-07T09:43:10Z</time>
      </trkpt>
      <trkpt lat="45.76656" lon="4.82843">
        <ele>175</ele>
        <time>2014-09-07T09:43:11Z</time>
      </trkpt>
      <trkpt lat="45.76665" lon="4.8283">
        <ele>176</ele>
        <time>2014-09-07T09:43:13Z</time>
      </trkpt>
      <trkpt lat="45.76673" lon="4.8282">
        <ele>173</ele>
        <time>2014-09-07T09:43:15Z</time>
      </trkpt>
      <trkpt lat="45.76676" lon="4.82814">
        <ele>173</ele>
        <time>2014-09-07T09:43:16Z</time>
      </trkpt>
      <trkpt lat="45.76683" lon="4.82803">
        <ele>172</ele>
        <time>2014-09-07T09:43:18Z</time>
      </trkpt>
      <trkpt lat="45.76701" lon="4.82777">
        <ele>171</ele>
        <time>2014-09-07T09:43:22Z</time>
      </trkpt>
      <trkpt lat="45.76711" lon="4.82756">
        <ele>170</ele>
        <time>2014-09-07T09:43:26Z</time>
      </trkpt>
      <trkpt lat="45.76724" lon="4.82739">
        <ele>169</ele>
        <time>2014-09-07T09:43:29Z</time>
      </trkpt>
      <trkpt lat="45.76726" lon="4.8273">
        <ele>169</ele>
        <time>2014-09-07T09:43:30Z</time>
      </trkpt>
      <trkpt lat="45.76742" lon="4.82682">
        <ele>168</ele>
        <time>2014-09-07T09:43:35Z</time>
      </trkpt>
      <trkpt lat="45.76752" lon="4.82626">
        <ele>166</ele>
        <time>2014-09-07T09:43:40Z</time>
      </trkpt>
      <trkpt lat="45.76753" lon="4.82585">
        <ele>165</ele>
        <time>2014-09-07T09:43:44Z</time>
      </trkpt>
      <trkpt lat="45.76752" lon="4.82566">
        <ele>166</ele>
        <time>2014-09-07T09:43:46Z</time>
      </trkpt>
      <trkpt lat="45.76751" lon="4.82539">
        <ele>166</ele>
        <time>2014-09-07T09:43:49Z</time>
      </trkpt>
      <trkpt lat="45.7675" lon="4.8253">
        <ele>166</ele>
        <time>2014-09-07T09:43:50Z</time>
      </trkpt>
      <trkpt lat="45.76749" lon="4.82511">
        <ele>168</ele>
        <time>2014-09-07T09:43:52Z</time>
      </trkpt>
      <trkpt lat="45.76748" lon="4.82466">
        <ele>173</ele>
        <time>2014-09-07T09:43:57Z</time>
      </trkpt>
      <trkpt lat="45.76748" lon="4.82457">
        <ele>173</ele>
        <time>2014-09-07T09:43:58Z</time>
      </trkpt>
      <trkpt lat="45.76746" lon="4.82403">
        <ele>171</ele>
        <time>2014-09-07T09:44:04Z</time>
      </trkpt>
      <trkpt lat="45.76745" lon="4.8235">
        <ele>173</ele>
        <time>2014-09-07T09:44:10Z</time>
      </trkpt>
      <trkpt lat="45.76745" lon="4.82341">
        <ele>170</ele>
        <time>2014-09-07T09:44:11Z</time>
      </trkpt>
      <trkpt lat="45.76743" lon="4.82315">
        <ele>175</ele>
        <time>2014-09-07T09:44:14Z</time>
      </trkpt>
      <trkpt lat="45.76742" lon="4.82297">
        <ele>178</ele>
        <time>2014-09-07T09:44:16Z</time>
      </trkpt>
      <trkpt lat="45.76742" lon="4.82288">
        <ele>178</ele>
        <time>2014-09-07T09:44:17Z</time>
      </trkpt>
      <trkpt lat="45.76739" lon="4.82252">
        <ele>172</ele>
        <time>2014-09-07T09:44:21Z</time>
      </trkpt>
      <trkpt lat="45.76737" lon="4.82243">
        <ele>173</ele>
        <time>2014-09-07T09:44:22Z</time>
      </trkpt>
      <trkpt lat="45.76732" lon="4.82226">
        <ele>177</ele>
        <time>2014-09-07T09:44:24Z</time>
      </trkpt>
      <trkpt lat="45.76723" lon="4.82193">
        <ele>179</ele>
        <time>2014-09-07T09:44:28Z</time>
      </trkpt>
      <trkpt lat="45.76713" lon="4.82152">
        <ele>175</ele>
        <time>2014-09-07T09:44:33Z</time>
      </trkpt>
      <trkpt lat="45.76711" lon="4.82143">
        <ele>175</ele>
        <time>2014-09-07T09:44:34Z</time>
      </trkpt>
      <trkpt lat="45.76698" lon="4.82094">
        <ele>171</ele>
        <time>2014-09-07T09:44:40Z</time>
      </trkpt>
      <trkpt lat="45.76687" lon="4.82043">
        <ele>167</ele>
        <time>2014-09-07T09:44:47Z</time>
      </trkpt>
      <trkpt lat="45.76683" lon="4.82022">
        <ele>167</ele>
        <time>2014-09-07T09:44:50Z</time>
      </trkpt>
      <trkpt lat="45.76679" lon="4.82006">
        <ele>166</ele>
        <time>2014-09-07T09:44:52Z</time>
      </trkpt>
      <trkpt lat="45.76673" lon="4.81989">
        <ele>167</ele>
        <time>2014-09-07T09:44:54Z</time>
      </trkpt>
      <trkpt lat="45.76663" lon="4.81954">
        <ele>171</ele>
        <time>2014-09-07T09:44:58Z</time>
      </trkpt>
      <trkpt lat="45.76658" lon="4.81935">
        <ele>170</ele>
        <time>2014-09-07T09:45:00Z</time>
      </trkpt>
      <trkpt lat="45.76651" lon="4.81887">
        <ele>172</ele>
        <time>2014-09-07T09:45:05Z</time>
      </trkpt>
      <trkpt lat="45.7665" lon="4.81877">
        <ele>172</ele>
        <time>2014-09-07T09:45:06Z</time>
      </trkpt>
      <trkpt lat="45.7665" lon="4.81817">
        <ele>173</ele>
        <time>2014-09-07T09:45:12Z</time>
      </trkpt>
      <trkpt lat="45.76653" lon="4.81796">
        <ele>174</ele>
        <time>2014-09-07T09:45:14Z</time>
      </trkpt>
      <trkpt lat="45.76657" lon="4.81767">
        <ele>172</ele>
        <time>2014-09-07T09:45:17Z</time>
      </trkpt>
      <trkpt lat="45.76658" lon="4.81757">
        <ele>170</ele>
        <time>2014-09-07T09:45:18Z</time>
      </trkpt>
      <trkpt lat="45.76665" lon="4.81707">
        <ele>183</ele>
        <time>2014-09-07T09:45:23Z</time>
      </trkpt>
      <trkpt lat="45.76669" lon="4.81687">
        <ele>176</ele>
        <time>2014-09-07T09:45:25Z</time>
      </trkpt>
      <trkpt lat="45.76675" lon="4.81657">
        <ele>180</ele>
        <time>2014-09-07T09:45:28Z</time>
      </trkpt>
      <trkpt lat="45.76686" lon="4.81605">
        <ele>178</ele>
        <time>2014-09-07T09:45:33Z</time>
      </trkpt>
      <trkpt lat="45.76701" lon="4.81556">
        <ele>177</ele>
        <time>2014-09-07T09:45:38Z</time>
      </trkpt>
      <trkpt lat="45.76721" lon="4.81503">
        <ele>173</ele>
        <time>2014-09-07T09:45:44Z</time>
      </trkpt>
      <trkpt lat="45.76724" lon="4.81494">
        <ele>172</ele>
        <time>2014-09-07T09:45:45Z</time>
      </trkpt>
      <trkpt lat="45.76738" lon="4.8145">
        <ele>172</ele>
        <time>2014-09-07T09:45:50Z</time>
      </trkpt>
      <trkpt lat="45.76748" lon="4.81423">
        <ele>167</ele>
        <time>2014-09-07T09:45:53Z</time>
      </trkpt>
      <trkpt lat="45.76757" lon="4.81395">
        <ele>167</ele>
        <time>2014-09-07T09:45:56Z</time>
      </trkpt>
      <trkpt lat="45.76767" lon="4.81368">
        <ele>169</ele>
        <time>2014-09-07T09:45:59Z</time>
      </trkpt>
      <trkpt lat="45.76772" lon="4.8136">
        <ele>169</ele>
        <time>2014-09-07T09:46:00Z</time>
      </trkpt>
      <trkpt lat="45.76778" lon="4.81353">
        <ele>169</ele>
        <time>2014-09-07T09:46:01Z</time>
      </trkpt>
      <trkpt lat="45.76787" lon="4.8134">
        <ele>169</ele>
        <time>2014-09-07T09:46:03Z</time>
      </trkpt>
      <trkpt lat="45.76798" lon="4.81324">
        <ele>171</ele>
        <time>2014-09-07T09:46:05Z</time>
      </trkpt>
      <trkpt lat="45.76808" lon="4.81313">
        <ele>171</ele>
        <time>2014-09-07T09:46:07Z</time>
      </trkpt>
      <trkpt lat="45.76831" lon="4.81293">
        <ele>171</ele>
        <time>2014-09-07T09:46:11Z</time>
      </trkpt>
      <trkpt lat="45.76844" lon="4.81285">
        <ele>167</ele>
        <time>2014-09-07T09:46:13Z</time>
      </trkpt>
      <trkpt lat="45.76869" lon="4.81273">
        <ele>167</ele>
        <time>2014-09-07T09:46:17Z</time>
      </trkpt>
      <trkpt lat="45.76883" lon="4.8127">
        <ele>167</ele>
        <time>2014-09-07T09:46:19Z</time>
      </trkpt>
      <trkpt lat="45.76896" lon="4.81269">
        <ele>166</ele>
        <time>2014-09-07T09:46:21Z</time>
      </trkpt>
      <trkpt lat="45.76902" lon="4.81269">
        <ele>166</ele>
        <time>2014-09-07T09:46:22Z</time>
      </trkpt>
      <trkpt lat="45.76909" lon="4.81269">
        <ele>166</ele>
        <time>2014-09-07T09:46:23Z</time>
      </trkpt>
      <trkpt lat="45.76923" lon="4.81267">
        <ele>165</ele>
        <time>2014-09-07T09:46:25Z</time>
      </trkpt>
      <trkpt lat="45.7693" lon="4.81266">
        <ele>165</ele>
        <time>2014-09-07T09:46:26Z</time>
      </trkpt>
      <trkpt lat="45.76962" lon="4.8126">
        <ele>165</ele>
        <time>2014-09-07T09:46:31Z</time>
      </trkpt>
      <trkpt lat="45.76973" lon="4.81258">
        <ele>165</ele>
        <time>2014-09-07T09:46:33Z</time>
      </trkpt>
      <trkpt lat="45.76996" lon="4.81258">
        <ele>165</ele>
        <time>2014-09-07T09:46:38Z</time>
      </trkpt>
      <trkpt lat="45.76998" lon="4.81259">
        <ele>165</ele>
        <time>2014-09-07T09:46:39Z</time>
      </trkpt>
      <trkpt lat="45.77001" lon="4.81259">
        <ele>165</ele>
        <time>2014-09-07T09:46:40Z</time>
      </trkpt>
      <trkpt lat="45.77005" lon="4.81253">
        <ele>165</ele>
        <time>2014-09-07T09:46:42Z</time>
      </trkpt>
      <trkpt lat="45.77017" lon="4.81241">
        <ele>168</ele>
        <time>2014-09-07T09:46:45Z</time>
      </trkpt>
      <trkpt lat="45.77021" lon="4.81237">
        <ele>168</ele>
        <time>2014-09-07T09:46:46Z</time>
      </trkpt>
      <trkpt lat="45.77027" lon="4.81232">
        <ele>169</ele>
        <time>2014-09-07T09:46:47Z</time>
      </trkpt>
      <trkpt lat="45.77033" lon="4.81228">
        <ele>169</ele>
        <time>2014-09-07T09:46:48Z</time>
      </trkpt>
      <trkpt lat="45.77046" lon="4.8122">
        <ele>170</ele>
        <time>2014-09-07T09:46:50Z</time>
      </trkpt>
      <trkpt lat="45.77073" lon="4.81205">
        <ele>170</ele>
        <time>2014-09-07T09:46:54Z</time>
      </trkpt>
      <trkpt lat="45.77086" lon="4.81199">
        <ele>171</ele>
        <time>2014-09-07T09:46:56Z</time>
      </trkpt>
      <trkpt lat="45.77113" lon="4.81187">
        <ele>171</ele>
        <time>2014-09-07T09:47:00Z</time>
      </trkpt>
      <trkpt lat="45.7712" lon="4.81184">
        <ele>171</ele>
        <time>2014-09-07T09:47:01Z</time>
      </trkpt>
      <trkpt lat="45.77133" lon="4.81179">
        <ele>171</ele>
        <time>2014-09-07T09:47:03Z</time>
      </trkpt>
      <trkpt lat="45.7715" lon="4.81168">
        <ele>172</ele>
        <time>2014-09-07T09:47:06Z</time>
      </trkpt>
      <trkpt lat="45.77169" lon="4.81159">
        <ele>174</ele>
        <time>2014-09-07T09:47:09Z</time>
      </trkpt>
      <trkpt lat="45.77187" lon="4.81153">
        <ele>173</ele>
        <time>2014-09-07T09:47:12Z</time>
      </trkpt>
      <trkpt lat="45.77199" lon="4.81147">
        <ele>173</ele>
        <time>2014-09-07T09:47:14Z</time>
      </trkpt>
      <trkpt lat="45.77221" lon="4.81122">
        <ele>173</ele>
        <time>2014-09-07T09:47:18Z</time>
      </trkpt>
      <trkpt lat="45.77226" lon="4.81116">
        <ele>173</ele>
        <time>2014-09-07T09:47:19Z</time>
      </trkpt>
      <trkpt lat="45.77252" lon="4.81085">
        <ele>171</ele>
        <time>2014-09-07T09:47:24Z</time>
      </trkpt>
      <trkpt lat="45.77262" lon="4.81072">
        <ele>173</ele>
        <time>2014-09-07T09:47:26Z</time>
      </trkpt>
      <trkpt lat="45.77281" lon="4.81052">
        <ele>174</ele>
        <time>2014-09-07T09:47:29Z</time>
      </trkpt>
      <trkpt lat="45.7729" lon="4.81038">
        <ele>175</ele>
        <time>2014-09-07T09:47:31Z</time>
      </trkpt>
      <trkpt lat="45.77312" lon="4.81012">
        <ele>175</ele>
        <time>2014-09-07T09:47:35Z</time>
      </trkpt>
      <trkpt lat="45.77323" lon="4.80998">
        <ele>177</ele>
        <time>2014-09-07T09:47:37Z</time>
      </trkpt>
      <trkpt lat="45.77343" lon="4.80974">
        <ele>173</ele>
        <time>2014-09-07T09:47:41Z</time>
      </trkpt>
      <trkpt lat="45.77348" lon="4.80968">
        <ele>173</ele>
        <time>2014-09-07T09:47:42Z</time>
      </trkpt>
      <trkpt lat="45.77376" lon="4.8094">
        <ele>172</ele>
        <time>2014-09-07T09:47:47Z</time>
      </trkpt>
      <trkpt lat="45.77387" lon="4.80932">
        <ele>172</ele>
        <time>2014-09-07T09:47:49Z</time>
      </trkpt>
      <trkpt lat="45.7741" lon="4.80916">
        <ele>173</ele>
        <time>2014-09-07T09:47:53Z</time>
      </trkpt>
      <trkpt lat="45.77443" lon="4.80889">
        <ele>171</ele>
        <time>2014-09-07T09:47:58Z</time>
      </trkpt>
      <trkpt lat="45.77478" lon="4.80862">
        <ele>171</ele>
        <time>2014-09-07T09:48:04Z</time>
      </trkpt>
      <trkpt lat="45.77489" lon="4.80857">
        <ele>171</ele>
        <time>2014-09-07T09:48:07Z</time>
      </trkpt>
      <trkpt lat="45.77492" lon="4.80857">
        <ele>171</ele>
        <time>2014-09-07T09:48:10Z</time>
      </trkpt>
      <trkpt lat="45.77497" lon="4.80864">
        <ele>170</ele>
        <time>2014-09-07T09:48:41Z</time>
      </trkpt>
      <trkpt lat="45.77511" lon="4.80855">
        <ele>169</ele>
        <time>2014-09-07T09:48:45Z</time>
      </trkpt>
      <trkpt lat="45.77525" lon="4.80842">
        <ele>169</ele>
        <time>2014-09-07T09:48:48Z</time>
      </trkpt>
      <trkpt lat="45.77531" lon="4.80839">
        <ele>169</ele>
        <time>2014-09-07T09:48:49Z</time>
      </trkpt>
      <trkpt lat="45.77544" lon="4.80834">
        <ele>169</ele>
        <time>2014-09-07T09:48:51Z</time>
      </trkpt>
      <trkpt lat="45.7757" lon="4.80823">
        <ele>172</ele>
        <time>2014-09-07T09:48:55Z</time>
      </trkpt>
      <trkpt lat="45.77583" lon="4.80818">
        <ele>172</ele>
        <time>2014-09-07T09:48:57Z</time>
      </trkpt>
      <trkpt lat="45.7762" lon="4.808">
        <ele>170</ele>
        <time>2014-09-07T09:49:03Z</time>
      </trkpt>
      <trkpt lat="45.77626" lon="4.80798">
        <ele>170</ele>
        <time>2014-09-07T09:49:04Z</time>
      </trkpt>
      <trkpt lat="45.77656" lon="4.80785">
        <ele>169</ele>
        <time>2014-09-07T09:49:09Z</time>
      </trkpt>
      <trkpt lat="45.77668" lon="4.80781">
        <ele>169</ele>
        <time>2014-09-07T09:49:11Z</time>
      </trkpt>
      <trkpt lat="45.77691" lon="4.80773">
        <ele>169</ele>
        <time>2014-09-07T09:49:15Z</time>
      </trkpt>
      <trkpt lat="45.77702" lon="4.80774">
        <ele>169</ele>
        <time>2014-09-07T09:49:17Z</time>
      </trkpt>
      <trkpt lat="45.77718" lon="4.80773">
        <ele>169</ele>
        <time>2014-09-07T09:49:20Z</time>
      </trkpt>
      <trkpt lat="45.77729" lon="4.80771">
        <ele>169</ele>
        <time>2014-09-07T09:49:22Z</time>
      </trkpt>
      <trkpt lat="45.77734" lon="4.80771">
        <ele>169</ele>
        <time>2014-09-07T09:49:23Z</time>
      </trkpt>
      <trkpt lat="45.77739" lon="4.80772">
        <ele>169</ele>
        <time>2014-09-07T09:49:24Z</time>
      </trkpt>
      <trkpt lat="45.77757" lon="4.80777">
        <ele>170</ele>
        <time>2014-09-07T09:49:27Z</time>
      </trkpt>
      <trkpt lat="45.7777" lon="4.80779">
        <ele>170</ele>
        <time>2014-09-07T09:49:29Z</time>
      </trkpt>
      <trkpt lat="45.77776" lon="4.80781">
        <ele>170</ele>
        <time>2014-09-07T09:49:30Z</time>
      </trkpt>
      <trkpt lat="45.77789" lon="4.80787">
        <ele>169</ele>
        <time>2014-09-07T09:49:32Z</time>
      </trkpt>
      <trkpt lat="45.77808" lon="4.80791">
        <ele>169</ele>
        <time>2014-09-07T09:49:35Z</time>
      </trkpt>
      <trkpt lat="45.7782" lon="4.80795">
        <ele>169</ele>
        <time>2014-09-07T09:49:37Z</time>
      </trkpt>
      <trkpt lat="45.77836" lon="4.80795">
        <ele>171</ele>
        <time>2014-09-07T09:49:40Z</time>
      </trkpt>
      <trkpt lat="45.77846" lon="4.80798">
        <ele>171</ele>
        <time>2014-09-07T09:49:42Z</time>
      </trkpt>
      <trkpt lat="45.77855" lon="4.808">
        <ele>171</ele>
        <time>2014-09-07T09:49:46Z</time>
      </trkpt>
      <trkpt lat="45.77868" lon="4.80807">
        <ele>171</ele>
        <time>2014-09-07T09:49:50Z</time>
      </trkpt>
      <trkpt lat="45.77875" lon="4.80814">
        <ele>172</ele>
        <time>2014-09-07T09:49:52Z</time>
      </trkpt>
      <trkpt lat="45.77879" lon="4.80816">
        <ele>172</ele>
        <time>2014-09-07T09:49:53Z</time>
      </trkpt>
      <trkpt lat="45.77889" lon="4.80822">
        <ele>172</ele>
        <time>2014-09-07T09:49:55Z</time>
      </trkpt>
      <trkpt lat="45.77915" lon="4.80834">
        <ele>173</ele>
        <time>2014-09-07T09:50:00Z</time>
      </trkpt>
      <trkpt lat="45.77926" lon="4.8084">
        <ele>173</ele>
        <time>2014-09-07T09:50:02Z</time>
      </trkpt>
      <trkpt lat="45.77948" lon="4.80859">
        <ele>173</ele>
        <time>2014-09-07T09:50:07Z</time>
      </trkpt>
      <trkpt lat="45.77961" lon="4.80867">
        <ele>173</ele>
        <time>2014-09-07T09:50:10Z</time>
      </trkpt>
      <trkpt lat="45.77982" lon="4.8088">
        <ele>173</ele>
        <time>2014-09-07T09:50:15Z</time>
      </trkpt>
      <trkpt lat="45.77989" lon="4.80879">
        <ele>174</ele>
        <time>2014-09-07T09:50:18Z</time>
      </trkpt>
      <trkpt lat="45.7799" lon="4.80876">
        <ele>174</ele>
        <time>2014-09-07T09:50:19Z</time>
      </trkpt>
      <trkpt lat="45.77998" lon="4.80879">
        <ele>174</ele>
        <time>2014-09-07T09:50:22Z</time>
      </trkpt>
      <trkpt lat="45.78011" lon="4.80886">
        <ele>174</ele>
        <time>2014-09-07T09:50:25Z</time>
      </trkpt>
      <trkpt lat="45.78017" lon="4.80889">
        <ele>174</ele>
        <time>2014-09-07T09:50:26Z</time>
      </trkpt>
      <trkpt lat="45.78045" lon="4.80904">
        <ele>173</ele>
        <time>2014-09-07T09:50:33Z</time>
      </trkpt>
      <trkpt lat="45.78051" lon="4.80907">
        <ele>172</ele>
        <time>2014-09-07T09:50:35Z</time>
      </trkpt>
      <trkpt lat="45.78057" lon="4.8091">
        <ele>172</ele>
        <time>2014-09-07T09:50:37Z</time>
      </trkpt>
      <trkpt lat="45.78059" lon="4.80914">
        <ele>172</ele>
        <time>2014-09-07T09:50:38Z</time>
      </trkpt>
      <trkpt lat="45.7807" lon="4.80924">
        <ele>170</ele>
        <time>2014-09-07T09:50:41Z</time>
      </trkpt>
      <trkpt lat="45.78074" lon="4.80928">
        <ele>170</ele>
        <time>2014-09-07T09:50:42Z</time>
      </trkpt>
      <trkpt lat="45.78085" lon="4.80937">
        <ele>168</ele>
        <time>2014-09-07T09:50:44Z</time>
      </trkpt>
      <trkpt lat="45.78103" lon="4.80953">
        <ele>167</ele>
        <time>2014-09-07T09:50:47Z</time>
      </trkpt>
      <trkpt lat="45.78115" lon="4.80965">
        <ele>167</ele>
        <time>2014-09-07T09:50:49Z</time>
      </trkpt>
      <trkpt lat="45.78147" lon="4.80994">
        <ele>166</ele>
        <time>2014-09-07T09:50:54Z</time>
      </trkpt>
      <trkpt lat="45.78166" lon="4.81009">
        <ele>165</ele>
        <time>2014-09-07T09:50:57Z</time>
      </trkpt>
      <trkpt lat="45.78179" lon="4.81019">
        <ele>166</ele>
        <time>2014-09-07T09:50:59Z</time>
      </trkpt>
      <trkpt lat="45.78215" lon="4.81049">
        <ele>168</ele>
        <time>2014-09-07T09:51:05Z</time>
      </trkpt>
      <trkpt lat="45.78226" lon="4.81059">
        <ele>168</ele>
        <time>2014-09-07T09:51:07Z</time>
      </trkpt>
      <trkpt lat="45.7825" lon="4.81079">
        <ele>171</ele>
        <time>2014-09-07T09:51:11Z</time>
      </trkpt>
      <trkpt lat="45.78279" lon="4.81102">
        <ele>172</ele>
        <time>2014-09-07T09:51:16Z</time>
      </trkpt>
      <trkpt lat="45.78284" lon="4.81107">
        <ele>172</ele>
        <time>2014-09-07T09:51:17Z</time>
      </trkpt>
      <trkpt lat="45.78319" lon="4.81134">
        <ele>173</ele>
        <time>2014-09-07T09:51:23Z</time>
      </trkpt>
      <trkpt lat="45.78326" lon="4.81138">
        <ele>173</ele>
        <time>2014-09-07T09:51:24Z</time>
      </trkpt>
      <trkpt lat="45.78357" lon="4.81165">
        <ele>175</ele>
        <time>2014-09-07T09:51:29Z</time>
      </trkpt>
      <trkpt lat="45.78363" lon="4.8117">
        <ele>173</ele>
        <time>2014-09-07T09:51:30Z</time>
      </trkpt>
      <trkpt lat="45.78392" lon="4.81194">
        <ele>172</ele>
        <time>2014-09-07T09:51:35Z</time>
      </trkpt>
      <trkpt lat="45.78404" lon="4.81204">
        <ele>172</ele>
        <time>2014-09-07T09:51:37Z</time>
      </trkpt>
      <trkpt lat="45.78427" lon="4.81224">
        <ele>172</ele>
        <time>2014-09-07T09:51:41Z</time>
      </trkpt>
      <trkpt lat="45.78451" lon="4.81243">
        <ele>172</ele>
        <time>2014-09-07T09:51:45Z</time>
      </trkpt>
      <trkpt lat="45.78462" lon="4.81253">
        <ele>169</ele>
        <time>2014-09-07T09:51:47Z</time>
      </trkpt>
      <trkpt lat="45.78495" lon="4.81281">
        <ele>168</ele>
        <time>2014-09-07T09:51:53Z</time>
      </trkpt>
      <trkpt lat="45.78501" lon="4.81286">
        <ele>168</ele>
        <time>2014-09-07T09:51:54Z</time>
      </trkpt>
      <trkpt lat="45.7853" lon="4.81308">
        <ele>168</ele>
        <time>2014-09-07T09:51:59Z</time>
      </trkpt>
      <trkpt lat="45.78542" lon="4.81316">
        <ele>168</ele>
        <time>2014-09-07T09:52:01Z</time>
      </trkpt>
      <trkpt lat="45.78568" lon="4.81333">
        <ele>168</ele>
        <time>2014-09-07T09:52:05Z</time>
      </trkpt>
      <trkpt lat="45.7858" lon="4.81341">
        <ele>167</ele>
        <time>2014-09-07T09:52:07Z</time>
      </trkpt>
      <trkpt lat="45.78603" lon="4.81356">
        <ele>168</ele>
        <time>2014-09-07T09:52:11Z</time>
      </trkpt>
      <trkpt lat="45.78617" lon="4.81364">
        <ele>168</ele>
        <time>2014-09-07T09:52:13Z</time>
      </trkpt>
      <trkpt lat="45.78642" lon="4.81379">
        <ele>168</ele>
        <time>2014-09-07T09:52:17Z</time>
      </trkpt>
      <trkpt lat="45.78654" lon="4.81386">
        <ele>169</ele>
        <time>2014-09-07T09:52:19Z</time>
      </trkpt>
      <trkpt lat="45.78676" lon="4.81402">
        <ele>170</ele>
        <time>2014-09-07T09:52:23Z</time>
      </trkpt>
      <trkpt lat="45.78688" lon="4.81409">
        <ele>170</ele>
        <time>2014-09-07T09:52:25Z</time>
      </trkpt>
      <trkpt lat="45.7871" lon="4.81425">
        <ele>171</ele>
        <time>2014-09-07T09:52:29Z</time>
      </trkpt>
      <trkpt lat="45.78716" lon="4.81428">
        <ele>171</ele>
        <time>2014-09-07T09:52:30Z</time>
      </trkpt>
      <trkpt lat="45.78727" lon="4.81435">
        <ele>171</ele>
        <time>2014-09-07T09:52:32Z</time>
      </trkpt>
      <trkpt lat="45.78738" lon="4.81446">
        <ele>171</ele>
        <time>2014-09-07T09:52:34Z</time>
      </trkpt>
      <trkpt lat="45.78744" lon="4.81451">
        <ele>171</ele>
        <time>2014-09-07T09:52:35Z</time>
      </trkpt>
      <trkpt lat="45.78781" lon="4.8148">
        <ele>172</ele>
        <time>2014-09-07T09:52:41Z</time>
      </trkpt>
      <trkpt lat="45.78816" lon="4.81511">
        <ele>171</ele>
        <time>2014-09-07T09:52:47Z</time>
      </trkpt>
      <trkpt lat="45.78848" lon="4.81544">
        <ele>171</ele>
        <time>2014-09-07T09:52:53Z</time>
      </trkpt>
      <trkpt lat="45.78854" lon="4.81549">
        <ele>172</ele>
        <time>2014-09-07T09:52:54Z</time>
      </trkpt>
      <trkpt lat="45.78881" lon="4.81577">
        <ele>171</ele>
        <time>2014-09-07T09:52:59Z</time>
      </trkpt>
      <trkpt lat="45.78891" lon="4.81589">
        <ele>170</ele>
        <time>2014-09-07T09:53:01Z</time>
      </trkpt>
      <trkpt lat="45.78911" lon="4.81613">
        <ele>170</ele>
        <time>2014-09-07T09:53:05Z</time>
      </trkpt>
      <trkpt lat="45.78925" lon="4.81631">
        <ele>170</ele>
        <time>2014-09-07T09:53:08Z</time>
      </trkpt>
      <trkpt lat="45.78939" lon="4.81649">
        <ele>170</ele>
        <time>2014-09-07T09:53:11Z</time>
      </trkpt>
      <trkpt lat="45.78958" lon="4.81674">
        <ele>169</ele>
        <time>2014-09-07T09:53:15Z</time>
      </trkpt>
      <trkpt lat="45.78967" lon="4.81687">
        <ele>169</ele>
        <time>2014-09-07T09:53:17Z</time>
      </trkpt>
      <trkpt lat="45.78988" lon="4.81715">
        <ele>168</ele>
        <time>2014-09-07T09:53:21Z</time>
      </trkpt>
      <trkpt lat="45.78997" lon="4.81729">
        <ele>169</ele>
        <time>2014-09-07T09:53:23Z</time>
      </trkpt>
      <trkpt lat="45.79018" lon="4.81761">
        <ele>168</ele>
        <time>2014-09-07T09:53:28Z</time>
      </trkpt>
      <trkpt lat="45.79022" lon="4.81767">
        <ele>168</ele>
        <time>2014-09-07T09:53:29Z</time>
      </trkpt>
      <trkpt lat="45.79046" lon="4.81799">
        <ele>167</ele>
        <time>2014-09-07T09:53:34Z</time>
      </trkpt>
      <trkpt lat="45.79051" lon="4.81807">
        <ele>167</ele>
        <time>2014-09-07T09:53:35Z</time>
      </trkpt>
      <trkpt lat="45.79079" lon="4.81846">
        <ele>167</ele>
        <time>2014-09-07T09:53:40Z</time>
      </trkpt>
      <trkpt lat="45.79107" lon="4.81882">
        <ele>168</ele>
        <time>2014-09-07T09:53:45Z</time>
      </trkpt>
      <trkpt lat="45.7913" lon="4.81914">
        <ele>169</ele>
        <time>2014-09-07T09:53:49Z</time>
      </trkpt>
      <trkpt lat="45.79136" lon="4.81922">
        <ele>168</ele>
        <time>2014-09-07T09:53:50Z</time>
      </trkpt>
      <trkpt lat="45.79166" lon="4.81961">
        <ele>167</ele>
        <time>2014-09-07T09:53:55Z</time>
      </trkpt>
      <trkpt lat="45.79184" lon="4.81983">
        <ele>168</ele>
        <time>2014-09-07T09:53:58Z</time>
      </trkpt>
      <trkpt lat="45.79196" lon="4.81998">
        <ele>168</ele>
        <time>2014-09-07T09:54:00Z</time>
      </trkpt>
      <trkpt lat="45.79222" lon="4.82028">
        <ele>167</ele>
        <time>2014-09-07T09:54:04Z</time>
      </trkpt>
      <trkpt lat="45.79228" lon="4.82037">
        <ele>167</ele>
        <time>2014-09-07T09:54:05Z</time>
      </trkpt>
      <trkpt lat="45.79259" lon="4.82077">
        <ele>167</ele>
        <time>2014-09-07T09:54:10Z</time>
      </trkpt>
      <trkpt lat="45.79288" lon="4.82113">
        <ele>168</ele>
        <time>2014-09-07T09:54:15Z</time>
      </trkpt>
      <trkpt lat="45.79299" lon="4.82126">
        <ele>169</ele>
        <time>2014-09-07T09:54:17Z</time>
      </trkpt>
      <trkpt lat="45.7932" lon="4.82152">
        <ele>169</ele>
        <time>2014-09-07T09:54:21Z</time>
      </trkpt>
      <trkpt lat="45.79336" lon="4.82171">
        <ele>170</ele>
        <time>2014-09-07T09:54:24Z</time>
      </trkpt>
      <trkpt lat="45.7935" lon="4.82192">
        <ele>171</ele>
        <time>2014-09-07T09:54:27Z</time>
      </trkpt>
      <trkpt lat="45.79377" lon="4.82234">
        <ele>171</ele>
        <time>2014-09-07T09:54:33Z</time>
      </trkpt>
      <trkpt lat="45.79401" lon="4.82282">
        <ele>169</ele>
        <time>2014-09-07T09:54:39Z</time>
      </trkpt>
      <trkpt lat="45.79425" lon="4.8233">
        <ele>167</ele>
        <time>2014-09-07T09:54:45Z</time>
      </trkpt>
      <trkpt lat="45.79448" lon="4.82377">
        <ele>168</ele>
        <time>2014-09-07T09:54:51Z</time>
      </trkpt>
      <trkpt lat="45.79452" lon="4.82385">
        <ele>168</ele>
        <time>2014-09-07T09:54:52Z</time>
      </trkpt>
      <trkpt lat="45.79463" lon="4.82408">
        <ele>168</ele>
        <time>2014-09-07T09:54:55Z</time>
      </trkpt>
      <trkpt lat="45.79472" lon="4.82423">
        <ele>167</ele>
        <time>2014-09-07T09:54:57Z</time>
      </trkpt>
      <trkpt lat="45.79491" lon="4.82459">
        <ele>167</ele>
        <time>2014-09-07T09:55:02Z</time>
      </trkpt>
      <trkpt lat="45.79494" lon="4.82466">
        <ele>166</ele>
        <time>2014-09-07T09:55:03Z</time>
      </trkpt>
      <trkpt lat="45.79507" lon="4.8249">
        <ele>167</ele>
        <time>2014-09-07T09:55:06Z</time>
      </trkpt>
      <trkpt lat="45.7952" lon="4.82512">
        <ele>167</ele>
        <time>2014-09-07T09:55:09Z</time>
      </trkpt>
      <trkpt lat="45.7954" lon="4.8255">
        <ele>168</ele>
        <time>2014-09-07T09:55:14Z</time>
      </trkpt>
      <trkpt lat="45.79545" lon="4.82557">
        <ele>168</ele>
        <time>2014-09-07T09:55:15Z</time>
      </trkpt>
      <trkpt lat="45.79569" lon="4.82604">
        <ele>168</ele>
        <time>2014-09-07T09:55:21Z</time>
      </trkpt>
      <trkpt lat="45.79573" lon="4.82611">
        <ele>168</ele>
        <time>2014-09-07T09:55:22Z</time>
      </trkpt>
      <trkpt lat="45.79594" lon="4.82651">
        <ele>167</ele>
        <time>2014-09-07T09:55:27Z</time>
      </trkpt>
      <trkpt lat="45.79613" lon="4.82689">
        <ele>167</ele>
        <time>2014-09-07T09:55:32Z</time>
      </trkpt>
      <trkpt lat="45.79617" lon="4.82697">
        <ele>167</ele>
        <time>2014-09-07T09:55:33Z</time>
      </trkpt>
      <trkpt lat="45.7964" lon="4.8274">
        <ele>167</ele>
        <time>2014-09-07T09:55:39Z</time>
      </trkpt>
      <trkpt lat="45.79664" lon="4.82783">
        <ele>166</ele>
        <time>2014-09-07T09:55:45Z</time>
      </trkpt>
      <trkpt lat="45.79671" lon="4.82797">
        <ele>167</ele>
        <time>2014-09-07T09:55:47Z</time>
      </trkpt>
      <trkpt lat="45.79688" lon="4.82832">
        <ele>167</ele>
        <time>2014-09-07T09:55:52Z</time>
      </trkpt>
      <trkpt lat="45.79691" lon="4.82839">
        <ele>167</ele>
        <time>2014-09-07T09:55:53Z</time>
      </trkpt>
      <trkpt lat="45.79709" lon="4.82876">
        <ele>168</ele>
        <time>2014-09-07T09:55:58Z</time>
      </trkpt>
      <trkpt lat="45.79713" lon="4.82884">
        <ele>168</ele>
        <time>2014-09-07T09:55:59Z</time>
      </trkpt>
      <trkpt lat="45.79731" lon="4.82919">
        <ele>169</ele>
        <time>2014-09-07T09:56:04Z</time>
      </trkpt>
      <trkpt lat="45.79735" lon="4.82926">
        <ele>169</ele>
        <time>2014-09-07T09:56:05Z</time>
      </trkpt>
      <trkpt lat="45.79747" lon="4.82946">
        <ele>168</ele>
        <time>2014-09-07T09:56:08Z</time>
      </trkpt>
      <trkpt lat="45.79756" lon="4.82956">
        <ele>171</ele>
        <time>2014-09-07T09:56:10Z</time>
      </trkpt>
      <trkpt lat="45.79759" lon="4.82962">
        <ele>171</ele>
        <time>2014-09-07T09:56:11Z</time>
      </trkpt>
      <trkpt lat="45.79766" lon="4.82973">
        <ele>170</ele>
        <time>2014-09-07T09:56:13Z</time>
      </trkpt>
      <trkpt lat="45.79773" lon="4.82985">
        <ele>170</ele>
        <time>2014-09-07T09:56:15Z</time>
      </trkpt>
      <trkpt lat="45.79784" lon="4.83007">
        <ele>169</ele>
        <time>2014-09-07T09:56:19Z</time>
      </trkpt>
      <trkpt lat="45.79788" lon="4.83018">
        <ele>169</ele>
        <time>2014-09-07T09:56:21Z</time>
      </trkpt>
      <trkpt lat="45.79794" lon="4.83026">
        <ele>170</ele>
        <time>2014-09-07T09:56:24Z</time>
      </trkpt>
      <trkpt lat="45.79796" lon="4.83028">
        <ele>170</ele>
        <time>2014-09-07T09:56:29Z</time>
      </trkpt>
      <trkpt lat="45.79799" lon="4.8303">
        <ele>170</ele>
        <time>2014-09-07T09:56:36Z</time>
      </trkpt>
      <trkpt lat="45.79801" lon="4.83028">
        <ele>170</ele>
        <time>2014-09-07T09:56:37Z</time>
      </trkpt>
      <trkpt lat="45.79809" lon="4.83018">
        <ele>171</ele>
        <time>2014-09-07T09:56:40Z</time>
      </trkpt>
      <trkpt lat="45.79812" lon="4.83015">
        <ele>171</ele>
        <time>2014-09-07T09:56:41Z</time>
      </trkpt>
      <trkpt lat="45.79824" lon="4.83017">
        <ele>172</ele>
        <time>2014-09-07T09:56:44Z</time>
      </trkpt>
      <trkpt lat="45.79831" lon="4.83025">
        <ele>172</ele>
        <time>2014-09-07T09:56:46Z</time>
      </trkpt>
      <trkpt lat="45.79839" lon="4.83034">
        <ele>179</ele>
        <time>2014-09-07T09:56:48Z</time>
      </trkpt>
      <trkpt lat="45.79843" lon="4.83039">
        <ele>180</ele>
        <time>2014-09-07T09:56:49Z</time>
      </trkpt>
      <trkpt lat="45.7985" lon="4.83052">
        <ele>180</ele>
        <time>2014-09-07T09:56:51Z</time>
      </trkpt>
      <trkpt lat="45.79856" lon="4.83068">
        <ele>179</ele>
        <time>2014-09-07T09:56:53Z</time>
      </trkpt>
      <trkpt lat="45.79861" lon="4.83083">
        <ele>179</ele>
        <time>2014-09-07T09:56:55Z</time>
      </trkpt>
      <trkpt lat="45.79871" lon="4.83114">
        <ele>177</ele>
        <time>2014-09-07T09:56:59Z</time>
      </trkpt>
      <trkpt lat="45.79882" lon="4.83136">
        <ele>177</ele>
        <time>2014-09-07T09:57:02Z</time>
      </trkpt>
      <trkpt lat="45.7989" lon="4.83158">
        <ele>177</ele>
        <time>2014-09-07T09:57:05Z</time>
      </trkpt>
      <trkpt lat="45.79897" lon="4.83171">
        <ele>176</ele>
        <time>2014-09-07T09:57:07Z</time>
      </trkpt>
      <trkpt lat="45.799" lon="4.83184">
        <ele>175</ele>
        <time>2014-09-07T09:57:09Z</time>
      </trkpt>
      <trkpt lat="45.79898" lon="4.83199">
        <ele>174</ele>
        <time>2014-09-07T09:57:11Z</time>
      </trkpt>
      <trkpt lat="45.79907" lon="4.83211">
        <ele>174</ele>
        <time>2014-09-07T09:57:14Z</time>
      </trkpt>
      <trkpt lat="45.79912" lon="4.83215">
        <ele>174</ele>
        <time>2014-09-07T09:57:15Z</time>
      </trkpt>
      <trkpt lat="45.79914" lon="4.8322">
        <ele>174</ele>
        <time>2014-09-07T09:57:16Z</time>
      </trkpt>
      <trkpt lat="45.79919" lon="4.83232">
        <ele>180</ele>
        <time>2014-09-07T09:57:18Z</time>
      </trkpt>
      <trkpt lat="45.79923" lon="4.83237">
        <ele>180</ele>
        <time>2014-09-07T09:57:19Z</time>
      </trkpt>
      <trkpt lat="45.7993" lon="4.83248">
        <ele>180</ele>
        <time>2014-09-07T09:57:21Z</time>
      </trkpt>
      <trkpt lat="45.79937" lon="4.83267">
        <ele>178</ele>
        <time>2014-09-07T09:57:24Z</time>
      </trkpt>
      <trkpt lat="45.7994" lon="4.83281">
        <ele>178</ele>
        <time>2014-09-07T09:57:26Z</time>
      </trkpt>
      <trkpt lat="45.79945" lon="4.83293">
        <ele>178</ele>
        <time>2014-09-07T09:57:28Z</time>
      </trkpt>
      <trkpt lat="45.79947" lon="4.83298">
        <ele>178</ele>
        <time>2014-09-07T09:57:29Z</time>
      </trkpt>
      <trkpt lat="45.79964" lon="4.83327">
        <ele>179</ele>
        <time>2014-09-07T09:57:35Z</time>
      </trkpt>
      <trkpt lat="45.79968" lon="4.83336">
        <ele>178</ele>
        <time>2014-09-07T09:57:37Z</time>
      </trkpt>
      <trkpt lat="45.79977" lon="4.8336">
        <ele>178</ele>
        <time>2014-09-07T09:57:43Z</time>
      </trkpt>
      <trkpt lat="45.79981" lon="4.83368">
        <ele>178</ele>
        <time>2014-09-07T09:57:47Z</time>
      </trkpt>
      <trkpt lat="45.79983" lon="4.83367">
        <ele>179</ele>
        <time>2014-09-07T09:57:48Z</time>
      </trkpt>
      <trkpt lat="45.7999" lon="4.83358">
        <ele>179</ele>
        <time>2014-09-07T09:57:51Z</time>
      </trkpt>
      <trkpt lat="45.79997" lon="4.83351">
        <ele>179</ele>
        <time>2014-09-07T09:57:56Z</time>
      </trkpt>
      <trkpt lat="45.80004" lon="4.83339">
        <ele>182</ele>
        <time>2014-09-07T09:58:00Z</time>
      </trkpt>
      <trkpt lat="45.80009" lon="4.83332">
        <ele>183</ele>
        <time>2014-09-07T09:58:03Z</time>
      </trkpt>
      <trkpt lat="45.80022" lon="4.83322">
        <ele>186</ele>
        <time>2014-09-07T09:58:10Z</time>
      </trkpt>
      <trkpt lat="45.80024" lon="4.83323">
        <ele>186</ele>
        <time>2014-09-07T09:58:11Z</time>
      </trkpt>
      <trkpt lat="45.8003" lon="4.83332">
        <ele>186</ele>
        <time>2014-09-07T09:58:15Z</time>
      </trkpt>
      <trkpt lat="45.80035" lon="4.83345">
        <ele>186</ele>
        <time>2014-09-07T09:58:20Z</time>
      </trkpt>
      <trkpt lat="45.80036" lon="4.83347">
        <ele>186</ele>
        <time>2014-09-07T09:58:21Z</time>
      </trkpt>
      <trkpt lat="45.8004" lon="4.83353">
        <ele>186</ele>
        <time>2014-09-07T09:58:24Z</time>
      </trkpt>
      <trkpt lat="45.80043" lon="4.83357">
        <ele>186</ele>
        <time>2014-09-07T09:58:27Z</time>
      </trkpt>
      <trkpt lat="45.80053" lon="4.83352">
        <ele>187</ele>
        <time>2014-09-07T09:58:33Z</time>
      </trkpt>
      <trkpt lat="45.80057" lon="4.8335">
        <ele>187</ele>
        <time>2014-09-07T09:58:35Z</time>
      </trkpt>
      <trkpt lat="45.80063" lon="4.83346">
        <ele>187</ele>
        <time>2014-09-07T09:58:39Z</time>
      </trkpt>
      <trkpt lat="45.80068" lon="4.83343">
        <ele>188</ele>
        <time>2014-09-07T09:58:42Z</time>
      </trkpt>
      <trkpt lat="45.80071" lon="4.83339">
        <ele>188</ele>
        <time>2014-09-07T09:58:44Z</time>
      </trkpt>
      <trkpt lat="45.80071" lon="4.83325">
        <ele>189</ele>
        <time>2014-09-07T09:58:48Z</time>
      </trkpt>
      <trkpt lat="45.8007" lon="4.83322">
        <ele>189</ele>
        <time>2014-09-07T09:58:49Z</time>
      </trkpt>
      <trkpt lat="45.80069" lon="4.83304">
        <ele>189</ele>
        <time>2014-09-07T09:58:54Z</time>
      </trkpt>
      <trkpt lat="45.80069" lon="4.83292">
        <ele>190</ele>
        <time>2014-09-07T09:58:57Z</time>
      </trkpt>
      <trkpt lat="45.80073" lon="4.83273">
        <ele>191</ele>
        <time>2014-09-07T09:59:02Z</time>
      </trkpt>
      <trkpt lat="45.80084" lon="4.83244">
        <ele>198</ele>
        <time>2014-09-07T09:59:11Z</time>
      </trkpt>
      <trkpt lat="45.80093" lon="4.8322">
        <ele>204</ele>
        <time>2014-09-07T09:59:19Z</time>
      </trkpt>
      <trkpt lat="45.80098" lon="4.83198">
        <ele>206</ele>
        <time>2014-09-07T09:59:26Z</time>
      </trkpt>
      <trkpt lat="45.80098" lon="4.83196">
        <ele>206</ele>
        <time>2014-09-07T09:59:27Z</time>
      </trkpt>
      <trkpt lat="45.80102" lon="4.83188">
        <ele>206</ele>
        <time>2014-09-07T09:59:31Z</time>
      </trkpt>
      <trkpt lat="45.80104" lon="4.83187">
        <ele>206</ele>
        <time>2014-09-07T09:59:32Z</time>
      </trkpt>
      <trkpt lat="45.80114" lon="4.83182">
        <ele>207</ele>
        <time>2014-09-07T09:59:38Z</time>
      </trkpt>
      <trkpt lat="45.80116" lon="4.83181">
        <ele>207</ele>
        <time>2014-09-07T09:59:39Z</time>
      </trkpt>
      <trkpt lat="45.80117" lon="4.83179">
        <ele>207</ele>
        <time>2014-09-07T09:59:40Z</time>
      </trkpt>
      <trkpt lat="45.80119" lon="4.83167">
        <ele>208</ele>
        <time>2014-09-07T09:59:44Z</time>
      </trkpt>
      <trkpt lat="45.80119" lon="4.8316">
        <ele>213</ele>
        <time>2014-09-07T09:59:46Z</time>
      </trkpt>
      <trkpt lat="45.80118" lon="4.83141">
        <ele>214</ele>
        <time>2014-09-07T09:59:52Z</time>
      </trkpt>
      <trkpt lat="45.80119" lon="4.83122">
        <ele>215</ele>
        <time>2014-09-07T09:59:57Z</time>
      </trkpt>
      <trkpt lat="45.80125" lon="4.83111">
        <ele>216</ele>
        <time>2014-09-07T10:00:01Z</time>
      </trkpt>
      <trkpt lat="45.80127" lon="4.83109">
        <ele>216</ele>
        <time>2014-09-07T10:00:02Z</time>
      </trkpt>
      <trkpt lat="45.80141" lon="4.83104">
        <ele>216</ele>
        <time>2014-09-07T10:00:07Z</time>
      </trkpt>
      <trkpt lat="45.8015" lon="4.83114">
        <ele>215</ele>
        <time>2014-09-07T10:00:11Z</time>
      </trkpt>
      <trkpt lat="45.80154" lon="4.83127">
        <ele>215</ele>
        <time>2014-09-07T10:00:14Z</time>
      </trkpt>
      <trkpt lat="45.80157" lon="4.83134">
        <ele>215</ele>
        <time>2014-09-07T10:00:16Z</time>
      </trkpt>
      <trkpt lat="45.80157" lon="4.83155">
        <ele>214</ele>
        <time>2014-09-07T10:00:22Z</time>
      </trkpt>
      <trkpt lat="45.80155" lon="4.8317">
        <ele>211</ele>
        <time>2014-09-07T10:00:27Z</time>
      </trkpt>
      <trkpt lat="45.80155" lon="4.83173">
        <ele>211</ele>
        <time>2014-09-07T10:00:28Z</time>
      </trkpt>
      <trkpt lat="45.80157" lon="4.83179">
        <ele>211</ele>
        <time>2014-09-07T10:00:30Z</time>
      </trkpt>
      <trkpt lat="45.80159" lon="4.8319">
        <ele>210</ele>
        <time>2014-09-07T10:00:34Z</time>
      </trkpt>
      <trkpt lat="45.80165" lon="4.83214">
        <ele>209</ele>
        <time>2014-09-07T10:00:43Z</time>
      </trkpt>
      <trkpt lat="45.80167" lon="4.8323">
        <ele>215</ele>
        <time>2014-09-07T10:00:49Z</time>
      </trkpt>
      <trkpt lat="45.80168" lon="4.83233">
        <ele>215</ele>
        <time>2014-09-07T10:00:50Z</time>
      </trkpt>
      <trkpt lat="45.80172" lon="4.8325">
        <ele>212</ele>
        <time>2014-09-07T10:00:57Z</time>
      </trkpt>
      <trkpt lat="45.80174" lon="4.83274">
        <ele>212</ele>
        <time>2014-09-07T10:01:05Z</time>
      </trkpt>
      <trkpt lat="45.80176" lon="4.83282">
        <ele>212</ele>
        <time>2014-09-07T10:01:08Z</time>
      </trkpt>
      <trkpt lat="45.80181" lon="4.83287">
        <ele>212</ele>
        <time>2014-09-07T10:01:11Z</time>
      </trkpt>
      <trkpt lat="45.80192" lon="4.83288">
        <ele>213</ele>
        <time>2014-09-07T10:01:17Z</time>
      </trkpt>
      <trkpt lat="45.80207" lon="4.83274">
        <ele>214</ele>
        <time>2014-09-07T10:01:24Z</time>
      </trkpt>
      <trkpt lat="45.80209" lon="4.83272">
        <ele>214</ele>
        <time>2014-09-07T10:01:25Z</time>
      </trkpt>
      <trkpt lat="45.80218" lon="4.8326">
        <ele>215</ele>
        <time>2014-09-07T10:01:30Z</time>
      </trkpt>
      <trkpt lat="45.80228" lon="4.83249">
        <ele>220</ele>
        <time>2014-09-07T10:01:36Z</time>
      </trkpt>
      <trkpt lat="45.80235" lon="4.83236">
        <ele>220</ele>
        <time>2014-09-07T10:01:41Z</time>
      </trkpt>
      <trkpt lat="45.80237" lon="4.83233">
        <ele>220</ele>
        <time>2014-09-07T10:01:42Z</time>
      </trkpt>
      <trkpt lat="45.80245" lon="4.83209">
        <ele>221</ele>
        <time>2014-09-07T10:01:50Z</time>
      </trkpt>
      <trkpt lat="45.80249" lon="4.83188">
        <ele>223</ele>
        <time>2014-09-07T10:01:56Z</time>
      </trkpt>
      <trkpt lat="45.80249" lon="4.83185">
        <ele>224</ele>
        <time>2014-09-07T10:01:57Z</time>
      </trkpt>
      <trkpt lat="45.80252" lon="4.83159">
        <ele>230</ele>
        <time>2014-09-07T10:02:05Z</time>
      </trkpt>
      <trkpt lat="45.80255" lon="4.83153">
        <ele>230</ele>
        <time>2014-09-07T10:02:07Z</time>
      </trkpt>
      <trkpt lat="45.80261" lon="4.83148">
        <ele>231</ele>
        <time>2014-09-07T10:02:10Z</time>
      </trkpt>
      <trkpt lat="45.80262" lon="4.83147">
        <ele>231</ele>
        <time>2014-09-07T10:02:11Z</time>
      </trkpt>
      <trkpt lat="45.80264" lon="4.83146">
        <ele>231</ele>
        <time>2014-09-07T10:02:12Z</time>
      </trkpt>
      <trkpt lat="45.80274" lon="4.8315">
        <ele>231</ele>
        <time>2014-09-07T10:02:17Z</time>
      </trkpt>
      <trkpt lat="45.80287" lon="4.83163">
        <ele>232</ele>
        <time>2014-09-07T10:02:23Z</time>
      </trkpt>
      <trkpt lat="45.80295" lon="4.83171">
        <ele>230</ele>
        <time>2014-09-07T10:02:26Z</time>
      </trkpt>
      <trkpt lat="45.80305" lon="4.83179">
        <ele>231</ele>
        <time>2014-09-07T10:02:29Z</time>
      </trkpt>
      <trkpt lat="45.80324" lon="4.83195">
        <ele>231</ele>
        <time>2014-09-07T10:02:35Z</time>
      </trkpt>
      <trkpt lat="45.80327" lon="4.83197">
        <ele>231</ele>
        <time>2014-09-07T10:02:36Z</time>
      </trkpt>
      <trkpt lat="45.80353" lon="4.83204">
        <ele>234</ele>
        <time>2014-09-07T10:02:42Z</time>
      </trkpt>
      <trkpt lat="45.80357" lon="4.83204">
        <ele>234</ele>
        <time>2014-09-07T10:02:43Z</time>
      </trkpt>
      <trkpt lat="45.80363" lon="4.832">
        <ele>234</ele>
        <time>2014-09-07T10:02:44Z</time>
      </trkpt>
      <trkpt lat="45.80367" lon="4.83196">
        <ele>234</ele>
        <time>2014-09-07T10:02:45Z</time>
      </trkpt>
      <trkpt lat="45.80372" lon="4.8318">
        <ele>235</ele>
        <time>2014-09-07T10:02:48Z</time>
      </trkpt>
      <trkpt lat="45.80373" lon="4.83175">
        <ele>235</ele>
        <time>2014-09-07T10:02:49Z</time>
      </trkpt>
      <trkpt lat="45.8038" lon="4.83155">
        <ele>237</ele>
        <time>2014-09-07T10:02:53Z</time>
      </trkpt>
      <trkpt lat="45.80387" lon="4.83138">
        <ele>237</ele>
        <time>2014-09-07T10:02:57Z</time>
      </trkpt>
      <trkpt lat="45.80395" lon="4.83121">
        <ele>238</ele>
        <time>2014-09-07T10:03:02Z</time>
      </trkpt>
    </trkseg>
  </trk>
</gpx>